# Wetter Temperatur Luftdruck Luftfeuchtigkeit Sichtweite Windgeschwindigkeit Windrichtung Zeit
1 Clear 9 1018 26 16093 3.03 260 09:42 08.04.2020
2 Clouds 9 1016 31 16093 3.35 266 09:20 08.04.2020
3 Clear 10 1017 13 16093 2.1 230 08:58 08.04.2020
4 Clouds 10 1016 31 16093 3.35 266 08:58 08.04.2020
5 Clear 10 1017 13 16093 2.1 230 08:40 08.04.2020
6 Clear 10 1016 16 16093 7.7 300 08:21 08.04.2020
7 Clear 11 1017 12 16093 5.1 260 07:43 08.04.2020
8 Clouds 11 1016 27 16093 2.6 10 07:22 08.04.2020
9 Clouds 12 1016 22 16093 3.1 170 06:33 08.04.2020
10 Clouds 14 1015 27 16093 2.6 200 05:22 08.04.2020
11 Clear 20 1014 9 16093 8.2 290 02:51 08.04.2020
12 Clouds 21 1014 11 16093 5.1 20 02:22 08.04.2020
13 Clouds 21 1014 11 16093 5.1 20 01:56 08.04.2020
14 Clouds 21 1013 11 16093 5.1 30 01:28 08.04.2020
15 Clear 22 1014 7 16093 10.8 280 00:49 08.04.2020
16 Clouds 22 1013 10 16093 4.6 20 00:31 08.04.2020
17 Clouds 22 1014 10 16093 3.1 300 23:57 07.04.2020
18 Clouds 22 1014 10 16093 3.1 300 23:38 07.04.2020
19 Clear 22 1015 8 16093 7.2 310 23:19 07.04.2020
20 Clear 22 1015 8 16093 8.7 280 22:56 07.04.2020
21 Clouds 22 1015 11 16093 1.5 50 22:38 07.04.2020
22 Clouds 21 1015 11 16093 3.6 20 22:18 07.04.2020
23 Clear 21 1015 8 16093 10.3 290 21:42 07.04.2020
24 Clear 21 1016 8 16093 5.1 210 21:22 07.04.2020
25 Clouds 20 1016 11 16093 1.2 202 20:59 07.04.2020
26 Clouds 20 1016 11 16093 1.2 202 20:41 07.04.2020
27 Clouds 20 1016 11 16093 1.2 202 20:21 07.04.2020
28 Clouds 19 1016 12 16093 2.1 170 19:58 07.04.2020
29 Clouds 19 1016 12 16093 2.1 170 19:38 07.04.2020
30 Clear 19 1017 10 16093 7.2 300 19:38 07.04.2020
31 Clear 19 1017 10 16093 7.2 300 19:38 07.04.2020
32 Clouds 19 1016 12 16093 2.1 170 19:20 07.04.2020
33 Clear 18 1017 11 16093 7.7 260 18:58 07.04.2020
34 Clouds 18 1017 14 16093 2.6 190 18:40 07.04.2020
35 Clouds 17 1017 13 16093 3.6 270 18:20 07.04.2020
36 Clouds 16 1016 18 16093 3.6 210 17:47 07.04.2020
37 Clouds 16 1016 18 16093 3.6 210 17:24 07.04.2020
38 Clear 14 1017 12 16093 4.6 250 16:55 07.04.2020
39 Clear 14 1017 12 16093 4.6 250 16:55 07.04.2020
40 Clouds 12 1016 29 16093 4.6 180 16:37 07.04.2020
41 Clouds 11 1016 38 16093 4.1 180 16:19 07.04.2020
42 Clouds 7 1016 25 16093 6.2 230 15:42 07.04.2020
43 Clouds 7 1016 38 16093 4.1 180 15:24 07.04.2020
44 Clear 6 1016 24 16093 2.1 240 14:42 07.04.2020
45 Clear 6 1014 26 16093 3.72 198 14:23 07.04.2020
46 Clear 7 1014 36 16093 5.1 180 13:57 07.04.2020
47 Clear 7 1014 36 16093 5.1 180 13:39 07.04.2020
48 Clear 7 1014 36 16093 5.1 180 13:19 07.04.2020
49 Clear 7 1014 38 16093 4.6 180 12:56 07.04.2020
50 Clear 7 1014 38 16093 4.6 180 12:37 07.04.2020
51 Clear 7 1014 38 16093 4.6 180 12:18 07.04.2020
52 Clear 7 1015 38 16093 3.53 200 11:44 07.04.2020
53 Clouds 7 1014 31 16093 2.1 180 11:26 07.04.2020
54 Clouds 8 1014 31 16093 2.1 180 10:59 07.04.2020
55 Clear 8 1014 38 16093 4.1 200 10:38 07.04.2020
56 Clouds 8 1014 31 16093 6.2 200 10:19 07.04.2020
57 Clear 9 1014 41 16093 2.6 180 09:46 07.04.2020
58 Clouds 9 1014 33 16093 4.6 120 09:20 07.04.2020
59 Clouds 10 1014 33 16093 4.6 120 08:57 07.04.2020
60 Clear 10 1015 45 16093 3.34 229 08:38 07.04.2020
61 Clouds 10 1014 29 16093 3.6 150 08:19 07.04.2020
62 Clear 11 1014 31 16093 3.34 229 07:43 07.04.2020
63 Clouds 11 1013 25 16093 4.1 180 07:25 07.04.2020
64 Clouds 12 1012 30 16093 2.1 240 06:51 07.04.2020
65 Clouds 12 1012 30 16093 2.1 240 06:25 07.04.2020
66 Clear 14 1013 23 16093 1.5 230 05:46 07.04.2020
67 Clouds 14 1012 15 16093 1.5 270 05:22 07.04.2020
68 Clouds 18 1009 18 16093 2.1 350 03:32 07.04.2020
69 Clouds 20 1009 7 16093 6.2 270 02:59 07.04.2020
70 Clouds 21 1009 9 16093 9.8 250 01:58 07.04.2020
71 Clouds 22 1008 9 16093 3.6 290 01:32 07.04.2020
72 Clouds 22 1009 10 16093 2.1 30 00:29 07.04.2020
73 Clear 22 1010 8 16093 4.1 310 23:57 06.04.2020
74 Clouds 22 1009 11 16093 4.6 310 23:38 06.04.2020
75 Clouds 22 1009 10 16093 3.1 190 23:20 06.04.2020
76 Clear 21 1011 9 16093 4.1 120 22:41 06.04.2020
77 Clear 21 1011 9 16093 2.79 234 22:22 06.04.2020
78 Clouds 21 1010 12 16093 6.2 200 21:58 06.04.2020
79 Clouds 21 1011 12 16093 4.6 220 21:40 06.04.2020
80 Clouds 20 1011 13 16093 2.6 0 21:19 06.04.2020
81 Clouds 20 1011 13 16093 2.6 0 21:19 06.04.2020
82 Clouds 20 1011 15 16093 5.1 190 20:56 06.04.2020
83 Clouds 20 1011 15 16093 5.1 190 20:38 06.04.2020
84 Clouds 19 1011 14 16093 7.7 230 20:19 06.04.2020
85 Clear 19 1012 11 16093 4.1 210 19:54 06.04.2020
86 Clouds 19 1011 14 16093 5.1 230 19:36 06.04.2020
87 Clouds 18 1011 14 16093 5.1 230 19:18 06.04.2020
88 Clouds 18 1012 20 16093 5.1 200 18:41 06.04.2020
89 Clouds 18 1012 20 16093 5.1 200 18:41 06.04.2020
90 Clouds 15 1012 20 16093 5.1 200 18:23 06.04.2020
91 Clear 14 1013 24 16093 2.1 160 17:55 06.04.2020
92 Clouds 14 1012 26 16093 6.2 210 17:36 06.04.2020
93 Clear 13 1012 22 16093 6.7 220 17:18 06.04.2020
94 Clear 13 1013 32 16093 3.16 204 17:18 06.04.2020
95 Clear 11 1013 34 16093 1.5 190 16:45 06.04.2020
96 Clouds 9 1012 27 16093 6.2 220 16:27 06.04.2020
97 Clouds 5 1011 48 16093 5.1 180 14:45 06.04.2020
98 Clouds 5 1011 48 16093 5.1 180 14:45 06.04.2020
99 Clouds 5 1011 48 16093 5.1 180 14:45 06.04.2020
100 Clouds 5 1011 48 16093 5.1 180 14:45 06.04.2020
101 Clouds 5 1011 48 16093 5.1 180 14:45 06.04.2020
102 Clouds 5 1010 48 16093 4.6 190 13:44 06.04.2020
103 Clouds 5 1010 48 16093 4.6 190 13:44 06.04.2020
104 Clouds 5 1010 48 16093 4.6 190 13:44 06.04.2020
105 Clouds 5 1010 48 16093 4.6 190 13:44 06.04.2020
106 Clouds 5 1010 48 16093 4.6 190 13:44 06.04.2020
107 Clouds 5 1010 48 16093 4.6 190 13:21 06.04.2020
108 Clouds 5 1010 48 16093 4.6 190 13:21 06.04.2020
109 Clear 5 1010 48 16093 3.22 215 13:21 06.04.2020
110 Clear 5 1010 48 16093 3.22 215 13:21 06.04.2020
111 Clear 5 1010 48 16093 4.6 190 12:26 06.04.2020
112 Clear 5 1010 48 16093 4.6 190 12:26 06.04.2020
113 Clear 6 1010 39 16093 2.6 190 12:01 06.04.2020
114 Clear 6 1011 59 16093 2.38 223 11:40 06.04.2020
115 Clear 6 1011 59 16093 2.38 223 11:39 06.04.2020
116 Clear 6 1011 59 16093 2.38 223 11:38 06.04.2020
117 Clear 6 1011 59 16093 2.38 223 11:38 06.04.2020
118 Clear 6 1011 59 16093 2.38 223 11:38 06.04.2020
119 Clear 6 1011 48 16093 2.38 223 10:52 06.04.2020
120 Clear 6 1010 39 16093 3.1 160 10:52 06.04.2020
121 Clear 6 1010 39 16093 3.1 160 10:52 06.04.2020
122 Clear 6 1010 39 16093 3.1 160 10:52 06.04.2020
123 Clear 6 1010 39 16093 3.1 160 10:52 06.04.2020
124 Clear 7 1010 39 16093 3.6 220 10:23 06.04.2020
125 Clear 7 1010 39 16093 3.6 220 10:23 06.04.2020
126 Clear 7 1010 39 16093 3.6 220 10:23 06.04.2020
127 Clear 7 1010 36 16093 2.6 220 09:53 06.04.2020
128 Clear 7 1010 36 16093 2.6 220 09:53 06.04.2020
129 Clear 7 1011 64 16093 2.1 150 09:52 06.04.2020
130 Clear 7 1010 36 16093 2.6 220 09:52 06.04.2020
131 Clear 7 1010 36 16093 2.6 220 09:52 06.04.2020
132 Clear 7 1010 36 16093 1.5 250 09:24 06.04.2020
133 Clouds 8 1011 42 16093 2.6 260 08:55 06.04.2020
134 Clear 8 1011 60 16093 2.69 239 08:33 06.04.2020
135 Clear 8 1011 60 16093 2.69 239 08:33 06.04.2020
136 Clear 8 1010 42 16093 3.1 260 07:54 06.04.2020
137 Clouds 9 1009 43 16093 2.6 230 07:18 06.04.2020
138 Clouds 9 1009 40 16093 3.1 120 06:25 06.04.2020
139 Clouds 12 1008 34 16093 1.5 160 04:50 06.04.2020
140 Clouds 12 1008 34 16093 1.5 160 04:50 06.04.2020
141 Clouds 16 1007 28 16093 3.1 30 03:27 06.04.2020
142 Clouds 18 1007 23 16093 3.6 360 02:48 06.04.2020
143 Clouds 19 1007 23 16093 5.7 10 01:49 06.04.2020
144 Clear 19 1008 13 16093 2.54 234 00:46 06.04.2020
145 Clouds 20 1005 15 16093 10.8 220 00:25 06.04.2020
146 Clouds 19 1008 15 16093 3.6 260 23:47 05.04.2020
147 Clouds 20 1007 15 16093 6.7 200 23:28 05.04.2020
148 Clouds 20 1006 18 16093 6.7 180 23:28 05.04.2020
149 Clouds 20 1006 18 16093 6.7 180 23:28 05.04.2020
150 Clouds 20 1006 18 16093 6.7 180 23:28 05.04.2020
151 Clouds 20 1006 18 16093 6.7 180 23:28 05.04.2020
152 Clouds 19 1007 15 16093 6.7 200 22:56 05.04.2020
153 Clouds 19 1008 14 16093 2.6 210 22:38 05.04.2020
154 Clouds 19 1008 19 16093 5.1 170 22:18 05.04.2020
155 Clouds 19 1009 14 16093 2.6 60 21:55 05.04.2020
156 Clouds 19 1009 14 16093 2.6 60 21:37 05.04.2020
157 Clouds 14 1008 18 16093 3.1 160 21:18 05.04.2020
158 Clouds 17 1009 17 16093 3.1 240 20:20 05.04.2020
159 Clouds 17 1009 17 16093 3.1 240 20:20 05.04.2020
160 Clouds 17 1009 17 16093 3.1 240 20:20 05.04.2020
161 Clouds 17 1009 20 16093 5.1 190 20:20 05.04.2020
162 Clear 17 1011 18 16093 3.1 140 19:39 05.04.2020
163 Clouds 16 1009 23 16093 4.1 190 19:21 05.04.2020
164 Clear 15 1011 26 16093 1.5 110 18:44 05.04.2020
165 Clouds 11 1010 33 16093 4.6 240 17:58 05.04.2020
166 Clear 10 1012 46 16093 1.62 233 17:39 05.04.2020
167 Clouds 10 1010 37 16093 4.6 210 17:39 05.04.2020
168 Clear 10 1012 46 16093 1.62 233 17:39 05.04.2020
169 Clouds 10 1010 37 16093 4.6 210 17:39 05.04.2020
170 Clouds 9 1011 49 16093 1.62 233 17:20 05.04.2020
171 Clouds 9 1011 49 16093 1.62 233 17:20 05.04.2020
172 Clouds 7 1011 48 16093 3.1 150 16:21 05.04.2020
173 Clouds 7 1011 48 16093 3.1 150 16:21 05.04.2020
174 Clouds 4 1011 48 16093 3.1 150 15:55 05.04.2020
175 Clear 3 1012 26 16093 1.62 233 15:37 05.04.2020
176 Clouds 2 1010 55 16093 1.5 190 15:19 05.04.2020
177 Clouds 2 1010 55 16093 2.1 200 14:47 05.04.2020
178 Clouds 2 1010 55 16093 2.1 200 14:47 05.04.2020
179 Clouds 2 1010 55 16093 1.5 190 14:47 05.04.2020
180 Clear 2 1012 86 16093 2.29 224 14:47 05.04.2020
181 Clear 2 1012 86 16093 2.29 224 14:47 05.04.2020
182 Clear 2 1011 86 16093 2.1 222 13:44 05.04.2020
183 Clouds 3 1009 69 16093 2.6 100 12:54 05.04.2020
184 Clouds 2 1009 64 16093 5.7 180 12:54 05.04.2020
185 Clouds 3 1009 69 16093 2.6 100 12:54 05.04.2020
186 Clouds 3 1009 69 16093 2.6 100 12:54 05.04.2020
187 Clouds 3 1009 69 16093 2.6 100 12:54 05.04.2020
188 Clouds 3 1011 37 16093 2.13 231 11:44 05.04.2020
189 Clouds 3 1009 64 16093 6.7 190 11:21 05.04.2020
190 Clouds 3 1009 60 16093 3.1 190 10:59 05.04.2020
191 Clear 4 1011 80 16093 1.5 180 10:41 05.04.2020
192 Clear 4 1009 60 16093 1.5 230 10:18 05.04.2020
193 Clear 4 1011 69 16093 1.5 220 09:43 05.04.2020
194 Clear 4 1010 56 16093 5.1 150 09:24 05.04.2020
195 Clear 4 1010 56 16093 5.1 150 09:24 05.04.2020
196 Clear 4 1010 56 16093 5.1 150 09:24 05.04.2020
197 Clear 4 1010 65 16093 2.6 200 09:24 05.04.2020
198 Clear 4 1010 56 16093 5.1 150 09:24 05.04.2020
199 Clear 5 1012 74 16093 1.63 264 07:42 05.04.2020
200 Clear 9 1011 39 16093 2.4 182 04:36 05.04.2020
201 Clouds 11 1011 32 16093 2.4 182 03:33 05.04.2020
202 Clouds 13 1009 37 16093 5.1 170 02:52 05.04.2020
203 Clouds 14 1009 30 16093 2.6 140 01:48 05.04.2020
204 Clouds 14 1009 26 16093 3.6 40 01:28 05.04.2020
205 Clouds 14 1009 26 16093 3.6 40 01:28 05.04.2020
206 Clouds 14 1011 17 16093 2.1 170 00:44 05.04.2020
207 Clouds 14 1009 26 16093 4.1 80 00:21 05.04.2020
208 Clouds 14 1009 28 16093 3.6 120 23:55 04.04.2020
209 Clear 14 1011 17 16093 2.1 220 23:37 04.04.2020
210 Clouds 14 1010 22 16093 6.7 120 23:19 04.04.2020
211 Clear 14 1012 21 16093 2.1 200 22:40 04.04.2020
212 Clouds 13 1011 24 16093 1.5 100 22:21 04.04.2020
213 Clouds 13 1011 24 16093 2.6 0 21:59 04.04.2020
214 Clouds 13 1011 24 16093 2.6 0 21:59 04.04.2020
215 Clouds 13 1013 30 16093 3.6 170 21:40 04.04.2020
216 Clouds 10 1011 27 16093 2.6 300 21:19 04.04.2020
217 Clouds 11 1011 27 16093 2.6 300 20:59 04.04.2020
218 Clear 10 1014 34 16093 2.6 160 20:40 04.04.2020
219 Clouds 10 1013 34 16093 2.1 90 20:21 04.04.2020
220 Clouds 9 1013 42 16093 5.1 120 19:57 04.04.2020
221 Clear 8 1015 42 16093 2.18 112 19:37 04.04.2020
222 Clouds 8 1014 42 16093 2.1 110 19:19 04.04.2020
223 Clouds 7 1014 42 16093 2.1 110 18:56 04.04.2020
224 Clear 6 1016 55 16093 2.18 112 18:37 04.04.2020
225 Clouds 4 1014 48 16093 1.5 250 18:19 04.04.2020
226 Clear 3 1016 59 16093 1.5 20 17:41 04.04.2020
227 Clouds 2 1014 51 16093 1.5 0 17:21 04.04.2020
228 Clouds 1 1014 51 16093 1.5 0 16:59 04.04.2020
229 Clouds 1 1016 36 16093 2.6 350 16:41 04.04.2020
230 Clouds 0 1014 36 16093 3.1 240 16:22 04.04.2020
231 Clouds -2 1014 58 16093 0.29 344 15:55 04.04.2020
232 Clear -2 1016 86 16093 0.29 344 15:36 04.04.2020
233 Clouds -3 1013 68 16093 2.1 130 15:18 04.04.2020
234 Clear -4 1016 92 16093 1.5 207 14:42 04.04.2020
235 Clear -4 1013 63 16093 4.6 190 14:22 04.04.2020
236 Clouds -4 1013 63 16093 4.6 160 13:56 04.04.2020
237 Clear -3 1016 92 16093 1.37 215 13:37 04.04.2020
238 Clear -3 1013 53 16093 6.7 160 13:19 04.04.2020
239 Clear -3 1016 92 16093 1.37 215 12:44 04.04.2020
240 Clear -3 1014 50 16093 6.2 170 12:24 04.04.2020
241 Clear -3 1014 86 16093 1.76 284 11:59 04.04.2020
242 Clear -3 1016 92 16093 1.76 284 11:38 04.04.2020
243 Clouds -2 1015 46 16093 9.8 170 11:19 04.04.2020
244 Clear -2 1015 48 16093 2.1 320 10:56 04.04.2020
245 Clear -2 1017 92 16093 1.76 284 10:37 04.04.2020
246 Clouds -2 1015 46 16093 9.8 170 10:19 04.04.2020
247 Clear -2 1015 69 16093 1.76 284 09:54 04.04.2020
248 Clear -1 1017 86 16093 1.76 284 09:36 04.04.2020
249 Clear -1 1017 86 16093 1.76 284 09:36 04.04.2020
250 Clear -1 1015 43 16093 1.1 284 09:18 04.04.2020
251 Clear -1 1018 86 16093 1.1 284 08:41 04.04.2020
252 Clouds 0 1016 59 16093 6.7 150 08:20 04.04.2020
253 Clouds 0 1018 80 16093 1.1 284 07:44 04.04.2020
254 Clouds 1 1016 59 16093 7.2 170 07:26 04.04.2020
255 Clouds 1 1016 55 16093 6.7 170 06:53 04.04.2020
256 Clouds 1 1017 59 16093 3.6 170 06:20 04.04.2020
257 Clouds 2 1018 55 16093 3.31 134 05:42 04.04.2020
258 Clouds 2 1016 55 32767 3.1 160 05:23 04.04.2020
259 Clouds 2 1018 48 16093 2.6 170 04:30 04.04.2020
260 Clouds 2 1016 64 16093 4.1 160 03:49 04.04.2020
261 Clouds 3 1016 55 16093 6.2 170 02:51 04.04.2020
262 Clouds 4 1016 59 16093 5.7 150 02:32 04.04.2020
263 Clouds 4 1016 55 16093 5.7 160 01:53 04.04.2020
264 Clouds 5 1016 55 16093 7.2 150 01:25 04.04.2020
265 Clear 5 1018 30 16093 1.5 170 00:48 04.04.2020
266 Clouds 5 1016 51 16093 6.2 150 00:29 04.04.2020
267 Clouds 5 1019 38 16093 2.6 120 23:40 03.04.2020
268 Clouds 4 1017 44 16093 4.6 160 23:21 03.04.2020
269 Rain 4 1017 44 16093 4.6 160 22:58 03.04.2020
270 Rain 4 1020 38 16093 3.1 150 22:39 03.04.2020
271 Rain 4 1018 44 16093 5.1 170 22:18 03.04.2020
272 Rain 3 1021 51 16093 5.1 140 21:44 03.04.2020
273 Rain 3 1019 59 16093 5.7 140 21:25 03.04.2020
274 Rain 2 1018 47 16093 3.6 130 20:57 03.04.2020
275 Rain 2 1022 69 16093 1.5 150 20:37 03.04.2020
276 Rain 1 1019 55 16093 3.6 130 20:19 03.04.2020
277 Rain 1 1019 55 16093 3.6 130 19:57 03.04.2020
278 Rain 0 1023 86 2012 2.1 100 19:39 03.04.2020
279 Rain -1 1020 79 16093 1.5 90 19:21 03.04.2020
280 Rain -1 1020 79 16093 1.5 90 18:59 03.04.2020
281 Rain -2 1023 85 11265 5.53 139 18:41 03.04.2020
282 Snow -3 1021 85 16093 1.34 141 18:22 03.04.2020
283 Snow -3 1020 74 16093 3.6 170 17:55 03.04.2020
284 Clouds -4 1021 85 16093 1.34 141 17:36 03.04.2020
285 Clouds -4 1020 79 16093 1.34 141 17:18 03.04.2020
286 Clouds -5 1023 85 11265 1.34 141 16:43 03.04.2020
287 Clouds -6 1020 85 16093 1.34 141 16:21 03.04.2020
288 Clouds -6 1020 85 16093 1.34 141 15:58 03.04.2020
289 Clouds -7 1023 85 16093 1.34 141 15:39 03.04.2020
290 Clouds -7 1020 85 16093 1.05 160 15:20 03.04.2020
291 Clouds -7 1023 85 16093 1.05 160 14:55 03.04.2020
292 Clouds -7 1020 92 14484 1.5 180 14:37 03.04.2020
293 Clouds -7 1020 92 14484 1.5 180 14:19 03.04.2020
294 Clouds -7 1020 92 14484 1.5 180 13:42 03.04.2020
295 Clouds -7 1020 92 14484 1.5 180 13:24 03.04.2020
296 Clouds -7 1020 85 12874 2.1 160 12:45 03.04.2020
297 Snow -8 1020 85 9656 1.5 140 12:21 03.04.2020
298 Snow -8 1020 85 9656 1.5 140 11:59 03.04.2020
299 Clouds -8 1023 85 16093 1.5 150 11:40 03.04.2020
300 Clouds -8 1020 92 16093 1.5 120 11:21 03.04.2020
301 Snow -8 1020 78 8047 2.6 110 10:59 03.04.2020
302 Clouds -8 1023 85 16093 3.1 140 10:39 03.04.2020
303 -273 0 0 0 0 0 10:20 03.04.2020
304 Snow -8 1020 78 6437 2.1 120 10:20 03.04.2020
305 Snow -8 1020 78 6437 2.1 120 09:59 03.04.2020
306 Snow -8 1023 92 16093 1.5 80 09:40 03.04.2020
307 Snow -8 1020 78 8047 1.5 60 09:21 03.04.2020
308 Snow -8 1020 78 8047 1.5 60 09:21 03.04.2020
309 Snow -8 1020 78 8047 1.5 60 09:21 03.04.2020
310 Snow -8 1020 78 8047 1.5 60 08:56 03.04.2020
311 Clouds -8 1023 92 16093 2.6 100 08:37 03.04.2020
312 Snow -8 1020 92 9656 1.5 50 08:19 03.04.2020
313 Snow -8 1020 100 9656 2.33 52 07:46 03.04.2020
314 Snow -8 1020 100 9656 2.33 52 07:46 03.04.2020
315 Snow -8 1020 85 6437 3.1 20 07:28 03.04.2020
316 Snow -7 1022 85 16093 2.1 100 06:40 03.04.2020
317 Snow -7 1020 92 4023 2.1 40 06:22 03.04.2020
318 Snow -7 1022 85 16093 2.6 60 05:39 03.04.2020
319 Snow -5 1017 92 16093 2.6 60 03:42 03.04.2020
320 Clouds -4 1019 92 11265 5.7 60 02:55 03.04.2020
321 Snow -3 1016 92 4828 4.95 38 02:18 03.04.2020
322 Snow -3 1015 100 2414 3.1 360 01:20 03.04.2020
323 Snow -3 1015 100 2414 3.1 360 01:20 03.04.2020
324 Snow -3 1015 100 2012 2.6 360 00:34 03.04.2020
325 Snow -4 1015 92 4828 2.1 360 23:58 02.04.2020
326 Snow -4 1016 86 8047 5.65 35 23:39 02.04.2020
327 Snow -4 1016 86 8047 5.65 35 23:39 02.04.2020
328 Snow -4 1016 86 8047 5.65 35 23:39 02.04.2020
329 Mist -4 1013 79 6437 1.5 10 23:21 02.04.2020
330 Clouds -4 1016 86 16093 1.5 100 22:43 02.04.2020
331 Mist -5 1013 85 4023 4.6 20 22:25 02.04.2020
332 Mist -4 1013 85 4023 5.1 360 21:59 02.04.2020
333 Clouds -4 1016 92 16093 1.5 20 21:38 02.04.2020
334 Clouds -4 1016 92 16093 1.5 20 21:38 02.04.2020
335 Mist -4 1014 92 3219 3.1 20 21:19 02.04.2020
336 Snow -4 1013 100 6437 4.1 30 20:57 02.04.2020
337 Snow -4 1013 100 6437 4.1 30 20:38 02.04.2020
338 Mist -4 1013 100 4828 4.1 30 20:19 02.04.2020
339 Clouds -5 1017 92 11265 4.1 30 19:43 02.04.2020
340 Mist -5 1014 100 1609 3.6 40 19:21 02.04.2020
341 Mist -5 1014 100 1609 3.6 40 19:21 02.04.2020
342 Mist -4 1014 100 1609 3.6 40 18:58 02.04.2020
343 Mist -4 1016 92 4828 4.1 40 18:39 02.04.2020
344 Mist -4 1012 92 3219 4.6 20 18:20 02.04.2020
345 Mist -4 1012 92 3219 4.6 20 17:55 02.04.2020
346 Snow -3 1016 92 2414 6.7 30 17:37 02.04.2020
347 Mist -3 1012 100 2414 4.1 40 17:18 02.04.2020
348 Mist -3 1012 86 3219 4.6 40 16:55 02.04.2020
349 Snow -3 1015 92 2414 5.1 60 16:36 02.04.2020
350 Mist -3 1011 100 2012 4.6 40 16:36 02.04.2020
351 Mist -3 1011 92 2012 5.7 30 16:18 02.04.2020
352 Snow -2 1014 92 3219 5.7 40 15:43 02.04.2020
353 Mist -2 1009 92 2414 3.1 40 15:20 02.04.2020
354 Mist -2 1009 92 3219 4.6 40 14:58 02.04.2020
355 Clouds -1 1012 100 3219 4.6 30 14:39 02.04.2020
356 Mist -1 1012 92 4828 4.1 40 14:19 02.04.2020
357 Drizzle -1 1008 45 2414 4.1 60 13:55 02.04.2020
358 Mist -1 1011 100 4828 4.1 40 13:37 02.04.2020
359 Fog 0 1007 45 805 2.6 50 13:19 02.04.2020
360 Mist 0 1011 45 6437 3.1 60 12:46 02.04.2020
361 Mist 0 1008 93 9656 2.6 40 12:20 02.04.2020
362 Mist 0 1008 93 9656 2.6 40 12:20 02.04.2020
363 Mist 1 1008 93 9656 2.6 40 11:58 02.04.2020
364 Mist 1 1011 45 6437 4.1 40 11:39 02.04.2020
365 Mist 1 1011 45 6437 4.1 40 11:39 02.04.2020
366 Clouds 2 1008 86 16093 2.6 50 11:21 02.04.2020
367 Drizzle 2 1008 93 4828 3.6 60 10:57 02.04.2020
368 Drizzle 3 1011 93 6437 4.6 40 10:39 02.04.2020
369 Drizzle 3 1009 93 8047 4.1 30 10:21 02.04.2020
370 Drizzle 3 1009 93 8047 4.1 30 09:59 02.04.2020
371 Drizzle 4 1011 86 6437 3.6 40 09:41 02.04.2020
372 Drizzle 4 1009 93 11265 4.6 50 09:21 02.04.2020
373 Clouds 5 1009 80 16093 4.1 40 08:48 02.04.2020
374 Clouds 5 1009 100 16093 5.7 360 08:28 02.04.2020
375 Clouds 6 1008 93 16093 6.2 350 07:59 02.04.2020
376 Clouds 6 1011 70 16093 6.2 30 07:40 02.04.2020
377 Clouds 6 1008 75 16093 6.7 360 07:19 02.04.2020
378 Clouds 8 1006 81 16093 7.7 10 06:25 02.04.2020
379 Clouds 10 1007 53 16093 10.8 30 05:46 02.04.2020
380 Clouds 11 1004 27 16093 2.6 250 04:58 02.04.2020
381 Clouds 18 1003 21 16093 5.1 110 02:21 02.04.2020
382 Clouds 19 1003 20 16093 5.7 130 01:27 02.04.2020
383 Clouds 19 1004 12 16093 2.1 150 00:41 02.04.2020
384 Clouds 20 1003 16 16093 4.6 140 00:20 02.04.2020
385 Clouds 20 1004 12 16093 3.6 110 23:39 01.04.2020
386 Clouds 19 1004 15 16093 2.1 180 23:19 01.04.2020
387 Clouds 19 1004 15 16093 2.1 180 22:56 01.04.2020
388 Clear 19 1005 12 16093 2.6 140 22:38 01.04.2020
389 Clouds 19 1005 17 16093 4.6 170 22:19 01.04.2020
390 Clear 19 1005 11 16093 1.5 150 21:41 01.04.2020
391 Clouds 18 1005 17 16093 4.1 190 21:19 01.04.2020
392 Clouds 18 1005 17 16093 4.1 190 20:56 01.04.2020
393 Clear 18 1006 12 16093 2.38 216 20:38 01.04.2020
394 Clouds 17 1006 18 16093 6.2 210 20:19 01.04.2020
395 Clouds 17 1006 18 16093 6.2 210 19:57 01.04.2020
396 Clouds 17 1006 18 16093 6.2 210 19:57 01.04.2020
397 Clear 17 1008 20 16093 2.38 216 19:38 01.04.2020
398 Clouds 16 1007 21 16093 4.6 240 19:19 01.04.2020
399 Clouds 15 1007 26 16093 5.7 210 18:42 01.04.2020
400 Clouds 14 1007 26 16093 5.7 210 18:23 01.04.2020
401 Clouds 12 1007 26 16093 5.7 210 17:57 01.04.2020
402 Clear 11 1008 43 16093 2.99 207 17:37 01.04.2020
403 Clouds 10 1008 30 16093 5.7 190 17:19 01.04.2020
404 Clouds 9 1007 49 16093 2.99 207 16:57 01.04.2020
405 Clouds 8 1007 36 16093 6.2 190 16:39 01.04.2020
406 Clouds 7 1008 34 16093 5.1 190 16:20 01.04.2020
407 Clouds 6 1008 34 16093 5.1 190 15:56 01.04.2020
408 Clear 6 1009 69 16093 2.99 207 15:37 01.04.2020
409 Clouds 5 1007 36 16093 5.7 190 15:18 01.04.2020
410 Clear 5 1008 69 16093 3 210 14:40 01.04.2020
411 Clouds 5 1007 48 16093 3.6 180 14:22 01.04.2020
412 Clouds 5 1007 36 16093 5.7 180 13:59 01.04.2020
413 Clear 5 1009 74 16093 3.98 198 13:39 01.04.2020
414 Clouds 5 1008 45 16093 5.7 170 13:20 01.04.2020
415 Clouds 5 1008 45 16093 5.7 170 12:58 01.04.2020
416 Clear 5 1009 69 16093 3.98 198 12:40 01.04.2020
417 Clouds 5 1008 41 16093 5.1 180 12:21 01.04.2020
418 Clouds 6 1008 41 16093 5.1 180 11:56 01.04.2020
419 Clear 6 1010 60 16093 3.05 205 11:37 01.04.2020
420 Clear 6 1008 42 16093 3.6 270 11:18 01.04.2020
421 Clouds 6 1010 48 16093 3.05 205 10:39 01.04.2020
422 Clear 6 1010 52 16093 3.05 205 10:21 01.04.2020
423 Clear 6 1010 39 16093 4.1 270 09:59 01.04.2020
424 Clouds 6 1011 52 16093 3.05 205 09:59 01.04.2020
425 Clouds 6 1011 52 16093 3.05 205 09:40 01.04.2020
426 Clouds 7 1010 39 16093 3.1 280 09:20 01.04.2020
427 Clear 7 1011 48 16093 1.5 210 08:44 01.04.2020
428 Clear 8 1011 29 16093 1.5 160 08:19 01.04.2020
429 Clear 8 1011 29 16093 1.5 160 07:56 01.04.2020
430 Clear 9 1012 31 16093 3.27 249 07:38 01.04.2020
431 Clouds 9 1011 39 16093 2.6 220 07:18 01.04.2020
432 Clouds 9 1012 25 16093 3.6 310 06:39 01.04.2020
433 Clouds 10 1011 45 16093 3.6 120 06:20 01.04.2020
434 Clouds 12 1011 30 16093 2.6 150 04:55 01.04.2020
435 Clear 15 1012 17 16093 6.7 260 03:39 01.04.2020
436 Clouds 17 1011 20 16093 2.6 40 02:59 01.04.2020
437 Clear 17 1012 13 16093 7.2 250 02:31 01.04.2020
438 Clear 18 1012 12 16093 5.1 270 01:46 01.04.2020
439 Clouds 18 1011 17 16093 3.1 340 01:24 01.04.2020
440 Clear 19 1012 12 16093 8.2 270 00:47 01.04.2020
441 Clouds 19 1012 17 16093 2.1 320 00:21 01.04.2020
442 Clouds 19 1012 17 16093 2.1 320 23:54 31.03.2020
443 Clear 18 1013 13 16093 7.7 240 23:36 31.03.2020
444 Clear 18 1013 13 11265 5.1 250 23:18 31.03.2020
445 Clouds 18 1013 20 16093 4.6 130 22:40 31.03.2020
446 Clouds 18 1013 20 16093 4.6 130 22:40 31.03.2020
447 Clear 18 1014 13 16093 7.7 270 22:20 31.03.2020
448 Clouds 18 1014 20 16093 5.7 190 21:57 31.03.2020
449 Clouds 17 1014 20 16093 5.7 190 21:39 31.03.2020
450 Clear 16 1015 17 16093 3.1 280 21:20 31.03.2020
451 Clouds 16 1016 21 16093 3.6 220 20:56 31.03.2020
452 Clouds 16 1016 21 16093 4.6 150 20:37 31.03.2020
453 Clouds 15 1016 21 16093 4.6 150 20:18 31.03.2020
454 Clouds 15 1016 21 16093 4.6 150 19:55 31.03.2020
455 Clouds 15 1016 21 16093 5.1 260 19:36 31.03.2020
456 Clouds 15 1016 22 16093 2.6 170 19:18 31.03.2020
457 Clouds 14 1017 19 16093 4 185 18:41 31.03.2020
458 Clouds 10 1018 20 16093 1.5 170 18:19 31.03.2020
459 Clouds 8 1018 31 16093 6.2 240 17:56 31.03.2020
460 Clouds 9 1018 31 16093 6.2 240 17:37 31.03.2020
461 Clouds 10 1018 31 16093 6.2 240 17:19 31.03.2020
462 Clear 8 1019 56 16093 2.85 213 16:41 31.03.2020
463 Clouds 5 1018 33 16093 2.6 290 16:20 31.03.2020
464 Clouds 4 1018 55 16093 5.1 170 15:58 31.03.2020
465 Clear 3 1019 64 16093 2.85 213 15:40 31.03.2020
466 Clouds 3 1018 47 16093 2.6 120 15:22 31.03.2020
467 Clouds 3 1018 47 16093 2.6 120 14:58 31.03.2020
468 Clear 3 1019 51 16093 1.5 190 14:40 31.03.2020
469 Clear 2 1017 41 16093 2.54 228 14:21 31.03.2020
470 Clear 3 1019 64 16093 2.47 231 13:43 31.03.2020
471 Clouds 3 1018 55 16093 2.6 140 13:20 31.03.2020
472 Clouds 3 1018 55 16093 2.6 140 12:59 31.03.2020
473 Clear 3 1019 64 16093 2.47 231 12:40 31.03.2020
474 Clouds 3 1018 55 16093 3.1 160 12:19 31.03.2020
475 Clouds 3 1018 55 16093 3.1 160 12:19 31.03.2020
476 Clear 3 1019 64 16093 2.1 280 11:41 31.03.2020
477 Clear 3 1018 51 16093 3.1 170 11:21 31.03.2020
478 Clear 3 1018 51 16093 3.1 170 10:59 31.03.2020
479 Clear 3 1019 55 16093 1.5 250 10:41 31.03.2020
480 Clear 3 1018 59 16093 3.6 170 10:22 31.03.2020
481 Clouds 3 1019 64 16093 4.6 190 09:59 31.03.2020
482 Clear 3 1019 34 16093 2.1 160 09:41 31.03.2020
483 Clouds 3 1019 64 16093 4.6 190 09:22 31.03.2020
484 Clouds 3 1019 59 16093 4.1 160 08:57 31.03.2020
485 Clear 4 1020 69 16093 3.62 230 08:38 31.03.2020
486 Clouds 4 1019 59 16093 3.1 180 08:19 31.03.2020
487 Clouds 4 1019 59 16093 3.1 180 08:19 31.03.2020
488 Clouds 4 1019 59 16093 3.1 180 07:56 31.03.2020
489 Clear 4 1020 69 16093 1.5 230 07:38 31.03.2020
490 Clouds 5 1019 64 16093 4.1 170 07:19 31.03.2020
491 Clouds 5 1019 45 16093 3.62 230 06:46 31.03.2020
492 Clouds 5 1019 45 16093 1.95 218 06:20 31.03.2020
493 Clear 6 1020 60 16093 1.95 218 05:39 31.03.2020
494 Clear 9 1019 39 16093 1.95 218 03:34 31.03.2020
495 Clear 11 1017 24 16093 3.1 60 01:59 31.03.2020
496 Clear 11 1017 21 16093 3.31 356 01:40 31.03.2020
497 Clouds 11 1015 30 16093 6.2 340 00:47 31.03.2020
498 Clouds 12 1015 30 16093 6.2 340 00:25 31.03.2020
499 Clouds 12 1017 28 16093 2.6 350 23:42 30.03.2020
500 Clouds 12 1015 32 16093 5.7 360 23:21 30.03.2020
501 Clouds 12 1015 32 16093 5.7 360 22:59 30.03.2020
502 Clouds 12 1017 26 16093 3.6 40 22:41 30.03.2020
503 Clouds 12 1016 32 16093 5.7 20 22:22 30.03.2020
504 Clouds 12 1016 32 16093 5.7 20 21:58 30.03.2020
505 Clouds 12 1017 28 16093 3.1 30 21:39 30.03.2020
506 Clouds 12 1016 29 16093 6.7 10 21:21 30.03.2020
507 Clouds 11 1016 29 16093 6.7 10 20:59 30.03.2020
508 Clear 11 1017 28 16093 4.94 10 20:39 30.03.2020
509 Clouds 11 1016 39 16093 2.1 350 20:21 30.03.2020
510 Clouds 10 1016 39 16093 2.1 350 19:58 30.03.2020
511 Clear 9 1018 31 16093 4.94 10 19:39 30.03.2020
512 Clouds 9 1016 42 16093 4.1 330 19:21 30.03.2020
513 Clouds 8 1016 42 16093 4.1 330 18:56 30.03.2020
514 Clouds 7 1016 42 16093 4.6 340 18:36 30.03.2020
515 Clouds 7 1016 42 16093 4.6 340 18:18 30.03.2020
516 Clouds 6 1016 42 16093 4.6 340 17:55 30.03.2020
517 Clouds 5 1016 45 16093 3.6 320 17:36 30.03.2020
518 Clouds 5 1016 48 16093 3.6 310 17:18 30.03.2020
519 Clear 4 1017 64 16093 2.93 350 16:41 30.03.2020
520 Clouds 3 1015 64 16093 2.6 310 16:21 30.03.2020
521 Clouds 3 1015 64 16093 2.6 310 16:21 30.03.2020
522 Clouds 3 1015 69 16093 2.93 350 15:56 30.03.2020
523 Clear 2 1017 31 16093 2.93 350 15:38 30.03.2020
524 Clear 2 1015 59 16093 1.58 319 15:20 30.03.2020
525 Clear 2 1015 59 16093 1.58 319 14:58 30.03.2020
526 Clear 2 1017 39 16093 1.58 319 14:37 30.03.2020
527 Clouds 2 1014 37 16093 6.7 220 14:19 30.03.2020
528 Clouds 3 1014 80 16093 2.1 190 13:57 30.03.2020
529 Clear 3 1017 74 16093 1.54 298 13:38 30.03.2020
530 Clear 3 1015 59 16093 3.6 360 13:19 30.03.2020
531 Clouds 3 1015 55 16093 6.2 210 12:45 30.03.2020
532 Clouds 3 1015 55 16093 6.2 210 12:21 30.03.2020
533 Clouds 3 1015 55 16093 6.2 210 12:21 30.03.2020
534 Clouds 3 1015 55 16093 6.2 210 11:58 30.03.2020
535 Clouds 3 1017 64 16093 1.59 234 11:40 30.03.2020
536 Clouds 3 1015 59 16093 1.59 234 11:21 30.03.2020
537 Clouds 3 1015 48 16093 2.1 140 10:55 30.03.2020
538 Clouds 3 1017 74 16093 1.59 234 10:36 30.03.2020
539 Clouds 3 1016 59 16093 1.59 234 10:18 30.03.2020
540 Clouds 3 1018 74 16093 1.59 234 09:40 30.03.2020
541 Clouds 3 1016 55 16093 3.1 300 09:19 30.03.2020
542 Clear 3 1016 55 16093 1.08 254 08:54 30.03.2020
543 Clouds 3 1018 64 16093 1.08 254 08:36 30.03.2020
544 Clouds 3 1016 51 16093 2.6 220 08:18 30.03.2020
545 Clouds 4 1018 59 16093 1.08 254 07:41 30.03.2020
546 Clouds 4 1017 55 16093 4.1 180 07:20 30.03.2020
547 Clear 4 1019 59 16093 1.08 254 06:39 30.03.2020
548 Clouds 4 1017 44 16093 2.6 140 06:19 30.03.2020
549 Clear 5 1019 44 16093 0.67 241 05:39 30.03.2020
550 Clouds 7 1016 41 16093 3.6 100 04:28 30.03.2020
551 Clouds 8 1016 33 16093 2.1 100 03:52 30.03.2020
552 Clouds 10 1016 25 16093 5.1 110 02:44 30.03.2020
553 Clouds 11 1016 20 16093 4.1 90 01:54 30.03.2020
554 Clouds 12 1016 20 16093 4.1 90 00:57 30.03.2020
555 Clouds 12 1016 18 16093 4.1 90 00:26 30.03.2020
556 Clouds 12 1016 18 16093 4.1 90 23:55 29.03.2020
557 Clear 12 1018 15 16093 2.77 138 23:36 29.03.2020
558 Clouds 12 1017 17 16093 2.1 200 23:18 29.03.2020
559 Clear 11 1018 16 16093 2.77 138 22:39 29.03.2020
560 Snow 11 1017 18 16093 1.5 0 22:20 29.03.2020
561 Snow 11 1017 18 16093 1.5 0 21:59 29.03.2020
562 Clear 10 1019 18 16093 3.1 170 21:37 29.03.2020
563 Clouds 10 1018 21 16093 4.1 190 21:19 29.03.2020
564 Clouds 10 1019 21 16093 2.46 160 20:55 29.03.2020
565 Clear 10 1020 19 16093 2.46 160 20:37 29.03.2020
566 Clouds 9 1018 26 16093 2.1 100 20:18 29.03.2020
567 Clouds 9 1019 23 16093 3.6 20 19:55 29.03.2020
568 Clouds 9 1018 26 16093 2.1 100 19:55 29.03.2020
569 Clouds 9 1019 26 16093 4.6 250 19:37 29.03.2020
570 Clear 8 1020 24 16093 3.1 150 19:18 29.03.2020
571 Clouds 8 1019 24 16093 2.46 160 18:55 29.03.2020
572 Clouds 8 1019 30 16093 3.6 220 18:37 29.03.2020
573 Clear 5 1021 22 16093 1.84 226 18:18 29.03.2020
574 Clear 5 1021 24 16093 1.5 210 17:42 29.03.2020
575 Clouds 5 1019 38 16093 3.6 200 17:24 29.03.2020
576 Clouds 4 1019 30 16093 1.5 0 16:59 29.03.2020
577 Clear 3 1021 44 16093 2.6 200 16:41 29.03.2020
578 Clouds 2 1019 43 16093 3.1 230 16:21 29.03.2020
579 Clouds -1 1018 58 16093 4.6 180 15:59 29.03.2020
580 Clouds 1 1019 43 16093 3.1 230 15:59 29.03.2020
581 Clear -1 1020 79 16093 1.84 226 15:40 29.03.2020
582 Clouds -2 1018 50 16093 2.6 190 15:21 29.03.2020
583 Clouds -2 1018 50 16093 2.6 190 15:21 29.03.2020
584 Clouds -2 1018 50 16093 2.6 190 14:57 29.03.2020
585 Clouds -2 1018 50 16093 2.6 190 14:57 29.03.2020
586 Clear -2 1019 68 16093 1.5 190 14:37 29.03.2020
587 Clear -2 1018 54 16093 2.6 200 14:19 29.03.2020
588 Clear -2 1017 37 16093 6.2 280 13:55 29.03.2020
589 Clear -2 1019 63 16093 2.58 244 13:37 29.03.2020
590 Clear -1 1019 79 16093 2.58 244 13:19 29.03.2020
591 Clear -2 1017 50 16093 2.6 220 12:54 29.03.2020
592 Clear -2 1017 50 16093 2.6 220 12:54 29.03.2020
593 Clear -1 1017 58 16093 4.6 190 12:36 29.03.2020
594 Clear -1 1017 58 16093 4.6 190 12:18 29.03.2020
595 Clear -1 1019 73 16093 3.16 250 11:39 29.03.2020
596 Clear -1 1017 40 16093 4.6 310 11:21 29.03.2020
597 Clear 0 1019 68 16093 1.5 150 10:40 29.03.2020
598 Clear 0 1017 43 16093 1.5 290 10:21 29.03.2020
599 Clouds 0 1017 41 16093 3.6 210 09:59 29.03.2020
600 Clear 0 1019 63 16093 3.16 250 09:39 29.03.2020
601 Clouds 1 1017 37 16093 5.1 230 09:19 29.03.2020
602 Clouds 1 1017 37 16093 5.1 230 08:52 29.03.2020
603 Clouds 1 1017 40 16093 4.6 220 08:28 29.03.2020
604 Clouds 2 1017 40 16093 4.6 220 07:56 29.03.2020
605 Clouds 2 1017 43 16093 4.6 210 07:38 29.03.2020
606 Clear 2 1018 44 16093 2.1 250 07:19 29.03.2020
607 Clouds 3 1015 34 16093 4.1 280 04:59 29.03.2020
608 Clouds 5 1014 28 16093 6.7 290 03:42 29.03.2020
609 Clouds 6 1014 26 16093 6.2 290 03:24 29.03.2020
610 Clouds 7 1014 26 16093 6.2 290 01:50 29.03.2020
611 Clouds 7 1013 17 16093 5.7 310 01:23 29.03.2020
612 Clouds 8 1013 20 16093 7.2 310 00:53 29.03.2020
613 Clear 8 1013 19 16093 6.7 330 00:29 29.03.2020
614 Rain 9 1014 16 16093 8.2 290 23:42 28.03.2020
615 Rain 9 1014 15 16093 6.2 280 23:23 28.03.2020
616 Rain 9 1012 19 16093 2.1 340 22:57 28.03.2020
617 Rain 9 1014 16 16093 3.6 350 22:37 28.03.2020
618 Rain 8 1012 24 16093 3.6 20 22:18 28.03.2020
619 Rain 8 1014 18 16093 1.5 280 21:41 28.03.2020
620 Rain 8 1012 24 16093 4.1 330 21:23 28.03.2020
621 Rain 8 1012 24 16093 4.1 330 20:58 28.03.2020
622 Rain 7 1014 22 16093 3.1 190 20:39 28.03.2020
623 Rain 7 1012 33 16093 5.7 10 20:21 28.03.2020
624 Rain 7 1012 33 16093 5.7 10 19:56 28.03.2020
625 Rain 6 1012 48 16093 5.7 320 19:37 28.03.2020
626 Rain 6 1012 48 16093 5.7 320 19:37 28.03.2020
627 Rain 6 1012 48 16093 5.7 320 19:18 28.03.2020
628 Rain 5 1012 51 16093 7.2 310 18:47 28.03.2020
629 Rain 4 1014 32 16093 1.5 210 18:22 28.03.2020
630 Rain 4 1012 44 16093 2.1 350 17:58 28.03.2020
631 Rain 3 1011 59 16093 4.6 290 17:38 28.03.2020
632 Rain 2 1013 47 16093 3.32 282 17:19 28.03.2020
633 Rain 1 1010 63 16093 5.1 280 16:42 28.03.2020
634 Rain 1 1010 37 16093 4.6 310 16:20 28.03.2020
635 Rain 1 1010 37 16093 4.6 310 16:20 28.03.2020
636 Rain 0 1010 37 16093 4.6 310 15:56 28.03.2020
637 Snow -1 1012 37 16093 3.6 240 15:37 28.03.2020
638 Clouds -2 1009 58 16093 3.6 300 15:18 28.03.2020
639 Clear -3 1012 37 16093 5.1 270 14:42 28.03.2020
640 Clouds -3 1009 68 16093 4.6 280 14:22 28.03.2020
641 Clouds -3 1009 58 16093 4.1 290 13:56 28.03.2020
642 Clear -2 1011 45 16093 6.2 290 13:37 28.03.2020
643 Clouds -2 1008 79 16093 4.1 270 13:18 28.03.2020
644 Clouds -2 1008 79 16093 4.1 270 13:18 28.03.2020
645 Clear -2 1010 45 16093 4.6 280 12:38 28.03.2020
646 Clouds -2 1007 100 16093 2.6 280 12:19 28.03.2020
647 Clear -2 1009 45 16093 3.1 280 11:42 28.03.2020
648 Clear -2 1009 45 16093 3.6 290 11:21 28.03.2020
649 Clear -1 1009 46 16093 1.38 298 10:44 28.03.2020
650 Clear -1 1006 46 16093 3.6 310 10:25 28.03.2020
651 Clouds -1 1006 92 16093 2.6 260 09:59 28.03.2020
652 Clear -1 1008 46 16093 1.5 290 09:40 28.03.2020
653 Clouds -1 1006 46 16093 2.1 280 09:21 28.03.2020
654 Snow 0 1008 46 16093 1.5 240 08:43 28.03.2020
655 Snow 0 1006 46 12874 6.2 10 08:24 28.03.2020
656 Snow 0 1006 49 1207 5.1 360 07:53 28.03.2020
657 Snow 0 1007 49 4023 5.7 10 07:35 28.03.2020
658 Snow 0 1007 49 1207 6.2 350 06:53 28.03.2020
659 Snow 0 1007 49 3219 5.1 360 06:26 28.03.2020
660 Snow 0 1007 49 3219 6.2 350 05:30 28.03.2020
661 Snow 0 1007 49 3219 6.2 350 05:30 28.03.2020
662 Snow 0 1007 86 2012 6.2 340 04:58 28.03.2020
663 Snow 0 1009 55 8047 6.56 7 04:39 28.03.2020
664 Rain 0 1006 55 1609 4.6 350 02:51 28.03.2020
665 Rain 1 1005 93 4023 8.7 350 01:47 28.03.2020
666 Rain 2 1005 42 805 5.1 310 01:23 28.03.2020
667 Clouds 3 1004 64 16093 6.2 350 00:49 28.03.2020
668 Clouds 3 1003 54 16093 5.1 340 00:25 28.03.2020
669 Clouds 4 1003 54 16093 4.1 360 23:44 27.03.2020
670 Rain 4 1005 54 16093 4.1 320 23:44 27.03.2020
671 Clouds 4 1003 54 16093 4.1 360 23:26 27.03.2020
672 Mist 4 1003 69 4828 5.1 350 22:57 27.03.2020
673 Clouds 4 1005 60 16093 2.1 360 22:39 27.03.2020
674 Mist 4 1003 69 4828 4.6 20 22:20 27.03.2020
675 Mist 4 1003 69 4828 4.6 20 21:58 27.03.2020
676 Clouds 4 1006 65 16093 2.6 40 21:40 27.03.2020
677 Clouds 5 1004 64 16093 3.6 20 21:22 27.03.2020
678 Clouds 4 1004 69 16093 6.2 10 21:22 27.03.2020
679 Clouds 5 1004 64 16093 3.6 20 20:56 27.03.2020
680 Clouds 5 1007 65 16093 2.6 50 20:37 27.03.2020
681 Clouds 4 1005 65 16093 3.6 10 20:19 27.03.2020
682 Clouds 4 1007 38 16093 3.6 40 19:43 27.03.2020
683 Clouds 4 1005 64 16093 3.1 20 19:23 27.03.2020
684 Clouds 4 1005 64 16093 3.1 20 18:57 27.03.2020
685 Clouds 4 1008 38 16093 3.1 40 18:39 27.03.2020
686 Rain 3 1009 69 16093 3.28 23 18:20 27.03.2020
687 Clouds 3 1009 38 16093 3.6 50 17:40 27.03.2020
688 Clouds 2 1009 47 16093 1.5 100 17:20 27.03.2020
689 Clouds 2 1007 86 4023 2.1 0 16:55 27.03.2020
690 Clouds 1 1010 47 16093 1.5 80 16:37 27.03.2020
691 Mist 1 1007 86 2414 3.1 20 16:19 27.03.2020
692 Clouds 1 1010 47 16093 2.1 140 15:42 27.03.2020
693 Mist 1 1007 47 2414 4.1 50 15:24 27.03.2020
694 Fog 1 1007 47 805 2.1 20 14:48 27.03.2020
695 Fog 1 1007 47 402 3.6 90 14:25 27.03.2020
696 Fog 1 1007 48 402 3.6 90 13:57 27.03.2020
697 Fog 1 1007 48 402 3.6 90 13:39 27.03.2020
698 Fog 1 1007 48 402 3.6 90 13:21 27.03.2020
699 Fog 1 1007 49 402 3.6 90 12:57 27.03.2020
700 Clouds 1 1006 88 0 3.37 355 12:39 27.03.2020
701 Clouds 2 1003 81 0 3.37 355 12:18 27.03.2020
702 Clouds 2 1002 78 0 3.37 355 11:41 27.03.2020
703 Clear 2 1002 77 0 1.16 348 11:23 27.03.2020
704 Clouds 3 1006 49 16093 1.5 90 10:55 27.03.2020
705 Clouds 3 1006 49 16093 1.5 90 10:37 27.03.2020
706 Clouds 3 1006 100 16093 1.5 220 10:18 27.03.2020
707 Clouds 3 1006 100 16093 1.5 220 09:56 27.03.2020
708 Clouds 4 1006 100 16093 1.5 220 09:37 27.03.2020
709 Clouds 4 1007 49 16093 1.5 180 09:18 27.03.2020
710 Clouds 4 1007 49 16093 1.5 180 08:56 27.03.2020
711 Clear 5 1005 70 0 1.16 348 08:37 27.03.2020
712 Clouds 5 1007 86 16093 0.69 329 08:19 27.03.2020
713 Clouds 6 1007 86 16093 1.45 289 07:50 27.03.2020
714 Clear 6 1005 67 0 1.45 289 07:23 27.03.2020
715 Clear 7 1004 62 0 1.45 289 06:51 27.03.2020
716 Clear 6 1002 65 0 0.89 43 06:33 27.03.2020
717 Clear 8 1003 56 0 1.29 139 04:23 27.03.2020
718 Clouds 9 1004 61 16093 5.7 60 02:25 27.03.2020
719 Clouds 12 1004 57 16093 4.6 30 01:23 27.03.2020
720 Clouds 12 1004 57 16093 4.6 70 00:48 27.03.2020
721 Clouds 12 1004 57 16093 4.6 70 00:23 27.03.2020
722 Clouds 12 1004 57 16093 3.6 40 23:43 26.03.2020
723 Clouds 12 1004 57 16093 3.6 40 23:21 26.03.2020
724 Clouds 10 1004 57 16093 2.6 30 22:58 26.03.2020
725 Clouds 10 1004 57 16093 2.6 30 22:37 26.03.2020
726 Clouds 9 1004 61 16093 4.1 10 22:19 26.03.2020
727 Clouds 9 1004 61 16093 4.1 10 21:55 26.03.2020
728 Clouds 9 1004 61 16093 4.1 10 21:37 26.03.2020
729 Clouds 9 1004 61 16093 4.1 10 21:18 26.03.2020
730 Clouds 7 1005 70 16093 3.6 30 20:41 26.03.2020
731 Clouds 9 1005 70 16093 3.6 30 20:23 26.03.2020
732 Clouds 9 1005 70 16093 3.6 30 20:23 26.03.2020
733 Clouds 9 1005 70 16093 3.6 30 20:23 26.03.2020
734 Clouds 6 1006 70 14484 4.1 10 19:58 26.03.2020
735 Clouds 6 1006 70 14484 4.1 10 19:40 26.03.2020
736 Clouds 6 1006 70 14484 4.1 10 19:40 26.03.2020
737 Clouds 9 1006 70 14484 4.1 10 19:22 26.03.2020
738 Clouds 9 1006 70 16093 4.6 30 18:59 26.03.2020
739 Clouds 9 1006 70 16093 4.6 30 18:41 26.03.2020
740 Clouds 9 1006 70 16093 4.6 30 18:23 26.03.2020
741 Clear 9 1006 58 0 3.13 44 17:45 26.03.2020
742 Clouds 8 1006 70 16093 3.1 310 17:20 26.03.2020
743 Clouds 8 1006 70 16093 3.1 310 17:20 26.03.2020
744 Clouds 7 1006 70 16093 3.1 310 16:59 26.03.2020
745 Clear 7 1002 57 0 0.45 29 16:38 26.03.2020
746 Clear 6 1003 54 0 2.24 267 16:20 26.03.2020
747 Clear 5 1002 61 0 0.45 37 15:56 26.03.2020
748 Clear 5 1003 55 0 2.24 267 15:38 26.03.2020
749 Clear 4 1003 56 0 2.24 267 15:19 26.03.2020
750 Clouds 2 1006 30 16093 2.6 250 14:43 26.03.2020
751 Clouds 1 1006 30 16093 2.6 250 14:24 26.03.2020
752 Clouds 1 1006 39 16093 1.5 250 13:56 26.03.2020
753 Clouds 1 1006 39 16093 1.5 250 13:56 26.03.2020
754 Clouds 1 1006 39 16093 1.5 250 13:38 26.03.2020
755 Clouds 1 1006 39 16093 1.5 250 13:20 26.03.2020
756 Clouds 1 1005 80 16093 0.61 256 12:39 26.03.2020
757 Clouds 1 1005 80 16093 0.61 256 12:20 26.03.2020
758 Clouds 2 1005 86 16093 1.5 310 11:55 26.03.2020
759 Clouds 2 1005 86 16093 1.5 310 11:37 26.03.2020
760 Clouds 3 1005 86 16093 1.5 310 11:18 26.03.2020
761 Clouds 3 1006 69 16093 2.1 260 10:42 26.03.2020
762 Clouds 4 1006 65 16093 3.6 270 10:20 26.03.2020
763 Clouds 5 1006 65 16093 3.6 270 09:45 26.03.2020
764 Clouds 5 1006 65 16093 3.6 270 09:21 26.03.2020
765 Clouds 6 1006 65 16093 3.6 270 08:57 26.03.2020
766 Clouds 6 1006 41 16093 4.1 200 08:38 26.03.2020
767 Clouds 6 1007 35 16093 4.1 190 08:19 26.03.2020
768 Clouds 7 1007 35 16093 4.1 190 07:45 26.03.2020
769 Clouds 7 1007 35 16093 4.1 190 07:23 26.03.2020
770 Clouds 7 1007 39 16093 5.1 180 06:57 26.03.2020
771 Clouds 8 1007 39 16093 5.1 180 06:32 26.03.2020
772 Clouds 9 1008 49 16093 3.6 110 05:29 26.03.2020
773 Clouds 13 1003 17 0 0.89 185 03:45 26.03.2020
774 Clouds 15 1007 24 16093 3.53 237 02:56 26.03.2020
775 Clouds 16 1006 21 16093 4.1 30 01:51 26.03.2020
776 Clouds 18 1005 14 16093 6.7 330 01:18 26.03.2020
777 Clouds 19 1005 14 16093 6.7 330 00:23 26.03.2020
778 Clouds 19 1006 17 16093 3.6 10 23:42 25.03.2020
779 Clouds 19 1006 15 16093 4.1 350 23:22 25.03.2020
780 Clouds 19 1006 15 16093 4.1 350 22:42 25.03.2020
781 Clouds 19 1007 16 16093 5.1 310 22:22 25.03.2020
782 Clouds 19 1007 16 16093 5.1 310 21:57 25.03.2020
783 Clouds 19 1007 16 16093 5.1 310 21:38 25.03.2020
784 Clear 19 1002 8 0 0.45 171 21:20 25.03.2020
785 Clear 18 1003 10 0 7.92 251 20:56 25.03.2020
786 Clear 18 1002 17 0 7.92 251 20:37 25.03.2020
787 Clouds 17 1007 19 16093 5.7 270 20:18 25.03.2020
788 Clouds 17 1007 19 16093 5.7 270 20:18 25.03.2020
789 Clouds 17 1007 19 16093 5.7 270 19:43 25.03.2020
790 Clouds 17 1008 19 16093 5.1 230 19:23 25.03.2020
791 Clouds 17 1008 19 16093 5.1 230 18:59 25.03.2020
792 Clouds 16 1008 19 16093 5.1 230 18:40 25.03.2020
793 Clouds 16 1003 22 0 5.77 224 18:22 25.03.2020
794 Clouds 16 1003 23 0 5.52 221 17:56 25.03.2020
795 Clouds 15 1008 26 16093 4.6 200 17:38 25.03.2020
796 Clouds 14 1008 26 16093 4.6 200 17:20 25.03.2020
797 Clouds 13 1008 34 16093 4.1 210 16:44 25.03.2020
798 Clouds 12 1008 35 0 0.45 180 16:24 25.03.2020
799 Clouds 10 1006 44 0 0.45 167 15:59 25.03.2020
800 Clouds 8 1008 45 16093 5.7 190 15:40 25.03.2020
801 Clouds 7 1005 35 0 4.18 228 15:19 25.03.2020
802 Clouds 6 1007 51 16093 5.7 180 14:42 25.03.2020
803 Clouds 4 1007 48 16093 6.7 200 14:22 25.03.2020
804 Clouds 3 1007 48 16093 6.7 200 13:56 25.03.2020
805 Clouds 3 1007 48 16093 6.7 200 13:38 25.03.2020
806 Clouds 3 1007 48 16093 6.7 200 13:38 25.03.2020
807 Clouds 3 1008 41 16093 1.5 230 13:19 25.03.2020
808 Clouds 4 1008 41 16093 1.5 230 12:37 25.03.2020
809 Clouds 4 1008 41 16093 1.5 230 12:19 25.03.2020
810 Clouds 4 1007 45 16093 5.7 210 11:55 25.03.2020
811 Clouds 4 1007 45 16093 5.7 210 11:36 25.03.2020
812 Clouds 4 1007 45 16093 5.7 210 11:36 25.03.2020
813 Clouds 4 1007 45 16093 5.7 210 11:18 25.03.2020
814 Clouds 4 1008 55 16093 5.1 190 10:55 25.03.2020
815 Clouds 4 1008 55 16093 5.1 190 10:36 25.03.2020
816 Clouds 4 1008 55 16093 5.1 190 10:18 25.03.2020
817 Clouds 4 1009 59 16093 4.6 190 09:42 25.03.2020
818 Clouds 4 1009 56 16093 3.1 200 09:22 25.03.2020
819 Clouds 5 1009 56 16093 3.1 200 08:56 25.03.2020
820 Clouds 5 1009 56 16093 3.1 200 08:38 25.03.2020
821 Clouds 5 1009 56 16093 3.1 200 08:38 25.03.2020
822 Clouds 5 1010 60 16093 2.6 190 08:19 25.03.2020
823 Clouds 5 1010 60 16093 2.6 190 07:39 25.03.2020
824 Clouds 5 1010 60 16093 2.6 190 07:20 25.03.2020
825 Clouds 5 1010 60 16093 2.6 190 07:20 25.03.2020
826 Clear 6 1011 60 16093 3.1 180 06:46 25.03.2020
827 Clear 6 1011 60 16093 3.1 180 06:25 25.03.2020
828 Clouds 7 1012 45 16093 1.5 280 05:50 25.03.2020
829 Clouds 8 1012 45 16093 1.5 280 04:59 25.03.2020
830 Clouds 8 1011 49 16093 2.75 178 04:39 25.03.2020
831 Clouds 11 1011 39 16093 2.1 80 03:35 25.03.2020
832 Clear 14 1007 25 0 0.89 59 01:57 25.03.2020
833 Clouds 16 1011 23 16093 4.6 40 01:20 25.03.2020
834 Clouds 16 1011 21 16093 1.5 60 00:47 25.03.2020
835 Clouds 17 1011 21 16093 1.5 60 00:19 25.03.2020
836 Clouds 17 1011 18 16093 2.6 20 23:44 24.03.2020
837 Clouds 17 1011 18 16093 2.6 20 23:25 24.03.2020
838 Clouds 17 1008 22 0 0.45 60 22:55 24.03.2020
839 Clouds 17 1012 21 16093 0.6 141 22:37 24.03.2020
840 Clouds 17 1008 16 0 0.6 141 22:19 24.03.2020
841 Clouds 17 1009 22 0 0.45 205 21:55 24.03.2020
842 Clouds 17 1008 23 0 0.6 141 21:36 24.03.2020
843 Clouds 16 1009 25 0 0.45 270 21:18 24.03.2020
844 Clouds 16 1009 24 0 1.79 121 20:42 24.03.2020
845 Clouds 16 1012 28 0 0.45 58 20:23 24.03.2020
846 Clouds 15 1014 24 16093 3.1 270 19:56 24.03.2020
847 Clouds 15 1014 24 16093 3.1 270 19:56 24.03.2020
848 Clouds 15 1014 24 16093 3.1 270 19:38 24.03.2020
849 Clouds 15 1014 24 16093 3.1 270 19:18 24.03.2020
850 Clouds 14 1014 24 16093 3.1 270 18:55 24.03.2020
851 Clouds 14 1015 27 16093 3.69 178 18:36 24.03.2020
852 Clear 13 1011 22 0 1.79 177 18:18 24.03.2020
853 Clear 12 1011 22 0 1.79 177 17:41 24.03.2020
854 Clouds 12 1015 34 16093 2.1 240 17:22 24.03.2020
855 Clouds 10 1015 34 16093 2.1 240 17:22 24.03.2020
856 Clouds 9 1015 34 16093 2.1 240 16:57 24.03.2020
857 Clear 9 1016 29 16093 3.6 110 16:39 24.03.2020
858 Clear 8 1014 39 16093 1.5 30 16:20 24.03.2020
859 Clear 6 1016 69 16093 3.19 217 15:44 24.03.2020
860 Clear 5 1014 52 16093 3.19 217 15:26 24.03.2020
861 Clouds 2 1014 36 32767 1.5 270 14:59 24.03.2020
862 Clear 2 1015 55 16093 3.19 217 14:40 24.03.2020
863 Clouds 2 1013 69 16093 3.1 180 14:18 24.03.2020
864 Clouds 1 1013 69 16093 3.1 180 13:42 24.03.2020
865 Clouds 1 1013 80 16093 4.6 180 13:23 24.03.2020
866 Clouds 1 1013 80 16093 4.6 180 13:23 24.03.2020
867 Clouds 1 1013 80 16093 4.6 180 13:23 24.03.2020
868 Clouds 1 1013 80 16093 4.6 180 12:47 24.03.2020
869 Clouds 1 1013 80 16093 4.6 180 12:28 24.03.2020
870 Clouds 1 1013 80 16093 4.6 180 11:59 24.03.2020
871 Clouds 1 1013 80 16093 4.6 190 11:39 24.03.2020
872 Clear 1 1014 64 16093 2.1 110 11:19 24.03.2020
873 Clear 2 1014 80 16093 2.1 360 10:42 24.03.2020
874 Clear 2 1012 60 16093 1.5 50 10:19 24.03.2020
875 Clouds 2 1013 74 16093 3.6 200 09:57 24.03.2020
876 Clear 2 1015 67 16093 3.12 218 09:39 24.03.2020
877 Clear 2 1015 80 16093 3.12 218 09:20 24.03.2020
878 Clear 2 1015 80 16093 3.12 218 08:38 24.03.2020
879 Clear 2 1013 60 16093 1.58 214 08:20 24.03.2020
880 Clouds 3 1013 86 16093 2.6 240 07:47 24.03.2020
881 Clouds 3 1013 56 16093 2.6 270 07:24 24.03.2020
882 Clouds 3 1013 75 16093 2.6 170 06:52 24.03.2020
883 Clouds 3 1014 75 16093 1.58 214 06:27 24.03.2020
884 Clear 5 1014 63 16093 0.92 262 04:57 24.03.2020
885 Snow 7 1013 63 16093 4.1 210 03:48 24.03.2020
886 Rain 7 1014 63 16093 2.6 200 03:18 24.03.2020
887 Rain 10 1013 46 16093 6.7 350 01:45 24.03.2020
888 Clouds 11 1012 30 16093 2.1 300 00:46 24.03.2020
889 Clouds 12 1012 22 16093 1.5 250 00:24 24.03.2020
890 Clouds 12 1010 32 16093 2.1 310 23:44 23.03.2020
891 Clear 12 1012 22 16093 1.97 33 23:26 23.03.2020
892 Clouds 13 1010 34 16093 6.2 210 22:55 23.03.2020
893 Clouds 13 1010 34 16093 6.2 210 22:55 23.03.2020
894 Clouds 13 1012 28 16093 3.6 260 22:37 23.03.2020
895 Clouds 13 1013 20 16093 2.43 231 22:19 23.03.2020
896 Clouds 13 1013 20 16093 2.6 180 21:43 23.03.2020
897 Clouds 13 1014 20 16093 1.5 200 21:20 23.03.2020
898 Clouds 13 1012 32 16093 6.7 150 20:57 23.03.2020
899 Clouds 13 1014 22 16093 2.43 231 20:39 23.03.2020
900 Clouds 10 1015 24 16093 1.5 250 20:19 23.03.2020
901 Clouds 10 1015 26 16093 2.6 230 19:45 23.03.2020
902 Clouds 10 1015 26 16093 2.6 230 19:45 23.03.2020
903 Clouds 10 1016 25 16093 2.1 170 19:27 23.03.2020
904 Clouds 10 1015 37 16093 9.3 170 18:59 23.03.2020
905 Clouds 10 1015 34 16093 2.1 120 18:40 23.03.2020
906 Clear 10 1017 31 16093 0.7 276 18:21 23.03.2020
907 Clear 9 1017 39 16093 2.6 120 17:43 23.03.2020
908 Clouds 6 1018 42 16093 2.1 90 17:21 23.03.2020
909 Clouds 6 1016 42 16093 7.7 190 16:59 23.03.2020
910 Clouds 6 1018 52 16093 2.81 218 16:39 23.03.2020
911 Clear 5 1017 69 16093 2.81 218 16:20 23.03.2020
912 Clouds 3 1019 69 16093 2.81 218 15:42 23.03.2020
913 Clouds 2 1019 54 16093 2.81 218 15:20 23.03.2020
914 Clouds 2 1017 55 16093 2.6 0 14:55 23.03.2020
915 Clouds 1 1019 80 16093 2.81 218 14:36 23.03.2020
916 Clouds 0 1019 79 16093 3.42 214 14:18 23.03.2020
917 Clouds 0 1019 79 16093 3.42 214 13:40 23.03.2020
918 Clouds 0 1017 67 16093 3.6 250 13:21 23.03.2020
919 Clear 0 1018 74 16093 2.1 210 12:45 23.03.2020
920 Clear 0 1018 74 16093 2.1 210 12:45 23.03.2020
921 Clear 0 1018 67 16093 3.15 218 12:25 23.03.2020
922 Clouds 0 1017 51 16093 5.1 190 11:59 23.03.2020
923 Clear 0 1018 67 16093 3.15 218 11:40 23.03.2020
924 Clear 0 1018 66 16093 3.35 210 11:20 23.03.2020
925 Clear 0 1018 66 16093 3.35 210 11:20 23.03.2020
926 Clouds 0 1017 47 16093 5.1 200 10:57 23.03.2020
927 Clear 1 1018 66 16093 3.35 210 10:38 23.03.2020
928 Clear 1 1019 66 16093 1.5 240 10:20 23.03.2020
929 Clear 1 1019 66 16093 3.35 210 09:44 23.03.2020
930 Clear 1 1018 51 16093 2.6 230 09:21 23.03.2020
931 Clear 1 1018 51 16093 4.6 190 08:57 23.03.2020
932 Clear 1 1020 44 16093 3.35 210 08:36 23.03.2020
933 Clear 1 1020 51 16093 1.5 140 08:18 23.03.2020
934 Clear 2 1020 48 16093 2.1 190 07:42 23.03.2020
935 Clear 2 1018 41 16093 3.05 208 07:23 23.03.2020
936 Clear 2 1020 59 16093 2.1 140 06:49 23.03.2020
937 Clear 3 1020 64 16093 3.05 208 05:54 23.03.2020
938 Clouds 4 1018 59 16093 3.6 170 04:58 23.03.2020
939 Clear 6 1017 41 16093 2.1 290 03:26 23.03.2020
940 Clear 9 1018 37 16093 2.6 50 01:50 23.03.2020
941 Clouds 10 1016 37 16093 3.1 80 00:58 23.03.2020
942 Clear 10 1017 40 16093 4.1 60 00:36 23.03.2020
943 Clear 10 1017 32 16093 3.6 110 23:47 22.03.2020
944 Clear 10 1017 32 16093 3.6 110 23:47 22.03.2020
945 Clear 10 1014 27 16093 3.6 290 23:25 22.03.2020
946 Clouds 10 1017 40 16093 5.1 100 22:45 22.03.2020
947 Clear 10 1017 37 16093 3.6 110 22:24 22.03.2020
948 Clouds 10 1015 49 16093 3.1 60 21:56 22.03.2020
949 Clear 9 1017 39 16093 5.1 110 21:37 22.03.2020
950 Clear 9 1018 49 16093 4.1 100 21:19 22.03.2020
951 Clear 9 1018 49 16093 3.6 80 20:46 22.03.2020
952 Clear 8 1015 49 16093 4.1 100 20:25 22.03.2020
953 Snow 8 1016 34 16093 7.7 310 19:58 22.03.2020
954 Clouds 8 1018 51 16093 4.6 30 19:40 22.03.2020
955 Clouds 7 1018 56 16093 1.45 8 19:20 22.03.2020
956 Clouds 7 1016 45 16093 1.45 8 18:59 22.03.2020
957 Clouds 7 1018 56 16093 1.45 8 18:41 22.03.2020
958 Clouds 7 1018 56 16093 1.45 8 18:41 22.03.2020
959 Clear 7 1017 60 16093 1.45 8 18:22 22.03.2020
960 Clear 7 1017 60 16093 1.45 8 18:22 22.03.2020
961 Clouds 6 1016 56 16093 3.1 290 17:59 22.03.2020
962 Clouds 6 1018 51 16093 1.45 8 17:39 22.03.2020
963 Clouds 4 1018 51 16093 1.45 8 17:20 22.03.2020
964 Rain 4 1015 60 16093 3.1 230 16:58 22.03.2020
965 Rain 4 1015 60 16093 3.1 230 16:58 22.03.2020
966 Rain 3 1017 72 16093 2.61 215 16:40 22.03.2020
967 Rain 3 1015 72 16093 1.5 320 16:21 22.03.2020
968 Snow 2 1015 69 16093 1.5 160 15:56 22.03.2020
969 Clear 1 1017 72 16093 2.61 215 15:38 22.03.2020
970 Clear -1 1017 92 16093 2.61 215 14:46 22.03.2020
971 Clear -2 1017 92 16093 3.44 215 14:19 22.03.2020
972 Clear -2 1015 74 16093 3.1 340 13:55 22.03.2020
973 Clear -2 1017 92 16093 3.44 215 13:37 22.03.2020
974 Clear -2 1017 92 16093 3.44 215 13:18 22.03.2020
975 Clear -1 1017 92 16093 3.14 217 12:43 22.03.2020
976 Clear -1 1017 92 16093 3.14 217 12:20 22.03.2020
977 Clear -1 1017 92 11265 3.14 217 11:55 22.03.2020
978 Clear -1 1016 68 16093 2.6 240 11:36 22.03.2020
979 Clear -1 1017 86 11265 3.16 217 11:18 22.03.2020
980 Clear -1 1017 92 11265 3.16 217 10:42 22.03.2020
981 Clear -1 1016 79 16093 2.1 280 10:23 22.03.2020
982 Mist -1 1018 100 6437 3.16 217 09:47 22.03.2020
983 Clear -1 1016 79 16093 2.1 270 09:28 22.03.2020
984 Clouds 0 1016 80 16093 3.6 180 08:53 22.03.2020
985 Clouds 0 1016 80 16093 3.6 180 08:53 22.03.2020
986 Mist 0 1018 92 6437 2.37 218 08:33 22.03.2020
987 Clouds 0 1016 80 16093 2.6 160 07:59 22.03.2020
988 Mist 0 1018 77 8047 1.54 228 07:41 22.03.2020
989 Mist 1 1019 77 6437 1.54 228 06:48 22.03.2020
990 Mist 1 1019 86 6437 1.54 228 05:54 22.03.2020
991 Haze 1 1020 68 8047 2.6 160 04:39 22.03.2020
992 Clear 4 1019 68 11265 1.18 221 02:34 22.03.2020
993 Clouds 6 1019 60 16093 4.5 331 01:19 22.03.2020
994 Clouds 7 1019 60 16093 4.5 331 00:34 22.03.2020
995 Rain 7 1020 52 16093 4.5 331 23:47 21.03.2020
996 Rain 7 1020 60 11265 4.5 331 23:23 21.03.2020
997 Rain 7 1020 52 8047 2.13 59 22:59 21.03.2020
998 Rain 7 1020 52 8047 2.13 59 22:38 21.03.2020
999 Rain 7 1018 52 16093 2.13 59 22:20 21.03.2020
1000 Rain 7 1018 45 16093 4.6 120 21:59 21.03.2020
1001 Rain 7 1021 65 11265 2.1 40 21:39 21.03.2020
1002 Rain 7 1021 65 11265 3.1 10 21:20 21.03.2020
1003 Rain 7 1021 65 11265 3.1 10 21:20 21.03.2020
1004 Rain 7 1022 60 16093 2.1 10 20:44 21.03.2020
1005 Rain 5 1022 56 16093 0.8 210 20:22 21.03.2020
1006 Rain 5 1020 39 16093 2.1 120 19:56 21.03.2020
1007 Rain 5 1023 60 16093 0.8 210 19:38 21.03.2020
1008 Clear 5 1023 64 16093 0.8 210 19:19 21.03.2020
1009 Rain 4 1021 44 16093 3.1 160 18:54 21.03.2020
1010 Rain 4 1024 72 11265 0.8 210 18:36 21.03.2020
1011 Rain 4 1024 72 11265 0.8 210 18:18 21.03.2020
1012 Rain 3 1023 47 16093 3.6 230 17:42 21.03.2020
1013 Rain 1 1022 55 16093 3.6 200 17:22 21.03.2020
1014 Rain 0 1022 55 0 10.8 290 16:43 21.03.2020
1015 Rain 0 1022 55 0 10.8 290 16:43 21.03.2020
1016 Fog -1 1023 92 0 3.51 216 16:24 21.03.2020
1017 Clouds -2 1022 63 16093 4.1 180 15:59 21.03.2020
1018 Snow -3 1022 68 16093 5.7 180 15:41 21.03.2020
1019 Clouds -3 1022 68 16093 5.7 180 15:23 21.03.2020
1020 Clouds -5 1022 68 16093 3.1 150 14:57 21.03.2020
1021 Clouds -5 1021 55 0 11.8 310 14:39 21.03.2020
1022 Fog -6 1024 92 0 3.36 217 14:20 21.03.2020
1023 Clouds -6 1021 67 16093 1.5 0 13:58 21.03.2020
1024 Fog -6 1023 100 402 3.36 217 13:39 21.03.2020
1025 Fog -6 1021 100 402 1.5 200 13:21 21.03.2020
1026 Clouds -6 1021 79 16093 2.1 130 12:57 21.03.2020
1027 Fog -6 1023 100 402 3.16 225 12:37 21.03.2020
1028 Fog -6 1023 92 805 3.16 225 12:19 21.03.2020
1029 Clouds -6 1020 73 16093 2.1 170 11:55 21.03.2020
1030 Mist -6 1023 92 2414 3.16 225 11:37 21.03.2020
1031 Mist -6 1023 92 2414 3.47 219 11:18 21.03.2020
1032 Clouds -6 1020 79 16093 3.1 100 10:56 21.03.2020
1033 Fog -6 1021 92 0 2.1 220 10:38 21.03.2020
1034 Mist -6 1024 100 3219 3.47 219 10:18 21.03.2020
1035 Mist -6 1022 92 1207 3.47 219 09:40 21.03.2020
1036 Mist -6 1022 92 1207 3.47 219 09:21 21.03.2020
1037 Haze -6 1022 85 9656 3.47 219 08:58 21.03.2020
1038 Mist -6 1025 92 8047 3.47 219 08:39 21.03.2020
1039 Mist -5 1022 100 4023 2.1 190 08:21 21.03.2020
1040 Clouds -5 1025 92 11265 2.32 212 07:39 21.03.2020
1041 Clouds -5 1026 92 11265 2.32 212 07:20 21.03.2020
1042 Clouds -5 1026 92 11265 2.32 212 06:45 21.03.2020
1043 Clouds -5 1026 92 11265 2.32 212 06:26 21.03.2020
1044 Mist -5 1023 92 2816 2.1 120 05:41 21.03.2020
1045 Clouds -5 1026 85 16093 2.11 204 04:34 21.03.2020
1046 Clouds -5 1026 85 16093 2.11 204 02:39 21.03.2020
1047 Mist -4 1023 79 8047 2.6 350 01:54 21.03.2020
1048 Snow -4 1023 85 8047 2.6 20 01:28 21.03.2020
1049 Clouds -4 1026 79 16093 2.6 340 00:43 21.03.2020
1050 Clouds -4 1026 79 16093 2.6 340 00:43 21.03.2020
1051 Clouds -3 1023 92 14484 3.1 320 00:24 21.03.2020
1052 Clouds -3 1026 79 16093 1.5 40 23:45 20.03.2020
1053 Clouds -3 1027 85 16093 1.5 10 23:22 20.03.2020
1054 Clouds -3 1027 85 16093 2.6 20 22:44 20.03.2020
1055 Snow -4 1025 92 4023 4.43 344 22:25 20.03.2020
1056 Clouds -4 1024 85 12874 4.1 310 21:59 20.03.2020
1057 Clouds -4 1028 85 16093 3.1 20 21:41 20.03.2020
1058 Clouds -4 1029 85 16093 2.6 20 21:20 20.03.2020
1059 Clouds -4 1024 79 11265 4.1 300 20:59 20.03.2020
1060 Clouds -4 1029 85 16093 2.6 60 20:41 20.03.2020
1061 Clouds -4 1025 79 16093 3.6 300 20:20 20.03.2020
1062 Clouds -4 1025 79 16093 2.6 320 19:49 20.03.2020
1063 Mist -4 1027 92 8047 1.5 50 19:22 20.03.2020
1064 Mist -4 1027 92 8047 1.5 50 19:22 20.03.2020
1065 Clouds -4 1026 85 16093 2.1 340 18:59 20.03.2020
1066 Clouds -5 1030 85 11265 3.6 60 18:39 20.03.2020
1067 Clouds -5 1030 85 11265 2.1 100 18:20 20.03.2020
1068 Clouds -5 1027 92 11265 4.6 110 17:56 20.03.2020
1069 Clouds -5 1030 85 11265 3.1 100 17:38 20.03.2020
1070 Clouds -6 1030 85 11265 3.1 100 17:19 20.03.2020
1071 Clouds -6 1030 85 16093 4.6 110 16:42 20.03.2020
1072 Mist -6 1027 100 4828 1.5 60 16:21 20.03.2020
1073 Clouds -6 1026 85 16093 3.1 120 15:56 20.03.2020
1074 Mist -7 1030 92 6437 4.1 110 15:37 20.03.2020
1075 Clouds -7 1026 92 16093 2.6 120 15:19 20.03.2020
1076 Clouds -7 1029 92 11265 2.1 100 14:42 20.03.2020
1077 Clouds -7 1026 85 16093 4.6 120 14:21 20.03.2020
1078 Clouds -7 1027 92 16093 2.1 100 13:50 20.03.2020
1079 Clouds -7 1027 92 16093 2.1 100 13:50 20.03.2020
1080 Clouds -7 1026 92 16093 3.6 90 13:25 20.03.2020
1081 Clouds -7 1026 92 16093 4.1 100 12:58 20.03.2020
1082 Clouds -7 1029 92 16093 3.1 110 12:38 20.03.2020
1083 Clouds -6 1029 92 16093 1.5 110 12:20 20.03.2020
1084 Clouds -6 1027 85 4828 3.6 130 11:40 20.03.2020
1085 Clouds -6 1029 92 16093 2.1 130 11:21 20.03.2020
1086 Clouds -6 1026 100 16093 2.6 100 10:56 20.03.2020
1087 Snow -6 1029 85 16093 3.1 140 10:38 20.03.2020
1088 Snow -6 1029 92 4828 2.1 130 10:18 20.03.2020
1089 Snow -6 1029 92 3219 2.1 130 09:46 20.03.2020
1090 Snow -5 1029 92 6437 1.5 120 09:21 20.03.2020
1091 Snow -5 1027 92 4023 2.1 130 08:58 20.03.2020
1092 Snow -5 1029 92 4828 3.1 120 08:39 20.03.2020
1093 Snow -5 1029 92 4023 2.6 120 08:19 20.03.2020
1094 Clouds -5 1029 92 11265 2.6 110 07:41 20.03.2020
1095 Snow -5 1026 100 16093 2.1 90 07:23 20.03.2020
1096 Snow -4 1028 92 6437 3.6 110 06:42 20.03.2020
1097 Snow -4 1028 92 6437 3.6 110 06:42 20.03.2020
1098 Snow -4 1028 92 11265 2.1 60 06:21 20.03.2020
1099 Snow -4 1027 86 3219 4.6 20 04:39 20.03.2020
1100 Snow -2 1022 92 1207 8.2 20 02:51 20.03.2020
1101 Snow -1 1022 98 805 5.1 20 01:50 20.03.2020
1102 Snow -1 1021 99 3219 4.6 10 00:45 20.03.2020
1103 Snow -1 1020 99 2414 4.6 360 00:23 20.03.2020
1104 Snow -1 1016 92 402 14.4 360 23:42 19.03.2020
1105 Snow -1 1018 99 805 6.7 350 23:23 19.03.2020
1106 Rain 0 1016 100 805 8.2 360 22:41 19.03.2020
1107 Rain 0 1012 100 402 10.3 360 22:22 19.03.2020
1108 Rain 0 1012 100 402 12.3 340 21:58 19.03.2020
1109 Rain 0 1014 100 1609 5.1 350 21:38 19.03.2020
1110 Rain 0 1010 100 402 12.9 340 21:19 19.03.2020
1111 Rain 0 1012 100 805 8.2 350 20:44 19.03.2020
1112 Rain 0 1010 99 1609 5.1 360 20:25 19.03.2020
1113 Rain 0 1007 86 402 9.3 340 19:59 19.03.2020
1114 Rain 0 1010 99 1207 7.7 350 19:39 19.03.2020
1115 Rain 0 1009 99 805 8.2 350 19:20 19.03.2020
1116 Rain 0 1009 99 805 8.2 350 19:20 19.03.2020
1117 Rain 0 1007 100 805 10.3 340 18:57 19.03.2020
1118 Rain 0 1007 100 805 10.3 340 18:57 19.03.2020
1119 Rain 0 1009 99 805 6.2 340 18:38 19.03.2020
1120 Rain 0 1008 99 805 6.2 340 18:20 19.03.2020
1121 Rain 0 1004 100 805 7.7 340 17:43 19.03.2020
1122 Rain 0 1008 96 805 5.1 350 17:20 19.03.2020
1123 Rain 1 1004 100 1207 5.1 320 16:57 19.03.2020
1124 Rain 1 1004 100 1207 5.1 320 16:39 19.03.2020
1125 -273 0 0 0 0 0 16:21 19.03.2020
1126 Rain 2 1006 100 2414 4.6 350 15:41 19.03.2020
1127 Rain 2 1004 93 1207 6.2 330 15:23 19.03.2020
1128 Rain 2 1005 93 3219 3.6 350 14:43 19.03.2020
1129 Rain 2 1004 100 6437 2.1 360 14:21 19.03.2020
1130 Rain 3 1006 93 6437 3.1 330 13:42 19.03.2020
1131 Rain 3 1006 93 6437 3.1 330 13:21 19.03.2020
1132 Rain 3 1007 93 11265 1.5 360 12:58 19.03.2020
1133 Rain 3 1007 93 11265 1.5 360 12:40 19.03.2020
1134 Rain 3 1007 93 16093 2.6 340 12:21 19.03.2020
1135 Rain 3 1008 93 16093 1.5 350 11:43 19.03.2020
1136 Rain 3 1008 93 16093 2.1 10 11:25 19.03.2020
1137 Rain 3 1006 93 3219 4.6 10 10:58 19.03.2020
1138 Drizzle 3 1008 93 4828 3.6 10 10:38 19.03.2020
1139 Rain 3 1006 93 3219 5.1 360 10:19 19.03.2020
1140 Rain 3 1006 93 4828 5.7 340 09:55 19.03.2020
1141 Rain 4 1009 100 6437 3.1 340 09:37 19.03.2020
1142 Rain 4 1007 100 3219 5.7 350 09:18 19.03.2020
1143 Drizzle 4 1010 93 4828 5.7 360 08:41 19.03.2020
1144 Drizzle 4 1008 93 4828 6.7 340 08:20 19.03.2020
1145 Rain 4 1010 93 8047 3.6 350 07:45 19.03.2020
1146 Rain 5 1010 93 8047 4.6 360 07:25 19.03.2020
1147 Drizzle 6 1010 87 16093 6.2 10 06:35 19.03.2020
1148 Clouds 6 1011 75 16093 6.2 350 05:48 19.03.2020
1149 Clouds 7 1008 81 16093 8.7 340 04:57 19.03.2020
1150 Clouds 7 1009 75 16093 7.7 360 04:39 19.03.2020
1151 Thunderstorm 12 1007 54 16093 7.2 30 02:49 19.03.2020
1152 Clouds 14 1005 19 16093 7.2 170 01:21 19.03.2020
1153 Clouds 15 1007 29 16093 6.7 360 00:28 19.03.2020
1154 Clear 16 1007 29 16093 5.7 50 23:48 18.03.2020
1155 Clear 17 1007 23 16093 5.1 60 23:29 18.03.2020
1156 Clouds 17 1006 15 16093 6.7 220 22:56 18.03.2020
1157 Clear 17 1007 22 16093 2.1 30 22:38 18.03.2020
1158 Clear 17 1008 23 16093 3.1 50 22:20 18.03.2020
1159 Clouds 17 1008 25 16093 3.1 70 21:41 18.03.2020
1160 Clouds 17 1007 21 16093 4.1 10 21:21 18.03.2020
1161 Clouds 16 1008 16 16093 9.3 230 20:57 18.03.2020
1162 Clear 16 1009 29 16093 3.6 60 20:39 18.03.2020
1163 Clear 15 1010 31 16093 3.6 70 20:20 18.03.2020
1164 Clouds 15 1008 16 16093 9.3 240 19:56 18.03.2020
1165 Clouds 15 1008 16 16093 9.3 240 19:56 18.03.2020
1166 Clear 15 1011 25 16093 4.1 80 19:36 18.03.2020
1167 Clear 15 1011 28 16093 4.1 40 19:18 18.03.2020
1168 Clear 15 1012 28 16093 3.1 70 18:41 18.03.2020
1169 Clear 14 1012 28 16093 1.41 114 18:20 18.03.2020
1170 Clear 14 1013 23 16093 1.41 114 17:58 18.03.2020
1171 Clear 13 1013 23 16093 1.41 114 17:39 18.03.2020
1172 Clear 10 1013 45 16093 2.01 210 17:21 18.03.2020
1173 Clouds 10 1011 34 16093 2.6 80 16:54 18.03.2020
1174 Clear 9 1013 52 16093 2.01 210 16:36 18.03.2020
1175 Clear 8 1013 86 11265 2.01 210 16:18 18.03.2020
1176 Mist 5 1013 86 8047 2.01 210 15:44 18.03.2020
1177 Clear 4 1011 69 16093 2.01 210 15:20 18.03.2020
1178 Mist 2 1013 92 6437 2.01 210 14:45 18.03.2020
1179 Clear 1 1011 74 16093 2.1 170 14:22 18.03.2020
1180 Clear 1 1011 58 16093 3.6 260 13:56 18.03.2020
1181 Clear 1 1013 92 11265 2.45 214 13:36 18.03.2020
1182 Clear 1 1013 92 11265 2.85 215 13:18 18.03.2020
1183 Clear 1 1013 92 11265 2.85 215 12:41 18.03.2020
1184 Clear 1 1013 92 11265 2.85 215 12:19 18.03.2020
1185 Clear 2 1013 92 16093 1.5 180 11:39 18.03.2020
1186 Clear 2 1013 92 16093 1.5 180 11:21 18.03.2020
1187 Clear 2 1011 80 16093 3.33 210 10:58 18.03.2020
1188 Clear 3 1013 92 16093 3.33 210 10:39 18.03.2020
1189 Clear 3 1013 92 11265 3.33 210 10:20 18.03.2020
1190 Clear 3 1013 53 16093 3.33 210 09:43 18.03.2020
1191 Clear 3 1011 80 16093 1.5 270 09:25 18.03.2020
1192 Clouds 3 1011 93 16093 3.6 210 08:57 18.03.2020
1193 Clear 4 1012 53 16093 3.33 210 08:39 18.03.2020
1194 Clear 4 1012 53 16093 3.33 210 08:39 18.03.2020
1195 Clear 4 1013 52 16093 2.49 217 08:20 18.03.2020
1196 Clear 4 1013 86 16093 2.32 223 07:46 18.03.2020
1197 Clear 4 1013 51 16093 2.32 223 07:28 18.03.2020
1198 Clear 5 1013 86 16093 2.32 223 06:44 18.03.2020
1199 Clear 5 1013 80 16093 2.32 223 06:22 18.03.2020
1200 Clear 6 1013 80 16093 1.5 190 05:35 18.03.2020
1201 Clear 6 1011 75 16093 1.36 186 04:27 18.03.2020
1202 Clear 9 1009 61 16093 1.36 186 02:48 18.03.2020
1203 Clear 11 1009 53 16093 3.28 5 01:48 18.03.2020
1204 Clear 11 1011 46 16093 3.52 15 01:27 18.03.2020
1205 Clear 12 1011 46 16093 2.4 2 00:25 18.03.2020
1206 Clear 13 1011 50 16093 2.4 2 23:50 17.03.2020
1207 Clear 13 1011 46 16093 2.1 20 23:28 17.03.2020
1208 Clear 12 1012 53 16093 1.5 10 22:59 17.03.2020
1209 Clear 12 1012 53 16093 3.24 305 22:40 17.03.2020
1210 Clear 12 1012 53 16093 3.62 301 22:22 17.03.2020
1211 Clear 11 1012 57 16093 2.1 340 21:40 17.03.2020
1212 Clouds 11 1011 65 16093 1.5 270 21:21 17.03.2020
1213 Clouds 10 1014 65 16093 3.24 305 20:41 17.03.2020
1214 Clouds 10 1012 65 16093 2.6 300 20:22 17.03.2020
1215 Clouds 8 1012 61 16093 2.6 330 19:59 17.03.2020
1216 Clouds 8 1015 75 16093 4.07 340 19:40 17.03.2020
1217 Rain 7 1015 80 16093 1.5 10 19:18 17.03.2020
1218 Clouds 7 1016 80 16093 2.1 10 18:56 17.03.2020
1219 Clouds 6 1016 86 16093 2.1 350 18:37 17.03.2020
1220 Clouds 6 1016 86 16093 2.1 350 18:19 17.03.2020
1221 Clouds 5 1017 93 16093 2.6 350 17:40 17.03.2020
1222 Clouds 3 1017 100 11265 2.6 360 17:22 17.03.2020
1223 Clouds 4 1015 60 16093 3.6 220 16:55 17.03.2020
1224 Fog 3 1016 100 603 3.6 350 16:37 17.03.2020
1225 Mist 3 1018 93 2816 2.1 340 16:18 17.03.2020
1226 Mist 3 1018 100 6437 1.5 10 15:43 17.03.2020
1227 Fog 2 1016 100 603 3.6 350 15:21 17.03.2020
1228 Mist 2 1018 100 3219 2.6 10 14:42 17.03.2020
1229 Mist 2 1018 100 3219 2.6 10 14:42 17.03.2020
1230 Fog 2 1016 100 201 3.1 350 14:21 17.03.2020
1231 Mist 2 1017 100 4828 1.5 40 13:45 17.03.2020
1232 Mist 2 1017 100 4828 1.5 40 13:27 17.03.2020
1233 Clouds 2 1017 93 16093 2.6 180 12:58 17.03.2020
1234 Clouds 2 1019 93 16093 1.5 350 12:40 17.03.2020
1235 Clouds 2 1019 93 16093 1.41 313 12:22 17.03.2020
1236 Clouds 2 1020 93 16093 1.5 80 11:46 17.03.2020
1237 Clouds 2 1020 93 16093 1.41 313 11:28 17.03.2020
1238 Mist 2 1018 93 8047 2.6 130 10:58 17.03.2020
1239 Clouds 2 1021 93 11265 0.73 77 10:38 17.03.2020
1240 Mist 2 1020 86 4023 2.6 100 10:20 17.03.2020
1241 Mist 2 1019 100 1609 2.6 110 09:57 17.03.2020
1242 Mist 2 1022 93 6437 3.1 110 09:39 17.03.2020
1243 Clouds 2 1022 93 16093 2.1 110 09:18 17.03.2020
1244 Clouds 2 1023 93 16093 2.1 100 08:43 17.03.2020
1245 Mist 2 1023 93 4828 2.1 110 08:21 17.03.2020
1246 Mist 2 1021 93 1609 2.1 110 07:50 17.03.2020
1247 Mist 2 1024 86 6437 2.6 120 07:26 17.03.2020
1248 Mist 2 1022 100 2012 4.6 100 06:58 17.03.2020
1249 Clouds 2 1022 93 16093 3.1 100 06:33 17.03.2020
1250 Clouds 3 1024 80 16093 2.6 120 05:46 17.03.2020
1251 Clouds 5 1023 75 16093 6.7 90 03:40 17.03.2020
1252 Clouds 6 1022 64 16093 3.6 80 02:45 17.03.2020
1253 Clear 7 1021 30 16093 3.6 60 01:42 17.03.2020
1254 Clear 8 1019 57 16093 3.6 50 01:24 17.03.2020
1255 Clear 11 1020 40 16093 3.6 50 00:25 17.03.2020
1256 Clear 12 1019 40 16093 4.1 20 23:45 16.03.2020
1257 Clear 13 1019 40 16093 3.6 30 23:23 16.03.2020
1258 Clear 13 1019 50 16093 5.1 30 22:40 16.03.2020
1259 Clear 14 1019 53 16093 6.2 10 22:22 16.03.2020
1260 Clouds 14 1016 15 16093 3.1 90 21:55 16.03.2020
1261 Clear 14 1020 50 16093 3.6 50 21:36 16.03.2020
1262 Clouds 14 1017 17 16093 7.2 90 21:18 16.03.2020
1263 Clear 14 1021 53 16093 4.1 10 20:43 16.03.2020
1264 Clouds 14 1019 47 16093 6.7 360 20:24 16.03.2020
1265 Clouds 12 1018 19 16093 2.6 170 19:56 16.03.2020
1266 Clear 12 1021 46 16093 2.6 60 19:37 16.03.2020
1267 Clear 12 1021 27 16093 3.1 60 19:18 16.03.2020
1268 Clear 12 1021 27 16093 3.1 50 18:41 16.03.2020
1269 Clear 11 1021 27 16093 2.6 50 18:20 16.03.2020
1270 Clear 11 1021 27 16093 4.6 70 17:46 16.03.2020
1271 Clear 11 1019 53 16093 3.1 10 17:26 16.03.2020
1272 Clouds 8 1020 32 16093 2.1 170 16:58 16.03.2020
1273 Clear 8 1019 44 16093 1.5 130 16:40 16.03.2020
1274 Clear 7 1019 44 16093 1.5 130 16:22 16.03.2020
1275 Mist 4 1021 93 8047 2.1 210 15:43 16.03.2020
1276 Clear 2 1019 64 16093 2.1 190 15:25 16.03.2020
1277 Clear 1 1019 64 16093 2.1 190 14:48 16.03.2020
1278 Clear 0 1018 58 16093 2.44 216 14:24 16.03.2020
1279 Clear 0 1018 64 16093 2.1 220 13:53 16.03.2020
1280 Clear 1 1018 64 16093 2.6 310 13:30 16.03.2020
1281 Clear 1 1018 64 16093 4.6 320 12:58 16.03.2020
1282 Clear 1 1020 92 11265 2.54 222 12:40 16.03.2020
1283 Clear 1 1020 92 11265 2.54 222 12:20 16.03.2020
1284 Clear 1 1020 92 11265 2.54 222 12:20 16.03.2020
1285 Clear 1 1019 92 11265 2.54 222 11:44 16.03.2020
1286 Clear 1 1019 92 11265 2.6 210 11:26 16.03.2020
1287 Clear 1 1019 92 11265 1.5 190 10:45 16.03.2020
1288 Clear 2 1018 61 16093 1.5 200 10:25 16.03.2020
1289 Clear 2 1018 61 16093 2.61 212 09:59 16.03.2020
1290 Clear 2 1020 92 11265 2.61 212 09:38 16.03.2020
1291 Clear 2 1020 61 11265 2.1 180 09:19 16.03.2020
1292 Clear 2 1020 61 11265 1.5 220 08:43 16.03.2020
1293 Clear 2 1018 61 16093 3.1 320 08:23 16.03.2020
1294 Mist 2 1020 92 8047 1.87 230 07:43 16.03.2020
1295 Clear 3 1018 67 16093 3.1 350 07:21 16.03.2020
1296 Clear 3 1020 67 11265 1.87 230 06:41 16.03.2020
1297 Clear 3 1020 86 11265 1.87 230 06:22 16.03.2020
1298 Clear 6 1017 75 16093 1.5 160 04:26 16.03.2020
1299 Clear 10 1019 47 16093 2.6 40 01:46 16.03.2020
1300 Clouds 12 1019 40 16093 1.51 340 00:45 16.03.2020
1301 Clouds 12 1017 44 16093 1.5 10 00:26 16.03.2020
1302 Clouds 12 1020 43 16093 1.51 340 23:40 15.03.2020
1303 Clear 12 1020 43 16093 4.53 337 23:19 15.03.2020
1304 Clear 12 1020 40 16093 2.1 140 22:42 15.03.2020
1305 Clear 11 1018 40 16093 4.53 337 22:21 15.03.2020
1306 Clear 11 1020 46 16093 4.53 337 21:39 15.03.2020
1307 Clear 11 1019 61 16093 1.5 340 21:21 15.03.2020
1308 Clouds 10 1019 40 16093 3.6 50 20:58 15.03.2020
1309 Clear 10 1022 40 16093 4.53 337 20:39 15.03.2020
1310 Clear 8 1023 50 16093 1.5 110 20:19 15.03.2020
1311 Clouds 8 1020 43 16093 2.6 10 19:55 15.03.2020
1312 Clear 8 1023 50 16093 2.1 140 19:37 15.03.2020
1313 Clouds 7 1024 50 16093 3.1 100 19:18 15.03.2020
1314 Clouds 6 1024 50 16093 2.5 16 18:41 15.03.2020
1315 Clouds 5 1022 69 16093 2.5 16 18:23 15.03.2020
1316 Clouds 4 1025 50 16093 2.5 16 17:58 15.03.2020
1317 Clouds 4 1025 50 16093 2.5 16 17:38 15.03.2020
1318 Clouds 3 1025 66 11265 1.12 60 17:19 15.03.2020
1319 Clouds 2 1025 66 11265 1.12 60 16:44 15.03.2020
1320 Clouds 2 1025 66 11265 1.12 60 16:44 15.03.2020
1321 Clouds 1 1023 66 11265 1.12 60 16:26 15.03.2020
1322 Clouds 1 1022 80 16093 2.6 130 15:59 15.03.2020
1323 Clouds 1 1025 66 11265 1.12 60 15:41 15.03.2020
1324 Clouds 0 1023 66 11265 1.12 60 15:20 15.03.2020
1325 Clouds 0 1025 66 11265 1.12 60 14:46 15.03.2020
1326 Clouds 0 1023 66 11265 1.5 140 14:25 15.03.2020
1327 Clouds 0 1023 87 3219 0.69 50 13:59 15.03.2020
1328 Mist 0 1025 87 6437 0.69 50 13:38 15.03.2020
1329 Clouds 0 1023 90 12874 0.27 38 13:20 15.03.2020
1330 Mist 0 1024 90 4828 0.27 38 12:44 15.03.2020
1331 Mist 0 1024 90 4023 2.1 20 12:26 15.03.2020
1332 Fog 0 1022 90 402 2.6 360 11:57 15.03.2020
1333 Mist 0 1024 90 6437 1.5 20 11:39 15.03.2020
1334 Mist 0 1024 86 4023 2.6 20 11:20 15.03.2020
1335 Mist 0 1024 86 6437 3.1 20 10:55 15.03.2020
1336 Mist 0 1024 86 6437 3.1 20 10:36 15.03.2020
1337 Mist 0 1024 86 8047 3.1 360 10:18 15.03.2020
1338 Clouds 0 1024 86 11265 3.1 360 09:39 15.03.2020
1339 Clouds 0 1022 86 16093 3.1 360 09:20 15.03.2020
1340 Clouds 0 1024 86 11265 1.5 360 09:20 15.03.2020
1341 Clouds 0 1024 86 16093 2.6 340 08:42 15.03.2020
1342 Clouds 0 1022 80 11265 3.6 350 08:20 15.03.2020
1343 Clouds 0 1022 74 16093 2.6 210 07:51 15.03.2020
1344 Clouds 0 1022 80 16093 3.1 350 07:23 15.03.2020
1345 Clouds 1 1025 86 16093 1.5 360 06:49 15.03.2020
1346 Clouds 1 1025 80 16093 2.1 350 05:50 15.03.2020
1347 Clouds 1 1025 86 16093 2.6 360 05:18 15.03.2020
1348 Clouds 2 1024 80 16093 3.6 40 04:41 15.03.2020
1349 Clouds 2 1024 80 16093 3.6 40 04:41 15.03.2020
1350 Clouds 2 1023 68 16093 2.6 10 04:23 15.03.2020
1351 Clouds 2 1024 68 16093 3.6 10 03:30 15.03.2020
1352 Clouds 3 1024 68 16093 4.1 360 02:37 15.03.2020
1353 Clouds 4 1020 60 16093 7.7 330 01:20 15.03.2020
1354 Clouds 6 1022 65 16093 4.6 350 00:43 15.03.2020
1355 Clouds 7 1022 60 16093 4.1 350 00:21 15.03.2020
1356 Clouds 8 1022 65 16093 2.1 360 23:42 14.03.2020
1357 Clouds 8 1019 50 16093 2.6 60 23:21 14.03.2020
1358 Clouds 8 1019 43 16093 2.6 60 22:58 14.03.2020
1359 Clouds 8 1022 69 16093 3.1 320 22:40 14.03.2020
1360 Clouds 7 1021 69 16093 4.48 14 22:22 14.03.2020
1361 Clouds 7 1018 43 16093 3.1 0 21:56 14.03.2020
1362 Clouds 7 1021 69 16093 2.1 360 21:36 14.03.2020
1363 Clouds 7 1018 52 16093 3.1 40 21:18 14.03.2020
1364 Clouds 6 1018 52 16093 3.1 40 20:58 14.03.2020
1365 Clouds 6 1022 74 16093 1.5 30 20:39 14.03.2020
1366 Clouds 5 1019 60 16093 2.68 42 20:19 14.03.2020
1367 Clouds 5 1022 80 16093 1.5 300 19:42 14.03.2020
1368 Clouds 4 1022 74 16093 2.68 42 19:24 14.03.2020
1369 Clouds 4 1022 80 16093 1.5 10 18:41 14.03.2020
1370 Clouds 3 1022 80 16093 2.68 42 18:22 14.03.2020
1371 Clouds 2 1021 80 16093 2.68 42 17:55 14.03.2020
1372 Clouds 1 1021 50 16093 2.68 42 17:37 14.03.2020
1373 Clouds 1 1021 61 16093 0.47 9 17:19 14.03.2020
1374 Clouds 0 1021 61 16093 1.5 360 16:40 14.03.2020
1375 Mist 0 1018 61 6437 0.47 9 16:22 14.03.2020
1376 Clouds -1 1018 92 16093 0.47 9 15:52 14.03.2020
1377 Clouds -1 1020 92 16093 1.5 10 15:25 14.03.2020
1378 Clouds -1 1020 92 16093 1.5 330 14:46 14.03.2020
1379 Clouds -2 1017 100 11265 1.5 30 14:23 14.03.2020
1380 Clouds -2 1017 100 16093 1.5 330 13:57 14.03.2020
1381 Clouds -2 1018 92 16093 1.5 350 13:39 14.03.2020
1382 Clouds -2 1018 92 16093 2.1 350 13:20 14.03.2020
1383 Clouds -2 1018 92 16093 2.6 340 12:46 14.03.2020
1384 Clouds -2 1017 92 16093 3.1 350 12:27 14.03.2020
1385 Clouds -2 1015 100 16093 4.6 350 11:56 14.03.2020
1386 Clouds -2 1015 100 16093 4.6 350 11:56 14.03.2020
1387 Clouds -2 1015 100 16093 4.6 350 11:38 14.03.2020
1388 Clouds -1 1017 92 16093 2.1 360 11:19 14.03.2020
1389 Clouds -1 1014 82 16093 6.2 340 10:42 14.03.2020
1390 Clouds -1 1014 82 16093 6.2 340 10:42 14.03.2020
1391 Clouds -1 1015 82 16093 2.6 360 10:23 14.03.2020
1392 Clouds -1 1016 82 16093 2.6 340 09:47 14.03.2020
1393 Clouds -1 1014 82 16093 6.7 340 09:24 14.03.2020
1394 Clouds -1 1016 82 16093 3.6 340 08:54 14.03.2020
1395 Clouds -1 1016 85 16093 3.6 340 08:35 14.03.2020
1396 Clouds 0 1013 78 16093 7.7 340 07:56 14.03.2020
1397 Clouds -1 1016 78 16093 4.1 350 07:38 14.03.2020
1398 Clouds 0 1013 80 16093 3.1 170 07:19 14.03.2020
1399 Clouds 0 1015 86 16093 3.1 330 06:40 14.03.2020
1400 Clouds 0 1015 86 16093 3.1 330 06:40 14.03.2020
1401 Clouds 0 1014 78 16093 0.9 244 05:43 14.03.2020
1402 Clouds 0 1011 80 16093 9.3 170 03:49 14.03.2020
1403 Clouds 0 1011 73 16093 1.5 10 03:24 14.03.2020
1404 Snow 1 1010 73 1609 4.6 330 02:23 14.03.2020
1405 Clouds 2 1012 57 16093 3.56 203 00:49 14.03.2020
1406 Clouds 3 1012 57 16093 3.6 350 23:50 13.03.2020
1407 Clouds 3 1012 48 16093 3.1 330 23:30 13.03.2020
1408 Clouds 3 1012 48 16093 3.1 340 22:52 13.03.2020
1409 Clouds 3 1012 48 16093 2.6 300 22:26 13.03.2020
1410 Clouds 3 1013 48 16093 2.6 310 21:44 13.03.2020
1411 Clouds 4 1014 48 16093 2.1 340 21:22 13.03.2020
1412 Clouds 4 1011 64 16093 12.9 170 20:59 13.03.2020
1413 Clouds 3 1014 48 16093 5.18 167 20:40 13.03.2020
1414 Clouds 3 1015 58 16093 2.1 80 20:20 13.03.2020
1415 Clouds 3 1016 58 16093 4.84 156 19:48 13.03.2020
1416 Clouds 2 1014 80 16093 10.3 150 19:30 13.03.2020
1417 Rain 1 1017 58 2414 4.84 156 18:49 13.03.2020
1418 Rain 1 1018 86 16093 4.84 156 18:31 13.03.2020
1419 Rain 1 1015 74 16093 11.8 170 17:57 13.03.2020
1420 Rain 1 1016 58 3219 1.5 140 17:38 13.03.2020
1421 Rain 0 1018 80 6437 1.65 33 17:20 13.03.2020
1422 Clouds 0 1018 80 16093 1.65 33 16:42 13.03.2020
1423 Snow 0 1016 80 1207 5.7 180 16:24 13.03.2020
1424 Clouds 0 1016 80 12874 3.6 180 15:56 13.03.2020
1425 Clouds 0 1016 82 16093 2.1 20 15:37 13.03.2020
1426 Clouds 0 1017 86 16093 2.6 340 15:19 13.03.2020
1427 Clouds 0 1018 82 16093 2.1 350 14:41 13.03.2020
1428 Clouds 0 1019 79 16093 4.1 330 14:22 13.03.2020
1429 Clouds 0 1016 79 16093 6.2 340 13:57 13.03.2020
1430 Clouds 0 1019 80 16093 2.6 330 13:38 13.03.2020
1431 Clouds 0 1016 78 16093 2.6 260 13:19 13.03.2020
1432 Clouds 0 1019 74 16093 4.1 340 12:40 13.03.2020
1433 Clouds 0 1019 80 16093 4.1 350 12:22 13.03.2020
1434 Clouds 0 1016 69 16093 8.2 200 11:59 13.03.2020
1435 Clouds 0 1019 80 16093 4.6 340 11:41 13.03.2020
1436 Clouds 0 1019 80 16093 4.6 340 11:41 13.03.2020
1437 Clouds 0 1019 80 16093 4.6 340 11:22 13.03.2020
1438 Clouds 0 1019 80 16093 4.1 350 10:48 13.03.2020
1439 Clouds 0 1017 81 16093 5.7 350 10:28 13.03.2020
1440 Clouds 0 1017 81 16093 5.7 350 10:28 13.03.2020
1441 Clear 1 1016 69 16093 5.7 190 09:58 13.03.2020
1442 Clouds 1 1020 74 16093 3.1 360 09:39 13.03.2020
1443 Clouds 1 1020 80 16093 2.6 350 09:20 13.03.2020
1444 Clouds 1 1020 74 16093 2.1 350 08:45 13.03.2020
1445 Clouds 1 1018 81 16093 4.1 340 08:23 13.03.2020
1446 Clear 1 1018 74 16093 2.6 130 07:50 13.03.2020
1447 Clouds 1 1019 74 16093 3.6 10 07:28 13.03.2020
1448 Clouds 1 1018 69 16093 3.6 130 06:50 13.03.2020
1449 Clouds 1 1021 74 16093 1.5 30 06:32 13.03.2020
1450 Clouds 1 1021 69 16093 2.1 30 05:54 13.03.2020
1451 Clouds 1 1021 64 16093 2.1 40 05:22 13.03.2020
1452 Clouds 1 1021 64 16093 2.1 30 04:37 13.03.2020
1453 Clouds 2 1021 64 16093 2.1 30 03:37 13.03.2020
1454 Clouds 5 1019 60 16093 4.6 30 01:46 13.03.2020
1455 Clouds 5 1016 56 16093 5.7 40 01:19 13.03.2020
1456 Clouds 6 1016 49 16093 3.6 10 00:53 13.03.2020
1457 Clouds 6 1019 52 16093 4.1 40 00:24 13.03.2020
1458 Clouds 7 1018 52 16093 4.1 60 23:48 12.03.2020
1459 Clouds 7 1018 52 16093 5.7 40 23:26 12.03.2020
1460 Clouds 7 1015 52 16093 3.6 80 22:56 12.03.2020
1461 Clouds 7 1017 52 16093 3.1 30 22:38 12.03.2020
1462 Clouds 7 1016 65 16093 1.5 60 22:19 12.03.2020
1463 Clouds 7 1017 52 16093 2.6 50 21:43 12.03.2020
1464 Clouds 7 1016 65 16093 2.6 70 21:25 12.03.2020
1465 Clouds 7 1016 65 16093 2.6 70 21:25 12.03.2020
1466 Clouds 7 1016 56 16093 4.1 40 20:57 12.03.2020
1467 Clouds 7 1018 52 16093 3.6 60 20:37 12.03.2020
1468 Clouds 7 1018 52 16093 3.6 60 20:37 12.03.2020
1469 Clouds 6 1018 56 16093 2.1 70 20:18 12.03.2020
1470 Clouds 6 1016 60 32767 4.1 50 19:39 12.03.2020
1471 Clouds 7 1018 60 16093 3.1 80 19:20 12.03.2020
1472 Clouds 7 1018 60 16093 4.6 70 18:43 12.03.2020
1473 Clouds 7 1018 60 16093 4.6 70 18:43 12.03.2020
1474 Clouds 7 1018 60 16093 4.6 80 18:24 12.03.2020
1475 Clouds 7 1017 56 16093 4.6 90 17:57 12.03.2020
1476 Clear 7 1016 56 16093 3.1 90 17:37 12.03.2020
1477 Clear 7 1016 56 16093 3.1 90 17:18 12.03.2020
1478 Clouds 6 1013 52 16093 8.2 100 16:54 12.03.2020
1479 Clear 6 1015 60 16093 5.1 100 16:36 12.03.2020
1480 Clear 6 1014 56 16093 5.7 100 16:18 12.03.2020
1481 Clear 7 1013 52 16093 7.2 100 15:41 12.03.2020
1482 Clear 7 1010 49 16093 3.6 110 15:22 12.03.2020
1483 Clear 7 1012 48 16093 4.1 90 14:39 12.03.2020
1484 Clear 6 1011 42 16093 5.1 100 14:19 12.03.2020
1485 Clear 7 1010 39 16093 2.6 100 13:41 12.03.2020
1486 Clear 7 1010 34 16093 2.1 50 13:22 12.03.2020
1487 Clear 7 1009 34 16093 3.6 140 12:55 12.03.2020
1488 Clear 7 1009 34 16093 3.6 140 12:55 12.03.2020
1489 Clear 7 1010 36 16093 2.1 320 12:37 12.03.2020
1490 Clear 7 1010 36 16093 2.1 320 12:37 12.03.2020
1491 Clear 7 1010 36 16093 2.1 320 12:18 12.03.2020
1492 Clear 7 1008 36 16093 2.1 50 11:56 12.03.2020
1493 Clouds 7 1009 39 16093 2.9 207 11:37 12.03.2020
1494 Clouds 7 1009 39 16093 4.53 215 11:19 12.03.2020
1495 Clouds 7 1009 36 16093 3.6 150 10:55 12.03.2020
1496 Clear 7 1010 29 16093 1.5 320 10:55 12.03.2020
1497 Clear 7 1010 29 16093 1.5 320 10:37 12.03.2020
1498 Clear 8 1008 32 16093 10.3 260 10:18 12.03.2020
1499 Clear 8 1010 42 16093 4.53 215 09:42 12.03.2020
1500 Clear 8 1009 32 16093 9.3 260 09:23 12.03.2020
1501 Clear 9 1010 39 16093 1.5 240 08:40 12.03.2020
1502 Clouds 9 1009 30 16093 9.3 300 08:19 12.03.2020
1503 Clear 10 1010 31 16093 3.31 209 07:52 12.03.2020
1504 Clouds 10 1009 32 16093 9.3 280 07:23 12.03.2020
1505 Clouds 10 1011 26 16093 8.2 240 06:38 12.03.2020
1506 Clear 10 1011 28 16093 4.1 270 05:40 12.03.2020
1507 Clear 11 1009 35 16093 5.1 250 04:27 12.03.2020
1508 Clouds 13 1011 33 16093 6.2 300 02:34 12.03.2020
1509 Clear 16 1009 29 16093 8.2 250 01:30 12.03.2020
1510 Clouds 18 1011 20 16093 7.2 290 00:42 12.03.2020
1511 Clouds 18 1010 20 16093 4.1 50 23:59 11.03.2020
1512 Clouds 18 1010 16 16093 2.6 80 23:59 11.03.2020
1513 Clear 18 1011 20 16093 8.2 290 23:59 11.03.2020
1514 Clear 18 1012 18 16093 8.7 280 23:40 11.03.2020
1515 Clear 18 1012 18 16093 8.7 280 23:22 11.03.2020
1516 Clear 19 1012 16 16093 10.8 280 22:45 11.03.2020
1517 Clear 18 1011 20 16093 8.2 240 22:25 11.03.2020
1518 Clouds 18 1012 17 16093 3.1 30 21:58 11.03.2020
1519 Clear 18 1013 15 16093 8.7 280 21:40 11.03.2020
1520 Clear 18 1012 20 16093 7.7 240 21:22 11.03.2020
1521 Clouds 18 1014 16 16093 1.5 0 20:58 11.03.2020
1522 Clear 18 1015 14 16093 4.6 270 20:38 11.03.2020
1523 Clear 15 1014 17 16093 10.8 250 20:19 11.03.2020
1524 Clear 15 1016 18 16093 2.1 20 19:43 11.03.2020
1525 Clear 16 1015 21 16093 1.5 90 19:25 11.03.2020
1526 Clouds 15 1016 21 16093 1.5 260 18:57 11.03.2020
1527 Clear 15 1017 21 16093 3.1 40 18:38 11.03.2020
1528 Clear 15 1017 21 16093 3.1 40 18:20 11.03.2020
1529 Clear 14 1017 22 16093 2.6 30 17:55 11.03.2020
1530 Clear 13 1017 24 16093 1.5 30 17:37 11.03.2020
1531 Clear 10 1017 24 16093 1.5 30 17:19 11.03.2020
1532 Clear 8 1017 26 16093 4.02 223 16:44 11.03.2020
1533 Clear 9 1018 36 16093 2.6 110 16:20 11.03.2020
1534 Clear 7 1018 64 16093 2.1 110 15:44 11.03.2020
1535 Clear 5 1019 74 16093 1.5 360 15:23 11.03.2020
1536 Clouds 4 1018 41 16093 3.1 210 14:56 11.03.2020
1537 Clear 4 1019 79 16093 4.02 223 14:37 11.03.2020
1538 Clear 3 1019 74 16093 1.5 200 14:18 11.03.2020
1539 Clear 3 1019 74 16093 3.72 225 13:42 11.03.2020
1540 Clear 3 1017 55 16093 1.5 50 13:24 11.03.2020
1541 Clear 3 1018 35 16093 3.6 230 12:56 11.03.2020
1542 Clear 3 1019 68 16093 2.6 240 12:38 11.03.2020
1543 Clear 3 1019 79 16093 4.21 225 12:19 11.03.2020
1544 Clear 3 1019 74 16093 4.21 225 11:41 11.03.2020
1545 Clear 3 1020 74 16093 4.24 224 11:21 11.03.2020
1546 Clear 3 1020 61 16093 4.24 224 10:49 11.03.2020
1547 Clear 3 1020 64 16093 1.5 170 10:21 11.03.2020
1548 Clear 3 1019 31 16093 2.1 210 10:21 11.03.2020
1549 Clear 3 1019 31 16093 2.1 210 10:21 11.03.2020
1550 Clear 3 1020 64 16093 3.1 200 09:59 11.03.2020
1551 Clear 3 1021 69 16093 4.24 224 09:40 11.03.2020
1552 Clear 3 1019 36 16093 2.6 220 09:21 11.03.2020
1553 Clear 4 1021 55 16093 4.24 224 08:43 11.03.2020
1554 Clear 4 1020 41 16093 2.1 240 08:25 11.03.2020
1555 Clear 5 1021 48 16093 2.47 210 07:47 11.03.2020
1556 Clear 5 1020 42 16093 1.5 170 07:21 11.03.2020
1557 Clear 6 1020 56 16093 2.6 180 06:50 11.03.2020
1558 Clear 6 1021 39 16093 2.1 170 06:31 11.03.2020
1559 Clear 7 1021 34 16093 4.1 260 05:32 11.03.2020
1560 Clear 9 1018 34 16093 8.7 250 03:26 11.03.2020
1561 Clear 9 1018 34 16093 8.7 250 03:26 11.03.2020
1562 Clear 12 1020 28 16093 11.3 270 01:53 11.03.2020
1563 Clear 13 1018 30 16093 9.3 240 01:24 11.03.2020
1564 Clear 14 1018 30 16093 9.3 250 00:40 11.03.2020
1565 Clouds 15 1018 26 16093 4.1 60 23:50 10.03.2020
1566 Clear 15 1020 21 16093 10.3 290 23:28 10.03.2020
1567 Clouds 15 1018 35 16093 6.2 40 22:58 10.03.2020
1568 Clear 15 1020 18 16093 10.3 270 22:37 10.03.2020
1569 Clear 15 1020 23 16093 12.9 280 22:19 10.03.2020
1570 Clouds 15 1018 21 16093 2.1 60 21:56 10.03.2020
1571 Clear 15 1020 23 16093 12.3 290 21:38 10.03.2020
1572 Clear 16 1020 21 16093 10.8 290 21:18 10.03.2020
1573 Clear 16 1019 22 16093 7.7 270 21:18 10.03.2020
1574 Clear 16 1020 17 16093 8.2 290 20:42 10.03.2020
1575 Clear 13 1020 18 16093 8.7 290 20:19 10.03.2020
1576 Clouds 14 1019 22 16093 2.1 80 19:58 10.03.2020
1577 Clear 14 1020 20 16093 7.7 290 19:40 10.03.2020
1578 Clear 14 1021 21 16093 8.2 290 19:22 10.03.2020
1579 Clouds 14 1020 22 16093 1.5 0 18:56 10.03.2020
1580 Clear 14 1021 26 16093 8.2 310 18:37 10.03.2020
1581 Clear 14 1021 28 16093 2.1 360 18:18 10.03.2020
1582 Clear 12 1021 34 16093 1.72 162 17:41 10.03.2020
1583 Clear 9 1022 46 16093 3.44 214 17:22 10.03.2020
1584 Clouds 8 1021 29 16093 2.1 160 16:54 10.03.2020
1585 Clear 8 1020 60 16093 2.1 10 16:36 10.03.2020
1586 Clear 7 1022 69 16093 3.44 214 16:18 10.03.2020
1587 Clear 4 1022 74 16093 3.44 214 15:41 10.03.2020
1588 Clouds 3 1020 48 16093 3.6 170 15:19 10.03.2020
1589 Clouds 3 1020 48 16093 3.6 170 14:57 10.03.2020
1590 Clear 2 1022 86 16093 1.5 150 14:39 10.03.2020
1591 Clear 2 1020 80 16093 2.6 320 14:18 10.03.2020
1592 Clear 2 1021 69 16093 3.93 219 13:43 10.03.2020
1593 Clear 2 1020 51 16093 2.1 180 13:25 10.03.2020
1594 Clear 3 1021 74 16093 2.6 160 12:42 10.03.2020
1595 Clear 3 1021 74 16093 2.1 230 12:21 10.03.2020
1596 Clear 3 1019 41 16093 2.6 260 11:59 10.03.2020
1597 Clear 3 1021 74 16093 1.5 170 11:41 10.03.2020
1598 Clouds 3 1020 59 16093 2.1 190 11:23 10.03.2020
1599 Clear 3 1022 74 16093 2.75 220 10:54 10.03.2020
1600 Clear 3 1022 74 16093 2.75 220 10:36 10.03.2020
1601 Clear 3 1021 60 16093 4.1 340 10:18 10.03.2020
1602 Clear 3 1022 69 16093 1.5 200 09:44 10.03.2020
1603 Clear 3 1020 56 16093 3.1 30 09:20 10.03.2020
1604 Clear 4 1021 60 16093 3.1 170 08:53 10.03.2020
1605 Clear 4 1022 69 16093 2.6 220 08:34 10.03.2020
1606 Clear 4 1022 64 16093 2.1 230 07:53 10.03.2020
1607 Clear 4 1021 48 16093 2.6 200 07:35 10.03.2020
1608 Clear 5 1021 52 16093 1.5 230 06:57 10.03.2020
1609 Clear 5 1022 45 16093 4.1 180 06:37 10.03.2020
1610 Clear 6 1022 60 16093 3.6 130 05:42 10.03.2020
1611 Clouds 7 1020 52 16093 3.6 110 04:59 10.03.2020
1612 Clouds 7 1020 49 16093 3.6 100 04:25 10.03.2020
1613 Clouds 10 1019 37 32767 2.6 60 02:58 10.03.2020
1614 Clear 13 1017 18 16093 6.2 220 01:32 10.03.2020
1615 Clouds 13 1018 35 16093 5.1 50 00:50 10.03.2020
1616 Clear 14 1019 24 16093 2.1 30 00:28 10.03.2020
1617 Clear 14 1018 26 16093 4.1 80 23:42 09.03.2020
1618 Clear 14 1018 26 16093 4.1 80 23:22 09.03.2020
1619 Clouds 14 1017 30 16093 2.1 0 22:57 09.03.2020
1620 Clear 14 1018 23 16093 4.6 140 22:37 09.03.2020
1621 Clouds 14 1017 18 16093 3.1 320 22:18 09.03.2020
1622 Clouds 14 1018 30 16093 1.5 110 21:43 09.03.2020
1623 Clouds 13 1018 40 16093 2.1 120 21:22 09.03.2020
1624 Clouds 13 1018 40 16093 2.1 120 20:58 09.03.2020
1625 Clear 13 1019 35 16093 2.1 10 20:40 09.03.2020
1626 Clear 11 1020 41 16093 1.56 99 20:20 09.03.2020
1627 Clear 11 1020 50 16093 1.5 140 19:45 09.03.2020
1628 Clouds 10 1018 53 16093 2.1 110 19:26 09.03.2020
1629 Clouds 10 1019 61 16093 2.1 160 18:59 09.03.2020
1630 Clear 9 1021 66 16093 2.6 110 18:40 09.03.2020
1631 Clear 8 1021 66 16093 2.1 100 18:20 09.03.2020
1632 Clouds 7 1019 75 16093 3.6 160 17:58 09.03.2020
1633 Clouds 7 1021 81 16093 1.56 99 17:38 09.03.2020
1634 Clouds 6 1021 81 16093 1.57 198 17:20 09.03.2020
1635 Clouds 5 1019 100 16093 1.57 198 16:58 09.03.2020
1636 Clouds 5 1021 81 16093 1.57 198 16:40 09.03.2020
1637 Clouds 4 1018 93 16093 1.5 60 16:22 09.03.2020
1638 Clouds 4 1020 86 16093 1.5 120 15:58 09.03.2020
1639 Clouds 3 1020 93 16093 1.57 198 15:39 09.03.2020
1640 Clouds 3 1020 93 16093 1.57 198 15:21 09.03.2020
1641 Clouds 3 1020 93 16093 1.57 198 14:57 09.03.2020
1642 Clouds 3 1018 100 11265 2.1 170 14:37 09.03.2020
1643 Mist 3 1018 100 9656 0.77 108 14:19 09.03.2020
1644 Clouds 3 1019 93 16093 0.77 108 13:55 09.03.2020
1645 Mist 3 1017 100 4828 2.6 90 13:37 09.03.2020
1646 Clouds 3 1019 93 11265 0.77 108 13:18 09.03.2020
1647 Clouds 3 1019 93 11265 0.92 47 12:43 09.03.2020
1648 Clouds 3 1018 93 11265 1.5 80 12:22 09.03.2020
1649 Clouds 3 1016 100 11265 1.5 30 11:54 09.03.2020
1650 Snow 3 1018 93 16093 1.5 60 11:36 09.03.2020
1651 Snow 3 1018 93 16093 1.5 60 11:18 09.03.2020
1652 Snow 3 1016 100 16093 1.36 94 10:54 09.03.2020
1653 Snow 3 1018 93 16093 1.36 94 10:36 09.03.2020
1654 Snow 3 1018 93 16093 1.36 94 10:18 09.03.2020
1655 Rain 3 1016 100 16093 1.5 360 09:38 09.03.2020
1656 Rain 3 1017 93 11265 1.36 94 09:19 09.03.2020
1657 Rain 3 1015 100 16093 1.5 30 08:44 09.03.2020
1658 Rain 3 1017 93 16093 2.1 40 08:25 09.03.2020
1659 Rain 3 1015 100 16093 3.1 50 07:42 09.03.2020
1660 Rain 3 1016 86 16093 3.6 40 07:22 09.03.2020
1661 Rain 4 1015 93 11265 4.6 70 06:46 09.03.2020
1662 Rain 4 1016 87 16093 3.6 60 06:26 09.03.2020
1663 Drizzle 5 1016 93 16093 4.6 30 05:52 09.03.2020
1664 Drizzle 6 1016 93 16093 4.6 30 05:34 09.03.2020
1665 Rain 7 1015 81 11265 5.1 330 04:43 09.03.2020
1666 Rain 8 1015 70 16093 3.6 340 04:22 09.03.2020
1667 Clouds 10 1013 53 16093 4.1 20 03:20 09.03.2020
1668 Clouds 13 1011 35 16093 9.3 40 01:41 09.03.2020
1669 Clouds 16 1010 21 16093 6.2 120 00:38 09.03.2020
1670 Clouds 16 1010 21 16093 6.2 120 00:20 09.03.2020
1671 Clouds 17 1010 17 16093 2.6 90 23:48 08.03.2020
1672 Clouds 17 1009 14 16093 2.6 50 23:22 08.03.2020
1673 Clouds 17 1008 13 16093 1.94 109 22:57 08.03.2020
1674 Clouds 18 1007 17 16093 3.6 140 22:38 08.03.2020
1675 Clouds 18 1009 12 16093 1.5 70 22:20 08.03.2020
1676 Clouds 18 1009 11 16093 1.94 109 21:54 08.03.2020
1677 Clouds 18 1009 11 16093 1.94 109 21:54 08.03.2020
1678 Clouds 18 1009 12 16093 1.94 109 21:36 08.03.2020
1679 Clouds 19 1009 12 16093 1.94 109 21:18 08.03.2020
1680 Clouds 19 1009 12 16093 1.94 109 21:18 08.03.2020
1681 Clear 18 1011 12 16093 1.94 109 20:39 08.03.2020
1682 Clear 16 1011 12 16093 1.55 184 20:21 08.03.2020
1683 Clouds 15 1010 15 16093 4.6 100 19:54 08.03.2020
1684 Clear 16 1009 15 16093 6.7 270 19:36 08.03.2020
1685 Clear 15 1011 14 16093 3.6 190 19:18 08.03.2020
1686 Clear 16 1011 14 16093 3.6 170 18:40 08.03.2020
1687 Clouds 16 1011 23 16093 3.1 210 18:22 08.03.2020
1688 Clear 16 1010 18 16093 9.3 220 17:56 08.03.2020
1689 Clear 16 1010 31 16093 3.1 50 17:37 08.03.2020
1690 Clear 12 1012 37 16093 1.5 40 17:18 08.03.2020
1691 Clear 11 1012 37 16093 1.5 40 16:43 08.03.2020
1692 Clear 11 1010 40 16093 5.96 209 16:25 08.03.2020
1693 Clouds 8 1010 40 16093 5.1 170 15:56 08.03.2020
1694 Clear 7 1012 64 16093 5.96 209 15:37 08.03.2020
1695 Clear 6 1010 56 16093 5.96 209 15:18 08.03.2020
1696 Clear 6 1011 59 16093 2.1 180 14:40 08.03.2020
1697 Clear 6 1009 52 16093 2.1 290 14:21 08.03.2020
1698 Clouds 6 1009 56 16093 5.1 180 13:56 08.03.2020
1699 Clouds 6 1009 56 16093 5.1 180 13:56 08.03.2020
1700 Clear 6 1011 59 16093 4 205 13:37 08.03.2020
1701 Clear 6 1009 45 16093 2.1 180 13:18 08.03.2020
1702 Clear 6 1011 52 16093 4.96 215 12:38 08.03.2020
1703 Clear 7 1009 39 16093 1.5 80 12:19 08.03.2020
1704 Clear 7 1011 59 16093 2.6 230 11:44 08.03.2020
1705 Clouds 7 1009 45 16093 4.1 180 11:25 08.03.2020
1706 Clear 7 1011 41 16093 4.83 204 10:59 08.03.2020
1707 Clear 8 1011 41 16093 4.83 204 10:40 08.03.2020
1708 Clear 8 1011 41 16093 4.83 204 10:22 08.03.2020
1709 Clear 8 1011 51 16093 2.1 270 09:40 08.03.2020
1710 Clear 8 1010 34 16093 4.6 230 09:22 08.03.2020
1711 Clear 8 1011 51 16093 4.83 204 08:49 08.03.2020
1712 Clear 8 1011 45 16093 2.6 200 08:25 08.03.2020
1713 Clear 8 1011 55 16093 2.6 210 07:50 08.03.2020
1714 Clear 8 1010 55 16093 2.1 210 07:28 08.03.2020
1715 Clear 9 1012 48 16093 4.63 215 06:51 08.03.2020
1716 Clear 9 1011 27 16093 2.6 180 06:33 08.03.2020
1717 Clear 10 1012 34 16093 4.63 215 05:49 08.03.2020
1718 Clear 11 1012 34 16093 2.1 220 04:24 08.03.2020
1719 Clear 12 1012 27 16093 5.16 212 03:19 08.03.2020
1720 Clouds 16 1011 21 16093 6.2 210 01:55 08.03.2020
1721 Clear 18 1012 10 16093 3.6 140 01:20 08.03.2020
1722 Clear 18 1013 9 16093 4.1 140 00:41 08.03.2020
1723 Clear 19 1013 9 16093 4.6 110 23:59 07.03.2020
1724 Clear 19 1013 9 16093 4.6 110 23:41 07.03.2020
1725 Clear 19 1013 9 16093 3.1 130 23:20 07.03.2020
1726 Clear 19 1014 11 16093 2.1 70 22:38 07.03.2020
1727 Clear 19 1014 11 16093 2.1 70 22:20 07.03.2020
1728 Clear 18 1015 12 16093 2.6 120 21:45 07.03.2020
1729 Clear 18 1015 12 16093 4.63 184 21:24 07.03.2020
1730 Clear 18 1016 12 16093 1.5 330 20:41 07.03.2020
1731 Clear 16 1016 12 16093 1.5 330 20:22 07.03.2020
1732 Clear 16 1016 12 16093 1.5 330 20:22 07.03.2020
1733 Clear 16 1017 13 16093 2.1 300 19:55 07.03.2020
1734 Clear 16 1016 18 16093 2.1 10 19:37 07.03.2020
1735 Clear 16 1018 13 16093 4.6 270 19:18 07.03.2020
1736 Clouds 16 1017 16 16093 9.8 290 18:40 07.03.2020
1737 Clear 16 1018 13 16093 3.6 280 18:21 07.03.2020
1738 Clear 15 1018 16 16093 2.1 340 17:43 07.03.2020
1739 Clear 13 1018 19 16093 1.5 10 17:21 07.03.2020
1740 Clear 10 1019 37 16093 2.1 50 16:59 07.03.2020
1741 Clear 10 1019 37 16093 2.1 50 16:41 07.03.2020
1742 Clear 8 1019 49 16093 4.01 213 16:22 07.03.2020
1743 Clear 7 1019 64 16093 4.01 213 15:57 07.03.2020
1744 Clear 6 1016 45 16093 2.1 210 15:37 07.03.2020
1745 Clear 5 1018 74 16093 4.01 213 15:19 07.03.2020
1746 Clear 4 1018 64 16093 2.1 210 14:46 07.03.2020
1747 Clear 4 1018 61 16093 2.1 200 14:25 07.03.2020
1748 Clear 4 1018 61 16093 3.61 217 13:58 07.03.2020
1749 Clear 4 1019 61 16093 3.61 217 13:38 07.03.2020
1750 Clear 4 1019 61 16093 3.61 217 13:19 07.03.2020
1751 Clear 4 1017 33 16093 3.95 216 12:41 07.03.2020
1752 Clear 4 1019 58 16093 1.5 230 12:20 07.03.2020
1753 Clear 4 1019 58 16093 1.5 130 11:57 07.03.2020
1754 Clear 4 1017 33 16093 3.95 216 11:38 07.03.2020
1755 Clouds 4 1018 48 16093 4.1 190 11:19 07.03.2020
1756 Clear 4 1018 35 16093 1.5 210 10:40 07.03.2020
1757 Clouds 5 1018 41 16093 3.1 210 10:20 07.03.2020
1758 Clear 5 1018 35 16093 1.5 150 09:56 07.03.2020
1759 Clouds 5 1019 41 16093 4.1 210 09:37 07.03.2020
1760 Clouds 5 1019 41 16093 4.1 210 09:18 07.03.2020
1761 Clear 6 1018 26 16093 3.1 290 08:43 07.03.2020
1762 Clouds 6 1018 38 16093 3.6 230 08:21 07.03.2020
1763 Clear 6 1019 29 16093 5.1 300 07:49 07.03.2020
1764 Clear 6 1019 29 16093 4.1 310 07:22 07.03.2020
1765 Clear 6 1019 36 16093 2.1 270 06:54 07.03.2020
1766 Clear 7 1019 36 16093 2.1 270 06:29 07.03.2020
1767 Clear 7 1021 51 16093 2.81 215 05:46 07.03.2020
1768 Clear 8 1021 51 16093 2.38 229 04:40 07.03.2020
1769 Clear 12 1022 44 16093 3.1 150 02:46 07.03.2020
1770 Clear 13 1020 29 16093 3.6 230 02:24 07.03.2020
1771 Clear 16 1021 11 16093 1.5 70 01:23 07.03.2020
1772 Clear 18 1021 10 16093 3.1 40 00:38 07.03.2020
1773 Clear 18 1021 10 16093 3.1 40 00:19 07.03.2020
1774 Clouds 18 1020 12 32767 2.06 143 23:43 06.03.2020
1775 Clear 18 1021 9 16093 2.06 143 23:24 06.03.2020
1776 Clear 17 1021 9 16093 1.5 300 22:47 06.03.2020
1777 Clear 17 1022 9 16093 1.72 157 22:21 06.03.2020
1778 Clear 17 1023 9 16093 1.72 157 21:50 06.03.2020
1779 Clear 18 1023 9 16093 2.1 340 21:21 06.03.2020
1780 Clear 17 1024 18 16093 1.72 157 20:56 06.03.2020
1781 Clear 17 1024 21 16093 2.6 10 20:36 06.03.2020
1782 Clear 14 1024 21 16093 2.6 10 20:18 06.03.2020
1783 Clear 13 1023 26 16093 1.5 350 19:43 06.03.2020
1784 Clear 13 1025 28 16093 3.6 360 19:24 06.03.2020
1785 Clear 12 1026 27 16093 1.76 218 18:43 06.03.2020
1786 Clear 13 1026 27 16093 1.76 218 18:21 06.03.2020
1787 Clouds 12 1025 18 16093 4.6 250 17:58 06.03.2020
1788 Clear 11 1025 39 16093 1.76 218 17:40 06.03.2020
1789 Clouds 7 1025 31 32767 2.6 140 17:21 06.03.2020
1790 Clear 5 1027 64 16093 3.61 213 16:57 06.03.2020
1791 Clear 5 1027 64 16093 3.61 213 16:39 06.03.2020
1792 Clear 4 1027 64 16093 3.61 213 16:19 06.03.2020
1793 Clear 2 1027 80 16093 3.61 213 15:42 06.03.2020
1794 Clear 2 1027 79 16093 2.1 220 15:23 06.03.2020
1795 Clear 1 1028 74 16093 3.1 180 14:42 06.03.2020
1796 Clear 0 1028 79 16093 3.39 217 14:24 06.03.2020
1797 Clear 0 1026 51 16093 3.39 217 13:58 06.03.2020
1798 Clear 0 1026 51 16093 3.39 217 13:58 06.03.2020
1799 Clear 0 1026 51 16093 3.39 217 13:40 06.03.2020
1800 Clear 0 1028 85 16093 2.1 200 13:20 06.03.2020
1801 Clear 0 1026 47 16093 3.45 217 12:55 06.03.2020
1802 Clear 0 1028 85 16093 3.45 217 12:36 06.03.2020
1803 Clear 0 1028 85 16093 3.45 217 12:18 06.03.2020
1804 Clear 0 1028 79 16093 3.45 217 11:42 06.03.2020
1805 Clear 0 1028 79 16093 2.79 217 11:21 06.03.2020
1806 Clear 0 1029 74 16093 2.79 217 10:57 06.03.2020
1807 Clear 0 1029 79 16093 2.79 217 10:36 06.03.2020
1808 Clear 0 1029 79 16093 2.79 217 10:18 06.03.2020
1809 Clear 0 1030 79 16093 1.5 200 09:42 06.03.2020
1810 Clear 0 1030 74 16093 2.79 217 09:24 06.03.2020
1811 Clear 1 1030 74 16093 2.1 210 08:56 06.03.2020
1812 Clear 1 1028 64 16093 2.6 240 08:38 06.03.2020
1813 Clear 1 1030 74 16093 1.81 219 08:19 06.03.2020
1814 Clear 1 1030 79 16093 1.97 219 07:42 06.03.2020
1815 Clear 1 1030 63 16093 1.97 219 07:22 06.03.2020
1816 Clear 2 1030 59 16093 1.97 219 06:43 06.03.2020
1817 Clear 2 1030 59 16093 1.97 219 06:22 06.03.2020
1818 Clear 2 1029 55 16093 1.97 219 05:38 06.03.2020
1819 Clear 3 1030 59 16093 1.5 270 05:19 06.03.2020
1820 Clear 4 1030 64 16093 1.52 234 04:35 06.03.2020
1821 Clear 9 1030 25 16093 0.87 92 01:44 06.03.2020
1822 Clear 10 1030 27 16093 3.1 70 01:25 06.03.2020
1823 Clear 11 1029 23 16093 1.5 50 00:50 06.03.2020
1824 Clear 11 1029 25 16093 2.6 90 00:30 06.03.2020
1825 Clear 11 1029 25 16093 2.1 80 23:44 05.03.2020
1826 Clear 11 1030 25 16093 1.15 76 23:25 05.03.2020
1827 Clear 11 1030 25 16093 1.5 120 22:55 05.03.2020
1828 Clear 10 1030 27 16093 2.6 120 22:36 05.03.2020
1829 Clear 10 1030 27 16093 2.6 120 22:18 05.03.2020
1830 Clear 10 1030 29 16093 4.1 110 21:54 05.03.2020
1831 Clear 10 1028 29 16093 2.1 80 21:36 05.03.2020
1832 Clear 10 1028 29 16093 2.1 80 21:36 05.03.2020
1833 Clear 9 1030 29 16093 2.6 90 21:18 05.03.2020
1834 Clear 9 1031 31 16093 4.1 130 20:42 05.03.2020
1835 Clear 9 1031 31 16093 4.1 130 20:42 05.03.2020
1836 Clear 8 1031 31 16093 1.5 170 20:21 05.03.2020
1837 Clear 7 1031 33 16093 3.6 140 19:59 05.03.2020
1838 Clear 6 1032 35 16093 5.1 140 19:39 05.03.2020
1839 Clear 6 1032 35 16093 5.1 140 19:21 05.03.2020
1840 Clear 6 1032 35 16093 5.1 140 19:21 05.03.2020
1841 Clear 6 1032 41 16093 5.1 130 18:58 05.03.2020
1842 Clear 5 1032 41 16093 4.1 150 18:37 05.03.2020
1843 Clear 4 1032 41 16093 4.1 150 18:18 05.03.2020
1844 Clear 4 1032 47 16093 4.1 140 17:55 05.03.2020
1845 Clear 3 1030 59 16093 3.1 140 17:37 05.03.2020
1846 Clear 2 1032 51 16093 3.6 160 17:18 05.03.2020
1847 Clear 1 1032 55 16093 5.1 170 16:41 05.03.2020
1848 Clear 0 1031 64 16093 5.7 140 16:22 05.03.2020
1849 Clouds 0 1030 44 16093 4.1 160 15:54 05.03.2020
1850 Clouds -1 1030 44 16093 5.1 150 15:36 05.03.2020
1851 Clouds -2 1030 44 16093 5.1 150 15:18 05.03.2020
1852 Clouds -2 1030 80 16093 4.6 150 14:41 05.03.2020
1853 Clouds -2 1030 47 16093 4.6 160 14:22 05.03.2020
1854 Clouds -2 1030 80 16093 5.1 140 13:57 05.03.2020
1855 Clouds -2 1030 47 16093 4.1 140 13:39 05.03.2020
1856 Clouds -2 1030 47 16093 4.1 140 13:20 05.03.2020
1857 Clouds -2 1029 80 16093 2.1 180 12:43 05.03.2020
1858 Clouds -2 1029 80 16093 1.5 170 12:21 05.03.2020
1859 Clear -2 1028 80 16093 0.8 210 11:58 05.03.2020
1860 Clouds -2 1026 86 16093 0.8 210 11:39 05.03.2020
1861 Clear -1 1027 80 16093 5.1 80 11:20 05.03.2020
1862 Clear 0 1025 46 16093 9.3 80 10:58 05.03.2020
1863 Clear 1 1025 46 16093 9.3 80 10:40 05.03.2020
1864 Clear 3 1024 24 16093 4.1 30 10:21 05.03.2020
1865 Clear 4 1023 24 16093 5.1 350 09:59 05.03.2020
1866 Clear 5 1023 24 16093 5.1 350 09:40 05.03.2020
1867 Clear 6 1023 22 16093 5.7 330 09:21 05.03.2020
1868 Clear 6 1021 20 16093 5.1 310 08:43 05.03.2020
1869 Clear 5 1021 19 16093 3.6 290 08:24 05.03.2020
1870 Clear 6 1020 14 16093 9.8 290 07:45 05.03.2020
1871 Clear 6 1021 19 16093 2.6 40 07:22 05.03.2020
1872 Clear 6 1020 14 16093 4.1 280 06:45 05.03.2020
1873 Clear 7 1020 14 16093 4.1 280 06:21 05.03.2020
1874 Clear 8 1016 17 16093 13.4 250 05:37 05.03.2020
1875 Clear 9 1019 14 16093 2.51 240 04:25 05.03.2020
1876 Clear 9 1018 15 16093 2.6 250 03:58 05.03.2020
1877 Clear 10 1019 14 16093 3.1 220 03:18 05.03.2020
1878 Clear 13 1017 8 16093 5.7 280 01:28 05.03.2020
1879 Clear 15 1017 6 16093 8.2 290 00:56 05.03.2020
1880 Clear 16 1016 6 16093 10.8 290 23:58 04.03.2020
1881 Clear 16 1016 6 16093 10.8 290 23:58 04.03.2020
1882 Clear 16 1015 9 16093 5.7 270 23:40 04.03.2020
1883 Clear 15 1016 6 16093 8.7 290 23:21 04.03.2020
1884 Clear 15 1016 6 16093 6.7 300 22:56 04.03.2020
1885 Clear 15 1014 9 16093 3.6 270 22:37 04.03.2020
1886 Clear 16 1016 7 16093 8.2 300 22:19 04.03.2020
1887 Clear 16 1016 6 16093 4.28 16 21:55 04.03.2020
1888 Clear 16 1014 9 16093 5.7 290 21:37 04.03.2020
1889 Clear 16 1016 7 16093 4.28 16 21:18 04.03.2020
1890 Clear 17 1014 11 16093 5.7 180 20:40 04.03.2020
1891 Clear 16 1014 11 16093 5.7 180 20:40 04.03.2020
1892 Clear 16 1016 9 16093 5.1 290 20:22 04.03.2020
1893 Clear 14 1016 8 16093 6.7 240 19:57 04.03.2020
1894 Clear 14 1016 9 16093 8.2 240 19:38 04.03.2020
1895 Clear 13 1016 9 16093 8.2 240 19:20 04.03.2020
1896 Clear 12 1015 13 16093 1.5 350 18:42 04.03.2020
1897 Clear 12 1017 27 16093 3.26 206 18:23 04.03.2020
1898 Clouds 9 1016 10 32767 16.5 260 17:59 04.03.2020
1899 Clear 9 1017 29 16093 2.1 10 17:39 04.03.2020
1900 Clear 6 1017 29 16093 2.1 10 17:20 04.03.2020
1901 Clear 6 1017 24 16093 3.73 224 16:56 04.03.2020
1902 Clear 6 1017 30 16093 1.5 140 16:37 04.03.2020
1903 Clear 3 1017 30 16093 1.5 140 16:19 04.03.2020
1904 Clear 3 1018 63 16093 3.73 224 15:42 04.03.2020
1905 Clear 2 1018 63 16093 3.73 224 15:24 04.03.2020
1906 Clear 1 1018 54 16093 3.73 224 14:58 04.03.2020
1907 Clear 0 1018 50 16093 3.73 224 14:39 04.03.2020
1908 Clear 0 1018 53 16093 4.09 213 14:19 04.03.2020
1909 Clear 0 1018 54 16093 1.5 170 13:58 04.03.2020
1910 Clear 0 1018 54 16093 1.5 170 13:39 04.03.2020
1911 Clear 0 1018 68 16093 4.09 213 13:39 04.03.2020
1912 Clear 0 1018 68 16093 4.09 213 13:20 04.03.2020
1913 Clear 0 1018 58 16093 1.5 200 12:55 04.03.2020
1914 Clear 0 1018 58 16093 1.5 200 12:55 04.03.2020
1915 Clear 0 1017 56 16093 1.5 280 12:37 04.03.2020
1916 Clear 0 1018 50 16093 3.94 214 12:19 04.03.2020
1917 Clear 0 1019 56 16093 3.94 214 11:42 04.03.2020
1918 Clear 0 1019 56 16093 3.94 214 11:23 04.03.2020
1919 Clear 0 1019 58 16093 3.1 200 10:58 04.03.2020
1920 Clear 0 1017 37 16093 1.5 230 10:40 04.03.2020
1921 Clear 0 1019 58 16093 2.1 130 10:19 04.03.2020
1922 Clear 0 1019 47 16093 3.1 200 09:43 04.03.2020
1923 Clear 0 1019 47 16093 3.1 210 09:21 04.03.2020
1924 Clear 0 1020 55 16093 3.6 200 08:48 04.03.2020
1925 Clear 1 1020 51 16093 3.6 190 08:28 04.03.2020
1926 Clear 1 1019 43 16093 3.6 200 07:56 04.03.2020
1927 Clear 1 1019 43 16093 3.6 200 07:38 04.03.2020
1928 Clear 1 1020 51 16093 2.1 230 07:20 04.03.2020
1929 Clear 1 1019 40 16093 1.5 190 06:43 04.03.2020
1930 Clear 2 1020 66 16093 2.32 201 06:23 04.03.2020
1931 Clear 3 1018 27 16093 2.32 201 05:50 04.03.2020
1932 Clear 5 1018 47 16093 1.5 200 04:30 04.03.2020
1933 Clear 7 1017 28 16093 1.69 221 03:42 04.03.2020
1934 Clear 7 1017 28 16093 1.5 140 03:24 04.03.2020
1935 Clear 9 1016 27 16093 1.69 221 02:55 04.03.2020
1936 Clear 9 1016 25 16093 1.49 16 02:20 04.03.2020
1937 Clear 10 1015 20 16093 1.49 16 01:53 04.03.2020
1938 Clear 14 1013 16 16093 5.1 270 00:50 04.03.2020
1939 Clear 13 1013 14 16093 5.1 280 00:25 04.03.2020
1940 Clear 14 1012 14 16093 5.7 240 23:46 03.03.2020
1941 Clear 14 1012 15 16093 6.7 250 23:27 03.03.2020
1942 Clear 14 1012 18 16093 4.6 240 22:58 03.03.2020
1943 Clear 14 1012 18 16093 4.6 240 22:58 03.03.2020
1944 Clear 13 1011 19 16093 7.2 260 22:40 03.03.2020
1945 Clear 13 1011 19 16093 7.2 260 22:19 03.03.2020
1946 Clear 13 1011 34 16093 3.53 348 21:57 03.03.2020
1947 Clear 13 1012 37 16093 1.5 100 21:38 03.03.2020
1948 Clear 12 1012 37 16093 1.5 100 21:19 03.03.2020
1949 Clear 12 1013 45 16093 3.53 348 20:55 03.03.2020
1950 Clear 11 1013 49 16093 3.1 20 20:36 03.03.2020
1951 Clear 9 1013 49 16093 3.1 20 20:18 03.03.2020
1952 Clear 9 1013 52 16093 4.6 10 19:54 03.03.2020
1953 Clear 8 1012 52 16093 3.1 10 19:36 03.03.2020
1954 Clear 7 1012 52 16093 3.1 10 19:18 03.03.2020
1955 Clear 7 1012 52 16093 3.1 10 19:18 03.03.2020
1956 Clear 8 1013 51 16093 1.63 206 18:42 03.03.2020
1957 Clear 7 1012 51 16093 1.63 206 18:22 03.03.2020
1958 Clear 6 1013 55 16093 2.2 210 17:59 03.03.2020
1959 Clouds 6 1011 48 16093 2.6 40 17:40 03.03.2020
1960 Clear 3 1013 64 16093 2.2 210 17:21 03.03.2020
1961 Clear 3 1013 54 16093 3.23 217 16:57 03.03.2020
1962 Clear 3 1011 56 16093 3.39 218 16:38 03.03.2020
1963 Clear 1 1013 56 16093 3.39 218 16:19 03.03.2020
1964 Clear 1 1013 54 16093 3.23 217 16:19 03.03.2020
1965 Clear 0 1012 92 16093 3.39 218 15:45 03.03.2020
1966 Clear -1 1012 92 16093 3.23 217 15:23 03.03.2020
1967 Clear -2 1012 92 16093 3.23 217 14:58 03.03.2020
1968 Clear -2 1012 85 16093 2.1 100 14:40 03.03.2020
1969 Clear -2 1012 85 16093 2.1 100 14:19 03.03.2020
1970 Clear -2 1011 85 16093 2.6 350 13:56 03.03.2020
1971 Clear -2 1009 74 16093 3.44 215 13:38 03.03.2020
1972 Clear -2 1011 92 16093 3.92 214 13:19 03.03.2020
1973 Clear -2 1009 68 16093 2.6 100 12:43 03.03.2020
1974 Clear -2 1012 92 16093 3.92 214 12:24 03.03.2020
1975 Clear -2 1012 92 16093 3.92 214 11:56 03.03.2020
1976 Clear -2 1012 92 16093 3.92 214 11:37 03.03.2020
1977 Clear -2 1012 92 16093 3.57 212 11:18 03.03.2020
1978 Clear -1 1012 92 16093 3.57 212 10:55 03.03.2020
1979 Clear -1 1011 61 16093 2.6 310 10:37 03.03.2020
1980 Clear -1 1013 86 16093 3.57 212 10:18 03.03.2020
1981 Clear -1 1013 86 16093 3.57 212 10:18 03.03.2020
1982 Clear -1 1012 61 16093 2.6 350 09:42 03.03.2020
1983 Clear -1 1012 47 16093 2.6 360 09:21 03.03.2020
1984 Clear 0 1011 34 16093 3.57 212 08:42 03.03.2020
1985 Clear 0 1011 43 16093 3.57 212 08:24 03.03.2020
1986 Clear 1 1011 30 16093 2.6 310 07:56 03.03.2020
1987 Clear 1 1010 26 16093 8.7 300 07:38 03.03.2020
1988 Clear 0 1011 27 16093 3.1 340 07:19 03.03.2020
1989 Clear 1 1009 26 16093 11.8 270 06:40 03.03.2020
1990 Clear 1 1011 30 16093 3.1 250 06:21 03.03.2020
1991 Clear 2 1010 38 16093 3.05 234 05:43 03.03.2020
1992 Clear 2 1010 35 16093 5.1 260 04:56 03.03.2020
1993 Clear 4 1008 28 16093 2.75 217 03:21 03.03.2020
1994 Clear 6 1007 69 16093 1.5 160 01:32 03.03.2020
1995 Clear 6 1005 66 16093 1.5 80 00:42 03.03.2020
1996 Rain 6 1007 69 16093 1.32 158 00:23 03.03.2020
1997 Rain 6 1008 69 16093 3.1 10 23:51 02.03.2020
1998 Clear 6 1008 60 16093 3.1 20 23:23 02.03.2020
1999 Clear 6 1006 60 16093 2.1 60 22:58 02.03.2020
2000 Rain 6 1004 69 16093 2.6 110 22:39 02.03.2020
2001 Rain 6 1006 60 16093 3.1 30 22:20 02.03.2020
2002 Clear 6 1005 69 16093 2.1 100 21:56 02.03.2020
2003 Clear 7 1004 86 16093 3.1 20 21:38 02.03.2020
2004 Rain 6 1006 74 16093 2.1 110 21:20 02.03.2020
2005 Rain 5 1007 80 11265 2.1 120 20:55 02.03.2020
2006 Rain 5 1008 60 16093 1.63 38 20:37 02.03.2020
2007 Rain 3 1008 71 16093 0.75 58 20:18 02.03.2020
2008 Rain 3 1009 71 16093 1.5 110 19:54 02.03.2020
2009 Rain 2 1007 71 11265 1.5 20 19:36 02.03.2020
2010 Rain 1 1009 86 16093 0.75 58 19:18 02.03.2020
2011 Rain 1 1010 80 16093 0.75 58 18:42 02.03.2020
2012 Rain 0 1010 80 11265 0.75 58 18:19 02.03.2020
2013 Rain 0 1010 80 11265 0.75 58 18:19 02.03.2020
2014 Snow -1 1011 92 16093 0.75 58 17:57 02.03.2020
2015 Mist -1 1008 100 3219 1.5 120 17:39 02.03.2020
2016 Clouds -2 1011 92 16093 1.5 140 17:20 02.03.2020
2017 Clouds -3 1012 100 11265 1.68 227 16:45 02.03.2020
2018 Clouds -3 1012 100 11265 1.68 227 16:45 02.03.2020
2019 Clouds -3 1012 100 11265 1.68 227 16:27 02.03.2020
2020 Mist -3 1012 100 6437 1.68 227 15:58 02.03.2020
2021 Mist -4 1011 100 6437 1.68 227 15:40 02.03.2020
2022 Mist -4 1011 100 6437 1.68 227 15:19 02.03.2020
2023 Mist -4 1012 92 6437 1.68 227 14:40 02.03.2020
2024 Mist -4 1012 92 4828 1.58 261 14:20 02.03.2020
2025 Mist -4 1013 92 4828 2.1 20 13:57 02.03.2020
2026 Mist -4 1010 100 1609 2.6 10 13:37 02.03.2020
2027 Mist -4 1013 92 4828 1.43 246 13:18 02.03.2020
2028 Mist -4 1013 100 8047 1.5 350 12:43 02.03.2020
2029 Mist -4 1013 92 8047 1.5 360 12:43 02.03.2020
2030 Mist -4 1013 100 8047 1.5 350 12:19 02.03.2020
2031 Mist -4 1011 92 8047 1.43 246 11:40 02.03.2020
2032 Mist -4 1014 100 4828 1.43 246 11:21 02.03.2020
2033 Mist -4 1015 92 6437 0.99 197 10:58 02.03.2020
2034 Mist -4 1015 92 6437 0.99 197 10:40 02.03.2020
2035 Mist -4 1015 92 6437 0.99 197 10:40 02.03.2020
2036 Snow -4 1015 92 4828 0.99 197 10:19 02.03.2020
2037 Snow -4 1013 92 16093 2.1 130 09:53 02.03.2020
2038 Snow -4 1016 92 11265 0.99 197 09:32 02.03.2020
2039 Snow -4 1015 92 2012 0.99 197 08:49 02.03.2020
2040 Snow -3 1017 100 6437 0.6 304 08:24 02.03.2020
2041 Snow -3 1018 100 3219 0.66 329 07:54 02.03.2020
2042 Snow -3 1018 100 3219 0.66 329 07:36 02.03.2020
2043 Snow -3 1018 92 16093 0.66 329 06:56 02.03.2020
2044 Clouds -3 1018 100 16093 0.66 329 06:28 02.03.2020
2045 Snow -3 1019 92 3219 2.6 10 05:27 02.03.2020
2046 Snow -2 1017 92 4023 6.2 10 03:59 02.03.2020
2047 Snow -1 1017 92 6437 3.6 20 03:19 02.03.2020
2048 Snow -1 1016 98 4023 4.6 360 02:32 02.03.2020
2049 Snow 1 1013 86 14484 6.7 350 01:40 02.03.2020
2050 Snow 1 1015 85 805 4.1 360 01:22 02.03.2020
2051 Clouds 2 1015 69 16093 2.1 350 00:22 02.03.2020
2052 Snow 3 1014 74 8047 2.6 340 23:56 01.03.2020
2053 Clouds 3 1014 64 16093 2.6 320 23:37 01.03.2020
2054 Clouds 4 1014 64 16093 2.6 320 23:18 01.03.2020
2055 Clouds 4 1014 59 16093 2.6 20 22:36 01.03.2020
2056 Clouds 4 1014 59 16093 2.6 20 22:18 01.03.2020
2057 Clouds 4 1013 64 16093 2.6 20 21:42 01.03.2020
2058 Clouds 4 1013 64 16093 1.99 11 21:24 01.03.2020
2059 Clouds 4 1014 69 16093 2.6 50 20:58 01.03.2020
2060 Clouds 4 1014 69 16093 2.6 50 20:39 01.03.2020
2061 Clouds 3 1014 69 16093 2.6 10 20:21 01.03.2020
2062 Clouds 3 1013 69 16093 1.5 20 19:42 01.03.2020
2063 Clouds 3 1015 69 16093 3.1 20 19:22 01.03.2020
2064 Clouds 2 1015 74 16093 3.1 360 18:58 01.03.2020
2065 Clouds 2 1015 74 16093 3.1 360 18:39 01.03.2020
2066 Clouds 3 1014 74 16093 2.6 30 18:19 01.03.2020
2067 Clouds 3 1014 74 16093 3.1 350 17:56 01.03.2020
2068 Clouds 3 1014 74 16093 4.6 10 17:37 01.03.2020
2069 Clouds 2 1014 74 16093 4.6 10 17:19 01.03.2020
2070 Clouds 2 1014 74 16093 4.1 20 16:54 01.03.2020
2071 Clouds 2 1013 69 16093 5.7 40 16:36 01.03.2020
2072 Clouds 2 1013 69 16093 5.7 40 16:18 01.03.2020
2073 Clouds 2 1013 69 16093 5.7 40 16:18 01.03.2020
2074 Clouds 2 1012 59 16093 5.1 40 15:55 01.03.2020
2075 Clouds 2 1011 64 16093 5.33 220 15:36 01.03.2020
2076 Clouds 1 1011 64 16093 5.33 220 15:18 01.03.2020
2077 Clouds 1 1011 68 16093 2.6 150 14:55 01.03.2020
2078 Clouds 1 1011 74 16093 2.1 210 14:36 01.03.2020
2079 Clouds 1 1008 44 16093 3.1 210 14:36 01.03.2020
2080 Clouds 0 1011 74 16093 2.1 210 14:18 01.03.2020
2081 Clear 1 1011 74 16093 4.59 217 13:43 01.03.2020
2082 Clouds 1 1011 68 16093 4.59 217 13:21 01.03.2020
2083 Clear 1 1011 68 16093 4.4 216 12:57 01.03.2020
2084 Clouds 1 1008 51 16093 4.34 214 12:38 01.03.2020
2085 Clear 1 1010 68 16093 2.1 210 12:20 01.03.2020
2086 Clear 1 1009 65 16093 4.4 216 11:40 01.03.2020
2087 Clear 1 1009 65 16093 4.4 216 11:40 01.03.2020
2088 Clear 1 1009 59 16093 4.18 224 11:20 01.03.2020
2089 Clear 2 1010 64 16093 2.6 140 10:57 01.03.2020
2090 Clear 2 1010 47 16093 4.43 223 10:37 01.03.2020
2091 Clear 2 1010 47 16093 4.18 224 10:19 01.03.2020
2092 Clear 2 1010 43 16093 4.43 223 09:46 01.03.2020
2093 Clear 2 1010 40 16093 1.5 120 09:26 01.03.2020
2094 Clear 3 1010 30 16093 2.6 260 08:52 01.03.2020
2095 Clear 3 1010 28 16093 4.6 270 08:29 01.03.2020
2096 Clear 3 1009 26 16093 7.7 280 07:59 01.03.2020
2097 Clear 3 1009 26 16093 7.7 280 07:40 01.03.2020
2098 Clear 3 1011 24 16093 1.5 90 07:22 01.03.2020
2099 Clear 3 1010 35 16093 3.1 270 06:44 01.03.2020
2100 Clouds 3 1010 32 16093 4.1 220 06:23 01.03.2020
2101 Clear 5 1010 33 16093 2.1 190 03:40 01.03.2020
2102 Clear 8 1011 17 16093 5.1 260 02:23 01.03.2020
2103 Clear 10 1011 14 16093 2.6 270 01:46 01.03.2020
2104 Clear 12 1011 14 16093 5.1 260 01:20 01.03.2020
2105 Clear 11 1011 11 16093 4.6 260 00:41 01.03.2020
2106 Clear 11 1011 11 16093 1.5 210 00:20 01.03.2020
2107 Clear 11 1011 11 16093 1.5 210 00:19 01.03.2020
2108 Clouds 12 1010 12 16093 3.1 130 23:42 29.02.2020
2109 Clear 12 1011 11 16093 2.1 220 23:23 29.02.2020
2110 Clouds 13 1010 13 16093 1.5 140 22:40 29.02.2020
2111 Clear 13 1012 12 16093 1.47 17 22:22 29.02.2020
2112 Clear 12 1012 13 16093 3.1 200 21:42 29.02.2020
2113 Clear 11 1013 15 16093 3.1 210 21:22 29.02.2020
2114 Clear 10 1013 10 16093 3.1 20 20:43 29.02.2020
2115 Clouds 9 1013 31 16093 3.1 180 20:21 29.02.2020
2116 Clear 9 1014 20 16093 2.1 260 19:56 29.02.2020
2117 Clear 9 1014 20 16093 2.1 260 19:56 29.02.2020
2118 Clear 9 1015 34 16093 3.03 210 19:37 29.02.2020
2119 Clear 8 1015 34 16093 3.03 210 19:19 29.02.2020
2120 Clear 8 1015 52 16093 3.03 210 18:42 29.02.2020
2121 Clear 7 1015 64 16093 1.5 10 18:23 29.02.2020
2122 Clear 6 1016 59 16093 3.03 210 17:57 29.02.2020
2123 Clear 6 1014 44 16093 1.5 90 17:39 29.02.2020
2124 Clear 6 1016 64 16093 3.03 210 17:39 29.02.2020
2125 Clear 4 1016 64 16093 4.29 221 17:19 29.02.2020
2126 Clear 4 1016 69 16093 4.29 221 16:45 29.02.2020
2127 Clear 2 1016 55 16093 4.29 221 16:20 29.02.2020
2128 Clear 2 1016 47 16093 1.5 20 15:58 29.02.2020
2129 Clear 2 1014 35 16093 4.29 221 15:38 29.02.2020
2130 Clear 2 1016 55 16093 4.29 221 15:20 29.02.2020
2131 Clear 2 1014 40 16093 1.5 360 14:40 29.02.2020
2132 Clear 1 1016 65 16093 4.28 218 14:22 29.02.2020
2133 Clear 1 1016 74 16093 4.28 218 13:46 29.02.2020
2134 Clear 1 1017 79 16093 4.3 219 13:28 29.02.2020
2135 Clear 1 1017 79 16093 4.28 218 13:28 29.02.2020
2136 Clear 1 1017 68 16093 4.3 219 12:58 29.02.2020
2137 Clear 1 1015 51 16093 4.3 219 12:38 29.02.2020
2138 Clear 1 1018 74 16093 4.3 219 12:20 29.02.2020
2139 Clear 0 1018 74 16093 4.3 219 11:45 29.02.2020
2140 Clear 1 1018 68 16093 4.3 219 11:27 29.02.2020
2141 Clear 1 1019 66 16093 4.21 214 10:55 29.02.2020
2142 Clear 1 1017 40 16093 2.6 160 10:36 29.02.2020
2143 Clear 1 1019 63 16093 4.21 214 10:18 29.02.2020
2144 Clear 1 1020 63 16093 4.21 214 09:46 29.02.2020
2145 Clear 1 1020 68 16093 4.21 214 09:18 29.02.2020
2146 Clear 1 1021 63 16093 4.21 214 08:40 29.02.2020
2147 Clear 1 1021 63 16093 3.86 216 08:21 29.02.2020
2148 Clear 1 1022 47 16093 1.5 60 07:53 29.02.2020
2149 Clear 1 1022 47 16093 1.5 60 07:53 29.02.2020
2150 Clear 1 1022 63 16093 3.41 213 07:25 29.02.2020
2151 Clear 2 1023 43 16093 3.41 213 06:56 29.02.2020
2152 Clear 2 1023 63 16093 3.41 213 06:30 29.02.2020
2153 Clear 2 1023 43 16093 1.5 200 05:52 29.02.2020
2154 Clear 2 1024 47 16093 3.41 213 05:32 29.02.2020
2155 Clear 4 1024 26 16093 2.28 223 04:18 29.02.2020
2156 Clear 6 1024 35 16093 3.1 240 03:24 29.02.2020
2157 Clear 6 1024 28 16093 2.28 223 02:59 29.02.2020
2158 Clear 10 1024 19 16093 1.5 303 01:59 29.02.2020
2159 Clear 12 1023 15 16093 4.1 120 00:52 29.02.2020
2160 Clear 12 1023 14 16093 3.6 120 00:28 29.02.2020
2161 Clear 13 1022 16 16093 1.5 40 23:41 28.02.2020
2162 Clear 13 1023 13 16093 1.5 90 23:23 28.02.2020
2163 Clear 13 1023 13 16093 1.5 90 23:23 28.02.2020
2164 Clear 13 1023 13 16093 1.5 90 23:23 28.02.2020
2165 Clear 13 1024 12 16093 2.6 30 22:43 28.02.2020
2166 Clear 13 1024 11 16093 2.1 340 22:23 28.02.2020
2167 Clear 14 1024 12 16093 2.94 171 21:43 28.02.2020
2168 Clear 13 1024 11 16093 2.94 171 21:22 28.02.2020
2169 Clear 13 1025 12 16093 1.5 300 20:59 28.02.2020
2170 Clear 13 1023 29 16093 3.1 330 20:39 28.02.2020
2171 Clear 11 1025 15 16093 1.5 300 20:20 28.02.2020
2172 Clear 10 1026 15 16093 3.26 205 19:57 28.02.2020
2173 Clear 10 1026 14 16093 3.26 205 19:39 28.02.2020
2174 Clear 10 1026 14 16093 3.26 205 19:20 28.02.2020
2175 Clear 10 1026 20 16093 2.6 20 18:47 28.02.2020
2176 Clear 9 1026 21 16093 2.1 320 18:27 28.02.2020
2177 Clear 8 1027 25 16093 3.1 10 17:57 28.02.2020
2178 Clear 8 1026 18 16093 2.6 290 17:38 28.02.2020
2179 Clouds 3 1025 24 16093 2.6 230 17:20 28.02.2020
2180 Clear 2 1026 44 16093 1.5 10 16:41 28.02.2020
2181 Clouds 1 1025 40 16093 3.1 190 16:20 28.02.2020
2182 Clear 0 1025 50 16093 4 220 15:57 28.02.2020
2183 Clear 1 1026 25 16093 2.6 310 15:38 28.02.2020
2184 Clear 0 1026 25 16093 2.6 310 15:19 28.02.2020
2185 Clear 0 1025 25 16093 2.6 200 14:55 28.02.2020
2186 Clear 0 1025 25 16093 2.6 300 14:37 28.02.2020
2187 Clear -1 1025 25 16093 2.6 300 14:18 28.02.2020
2188 Clear -2 1025 37 16093 4.09 219 13:41 28.02.2020
2189 Clear -2 1025 37 16093 4.09 219 13:20 28.02.2020
2190 Clear -2 1025 37 16093 4.09 219 13:20 28.02.2020
2191 Clear -2 1025 37 16093 4.28 217 12:47 28.02.2020
2192 Clear -2 1025 34 16093 3.1 300 12:28 28.02.2020
2193 Clear -2 1025 34 16093 4.28 217 11:59 28.02.2020
2194 Clear -2 1025 34 16093 4.28 217 11:40 28.02.2020
2195 Clear -2 1023 63 16093 4.1 250 11:21 28.02.2020
2196 Clear -2 1024 54 16093 2.6 220 10:43 28.02.2020
2197 Clear -2 1024 46 16093 5.1 220 10:24 28.02.2020
2198 Clear -2 1024 54 16093 2.6 320 09:59 28.02.2020
2199 Clear -2 1024 54 16093 2.6 320 09:40 28.02.2020
2200 Clear -1 1024 29 16093 4.6 270 09:18 28.02.2020
2201 Clear -1 1024 37 16093 3.89 217 08:42 28.02.2020
2202 Clear -1 1024 29 16093 4.6 260 08:20 28.02.2020
2203 Clear -1 1024 40 16093 2.1 80 07:45 28.02.2020
2204 Clear -1 1024 31 16093 3.6 240 07:25 28.02.2020
2205 Clear 0 1024 34 16093 3.55 209 06:51 28.02.2020
2206 Clouds 0 1024 37 16093 2.1 250 06:30 28.02.2020
2207 Clouds 1 1024 32 16093 4.6 260 05:29 28.02.2020
2208 Clear 2 1025 37 16093 2.1 300 04:31 28.02.2020
2209 Clouds 3 1025 32 16093 1.5 310 02:48 28.02.2020
2210 Clouds 4 1025 22 16093 4.1 300 02:28 28.02.2020
2211 Clouds 6 1025 16 16093 8.2 290 01:38 28.02.2020
2212 Clouds 7 1024 18 16093 8.2 280 00:31 28.02.2020
2213 Clouds 7 1022 18 16093 12.3 290 23:45 27.02.2020
2214 Clouds 8 1024 19 16093 8.7 280 23:22 27.02.2020
2215 Clouds 8 1024 18 16093 6.7 300 22:56 27.02.2020
2216 Clouds 8 1024 18 16093 5.1 300 22:37 27.02.2020
2217 Clouds 8 1024 18 16093 5.1 300 22:19 27.02.2020
2218 Clouds 8 1024 21 16093 2.1 320 21:41 27.02.2020
2219 Clouds 8 1024 23 16093 1.02 88 21:22 27.02.2020
2220 Clear 8 1025 26 16093 2.6 90 20:59 27.02.2020
2221 Clear 8 1025 26 16093 2.6 90 20:40 27.02.2020
2222 Clear 7 1025 26 16093 3.6 80 20:21 27.02.2020
2223 Clear 7 1025 26 16093 3.6 80 20:21 27.02.2020
2224 Clear 6 1025 28 16093 3.1 110 19:56 27.02.2020
2225 Clear 6 1025 30 16093 3.6 110 19:38 27.02.2020
2226 Clear 6 1025 30 16093 3.6 110 19:19 27.02.2020
2227 Clear 6 1025 30 16093 2.6 70 18:42 27.02.2020
2228 Clear 6 1025 33 16093 4.1 70 18:24 27.02.2020
2229 Clear 5 1025 32 16093 3.6 80 17:58 27.02.2020
2230 Clear 5 1023 33 16093 3.1 90 17:40 27.02.2020
2231 Clear 1 1025 30 16093 2.1 80 17:19 27.02.2020
2232 Clear 1 1025 32 16093 2.6 110 16:57 27.02.2020
2233 Clouds 2 1023 32 16093 3.1 60 16:38 27.02.2020
2234 Clear 1 1025 40 16093 3.05 214 16:18 27.02.2020
2235 Clear 0 1024 68 16093 3.05 214 15:56 27.02.2020
2236 Clear -1 1022 43 16093 3.05 214 15:37 27.02.2020
2237 Clear -1 1024 68 16093 3.05 214 15:18 27.02.2020
2238 Clear -1 1023 63 16093 3.05 214 14:43 27.02.2020
2239 Clear -1 1023 70 16093 2.6 100 14:24 27.02.2020
2240 Clear -2 1022 63 16093 2.1 90 13:58 27.02.2020
2241 Clear -2 1021 71 16093 4.1 260 13:40 27.02.2020
2242 Clear -2 1022 63 16093 4.93 224 13:20 27.02.2020
2243 Clear -1 1022 54 16093 4.45 224 12:46 27.02.2020
2244 Clear -1 1022 71 16093 4.45 224 12:25 27.02.2020
2245 Clear -2 1022 43 16093 2.1 340 11:58 27.02.2020
2246 Clear -2 1022 40 16093 3.6 270 11:38 27.02.2020
2247 Clouds -3 1020 54 16093 3.6 310 11:20 27.02.2020
2248 Clear -3 1019 43 16093 10.3 290 10:43 27.02.2020
2249 Clear -2 1022 68 16093 4.34 223 10:22 27.02.2020
2250 Clear -2 1022 68 16093 2.1 360 09:47 27.02.2020
2251 Clear -2 1022 68 16093 4.34 223 09:29 27.02.2020
2252 Clear -2 1022 71 16093 2.1 330 08:57 27.02.2020
2253 Clear -2 1022 71 16093 2.1 330 08:39 27.02.2020
2254 Clear -2 1022 71 16093 2.1 330 08:39 27.02.2020
2255 Clear -2 1022 69 16093 2.1 330 08:18 27.02.2020
2256 Clear -2 1022 58 16093 4.14 225 07:43 27.02.2020
2257 Clear -2 1022 58 16093 4.14 225 07:24 27.02.2020
2258 Clear -2 1023 54 16093 4.14 225 06:31 27.02.2020
2259 Clear -2 1023 54 16093 4.14 225 05:24 27.02.2020
2260 Clear 0 1023 68 16093 3.6 300 03:33 27.02.2020
2261 Clear 2 1023 71 16093 2.1 240 02:19 27.02.2020
2262 Clear 4 1023 24 16093 2.1 178 00:43 27.02.2020
2263 Clear 4 1023 24 16093 2.1 178 00:19 27.02.2020
2264 Clear 4 1023 30 16093 2.1 360 23:38 26.02.2020
2265 Clear 5 1023 30 16093 2.1 360 23:18 26.02.2020
2266 Clouds 4 1024 30 16093 4.1 20 22:55 26.02.2020
2267 -273 0 0 0 0 0 22:37 26.02.2020
2268 Clouds 5 1024 27 16093 2.6 40 22:18 26.02.2020
2269 Clouds 5 1022 34 16093 2.6 90 21:39 26.02.2020
2270 Clear 5 1025 34 16093 3.1 40 21:20 26.02.2020
2271 Clear 4 1025 32 16093 4.6 30 20:56 26.02.2020
2272 Clear 4 1023 31 16093 2.1 20 20:38 26.02.2020
2273 Clear 2 1025 21 16093 2.1 140 20:19 26.02.2020
2274 Clear 2 1026 24 16093 2.44 184 19:56 26.02.2020
2275 Clear 2 1026 29 16093 2.44 184 19:37 26.02.2020
2276 Clear 1 1026 29 16093 2.44 184 19:19 26.02.2020
2277 Clear 1 1027 36 16093 2.44 184 18:56 26.02.2020
2278 Clear 0 1027 39 16093 2.44 184 18:37 26.02.2020
2279 Clear -1 1027 39 16093 2.44 184 18:19 26.02.2020
2280 Clear -3 1027 49 16093 2.44 184 17:41 26.02.2020
2281 Clear -4 1027 57 16093 4.28 214 17:19 26.02.2020
2282 Clear -5 1027 62 16093 1.5 200 16:56 26.02.2020
2283 Clear -5 1027 62 16093 1.5 200 16:56 26.02.2020
2284 Clear -6 1025 53 16093 4.28 214 16:38 26.02.2020
2285 Clear -8 1028 67 16093 1.5 230 16:20 26.02.2020
2286 Clear -9 1027 78 16093 1.5 200 15:44 26.02.2020
2287 Clear -9 1027 78 16093 1.5 200 15:44 26.02.2020
2288 Clear -10 1027 85 16093 1.5 160 15:26 26.02.2020
2289 Clear -12 1028 85 16093 4.28 214 14:43 26.02.2020
2290 Clear -12 1028 85 16093 4.28 214 14:24 26.02.2020
2291 Clear -12 1028 72 16093 4.07 219 13:57 26.02.2020
2292 Clear -12 1025 72 16093 2.1 210 13:39 26.02.2020
2293 Clear -12 1028 72 16093 4.06 220 13:18 26.02.2020
2294 Clear -12 1026 78 16093 2.1 190 12:38 26.02.2020
2295 Clear -12 1028 66 16093 2.6 200 12:19 26.02.2020
2296 Clear -12 1029 72 16093 2.6 200 11:55 26.02.2020
2297 Clear -12 1029 72 16093 2.6 200 11:55 26.02.2020
2298 Clear -12 1029 78 16093 1.5 200 11:36 26.02.2020
2299 Clear -12 1029 78 16093 1.5 200 11:36 26.02.2020
2300 Clear -12 1029 78 16093 1.5 200 11:18 26.02.2020
2301 Clear -12 1027 72 16093 2.1 180 10:40 26.02.2020
2302 Clear -12 1030 78 16093 1.5 220 10:21 26.02.2020
2303 Clear -12 1031 72 16093 2.1 180 09:44 26.02.2020
2304 Clear -12 1031 72 16093 1.5 190 09:25 26.02.2020
2305 Clear -12 1032 72 16093 1.5 200 08:59 26.02.2020
2306 Clear -12 1029 72 16093 2.1 210 08:37 26.02.2020
2307 Clear -11 1032 78 16093 1.5 180 08:18 26.02.2020
2308 Clear -11 1033 78 16093 1.6 217 07:43 26.02.2020
2309 Clear -11 1033 72 16093 1.5 200 07:25 26.02.2020
2310 Clear -11 1033 67 16093 1.6 217 06:52 26.02.2020
2311 Clear -10 1033 72 16093 1.6 217 06:34 26.02.2020
2312 Clear -9 1033 72 16093 2.1 110 05:53 26.02.2020
2313 Clear -9 1033 72 16093 2.1 110 05:53 26.02.2020
2314 Clear -9 1033 72 16093 2.17 349 05:24 26.02.2020
2315 Clear -8 1033 67 16093 2.17 349 04:23 26.02.2020
2316 Clear -6 1033 49 16093 2.1 30 02:23 26.02.2020
2317 Clear -5 1030 45 16093 2.1 340 01:45 26.02.2020
2318 Clear -5 1030 36 16093 8.7 30 00:48 26.02.2020
2319 Clouds -4 1031 33 16093 9.8 20 00:24 26.02.2020
2320 Clouds -4 1031 36 16093 10.8 20 23:45 25.02.2020
2321 Clouds -4 1031 33 16093 10.3 10 23:26 25.02.2020
2322 Snow -4 1030 33 16093 9.8 360 22:59 25.02.2020
2323 Snow -4 1030 33 16093 9.8 360 22:41 25.02.2020
2324 Snow -4 1030 33 16093 11.3 10 22:19 25.02.2020
2325 Clouds -4 1030 39 16093 9.8 20 21:39 25.02.2020
2326 Clouds -4 1030 39 16093 9.8 20 21:21 25.02.2020
2327 Clouds -4 1030 39 16093 9.8 20 21:21 25.02.2020
2328 Clouds -5 1030 39 16093 11.3 10 20:58 25.02.2020
2329 Clouds -5 1030 39 16093 11.8 10 20:39 25.02.2020
2330 Clouds -5 1030 39 16093 11.8 10 20:20 25.02.2020
2331 Clouds -5 1029 36 16093 10.8 360 19:59 25.02.2020
2332 Clouds -5 1029 36 16093 13.4 10 19:40 25.02.2020
2333 Clouds -5 1029 36 16093 13.4 10 19:19 25.02.2020
2334 Clouds -5 1028 33 16093 10.8 360 18:42 25.02.2020
2335 Clouds -5 1028 33 16093 9.8 360 18:21 25.02.2020
2336 Clouds -5 1027 35 16093 9.8 350 17:58 25.02.2020
2337 Clouds -5 1025 33 16093 8.2 350 17:38 25.02.2020
2338 Clouds -5 1027 32 16093 13.4 360 17:19 25.02.2020
2339 Clouds -5 1026 32 16093 12.9 360 16:58 25.02.2020
2340 Clouds -5 1024 33 16093 7.2 360 16:39 25.02.2020
2341 Clouds -5 1026 35 16093 9.3 360 16:21 25.02.2020
2342 Clouds -5 1024 42 16093 10.3 10 15:56 25.02.2020
2343 Clouds -5 1022 33 16093 9.3 360 15:37 25.02.2020
2344 Clouds -5 1023 38 16093 10.8 360 15:18 25.02.2020
2345 Clouds -5 1023 42 16093 5.1 20 14:54 25.02.2020
2346 Clouds -5 1022 30 16093 6.7 350 14:36 25.02.2020
2347 Clouds -6 1022 45 16093 7.7 10 14:18 25.02.2020
2348 Clouds -6 1021 49 16093 7.2 20 13:54 25.02.2020
2349 Clouds -6 1019 58 16093 2.6 350 13:36 25.02.2020
2350 Clouds -6 1021 49 16093 8.2 20 13:18 25.02.2020
2351 Clear -6 1020 49 16093 6.7 20 12:39 25.02.2020
2352 Clear -5 1020 49 16093 6.2 30 12:20 25.02.2020
2353 Clear -5 1020 42 16093 7.2 20 11:56 25.02.2020
2354 Clouds -4 1017 39 16093 3.1 360 11:38 25.02.2020
2355 Clear -4 1019 42 16093 7.2 10 11:18 25.02.2020
2356 Clear -4 1019 46 16093 5.1 10 10:56 25.02.2020
2357 Clear -4 1018 39 16093 4.6 10 10:38 25.02.2020
2358 Clouds -3 1019 42 16093 3.6 360 10:19 25.02.2020
2359 Clear -3 1018 42 16093 1.5 340 09:40 25.02.2020
2360 Clouds -3 1019 50 16093 1.5 60 09:19 25.02.2020
2361 Clouds -3 1018 42 16093 2.47 235 08:43 25.02.2020
2362 Clouds -3 1018 42 16093 3.22 234 08:24 25.02.2020
2363 Clouds -3 1018 39 16093 2.6 290 07:50 25.02.2020
2364 Clouds -3 1018 42 16093 2.1 280 07:25 25.02.2020
2365 Clouds -3 1018 42 16093 2.1 280 06:57 25.02.2020
2366 Clouds -3 1019 42 16093 2.1 270 06:26 25.02.2020
2367 Clouds -3 1019 42 16093 3.6 260 05:23 25.02.2020
2368 Clear -2 1018 47 16093 3.6 290 02:38 25.02.2020
2369 Clouds 1 1016 29 16093 8.2 280 00:59 25.02.2020
2370 Clouds 1 1016 29 16093 10.3 280 00:33 25.02.2020
2371 Clouds 2 1016 27 16093 9.8 290 23:56 24.02.2020
2372 Clouds 2 1014 34 16093 7.2 250 23:37 24.02.2020
2373 Clouds 2 1014 34 16093 7.2 250 23:37 24.02.2020
2374 Clouds 2 1015 27 16093 7.7 280 23:18 24.02.2020
2375 Clouds 2 1013 34 16093 5.7 290 22:37 24.02.2020
2376 Clouds 3 1014 27 16093 10.8 280 22:18 24.02.2020
2377 Clear 3 1014 27 16093 9.3 280 21:55 24.02.2020
2378 Clear 3 1012 32 16093 8.2 260 21:36 24.02.2020
2379 Clear 3 1014 29 16093 10.3 290 21:18 24.02.2020
2380 Clear 3 1015 32 16093 10.3 280 20:42 24.02.2020
2381 Clear 3 1014 25 16093 9.3 290 20:21 24.02.2020
2382 Clear 3 1014 21 16093 8.2 290 19:59 24.02.2020
2383 Clouds 2 1013 27 16093 8.7 280 19:41 24.02.2020
2384 Clear 2 1014 25 16093 8.2 300 19:23 24.02.2020
2385 Clear 2 1014 27 16093 6.2 270 18:59 24.02.2020
2386 Clear 1 1014 27 16093 7.2 290 18:41 24.02.2020
2387 Clear 1 1014 27 16093 7.2 290 18:22 24.02.2020
2388 Clear 1 1013 38 16093 4.6 240 17:54 24.02.2020
2389 Clouds 1 1013 55 16093 3.6 270 17:36 24.02.2020
2390 Clouds 1 1013 55 16093 3.6 270 17:18 24.02.2020
2391 Clouds 1 1013 64 16093 8.7 350 16:54 24.02.2020
2392 Clear 1 1011 45 16093 9.8 290 16:36 24.02.2020
2393 Clear 1 1011 45 16093 9.8 290 16:18 24.02.2020
2394 Clouds 0 1007 48 16093 3.6 230 15:54 24.02.2020
2395 Clouds 0 1010 64 16093 7.7 260 15:36 24.02.2020
2396 Clouds -1 1010 64 16093 7.7 260 15:18 24.02.2020
2397 Clouds -2 1008 64 16093 2.6 170 14:40 24.02.2020
2398 Clouds -3 1011 92 16093 4.08 221 14:21 24.02.2020
2399 Clear -3 1011 86 16093 2.6 200 13:58 24.02.2020
2400 Clouds -3 1008 71 16093 2.1 60 13:39 24.02.2020
2401 Clouds -3 1008 71 16093 2.1 60 13:39 24.02.2020
2402 Clear -3 1011 92 16093 4.57 221 13:20 24.02.2020
2403 Clear -3 1011 92 16093 1.5 220 12:57 24.02.2020
2404 Clear -3 1009 71 16093 3.1 20 12:38 24.02.2020
2405 Clear -3 1011 92 16093 4.57 221 12:20 24.02.2020
2406 Clear -2 1008 71 16093 2.6 40 11:46 24.02.2020
2407 Clear -2 1011 86 16093 2.6 140 11:28 24.02.2020
2408 Clear -2 1011 92 16093 2.1 80 10:47 24.02.2020
2409 Clear -2 1011 92 16093 3.99 217 10:29 24.02.2020
2410 Clear -2 1011 92 16093 3.99 217 09:54 24.02.2020
2411 Clear -2 1011 79 16093 3.6 280 09:36 24.02.2020
2412 Clear -2 1012 86 16093 3.99 217 09:18 24.02.2020
2413 Clear -2 1013 92 16093 3.99 217 08:45 24.02.2020
2414 Clear -2 1013 86 16093 4.07 217 08:27 24.02.2020
2415 Clear -1 1013 86 16093 3.15 212 07:45 24.02.2020
2416 Clear -1 1014 73 16093 3.15 212 07:27 24.02.2020
2417 Clear 0 1015 73 16093 3.15 212 06:36 24.02.2020
2418 Clear 0 1015 73 16093 3.15 212 06:18 24.02.2020
2419 Clear 0 1015 80 16093 3.15 212 05:29 24.02.2020
2420 Clouds 1 1016 64 16093 2.51 243 03:54 24.02.2020
2421 Clouds 1 1016 60 16093 3.1 130 02:54 24.02.2020
2422 Clear 3 1016 56 16093 1.5 140 01:43 24.02.2020
2423 Clouds 3 1016 52 16093 1.5 90 00:52 24.02.2020
2424 Clouds 4 1016 60 16093 2.1 90 00:23 24.02.2020
2425 Clouds 4 1016 60 16093 2.1 60 23:59 23.02.2020
2426 Clouds 4 1017 60 16093 2.6 40 23:40 23.02.2020
2427 Clouds 5 1017 60 16093 2.6 40 23:18 23.02.2020
2428 Clouds 4 1017 91 16093 3.1 20 22:54 23.02.2020
2429 Clouds 4 1014 91 16093 2.1 60 22:36 23.02.2020
2430 Clouds 4 1017 91 16093 3.6 360 22:18 23.02.2020
2431 Clouds 3 1015 91 16093 3.1 340 21:43 23.02.2020
2432 Clouds 3 1015 91 16093 3.1 340 21:43 23.02.2020
2433 Rain 3 1018 69 16093 5.1 320 21:19 23.02.2020
2434 Rain 2 1018 91 16093 5.1 290 20:56 23.02.2020
2435 Rain 2 1016 86 14484 6.2 320 20:37 23.02.2020
2436 Rain 2 1019 100 16093 5.1 290 20:19 23.02.2020
2437 Rain 2 1019 100 16093 4.1 300 19:55 23.02.2020
2438 Rain 2 1019 100 16093 3.6 290 19:36 23.02.2020
2439 Rain 1 1019 100 16093 3.6 290 19:18 23.02.2020
2440 Rain 1 1019 100 16093 3.6 290 19:18 23.02.2020
2441 Rain 1 1019 100 16093 3.6 290 19:18 23.02.2020
2442 Rain 1 1017 93 9656 5.7 310 18:42 23.02.2020
2443 Rain 1 1019 100 6437 3.1 310 18:22 23.02.2020
2444 Rain 1 1017 100 1609 3.6 270 17:59 23.02.2020
2445 Rain 1 1017 100 1609 3.6 270 17:41 23.02.2020
2446 Rain 1 1019 48 11265 2.6 330 17:22 23.02.2020
2447 Rain 1 1017 86 1609 4.6 310 16:58 23.02.2020
2448 Rain 1 1017 86 1609 4.6 310 16:58 23.02.2020
2449 Rain 1 1017 86 1609 4.6 310 16:40 23.02.2020
2450 Snow 1 1019 64 16093 3.1 150 16:21 23.02.2020
2451 Rain 1 1018 64 16093 5.29 342 15:55 23.02.2020
2452 Snow 1 1016 98 2012 5.7 300 15:37 23.02.2020
2453 Clouds 1 1018 59 16093 2.1 120 15:19 23.02.2020
2454 Clouds 1 1017 64 16093 1.5 240 14:55 23.02.2020
2455 Clouds 1 1018 64 16093 1.5 150 14:37 23.02.2020
2456 Clouds 1 1018 64 16093 1.5 150 14:19 23.02.2020
2457 Clouds 1 1017 64 16093 1.28 359 13:54 23.02.2020
2458 Clouds 1 1017 64 16093 1.28 359 13:36 23.02.2020
2459 Clouds 2 1017 64 16093 1.28 359 13:18 23.02.2020
2460 Clouds 2 1015 51 16093 6.2 340 12:40 23.02.2020
2461 Clouds 2 1016 64 16093 1.5 340 12:20 23.02.2020
2462 Clouds 2 1013 51 16093 7.2 350 11:39 23.02.2020
2463 Clouds 2 1015 59 16093 3.6 330 11:20 23.02.2020
2464 Clouds 2 1016 64 16093 1.5 340 10:58 23.02.2020
2465 Clouds 2 1016 64 16093 1.5 340 10:40 23.02.2020
2466 Clouds 2 1015 64 16093 3.6 360 10:21 23.02.2020
2467 Clouds 2 1016 64 16093 2.1 10 09:56 23.02.2020
2468 Clouds 2 1016 80 16093 2.1 350 09:37 23.02.2020
2469 Clouds 2 1016 80 16093 2.1 350 09:18 23.02.2020
2470 Clear 2 1015 71 16093 2.08 222 08:44 23.02.2020
2471 Clear 2 1015 86 16093 2.08 222 08:25 23.02.2020
2472 Clear 2 1016 76 16093 1.97 209 07:44 23.02.2020
2473 Clear 2 1016 76 16093 1.97 209 07:26 23.02.2020
2474 Clear 3 1016 74 16093 1.5 230 06:20 23.02.2020
2475 Clear 4 1017 69 16093 0.92 246 04:59 23.02.2020
2476 Clear 4 1017 69 16093 0.92 246 03:53 23.02.2020
2477 Clouds 6 1016 36 32767 5.1 320 02:44 23.02.2020
2478 Clear 7 1017 48 16093 2.1 300 01:28 23.02.2020
2479 Clear 8 1017 42 16093 3.1 290 00:59 23.02.2020
2480 Clear 9 1015 31 16093 2.33 316 00:41 23.02.2020
2481 Clear 9 1016 39 16093 1.5 30 00:19 23.02.2020
2482 Clear 10 1017 34 16093 2.1 10 23:42 22.02.2020
2483 Clear 11 1017 32 16093 2.1 40 23:20 22.02.2020
2484 Clear 11 1017 27 16093 1.5 60 22:45 22.02.2020
2485 Clear 11 1017 26 16093 0.65 101 22:20 22.02.2020
2486 Clear 12 1017 30 16093 5.1 110 21:43 22.02.2020
2487 Clear 12 1017 30 16093 4.1 100 21:25 22.02.2020
2488 Clear 12 1018 27 16093 3.6 110 20:58 22.02.2020
2489 Clear 12 1016 31 16093 3.6 360 20:39 22.02.2020
2490 Clear 10 1018 29 16093 4.6 110 20:21 22.02.2020
2491 Clear 9 1019 29 16093 3.6 120 19:42 22.02.2020
2492 Clear 9 1019 29 16093 3.6 100 19:23 22.02.2020
2493 Clear 9 1019 27 16093 3.6 110 18:55 22.02.2020
2494 Clear 10 1020 27 16093 3.6 120 18:37 22.02.2020
2495 Clear 9 1020 27 16093 3.6 120 18:18 22.02.2020
2496 Clear 8 1019 21 16093 4.1 110 17:44 22.02.2020
2497 Clear 7 1020 18 16093 2.1 170 17:25 22.02.2020
2498 Clouds 4 1018 30 32767 7.7 320 16:59 22.02.2020
2499 Clouds 4 1018 30 32767 7.7 320 16:40 22.02.2020
2500 Clouds 3 1019 30 16093 4.04 206 16:20 22.02.2020
2501 Clear 1 1020 66 16093 1.5 140 15:46 22.02.2020
2502 Clouds 1 1018 30 16093 4.04 206 15:27 22.02.2020
2503 Clouds 2 1018 30 16093 4.04 206 15:27 22.02.2020
2504 Clear 2 1020 37 16093 4.04 206 14:59 22.02.2020
2505 Clear 2 1020 37 16093 4.04 206 14:40 22.02.2020
2506 Clear 2 1020 37 16093 4.04 206 14:40 22.02.2020
2507 Clouds 1 1018 32 16093 5.7 210 14:20 22.02.2020
2508 Clear 1 1018 26 16093 3.6 180 13:43 22.02.2020
2509 Clouds 1 1018 35 16093 4.6 240 13:20 22.02.2020
2510 Clear 1 1018 34 16093 2.1 160 12:58 22.02.2020
2511 Clear 1 1018 34 16093 2.1 160 12:39 22.02.2020
2512 Clouds 0 1018 40 16093 4.6 180 12:20 22.02.2020
2513 Clear 0 1020 79 16093 3.93 213 11:42 22.02.2020
2514 Clear 0 1020 79 16093 3.93 213 11:23 22.02.2020
2515 Clear -1 1020 85 16093 3.93 219 10:42 22.02.2020
2516 Clear -1 1021 85 16093 3.93 219 10:21 22.02.2020
2517 Clear -1 1021 85 16093 3.93 219 09:59 22.02.2020
2518 Clear -1 1019 58 16093 1.5 290 09:40 22.02.2020
2519 Clear -1 1021 85 16093 3.93 219 09:22 22.02.2020
2520 Clear -1 1021 85 16093 1.5 190 08:51 22.02.2020
2521 Clear -1 1021 85 16093 1.5 180 08:28 22.02.2020
2522 Clear -1 1022 85 16093 3.83 217 07:54 22.02.2020
2523 Clear -1 1022 85 16093 3.83 217 07:20 22.02.2020
2524 Clear -1 1022 85 16093 3.83 217 06:53 22.02.2020
2525 Clouds -1 1020 43 16093 4.1 190 06:34 22.02.2020
2526 Clear 0 1022 79 16093 2.63 225 04:42 22.02.2020
2527 Clear 1 1023 68 16093 2.63 225 03:45 22.02.2020
2528 Clear 4 1023 55 16093 2.63 225 02:34 22.02.2020
2529 Clear 5 1023 38 16093 0.9 185 01:47 22.02.2020
2530 Clear 6 1023 35 16093 2.1 350 01:27 22.02.2020
2531 Clear 7 1023 33 16093 2.1 20 00:46 22.02.2020
2532 Clear 7 1023 36 16093 2.1 10 00:28 22.02.2020
2533 Clear 7 1023 36 16093 2.6 360 23:48 21.02.2020
2534 Clear 9 1023 33 16093 2.6 340 23:24 21.02.2020
2535 Clear 9 1023 36 16093 3.1 350 22:57 21.02.2020
2536 Clear 9 1021 31 16093 2.1 350 22:39 21.02.2020
2537 Clear 9 1023 33 16093 3.1 350 22:20 21.02.2020
2538 Clear 9 1023 36 16093 2.6 350 21:42 21.02.2020
2539 Clear 9 1024 39 16093 3.6 360 21:24 21.02.2020
2540 Clear 9 1025 39 16093 2.6 340 20:50 21.02.2020
2541 Clear 9 1025 36 16093 2.6 340 20:31 21.02.2020
2542 Clear 6 1026 14 16093 2.6 160 19:59 21.02.2020
2543 Clear 6 1026 14 16093 2.6 160 19:59 21.02.2020
2544 Clear 6 1026 18 16093 1.5 190 19:38 21.02.2020
2545 Clear 6 1026 18 16093 1.5 190 19:18 21.02.2020
2546 Clear 6 1027 24 16093 2.98 200 18:40 21.02.2020
2547 Clear 5 1027 27 16093 2.98 200 18:22 21.02.2020
2548 Clear 3 1028 94 16093 2.98 200 17:42 21.02.2020
2549 Clear 2 1028 58 16093 2.98 200 17:24 21.02.2020
2550 Clear 0 1028 67 16093 4.36 213 16:58 21.02.2020
2551 Clear -1 1025 37 16093 1.5 190 16:40 21.02.2020
2552 Clear -4 1028 73 16093 4.36 213 16:21 21.02.2020
2553 Clear -5 1025 62 16093 1.5 240 15:56 21.02.2020
2554 Clear -5 1025 62 16093 1.5 240 15:38 21.02.2020
2555 Clouds -6 1025 35 16093 4.6 180 15:18 21.02.2020
2556 Clear -6 1025 67 16093 2.1 230 14:42 21.02.2020
2557 Clear -8 1027 85 16093 4.14 218 14:19 21.02.2020
2558 Clear -8 1027 92 16093 2.6 210 13:44 21.02.2020
2559 Clear -8 1028 92 16093 4.19 216 13:24 21.02.2020
2560 Clear -8 1027 84 16093 4.19 216 12:55 21.02.2020
2561 Clear -8 1027 84 16093 4.19 216 12:36 21.02.2020
2562 Clear -8 1027 84 16093 4.19 216 12:18 21.02.2020
2563 Clear -8 1028 92 16093 1.5 180 11:42 21.02.2020
2564 Clear -8 1028 84 16093 1.5 200 11:21 21.02.2020
2565 Clear -8 1028 92 16093 4.05 220 10:57 21.02.2020
2566 Clear -8 1029 85 16093 4.05 220 10:38 21.02.2020
2567 Clear -8 1029 85 16093 4.05 220 10:19 21.02.2020
2568 Clear -8 1029 85 16093 4.05 220 09:57 21.02.2020
2569 Clear -8 1027 92 16093 4.05 220 09:37 21.02.2020
2570 Clear -8 1029 92 16093 4.05 220 09:19 21.02.2020
2571 Clear -8 1027 62 16093 2.1 260 08:42 21.02.2020
2572 Clear -8 1028 45 16093 5.1 190 08:22 21.02.2020
2573 Clear -8 1031 92 11265 3.66 217 07:59 21.02.2020
2574 Clear -8 1031 92 11265 3.66 217 07:40 21.02.2020
2575 Clear -8 1031 92 11265 3.66 217 07:19 21.02.2020
2576 Mist -8 1031 92 8047 3.66 217 06:50 21.02.2020
2577 Clear -7 1031 85 11265 3.66 217 06:30 21.02.2020
2578 Clear -7 1032 92 11265 3.66 217 05:42 21.02.2020
2579 Clear -6 1032 92 11265 2.34 229 04:33 21.02.2020
2580 Clear -6 1032 85 11265 2.34 229 03:58 21.02.2020
2581 Clear -5 1032 92 11265 2.34 229 03:24 21.02.2020
2582 Clear -2 1031 63 16093 1.7 169 01:51 21.02.2020
2583 Clear -1 1031 58 16093 1.5 330 01:23 21.02.2020
2584 Clear -1 1032 83 16093 2.1 340 00:45 21.02.2020
2585 Clear 0 1032 47 16093 1.5 30 00:22 21.02.2020
2586 Clear 0 1030 83 16093 1.23 172 23:44 20.02.2020
2587 Clear 1 1033 40 16093 1.1 55 23:23 20.02.2020
2588 Clear 1 1033 40 16093 1.1 55 22:56 20.02.2020
2589 Clear 0 1030 77 16093 2.1 350 22:37 20.02.2020
2590 Rain 0 1033 40 16093 1.5 200 22:18 20.02.2020
2591 Rain 0 1034 46 16093 1.1 55 21:55 20.02.2020
2592 Rain 0 1034 50 16093 1.5 70 21:36 20.02.2020
2593 Rain -1 1034 50 16093 1.5 70 21:18 20.02.2020
2594 Rain -1 1035 58 16093 1.5 20 20:54 20.02.2020
2595 Snow -1 1035 50 16093 1.1 55 20:36 20.02.2020
2596 Snow -2 1035 50 16093 1.52 164 20:18 20.02.2020
2597 Snow -2 1035 50 16093 1.52 164 20:18 20.02.2020
2598 Snow -2 1035 50 16093 1.52 164 20:18 20.02.2020
2599 Snow -3 1036 53 16093 1.52 164 19:42 20.02.2020
2600 Snow -4 1036 58 16093 1.52 164 19:24 20.02.2020
2601 Snow -4 1036 67 16093 1.52 164 18:59 20.02.2020
2602 Clear -5 1036 72 16093 1.52 164 18:38 20.02.2020
2603 Snow -6 1036 72 16093 1.52 164 18:19 20.02.2020
2604 Snow -6 1036 72 16093 1.52 164 18:19 20.02.2020
2605 Snow -7 1033 57 16093 1.52 164 17:41 20.02.2020
2606 Snow -9 1033 66 16093 1.52 164 17:22 20.02.2020
2607 Clear -10 1033 72 16093 2.26 216 16:59 20.02.2020
2608 Clear -11 1035 78 11265 2.26 216 16:40 20.02.2020
2609 Mist -12 1033 92 6437 1.5 180 16:21 20.02.2020
2610 Mist -13 1032 92 3219 2.6 180 15:59 20.02.2020
2611 Mist -14 1031 84 8047 2.6 120 15:41 20.02.2020
2612 Mist -15 1031 84 8047 2.6 120 15:20 20.02.2020
2613 Clouds -15 1031 77 11265 1.5 160 14:54 20.02.2020
2614 Mist -15 1032 92 3219 2.6 220 14:36 20.02.2020
2615 Mist -15 1032 92 3219 2.6 220 14:18 20.02.2020
2616 Mist -15 1032 92 3219 2.6 220 14:18 20.02.2020
2617 Clear -15 1032 92 16093 1.5 260 13:44 20.02.2020
2618 Clouds -15 1031 78 11265 2.1 180 13:19 20.02.2020
2619 Mist -15 1033 84 4828 2.1 160 12:56 20.02.2020
2620 Clear -15 1032 85 16093 2.3 211 12:37 20.02.2020
2621 Mist -15 1032 92 4828 2.3 211 12:18 20.02.2020
2622 Fog -15 1031 100 805 2.3 211 11:42 20.02.2020
2623 Fog -14 1031 100 805 2.3 211 11:22 20.02.2020
2624 Fog -14 1031 100 805 1.26 228 11:22 20.02.2020
2625 Clear -13 1035 84 16093 1.26 228 10:57 20.02.2020
2626 Clear -13 1035 84 16093 1.26 228 10:39 20.02.2020
2627 Clear -13 1035 84 16093 1.26 228 10:20 20.02.2020
2628 Clear -12 1035 84 16093 1.26 228 09:45 20.02.2020
2629 Snow -11 1035 92 11265 1.26 228 09:25 20.02.2020
2630 Clouds -11 1035 92 16093 1.26 228 08:59 20.02.2020
2631 Clouds -11 1032 85 16093 1.5 310 08:38 20.02.2020
2632 Snow -10 1035 92 11265 1.95 41 08:20 20.02.2020
2633 Clouds -10 1035 92 16093 1.95 41 07:45 20.02.2020
2634 Clouds -10 1035 92 16093 1.95 41 07:21 20.02.2020
2635 Snow -10 1035 85 16093 1.95 41 06:52 20.02.2020
2636 Snow -10 1035 85 16093 1.95 41 06:26 20.02.2020
2637 Snow -10 1034 92 16093 1.95 41 05:45 20.02.2020
2638 Snow -9 1034 85 11265 2.1 23 04:51 20.02.2020
2639 Snow -9 1033 79 8047 2.6 80 03:58 20.02.2020
2640 Snow -8 1033 85 4828 4.6 70 03:28 20.02.2020
2641 Snow -8 1031 92 3219 2.1 60 02:23 20.02.2020
2642 Snow -7 1029 85 2012 2.6 70 00:58 20.02.2020
2643 Snow -6 1029 85 2012 3.1 60 00:31 20.02.2020
2644 Snow -6 1026 85 4828 6.2 50 23:49 19.02.2020
2645 Snow -5 1028 79 3219 3.6 70 23:22 19.02.2020
2646 Snow -5 1024 85 2414 4.6 350 22:46 19.02.2020
2647 Snow -5 1027 79 6437 3.6 40 22:28 19.02.2020
2648 Snow -5 1027 79 4828 3.1 50 21:59 19.02.2020
2649 Snow -5 1027 79 4828 3.1 50 21:41 19.02.2020
2650 -273 0 0 0 0 0 21:19 19.02.2020
2651 Snow -5 1027 79 6437 4.6 20 20:58 19.02.2020
2652 Snow -5 1027 79 4828 4.6 30 20:39 19.02.2020
2653 Snow -5 1027 79 4828 4.6 30 20:20 19.02.2020
2654 Snow -5 1027 73 11265 4.6 30 19:58 19.02.2020
2655 Snow -5 1025 73 6437 3.1 20 19:38 19.02.2020
2656 Snow -5 1027 85 8047 5.1 20 19:38 19.02.2020
2657 Snow -5 1027 85 8047 5.1 20 19:20 19.02.2020
2658 Snow -5 1027 85 8047 4.6 20 18:58 19.02.2020
2659 Snow -5 1027 85 8047 4.6 20 18:40 19.02.2020
2660 Snow -5 1027 79 8047 4.6 20 18:21 19.02.2020
2661 Snow -5 1027 79 4828 5.1 20 17:56 19.02.2020
2662 Snow -5 1025 68 16093 3.6 10 17:38 19.02.2020
2663 Snow -6 1027 73 8047 3.6 10 17:18 19.02.2020
2664 Snow -6 1023 79 9656 3.1 320 16:42 19.02.2020
2665 Snow -7 1026 62 16093 5.1 20 16:19 19.02.2020
2666 Clouds -7 1025 73 16093 3.1 350 15:56 19.02.2020
2667 Clouds -7 1025 73 16093 2.6 350 15:37 19.02.2020
2668 Clouds -7 1025 73 16093 2.6 350 15:19 19.02.2020
2669 Clouds -7 1024 73 16093 2.6 330 14:41 19.02.2020
2670 Clouds -8 1024 85 16093 1.5 330 14:22 19.02.2020
2671 Clouds -9 1021 92 16093 1.5 290 13:43 19.02.2020
2672 Clouds -9 1024 85 16093 1.45 243 13:23 19.02.2020
2673 Clouds -9 1023 85 16093 1.45 243 12:58 19.02.2020
2674 Clouds -9 1023 78 16093 1.45 243 12:37 19.02.2020
2675 Clouds -9 1023 78 16093 1.45 243 12:18 19.02.2020
2676 Clear -9 1021 85 16093 4.6 300 11:39 19.02.2020
2677 Clear -9 1023 85 16093 1.74 220 11:20 19.02.2020
2678 Clear -9 1023 92 16093 1.74 220 10:59 19.02.2020
2679 Clear -9 1021 73 16093 2.6 290 10:38 19.02.2020
2680 Clear -9 1021 73 16093 2.6 290 10:38 19.02.2020
2681 Clear -8 1023 85 16093 1.74 220 10:20 19.02.2020
2682 Clear -8 1024 85 16093 1.74 220 09:59 19.02.2020
2683 Clear -7 1021 67 16093 4.1 340 09:39 19.02.2020
2684 Clear -7 1021 67 16093 4.1 340 09:39 19.02.2020
2685 Clear -7 1024 92 16093 1.74 220 09:19 19.02.2020
2686 Clear -7 1023 85 16093 1.74 220 08:48 19.02.2020
2687 Clear -7 1023 85 16093 1.82 219 08:24 19.02.2020
2688 Clear -7 1023 85 16093 1.5 220 07:54 19.02.2020
2689 Clear -7 1022 62 11265 2.1 360 07:36 19.02.2020
2690 Clear -6 1023 92 16093 1.05 230 07:18 19.02.2020
2691 Clear -6 1021 54 16093 1.05 230 06:36 19.02.2020
2692 Clear -5 1024 68 16093 1.5 160 04:59 19.02.2020
2693 Clouds -4 1024 63 16093 2.6 150 03:50 19.02.2020
2694 Clouds -3 1023 91 16093 4.1 140 02:35 19.02.2020
2695 Clouds -2 1023 84 16093 4.6 130 01:33 19.02.2020
2696 Clear -2 1023 87 16093 5.7 120 00:59 19.02.2020
2697 Clear -1 1022 37 16093 3.1 100 00:36 19.02.2020
2698 Clear -1 1023 34 16093 6.2 110 23:57 18.02.2020
2699 Clear -1 1021 40 16093 3.1 40 23:39 18.02.2020
2700 Clear 0 1023 37 16093 6.7 110 23:19 18.02.2020
2701 Clear 0 1023 31 16093 6.2 110 22:48 18.02.2020
2702 Clear 0 1023 34 16093 6.2 110 22:20 18.02.2020
2703 Clear 0 1023 31 16093 5.7 100 21:59 18.02.2020
2704 Clear 1 1021 37 16093 3.1 350 21:38 18.02.2020
2705 Clear 1 1024 29 16093 4.6 120 21:20 18.02.2020
2706 Clear 0 1025 31 16093 2.6 80 20:59 18.02.2020
2707 Clear 0 1023 37 16093 1.5 20 20:39 18.02.2020
2708 Clear -1 1025 19 16093 2.1 80 20:20 18.02.2020
2709 Clear -1 1025 19 16093 2.1 80 20:20 18.02.2020
2710 Clear -1 1026 24 16093 2.1 100 19:56 18.02.2020
2711 Clear -1 1024 65 16093 2.1 30 19:38 18.02.2020
2712 Clear -1 1026 29 16093 2.1 90 19:18 18.02.2020
2713 Clear -1 1026 50 16093 2.1 70 18:42 18.02.2020
2714 Clear -2 1026 65 16093 2.88 129 18:21 18.02.2020
2715 Clear -2 1026 53 16093 2.88 129 17:57 18.02.2020
2716 Clear -3 1024 54 16093 2.88 129 17:38 18.02.2020
2717 Clear -4 1026 62 16093 1.5 20 17:19 18.02.2020
2718 Snow -5 1023 67 16093 2.1 0 16:40 18.02.2020
2719 Snow -6 1026 85 16093 2.22 213 16:21 18.02.2020
2720 Snow -7 1025 92 16093 2.22 213 15:42 18.02.2020
2721 Snow -8 1025 92 11265 2.22 213 15:21 18.02.2020
2722 Snow -8 1025 92 16093 2.22 213 14:58 18.02.2020
2723 Snow -8 1025 92 16093 2.22 213 14:58 18.02.2020
2724 Clear -7 1024 92 16093 2.22 213 14:40 18.02.2020
2725 Clear -7 1024 92 16093 0.17 61 14:21 18.02.2020
2726 Clouds -7 1024 92 16093 0.17 61 13:57 18.02.2020
2727 Clouds -7 1024 92 16093 0.17 61 13:38 18.02.2020
2728 Clouds -7 1024 92 16093 0.71 193 13:20 18.02.2020
2729 Clouds -6 1024 85 16093 1.5 10 12:43 18.02.2020
2730 Clouds -6 1023 92 16093 1.5 270 12:24 18.02.2020
2731 Clouds -6 1023 92 16093 1.5 210 11:56 18.02.2020
2732 Clouds -6 1021 86 16093 1.5 220 11:37 18.02.2020
2733 Clouds -6 1023 92 16093 0.53 274 11:18 18.02.2020
2734 Clouds -6 1023 92 16093 1.5 10 10:42 18.02.2020
2735 Clouds -6 1023 85 16093 0.53 274 10:22 18.02.2020
2736 Clouds -6 1022 92 16093 1.5 170 09:56 18.02.2020
2737 Clouds -6 1022 92 16093 1.5 170 09:56 18.02.2020
2738 Clouds -6 1020 86 16093 3.1 190 09:38 18.02.2020
2739 Clouds -6 1023 92 16093 0.53 274 09:19 18.02.2020
2740 Snow -6 1023 85 16093 1.5 170 08:54 18.02.2020
2741 Snow -5 1022 85 16093 0.53 274 08:36 18.02.2020
2742 Snow -5 1022 85 16093 2.03 102 08:18 18.02.2020
2743 Snow -5 1020 86 16093 1.5 170 07:42 18.02.2020
2744 Snow -5 1023 86 16093 1.5 140 07:23 18.02.2020
2745 Snow -5 1023 86 11265 2.1 150 06:48 18.02.2020
2746 Snow -5 1023 86 16093 2.6 140 06:27 18.02.2020
2747 Snow -5 1022 86 16093 2.6 130 05:47 18.02.2020
2748 Snow -4 1019 79 1207 3.6 60 04:52 18.02.2020
2749 Clouds -2 1018 94 11265 4.1 110 03:38 18.02.2020
2750 Clouds -1 1019 40 16093 4.1 90 02:54 18.02.2020
2751 Clouds 1 1016 40 16093 5.7 130 01:23 18.02.2020
2752 Clouds 2 1015 41 16093 4.6 140 00:22 18.02.2020
2753 Clouds 2 1015 41 16093 5.1 150 23:58 17.02.2020
2754 Clouds 2 1012 44 16093 4.6 150 23:38 17.02.2020
2755 Clouds 3 1015 38 16093 4.1 130 23:19 17.02.2020
2756 Clouds 3 1014 41 16093 4.1 120 22:56 17.02.2020
2757 Clear 3 1014 41 16093 3.1 100 22:38 17.02.2020
2758 Clear 3 1014 41 16093 3.1 100 22:18 17.02.2020
2759 Clear 3 1011 45 16093 4.1 150 21:39 17.02.2020
2760 Clear 3 1014 41 16093 3.6 110 21:18 17.02.2020
2761 Clear 3 1014 44 16093 4.6 150 20:43 17.02.2020
2762 Clear 3 1014 44 16093 4.6 150 20:22 17.02.2020
2763 Clear 3 1015 33 16093 7.2 240 19:59 17.02.2020
2764 Clear 3 1012 28 16093 6.7 220 19:41 17.02.2020
2765 Clear 3 1015 30 16093 5.7 220 19:20 17.02.2020
2766 Clouds 3 1013 55 16093 4.6 80 18:38 17.02.2020
2767 Clear 3 1015 41 16093 2.1 110 18:20 17.02.2020
2768 Clear 3 1015 41 16093 2.1 110 18:20 17.02.2020
2769 Clear 3 1015 55 16093 4.1 110 17:59 17.02.2020
2770 Clear 2 1015 59 16093 3.6 100 17:38 17.02.2020
2771 Clear 2 1015 59 16093 3.6 100 17:38 17.02.2020
2772 Clear 1 1015 59 16093 3.6 100 17:19 17.02.2020
2773 Clear 1 1015 69 16093 3.1 130 16:57 17.02.2020
2774 Clouds 0 1013 69 16093 2.6 0 16:39 17.02.2020
2775 Clear -1 1014 80 16093 1.5 190 16:20 17.02.2020
2776 Clear -1 1014 80 16093 1.5 190 16:20 17.02.2020
2777 Clear -2 1014 85 16093 1.65 253 15:45 17.02.2020
2778 Clear -3 1014 85 16093 1.65 253 15:26 17.02.2020
2779 Clear -3 1013 92 11265 1.65 253 14:56 17.02.2020
2780 Clear -3 1013 92 16093 1.65 253 14:38 17.02.2020
2781 Clear -3 1013 92 16093 1.92 190 14:19 17.02.2020
2782 Clear -3 1013 92 16093 1.92 190 13:41 17.02.2020
2783 Clear -3 1013 85 16093 1.5 120 13:21 17.02.2020
2784 Clear -3 1013 92 16093 2.18 210 12:59 17.02.2020
2785 Clear -3 1013 92 16093 2.18 210 12:40 17.02.2020
2786 Clear -2 1013 92 16093 2.18 210 12:22 17.02.2020
2787 Clear -2 1013 92 16093 2.18 210 11:47 17.02.2020
2788 Clear -2 1012 86 16093 2.18 210 11:27 17.02.2020
2789 Clear -1 1013 79 16093 2.6 270 10:58 17.02.2020
2790 Clear -1 1012 70 16093 3.1 10 10:39 17.02.2020
2791 Clear -1 1012 70 16093 3.1 10 10:20 17.02.2020
2792 Clear -1 1012 69 16093 4.1 10 09:57 17.02.2020
2793 Clouds -1 1010 74 16093 4.1 320 09:39 17.02.2020
2794 Clouds -1 1012 74 16093 3.6 210 09:19 17.02.2020
2795 Clouds -1 1012 70 16093 1.5 210 08:45 17.02.2020
2796 Clouds -1 1012 70 16093 3.1 190 08:23 17.02.2020
2797 Clouds 0 1012 86 16093 1.5 210 07:59 17.02.2020
2798 Clouds 0 1012 92 16093 1.78 238 07:38 17.02.2020
2799 Clouds 0 1012 92 16093 1.78 238 07:19 17.02.2020
2800 Clear 0 1012 86 16093 1.78 238 06:43 17.02.2020
2801 Clear 0 1012 86 16093 1.78 238 06:24 17.02.2020
2802 Clear 0 1010 64 16093 1.78 238 05:40 17.02.2020
2803 Clear 1 1011 74 16093 1.1 256 04:26 17.02.2020
2804 Clear 3 1011 60 16093 3.6 70 02:49 17.02.2020
2805 Clear 5 1010 60 16093 1.5 350 01:23 17.02.2020
2806 Clear 5 1008 55 16093 1.5 300 00:39 17.02.2020
2807 Clear 5 1011 52 16093 5.1 300 00:19 17.02.2020
2808 Clouds 5 1010 52 16093 1 249 23:48 16.02.2020
2809 Clear 7 1010 48 16093 2.21 3 23:27 16.02.2020
2810 Clouds 7 1010 48 16093 2.6 50 22:56 16.02.2020
2811 Clouds 7 1008 45 16093 2.21 3 22:38 16.02.2020
2812 Clear 7 1010 51 16093 2.1 10 22:18 16.02.2020
2813 Clear 7 1010 48 16093 2.21 3 21:43 16.02.2020
2814 Clear 7 1010 48 16093 2.21 3 21:24 16.02.2020
2815 Clouds 7 1009 39 16093 3.6 70 20:59 16.02.2020
2816 Clouds 7 1009 39 16093 3.6 70 20:40 16.02.2020
2817 Clear 5 1012 55 16093 4.21 192 20:22 16.02.2020
2818 Clear 5 1013 59 16093 2.1 310 19:59 16.02.2020
2819 Clear 5 1013 59 16093 2.1 310 19:40 16.02.2020
2820 Clear 5 1013 59 16093 3.1 20 19:19 16.02.2020
2821 Clear 4 1013 73 16093 1.5 40 18:59 16.02.2020
2822 Clear 4 1013 73 16093 1.5 40 18:40 16.02.2020
2823 Clear 3 1014 73 16093 2.1 30 18:22 16.02.2020
2824 Clouds 1 1012 55 16093 4.1 250 17:44 16.02.2020
2825 Clear 0 1014 68 16093 4.29 213 17:20 16.02.2020
2826 Clouds -1 1015 73 16093 4.29 213 16:56 16.02.2020
2827 Clouds -1 1015 79 16093 4.29 213 16:38 16.02.2020
2828 Clouds -2 1015 79 16093 4.29 213 16:20 16.02.2020
2829 Clouds -3 1015 79 16093 4.29 213 15:56 16.02.2020
2830 Clouds -4 1015 79 16093 4.29 213 15:37 16.02.2020
2831 Clouds -4 1015 79 16093 4.29 213 15:18 16.02.2020
2832 Clouds -4 1014 73 16093 4.29 213 14:38 16.02.2020
2833 Clouds -4 1016 85 16093 1.5 20 14:19 16.02.2020
2834 Clouds -4 1016 79 16093 2.1 260 13:45 16.02.2020
2835 Clouds -5 1016 85 16093 2.1 30 13:24 16.02.2020
2836 Clear -5 1016 79 16093 4.34 215 12:55 16.02.2020
2837 Clouds -5 1015 73 16093 4.34 215 12:36 16.02.2020
2838 Clear -5 1016 79 16093 4.34 215 12:18 16.02.2020
2839 Clear -5 1016 79 16093 4.34 215 11:38 16.02.2020
2840 Clear -5 1016 79 16093 3.89 209 11:18 16.02.2020
2841 Clear -5 1017 85 16093 3.89 209 10:56 16.02.2020
2842 Clear -5 1015 79 16093 1.5 210 10:38 16.02.2020
2843 Clear -5 1017 85 16093 2.1 180 10:19 16.02.2020
2844 Clear -4 1017 79 16093 3.89 209 09:55 16.02.2020
2845 Clear -4 1018 85 16093 3.89 209 09:36 16.02.2020
2846 Clear -4 1018 85 16093 3.89 209 09:18 16.02.2020
2847 Clear -4 1015 68 16093 3.89 209 08:44 16.02.2020
2848 Clouds -4 1017 85 16093 2.91 212 08:21 16.02.2020
2849 Clouds -3 1017 92 16093 1.5 250 07:51 16.02.2020
2850 Clouds -3 1017 92 16093 1.5 250 07:51 16.02.2020
2851 Clear -3 1017 85 16093 2.91 212 07:33 16.02.2020
2852 Clear -3 1017 85 16093 1.5 30 06:33 16.02.2020
2853 Clouds -2 1014 63 16093 2.4 213 04:43 16.02.2020
2854 Clear -2 1016 73 16093 2.4 213 03:29 16.02.2020
2855 Clear -1 1016 63 16093 2.4 213 02:32 16.02.2020
2856 Clear 1 1016 85 16093 0.58 53 01:43 16.02.2020
2857 Clear 2 1016 55 16093 2.1 360 01:23 16.02.2020
2858 Clear 2 1016 51 16093 3.6 20 00:53 16.02.2020
2859 Clear 2 1016 47 16093 3.1 10 00:31 16.02.2020
2860 Clear 2 1016 44 16093 4.1 10 23:54 15.02.2020
2861 Clear 2 1015 41 16093 2.1 100 23:36 15.02.2020
2862 Clear 4 1015 41 16093 2.1 100 23:18 15.02.2020
2863 Clear 3 1014 44 16093 2.65 336 22:41 15.02.2020
2864 Clear 3 1016 38 16093 2.1 80 22:22 15.02.2020
2865 Clouds 3 1014 44 16093 3.6 120 21:59 15.02.2020
2866 Clouds 4 1014 44 16093 3.6 120 21:40 15.02.2020
2867 Clear 4 1018 40 16093 3.6 120 21:21 15.02.2020
2868 Clear 3 1017 38 16093 5.7 100 20:40 15.02.2020
2869 -273 0 0 0 0 0 20:21 15.02.2020
2870 Clear 2 1019 37 16093 4.6 160 19:44 15.02.2020
2871 Clear 2 1019 37 16093 4.6 160 19:23 15.02.2020
2872 Clear 1 1019 43 16093 5.7 160 18:55 15.02.2020
2873 Clear 1 1019 43 16093 4.1 170 18:36 15.02.2020
2874 Clear 1 1019 43 16093 4.1 170 18:18 15.02.2020
2875 Clear 0 1020 50 16093 5.7 190 17:43 15.02.2020
2876 Clear -1 1020 76 16093 3.6 190 17:22 15.02.2020
2877 Clear -2 1020 79 16093 2.6 190 16:58 15.02.2020
2878 Clear -3 1017 74 16093 1.5 100 16:39 15.02.2020
2879 Clear -4 1020 92 16093 2.63 190 16:19 15.02.2020
2880 Clear -5 1017 92 16093 2.63 190 15:42 15.02.2020
2881 Clear -6 1019 92 16093 2.63 190 15:23 15.02.2020
2882 Clear -6 1019 92 16093 2.63 190 14:45 15.02.2020
2883 Clear -6 1019 92 16093 2.63 190 14:45 15.02.2020
2884 Clear -5 1019 92 16093 2.63 190 14:23 15.02.2020
2885 Clear -5 1019 85 16093 2.39 207 13:57 15.02.2020
2886 Clear -5 1016 86 16093 3.1 180 13:38 15.02.2020
2887 Clear -5 1018 92 16093 1.5 200 13:20 15.02.2020
2888 Clear -5 1018 85 16093 2.1 180 12:43 15.02.2020
2889 Clear -4 1018 79 16093 2.1 200 12:25 15.02.2020
2890 Clear -4 1018 86 16093 2.1 150 11:54 15.02.2020
2891 Clear -3 1018 79 16093 2.1 160 11:36 15.02.2020
2892 Clear -3 1018 79 16093 2.1 160 11:18 15.02.2020
2893 Clear -2 1014 65 16093 4.1 110 10:39 15.02.2020
2894 Clear -2 1016 74 16093 4.1 90 10:20 15.02.2020
2895 Clear -1 1016 47 16093 1.5 70 09:44 15.02.2020
2896 Clear -1 1015 41 16093 3.63 190 09:25 15.02.2020
2897 Clear -1 1014 65 16093 4.1 270 08:46 15.02.2020
2898 Clear 0 1014 43 16093 3.63 190 08:26 15.02.2020
2899 Clear 0 1014 40 16093 2.1 140 07:59 15.02.2020
2900 Clear 1 1012 28 16093 8.7 280 07:39 15.02.2020
2901 Clear 1 1013 47 16093 4.28 207 07:21 15.02.2020
2902 Clear 3 1011 28 16093 11.3 270 06:38 15.02.2020
2903 Clear 3 1012 28 16093 4.1 260 05:56 15.02.2020
2904 Clear 2 1009 23 16093 6.2 190 04:49 15.02.2020
2905 Clear 2 1011 24 16093 2.1 210 04:21 15.02.2020
2906 Clear 5 1011 24 16093 3.1 220 02:58 15.02.2020
2907 Clear 6 1011 21 16093 3.6 240 02:24 15.02.2020
2908 Clear 6 1010 20 16093 5.7 270 01:45 15.02.2020
2909 Clear 7 1009 17 16093 7.7 250 00:58 15.02.2020
2910 Clear 10 1009 17 16093 5.7 260 00:28 15.02.2020
2911 Clear 10 1009 16 16093 6.2 250 23:45 14.02.2020
2912 Clear 9 1009 17 16093 5.7 240 23:21 14.02.2020
2913 Clear 8 1009 20 16093 4.1 270 22:55 14.02.2020
2914 Clear 7 1009 36 16093 4.6 300 22:36 14.02.2020
2915 Clear 8 1009 36 16093 4.6 300 22:18 14.02.2020
2916 Rain 9 1008 42 16093 1.5 220 21:41 14.02.2020
2917 Rain 9 1011 48 16093 4.31 211 21:23 14.02.2020
2918 Rain 9 1012 55 11265 1.5 20 20:44 14.02.2020
2919 Clear 4 1012 100 16093 4.33 214 20:20 14.02.2020
2920 Clear 4 1013 100 16093 2.6 360 19:58 14.02.2020
2921 Clear 3 1011 100 16093 1.5 350 19:40 14.02.2020
2922 Clear 3 1011 100 16093 1.5 350 19:40 14.02.2020
2923 Clear 3 1014 63 11265 2.6 360 19:20 14.02.2020
2924 Clear 4 1014 68 16093 4.33 214 18:56 14.02.2020
2925 Rain 7 1013 55 11265 1.5 270 18:38 14.02.2020
2926 Rain 7 1012 39 16093 6.7 190 18:19 14.02.2020
2927 Clear 5 1012 79 11265 4.33 214 17:42 14.02.2020
2928 -273 0 0 0 0 0 17:21 14.02.2020
2929 Clear -4 1013 85 11265 1.5 360 16:58 14.02.2020
2930 Clear -4 1013 85 11265 1.5 360 16:39 14.02.2020
2931 Clouds -6 1013 50 16093 4.6 200 16:21 14.02.2020
2932 Mist -5 1013 92 8047 5.17 213 15:56 14.02.2020
2933 Mist -4 1013 92 8047 5.17 213 15:37 14.02.2020
2934 Mist -4 1013 92 8047 5.17 213 15:37 14.02.2020
2935 Clear -4 1017 56 0 14.4 290 15:37 14.02.2020
2936 Clear -4 1017 56 0 14.4 290 15:37 14.02.2020
2937 Clouds -4 1013 54 16093 4.6 200 15:19 14.02.2020
2938 Clear -4 1013 92 11265 1.5 250 14:56 14.02.2020
2939 Clear -4 1013 92 11265 1.5 250 14:38 14.02.2020
2940 Clouds -9 1013 54 16093 5.7 190 14:19 14.02.2020
2941 Clear -9 1013 79 16093 5.17 213 13:40 14.02.2020
2942 Clear -9 1013 79 16093 5.17 213 13:40 14.02.2020
2943 Clear -9 1013 85 16093 2.1 230 13:21 14.02.2020
2944 Clear -10 1013 85 16093 3.1 200 12:58 14.02.2020
2945 Clear -8 1016 51 0 13.9 320 12:39 14.02.2020
2946 Clouds -9 1013 78 16093 1.5 210 12:21 14.02.2020
2947 Clouds -9 1013 78 16093 1.5 210 12:21 14.02.2020
2948 Clear -8 1013 85 16093 5.25 211 11:58 14.02.2020
2949 Clear -8 1013 85 16093 5.25 211 11:40 14.02.2020
2950 Fog -9 1014 92 1207 1.5 290 11:20 14.02.2020
2951 Clear -9 1014 92 11265 4.1 340 10:55 14.02.2020
2952 Clouds -9 1016 51 0 12.3 320 10:36 14.02.2020
2953 Clear -9 1014 67 16093 3.1 200 10:18 14.02.2020
2954 Clear -9 1017 84 11265 4.86 216 09:39 14.02.2020
2955 Mist -8 1014 92 1609 2.6 280 09:19 14.02.2020
2956 Clear -9 1018 92 11265 4.86 216 08:43 14.02.2020
2957 Clear -9 1014 67 16093 7.7 180 08:24 14.02.2020
2958 Clear -9 1015 85 16093 3.1 340 07:51 14.02.2020
2959 Clear -9 1015 67 16093 8.2 180 07:33 14.02.2020
2960 Clear -9 1018 84 11265 3.81 221 06:56 14.02.2020
2961 Clear -9 1018 92 11265 3.81 221 06:23 14.02.2020
2962 Clear -9 1018 85 11265 3.81 221 05:44 14.02.2020
2963 Mist -8 1019 92 8047 2.51 230 04:22 14.02.2020
2964 Clear -8 1020 92 16093 2.51 230 03:28 14.02.2020
2965 Clear -7 1020 85 16093 2.22 131 02:20 14.02.2020
2966 Snow -5 1020 73 16093 2.22 131 01:22 14.02.2020
2967 Clear -5 1019 73 16093 1.5 110 00:42 14.02.2020
2968 Clear -5 1019 73 16093 1.5 110 00:42 14.02.2020
2969 Clear -4 1020 68 16093 2.6 110 00:42 14.02.2020
2970 Snow -4 1020 68 16093 2.6 110 00:21 14.02.2020
2971 Snow -3 1020 68 16093 2.1 70 23:42 13.02.2020
2972 Snow -3 1020 68 16093 2.28 102 23:19 13.02.2020
2973 Snow -3 1017 68 16093 1.5 50 22:42 13.02.2020
2974 Snow -3 1020 68 16093 2.28 102 22:20 13.02.2020
2975 Snow -3 1020 73 16093 2.28 102 21:59 13.02.2020
2976 Snow -3 1020 73 16093 2.28 102 21:40 13.02.2020
2977 Snow -3 1020 73 16093 2.28 102 21:21 13.02.2020
2978 Snow -4 1018 79 6437 2.6 300 20:56 13.02.2020
2979 Snow -4 1018 85 11265 2.28 102 20:37 13.02.2020
2980 Snow -5 1021 79 16093 1.99 59 20:19 13.02.2020
2981 Snow -5 1021 85 16093 1.99 59 19:55 13.02.2020
2982 Snow -5 1021 85 16093 2.1 10 19:36 13.02.2020
2983 Clouds -5 1021 85 16093 2.1 10 19:18 13.02.2020
2984 Clouds -5 1018 100 16093 1.5 320 18:41 13.02.2020
2985 Clouds -6 1021 85 16093 1.5 10 18:22 13.02.2020
2986 Clouds -6 1020 92 16093 1.5 20 17:58 13.02.2020
2987 Clouds -7 1020 92 16093 2.1 10 17:38 13.02.2020
2988 Clouds -8 1020 92 16093 2.1 10 17:20 13.02.2020
2989 Clouds -8 1019 100 16093 2.37 222 16:56 13.02.2020
2990 Snow -8 1017 100 6437 2.37 222 16:36 13.02.2020
2991 Clouds -9 1019 92 16093 2.37 222 16:18 13.02.2020
2992 Clouds -9 1019 92 16093 2.37 222 15:55 13.02.2020
2993 Mist -10 1016 85 8047 2.1 250 15:36 13.02.2020
2994 Clouds -10 1019 92 16093 2.1 360 15:18 13.02.2020
2995 Clouds -10 1018 92 16093 1.5 360 14:55 13.02.2020
2996 Clouds -10 1016 92 11265 1.5 340 14:37 13.02.2020
2997 Clouds -11 1018 92 16093 2.1 360 14:18 13.02.2020
2998 Clouds -11 1018 100 16093 1.5 340 13:41 13.02.2020
2999 Clouds -11 1018 92 16093 2.1 340 13:18 13.02.2020
3000 Clouds -10 1018 92 16093 3.6 213 12:49 13.02.2020
3001 Clouds -10 1018 92 16093 2.1 10 12:30 13.02.2020
3002 Clouds -11 1018 92 16093 3.6 213 11:59 13.02.2020
3003 Clouds -10 1018 92 16093 1.5 360 11:41 13.02.2020
3004 Clouds -9 1018 92 16093 1.5 360 11:19 13.02.2020
3005 Clouds -9 1018 92 16093 3.82 207 10:44 13.02.2020
3006 Clouds -9 1018 92 16093 3.82 207 10:44 13.02.2020
3007 Clouds -9 1018 92 16093 3.82 207 10:26 13.02.2020
3008 Clouds -9 1019 92 11265 3.82 207 09:50 13.02.2020
3009 Clouds -9 1019 92 11265 3.82 207 09:26 13.02.2020
3010 Clouds -9 1016 92 11265 2.1 270 08:48 13.02.2020
3011 Clouds -8 1020 92 11265 1.6 253 08:20 13.02.2020
3012 Snow -8 1020 92 1609 1.6 253 07:57 13.02.2020
3013 Clouds -8 1017 100 16093 1.6 253 07:38 13.02.2020
3014 Snow -8 1020 92 6437 1.6 253 07:19 13.02.2020
3015 Snow -7 1017 92 14484 5.7 120 06:44 13.02.2020
3016 Snow -7 1017 100 2414 5.7 110 05:59 13.02.2020
3017 Snow -7 1017 100 1207 6.2 90 05:20 13.02.2020
3018 Snow -6 1017 92 805 6.2 80 04:25 13.02.2020
3019 Snow -6 1019 92 4023 2.1 50 03:45 13.02.2020
3020 Snow -5 1019 92 4023 4.1 20 02:59 13.02.2020
3021 Snow -5 1016 79 2414 1.3 5 02:41 13.02.2020
3022 Snow -4 1019 86 8047 2.56 359 02:18 13.02.2020
3023 Snow -3 1018 86 11265 2.56 359 01:27 13.02.2020
3024 Snow -3 1018 86 2816 1.5 220 00:32 13.02.2020
3025 Snow -3 1018 80 1207 3.1 250 23:58 12.02.2020
3026 Snow -3 1018 96 16093 3.1 260 23:37 12.02.2020
3027 Snow -2 1018 80 16093 3.1 260 23:18 12.02.2020
3028 Clouds -2 1017 47 16093 1.5 20 22:44 12.02.2020
3029 Clouds -2 1017 47 16093 1.5 20 22:24 12.02.2020
3030 Clouds -1 1017 47 16093 4.1 30 21:57 12.02.2020
3031 Snow -1 1014 63 2816 4.6 30 21:39 12.02.2020
3032 Clouds -1 1016 47 16093 4.6 50 21:19 12.02.2020
3033 Clouds -1 1016 47 16093 5.7 30 20:55 12.02.2020
3034 Clouds 0 1016 47 16093 8.7 30 20:37 12.02.2020
3035 Clouds 0 1016 47 16093 8.7 30 20:18 12.02.2020
3036 Clouds 0 1016 43 16093 9.3 40 19:43 12.02.2020
3037 Clouds 0 1016 47 16093 7.7 40 19:23 12.02.2020
3038 Clear 0 1015 47 16093 4.6 50 18:54 12.02.2020
3039 Clouds 0 1015 47 16093 2.6 10 18:36 12.02.2020
3040 Clouds 0 1015 47 16093 2.6 10 18:18 12.02.2020
3041 Clear 0 1015 46 16093 2.6 30 17:41 12.02.2020
3042 Clear -3 1014 50 16093 2.87 211 17:19 12.02.2020
3043 Clouds -3 1014 50 16093 1.65 213 16:57 12.02.2020
3044 Clouds -3 1012 73 16093 1.65 213 16:37 12.02.2020
3045 Clouds -4 1014 58 16093 2.87 211 16:18 12.02.2020
3046 Clouds -5 1013 67 16093 1.65 213 15:40 12.02.2020
3047 Clouds -5 1013 67 16093 2.87 211 15:20 12.02.2020
3048 Clouds -5 1012 57 16093 2.87 211 14:54 12.02.2020
3049 Clouds -6 1012 49 16093 1.65 213 14:36 12.02.2020
3050 Clouds -7 1012 49 16093 2.63 209 14:18 12.02.2020
3051 Clouds -7 1012 49 16093 2.67 216 13:55 12.02.2020
3052 Clear -7 1011 42 16093 3.1 270 13:36 12.02.2020
3053 Clear -7 1011 42 16093 3.1 270 13:18 12.02.2020
3054 Clear -7 1011 46 16093 5.1 270 12:55 12.02.2020
3055 Clear -8 1011 67 16093 5.7 280 12:36 12.02.2020
3056 Clear -8 1011 67 16093 5.7 280 12:18 12.02.2020
3057 Clear -8 1011 85 16093 2.63 209 11:42 12.02.2020
3058 -273 0 0 0 0 0 11:21 12.02.2020
3059 Clear -7 1011 85 16093 3.05 211 10:59 12.02.2020
3060 Clear -7 1011 85 16093 3.05 211 10:40 12.02.2020
3061 Clear -7 1010 72 16093 3.05 211 10:20 12.02.2020
3062 Clear -6 1010 85 16093 2.1 210 09:56 12.02.2020
3063 Clear -6 1008 63 16093 2.6 250 09:38 12.02.2020
3064 Clear -6 1010 85 16093 3.05 211 09:18 12.02.2020
3065 Clear -6 1010 85 16093 3.05 211 09:18 12.02.2020
3066 Clear -6 1011 79 16093 1.5 190 08:55 12.02.2020
3067 Clouds -6 1011 85 16093 3.05 211 08:36 12.02.2020
3068 Clouds -6 1011 85 16093 3.51 220 08:18 12.02.2020
3069 Clouds -6 1011 85 16093 3.51 220 08:18 12.02.2020
3070 Clouds -6 1011 79 16093 3.81 218 07:41 12.02.2020
3071 Clouds -6 1011 85 16093 3.81 218 07:41 12.02.2020
3072 Clouds -7 1011 79 16093 3.81 218 07:21 12.02.2020
3073 Clouds -7 1011 92 16093 2.6 210 06:47 12.02.2020
3074 Clouds -7 1012 85 16093 3.81 218 06:20 12.02.2020
3075 Clear -8 1011 92 16093 3.81 218 05:32 12.02.2020
3076 Clouds -7 1009 73 16093 4.1 190 04:43 12.02.2020
3077 Clear -7 1011 85 16093 3.01 227 03:59 12.02.2020
3078 Clouds -7 1009 85 16093 1.5 280 03:30 12.02.2020
3079 Clear -6 1012 78 16093 3.01 227 02:46 12.02.2020
3080 Clear -5 1012 78 16093 3.01 227 02:27 12.02.2020
3081 Clear -3 1012 58 16093 1.62 207 01:34 12.02.2020
3082 Clear -2 1010 50 16093 1.87 208 00:41 12.02.2020
3083 Snow -1 1013 54 16093 1.5 10 00:22 12.02.2020
3084 Clear -1 1014 50 16093 2.1 10 23:49 11.02.2020
3085 Clear -1 1014 54 16093 1.5 10 23:31 11.02.2020
3086 Rain 0 1015 54 16093 2.1 360 22:58 11.02.2020
3087 Rain 0 1015 54 16093 1.5 360 22:39 11.02.2020
3088 Rain 0 1015 54 16093 1.5 360 22:20 11.02.2020
3089 Rain 0 1016 54 16093 1.5 360 21:57 11.02.2020
3090 Rain 0 1014 54 3219 0.84 148 21:38 11.02.2020
3091 Rain 0 1017 50 16093 1.5 330 21:18 11.02.2020
3092 Rain -1 1018 58 16093 0.84 148 20:58 11.02.2020
3093 Rain -1 1018 62 16093 0.84 148 20:38 11.02.2020
3094 Clear -3 1018 62 16093 2.68 200 20:19 11.02.2020
3095 Snow -3 1020 68 16093 2.18 211 19:56 11.02.2020
3096 Snow -3 1020 58 16093 2.18 211 19:38 11.02.2020
3097 Snow -3 1020 58 16093 2.18 211 19:20 11.02.2020
3098 Snow -4 1021 79 16093 2.18 211 18:44 11.02.2020
3099 Snow -5 1021 79 16093 2.18 211 18:25 11.02.2020
3100 Snow -6 1019 73 16093 2.18 211 17:56 11.02.2020
3101 Snow -6 1019 73 16093 2.18 211 17:56 11.02.2020
3102 Snow -7 1012 53 0 10.8 320 17:38 11.02.2020
3103 Clouds -8 1019 100 16093 8.2 180 17:19 11.02.2020
3104 Snow -9 1021 72 19312 2.83 217 16:58 11.02.2020
3105 Clear -10 1012 53 0 10.3 310 16:38 11.02.2020
3106 Clouds -11 1021 92 16093 4.6 160 16:20 11.02.2020
3107 Clear -12 1022 92 16093 2.1 170 15:48 11.02.2020
3108 Clouds -13 1024 91 16093 2.83 217 15:30 11.02.2020
3109 Clear -13 1025 84 16093 2.83 217 14:59 11.02.2020
3110 Clouds -13 1023 84 16093 1.5 260 14:41 11.02.2020
3111 Clear -13 1024 84 11265 3.39 197 14:19 11.02.2020
3112 Clouds -12 1021 85 14484 2.6 160 13:42 11.02.2020
3113 Mist -12 1025 84 8047 3.24 210 13:23 11.02.2020
3114 Mist -12 1025 84 8047 3.24 210 12:59 11.02.2020
3115 Mist -12 1025 84 8047 3.24 210 12:41 11.02.2020
3116 Mist -11 1025 84 2012 3.24 210 12:21 11.02.2020
3117 Mist -11 1025 92 8047 3.24 210 11:56 11.02.2020
3118 Mist -11 1022 85 4828 1.5 210 11:38 11.02.2020
3119 Snow -9 1026 92 11265 1.33 214 11:19 11.02.2020
3120 Snow -9 1026 92 11265 1.33 214 10:40 11.02.2020
3121 Snow -8 1027 92 16093 1.5 310 10:21 11.02.2020
3122 Snow -8 1027 85 16093 1.33 214 09:57 11.02.2020
3123 Snow -8 1024 100 11265 1.33 214 09:39 11.02.2020
3124 Snow -8 1027 100 11265 1.33 214 09:21 11.02.2020
3125 Snow -7 1026 92 6437 1.33 214 08:49 11.02.2020
3126 Snow -7 1026 92 11265 2.6 360 08:25 11.02.2020
3127 Snow -7 1027 92 2414 2.6 40 07:51 11.02.2020
3128 Snow -6 1027 92 2816 2.1 40 07:32 11.02.2020
3129 Snow -6 1027 85 4828 2.1 70 06:57 11.02.2020
3130 Snow -6 1024 100 4828 4.6 30 06:38 11.02.2020
3131 Snow -6 1024 100 4828 4.6 30 06:38 11.02.2020
3132 Snow -6 1026 85 4023 2.1 60 06:20 11.02.2020
3133 Snow -6 1026 85 4023 2.1 60 06:20 11.02.2020
3134 Snow -5 1026 92 1207 3.1 10 05:26 11.02.2020
3135 Snow -5 1023 92 2414 7.7 30 04:54 11.02.2020
3136 Snow -5 1024 92 4828 1.5 10 03:27 11.02.2020
3137 Snow -5 1023 86 2012 2.1 20 02:34 11.02.2020
3138 Snow -4 1020 100 1207 1.45 69 01:39 11.02.2020
3139 Snow -4 1021 50 16093 1.5 50 00:58 11.02.2020
3140 Snow -3 1021 46 16093 2.1 90 00:23 11.02.2020
3141 Clear -3 1020 95 16093 3.1 100 23:45 10.02.2020
3142 Clear -3 1020 95 16093 2.6 120 23:26 10.02.2020
3143 Snow -3 1017 85 2012 4.6 130 22:57 10.02.2020
3144 Clouds -3 1020 80 16093 4.6 140 22:37 10.02.2020
3145 Clouds -3 1020 80 16093 4.6 140 22:18 10.02.2020
3146 Clouds -2 1017 80 16093 2.6 150 21:40 10.02.2020
3147 Snow -2 1020 80 16093 5.1 140 21:22 10.02.2020
3148 Snow -2 1020 80 11265 3.6 150 20:56 10.02.2020
3149 Rain -2 1017 63 16093 3.1 330 20:37 10.02.2020
3150 Clouds -2 1020 67 16093 4.1 150 20:19 10.02.2020
3151 Clouds -2 1021 79 16093 2.6 120 19:57 10.02.2020
3152 Snow -2 1018 79 16093 2.03 51 19:37 10.02.2020
3153 Snow -3 1021 68 16093 2.6 110 19:18 10.02.2020
3154 Snow -3 1021 68 16093 2.6 110 19:18 10.02.2020
3155 Snow -3 1021 100 16093 2.03 51 18:56 10.02.2020
3156 Snow -3 1018 74 16093 2.1 30 18:38 10.02.2020
3157 Snow -4 1018 92 9656 2.03 51 18:20 10.02.2020
3158 Snow -4 1018 79 16093 2.03 51 17:54 10.02.2020
3159 Clear -5 1019 85 11265 2.03 51 17:36 10.02.2020
3160 Mist -7 1017 85 9656 2.6 110 17:18 10.02.2020
3161 Mist -9 1017 92 9656 1.85 230 16:41 10.02.2020
3162 Mist -8 1017 92 2414 4.1 250 16:41 10.02.2020
3163 Mist -9 1017 92 9656 1.85 230 16:20 10.02.2020
3164 Mist -9 1017 92 9656 1.85 230 16:20 10.02.2020
3165 Clouds -10 1017 85 16093 1.85 230 15:59 10.02.2020
3166 Clouds -10 1017 85 16093 1.85 230 15:59 10.02.2020
3167 Clouds -10 1017 85 16093 1.85 230 15:41 10.02.2020
3168 Mist -11 1016 85 6437 3.6 180 15:22 10.02.2020
3169 Mist -11 1016 92 4828 4.6 240 14:58 10.02.2020
3170 Clear -11 1011 54 0 13.4 300 14:39 10.02.2020
3171 Mist -11 1015 92 2012 3.1 200 14:19 10.02.2020
3172 Mist -11 1015 92 8047 5.1 210 13:45 10.02.2020
3173 Fog -10 1015 100 402 4.1 200 13:26 10.02.2020
3174 Fog -10 1015 100 402 4.1 200 13:26 10.02.2020
3175 Fog -10 1015 85 805 1.5 350 12:59 10.02.2020
3176 Fog -10 1015 85 805 1.5 350 12:41 10.02.2020
3177 Clouds -10 1014 85 3219 3.1 340 12:22 10.02.2020
3178 Clear -10 1014 92 16093 5.7 340 11:46 10.02.2020
3179 Clear -10 1014 92 16093 5.7 340 11:46 10.02.2020
3180 Clear -10 1014 78 16093 3.6 320 11:22 10.02.2020
3181 Clear -10 1014 100 16093 5.1 330 10:58 10.02.2020
3182 Clear -10 1017 84 16093 1.23 224 10:39 10.02.2020
3183 Clear -10 1014 100 16093 4.6 330 10:21 10.02.2020
3184 Clear -10 1013 100 16093 2.1 160 09:42 10.02.2020
3185 Clear -10 1016 84 16093 1.23 224 09:23 10.02.2020
3186 Clear -10 1014 85 11265 1.23 224 08:41 10.02.2020
3187 Clear -9 1017 85 16093 2.1 210 08:22 10.02.2020
3188 Clear -9 1015 92 16093 1.5 350 07:55 10.02.2020
3189 Clear -9 1018 85 11265 2.28 219 07:35 10.02.2020
3190 Clear -9 1018 92 16093 2.28 219 06:53 10.02.2020
3191 Clear -8 1018 85 16093 2.28 219 05:40 10.02.2020
3192 Clouds -7 1019 79 16093 1.01 225 03:59 10.02.2020
3193 Clouds -7 1020 79 16093 2.6 140 03:23 10.02.2020
3194 Clouds -7 1020 79 16093 1.5 170 02:51 10.02.2020
3195 Clouds -5 1020 79 16093 2.1 150 01:34 10.02.2020
3196 Clouds -4 1020 79 16093 2.1 150 00:46 10.02.2020
3197 Clouds -4 1020 79 16093 2.1 120 00:27 10.02.2020
3198 Snow -4 1021 74 11265 2.1 120 23:43 09.02.2020
3199 Snow -4 1021 74 11265 2.1 120 23:24 09.02.2020
3200 Snow -3 1021 74 11265 2.94 22 22:54 09.02.2020
3201 Snow -3 1021 74 11265 2.94 22 22:54 09.02.2020
3202 Snow -3 1021 74 11265 2.94 22 22:36 09.02.2020
3203 Snow -3 1021 74 11265 2.94 22 22:18 09.02.2020
3204 Snow -3 1018 79 3219 3.6 90 21:40 09.02.2020
3205 Snow -3 1022 86 4828 3.1 60 21:22 09.02.2020
3206 Snow -3 1022 86 4828 3.1 60 21:22 09.02.2020
3207 Snow -3 1022 79 3219 4.6 10 20:46 09.02.2020
3208 Rain -3 1022 79 2012 4.6 20 20:22 09.02.2020
3209 Snow -3 1023 79 3219 4.1 10 19:57 09.02.2020
3210 Snow -3 1019 79 3219 4.6 350 19:38 09.02.2020
3211 Snow -3 1019 79 3219 4.6 350 19:38 09.02.2020
3212 Snow -3 1023 86 1609 5.1 350 19:38 09.02.2020
3213 Snow -3 1023 86 1609 5.1 350 19:18 09.02.2020
3214 Snow -4 1021 86 805 3.1 340 18:42 09.02.2020
3215 Snow -4 1023 86 1207 2.6 340 18:23 09.02.2020
3216 Snow -4 1022 86 1609 2.6 10 17:59 09.02.2020
3217 Snow -4 1022 92 1609 4.1 20 17:39 09.02.2020
3218 Snow -4 1022 92 1609 4.1 20 17:39 09.02.2020
3219 Snow -4 1022 92 1609 4.1 20 17:21 09.02.2020
3220 Snow -4 1019 100 1207 1.5 350 16:41 09.02.2020
3221 Snow -4 1021 92 805 1.5 340 16:22 09.02.2020
3222 Snow -4 1020 92 805 1.5 30 15:58 09.02.2020
3223 Snow -4 1018 100 1207 2.6 60 15:40 09.02.2020
3224 Snow -4 1020 92 1207 2.1 30 15:21 09.02.2020
3225 Snow -4 1019 86 1609 3.6 50 14:56 09.02.2020
3226 Snow -4 1019 74 16093 1.94 97 14:37 09.02.2020
3227 Snow -3 1019 74 16093 0.85 19 14:19 09.02.2020
3228 Clouds -3 1017 74 16093 3.1 60 13:42 09.02.2020
3229 Clouds -3 1017 74 16093 3.1 60 13:24 09.02.2020
3230 Snow -3 1016 96 16093 1.5 100 12:55 09.02.2020
3231 Snow -3 1016 96 16093 1.4 53 12:37 09.02.2020
3232 Snow -3 1016 96 16093 1.4 53 12:18 09.02.2020
3233 Snow -3 1015 96 16093 1.4 53 11:40 09.02.2020
3234 Snow -2 1015 85 16093 3.59 172 11:19 09.02.2020
3235 Snow -2 1012 79 2816 1.5 130 10:54 09.02.2020
3236 Clouds -2 1014 86 16093 4.6 80 10:36 09.02.2020
3237 Clouds -2 1014 86 16093 4.6 80 10:18 09.02.2020
3238 Clouds -2 1012 85 16093 3.1 120 09:39 09.02.2020
3239 Clouds -2 1012 85 16093 3.1 120 09:20 09.02.2020
3240 Clouds -2 1012 85 11265 1.5 170 08:42 09.02.2020
3241 Snow -2 1012 86 3219 2.39 150 08:23 09.02.2020
3242 Clouds -1 1011 86 16093 1.41 341 07:54 09.02.2020
3243 Clouds -1 1010 86 16093 3.1 200 07:30 09.02.2020
3244 Clouds -1 1009 69 16093 1.41 341 06:38 09.02.2020
3245 Clouds 0 1008 74 16093 3.1 30 05:56 09.02.2020
3246 Clouds 0 1008 74 16093 3.1 30 05:56 09.02.2020
3247 Clear 1 1008 69 16093 5.7 40 05:34 09.02.2020
3248 Clouds 1 1007 65 16093 6.7 30 04:51 09.02.2020
3249 Clear 2 1005 33 16093 3.1 310 02:58 09.02.2020
3250 Clear 2 1006 50 16093 6.2 240 02:38 09.02.2020
3251 Rain 4 1005 69 16093 5.46 238 01:44 09.02.2020
3252 Rain 5 1005 64 16093 1.5 200 01:19 09.02.2020
3253 Clear 5 1004 52 16093 2.1 40 00:32 09.02.2020
3254 Clear 5 1004 56 16093 1.5 10 23:55 08.02.2020
3255 Clear 5 1005 60 16093 1.5 30 23:37 08.02.2020
3256 Rain 7 1005 60 16093 1.5 30 23:18 08.02.2020
3257 Rain 7 1005 55 16093 1.4 226 22:40 08.02.2020
3258 Rain 7 1005 55 16093 1.4 226 22:21 08.02.2020
3259 Rain 7 1006 59 16093 2.1 40 21:49 08.02.2020
3260 Rain 7 1006 59 16093 1.4 226 21:30 08.02.2020
3261 Rain 6 1007 59 16093 1.4 226 20:59 08.02.2020
3262 Rain 6 1007 59 16093 1.4 226 20:40 08.02.2020
3263 Rain 6 1007 59 16093 1.4 226 20:40 08.02.2020
3264 Rain 4 1008 59 16093 3.16 201 20:20 08.02.2020
3265 Rain 4 1008 59 16093 3.16 201 20:20 08.02.2020
3266 Rain 4 1009 100 16093 2.1 340 19:58 08.02.2020
3267 Rain 3 1010 100 16093 2.1 340 19:39 08.02.2020
3268 Rain 3 1010 100 16093 2.1 340 19:20 08.02.2020
3269 Rain 3 1011 100 16093 2.1 350 18:57 08.02.2020
3270 Rain 2 1011 68 16093 2.1 20 18:38 08.02.2020
3271 Rain 1 1011 68 16093 2.1 20 18:19 08.02.2020
3272 Snow -1 1010 73 16093 1.5 260 17:41 08.02.2020
3273 Snow -2 1012 92 16093 4.22 215 17:19 08.02.2020
3274 Clear -4 1011 92 16093 2.1 230 16:42 08.02.2020
3275 Clouds -5 1011 79 16093 3.6 280 16:23 08.02.2020
3276 Clear -6 1011 92 16093 4.22 215 15:59 08.02.2020
3277 Clear -6 1011 92 16093 4.22 215 15:39 08.02.2020
3278 Clear -7 1013 85 16093 4.22 215 15:18 08.02.2020
3279 Clear -7 1013 92 16093 4.22 215 14:45 08.02.2020
3280 Snow -7 1013 92 16093 4.67 215 14:24 08.02.2020
3281 Snow -7 1013 92 16093 4.67 215 13:59 08.02.2020
3282 Snow -7 1014 92 16093 4.07 213 13:40 08.02.2020
3283 Snow -7 1014 92 16093 4.07 213 13:22 08.02.2020
3284 Snow -7 1011 92 16093 1.5 300 12:41 08.02.2020
3285 Clear -7 1014 92 16093 1.5 220 12:23 08.02.2020
3286 Clear -7 1014 92 16093 4.07 213 11:56 08.02.2020
3287 Clear -7 1012 85 16093 4.07 213 11:38 08.02.2020
3288 Snow -7 1014 92 16093 3.1 170 11:20 08.02.2020
3289 Clear -6 1013 85 16093 2.1 160 10:42 08.02.2020
3290 Clear -6 1015 85 16093 3.1 200 10:22 08.02.2020
3291 Clear -6 1015 85 16093 2.5 222 09:53 08.02.2020
3292 Clear -6 1015 85 16093 1.5 190 09:28 08.02.2020
3293 Clear -6 1015 85 16093 3.1 190 08:55 08.02.2020
3294 Clear -6 1016 92 16093 2.6 190 08:37 08.02.2020
3295 Clear -6 1016 92 16093 2.6 190 08:19 08.02.2020
3296 Clear -5 1016 92 16093 2.1 200 07:45 08.02.2020
3297 Clear -5 1017 86 16093 1.5 210 07:20 08.02.2020
3298 Clouds -5 1017 92 16093 2.1 200 06:29 08.02.2020
3299 Clouds -5 1017 92 16093 2.1 180 05:48 08.02.2020
3300 Clouds -4 1017 92 16093 2.1 170 05:30 08.02.2020
3301 Snow -4 1017 92 16093 2.1 170 05:30 08.02.2020
3302 Snow -4 1017 92 16093 2.6 190 04:49 08.02.2020
3303 Snow -4 1017 92 11265 2.1 190 03:51 08.02.2020
3304 Snow -4 1014 85 1609 4.6 160 02:51 08.02.2020
3305 Snow -3 1013 100 4828 4.1 160 01:53 08.02.2020
3306 Snow -3 1015 92 2414 2.6 200 01:24 08.02.2020
3307 Snow -3 1014 80 11265 2.6 200 00:39 08.02.2020
3308 Snow -3 1014 80 11265 2.6 200 00:21 08.02.2020
3309 Snow -3 1014 80 6437 2.6 190 23:45 07.02.2020
3310 Clouds -3 1014 80 16093 3.1 190 23:21 07.02.2020
3311 Clouds -3 1013 74 16093 4.1 190 22:58 07.02.2020
3312 Snow -2 1011 79 4023 3.6 160 22:39 07.02.2020
3313 Snow -2 1013 74 16093 3.1 200 22:19 07.02.2020
3314 Snow -2 1010 85 1609 5.1 170 21:43 07.02.2020
3315 Snow -2 1013 80 16093 3.6 190 21:22 07.02.2020
3316 Snow -3 1014 74 4023 5.1 200 20:55 07.02.2020
3317 Snow -3 1011 79 805 4.6 170 20:37 07.02.2020
3318 Snow -3 1014 74 6437 6.2 200 20:18 07.02.2020
3319 Snow -3 1011 79 805 3.6 150 19:40 07.02.2020
3320 Snow -3 1014 86 2414 4.1 200 19:21 07.02.2020
3321 Snow -3 1014 86 1609 2.6 200 18:56 07.02.2020
3322 Snow -4 1011 85 805 5.7 170 18:38 07.02.2020
3323 Snow -4 1014 92 1609 4.1 200 18:19 07.02.2020
3324 Snow -4 1011 85 402 4.1 160 17:43 07.02.2020
3325 Snow -5 1013 92 1609 3.1 200 17:22 07.02.2020
3326 Snow -5 1011 85 805 4.1 190 16:55 07.02.2020
3327 Snow -5 1010 85 402 3.1 180 16:37 07.02.2020
3328 Snow -5 1012 86 1609 3.1 210 16:19 07.02.2020
3329 Snow -5 1012 86 11265 3.6 190 15:44 07.02.2020
3330 Snow -5 1012 86 11265 3.6 190 15:21 07.02.2020
3331 Clouds -5 1011 79 16093 3.1 180 14:43 07.02.2020
3332 Snow -5 1011 79 16093 3.1 190 14:24 07.02.2020
3333 Snow -5 1009 85 3219 4.1 200 13:58 07.02.2020
3334 Clouds -5 1011 85 16093 3.1 190 13:39 07.02.2020
3335 Clouds -5 1011 85 16093 3.1 190 13:39 07.02.2020
3336 Clouds -5 1011 85 16093 3.1 190 13:21 07.02.2020
3337 Clouds -5 1011 85 16093 3.1 200 12:55 07.02.2020
3338 Clouds -5 1011 85 16093 3.1 200 12:55 07.02.2020
3339 Clouds -5 1011 92 16093 3.6 200 12:36 07.02.2020
3340 Clouds -5 1011 92 16093 3.6 200 12:18 07.02.2020
3341 Snow -5 1011 86 16093 3.1 200 11:41 07.02.2020
3342 Snow -5 1011 86 16093 3.6 210 11:19 07.02.2020
3343 Snow -5 1011 86 16093 3.6 200 10:41 07.02.2020
3344 Snow -5 1011 86 16093 1.95 238 10:22 07.02.2020
3345 Snow -5 1008 85 805 3.6 270 09:49 07.02.2020
3346 Snow -5 1010 86 16093 3.1 210 09:27 07.02.2020
3347 Snow -5 1011 86 8047 2.6 250 08:58 07.02.2020
3348 Snow -5 1011 92 4828 3.1 240 08:40 07.02.2020
3349 Snow -5 1011 92 4828 3.1 240 08:20 07.02.2020
3350 Snow -5 1010 92 6437 1.5 290 07:43 07.02.2020
3351 Snow -5 1010 92 3219 1.5 330 07:24 07.02.2020
3352 Snow -5 1010 92 2012 3.1 20 06:44 07.02.2020
3353 Snow -4 1009 92 2012 3.1 30 06:23 07.02.2020
3354 Snow -4 1008 92 1609 5.7 30 05:43 07.02.2020
3355 Snow -2 1007 97 2414 4.1 50 04:24 07.02.2020
3356 Clouds -1 1006 80 16093 5.7 10 02:32 07.02.2020
3357 Clouds 0 1005 55 16093 3.1 60 01:35 07.02.2020
3358 Rain 0 1003 55 16093 2.6 120 00:39 07.02.2020
3359 Clouds 2 1003 47 16093 3.6 100 23:57 06.02.2020
3360 Rain 2 1001 40 16093 0.37 190 23:37 06.02.2020
3361 Rain 3 1003 51 16093 3.1 100 23:18 06.02.2020
3362 Rain 3 1002 47 16093 2.6 80 22:43 06.02.2020
3363 Rain 3 1002 51 16093 1.5 80 22:24 06.02.2020
3364 Rain 3 1000 34 16093 2.1 70 21:37 06.02.2020
3365 Rain 3 1002 44 16093 2.1 90 21:19 06.02.2020
3366 Rain 3 1003 58 16093 1.11 103 20:57 06.02.2020
3367 Rain 2 1003 58 16093 1.11 103 20:57 06.02.2020
3368 Rain 2 1001 43 16093 1.11 103 20:38 06.02.2020
3369 Rain 2 1003 66 16093 2.38 171 20:18 06.02.2020
3370 Rain 2 1004 63 16093 1.55 200 19:58 06.02.2020
3371 Rain 2 1002 46 16093 1.55 200 19:39 06.02.2020
3372 Rain 1 1004 58 16093 1.55 200 19:21 06.02.2020
3373 Rain 1 1004 63 16093 1.55 200 18:58 06.02.2020
3374 Rain 0 1003 58 16093 1.55 200 18:39 06.02.2020
3375 Clouds -1 1004 68 16093 1.5 360 18:20 06.02.2020
3376 Clouds -1 1004 67 16093 1.55 200 17:42 06.02.2020
3377 Clouds -4 1004 67 16093 5.13 209 17:21 06.02.2020
3378 Clouds -4 1004 72 16093 5.13 209 16:57 06.02.2020
3379 Clouds -5 1002 49 16093 1.5 80 16:39 06.02.2020
3380 Clouds -5 1004 78 16093 5.13 209 16:20 06.02.2020
3381 Clouds -5 1003 62 16093 5.13 209 15:42 06.02.2020
3382 Clouds -6 1003 62 16093 5.13 209 15:21 06.02.2020
3383 Clouds -6 1003 58 16093 5.13 209 14:47 06.02.2020
3384 Clear -6 1003 62 16093 2.1 200 14:26 06.02.2020
3385 Clear -8 1003 62 16093 5.14 210 13:54 06.02.2020
3386 Clear -8 1003 61 16093 2.6 200 13:36 06.02.2020
3387 Clear -9 1003 61 16093 2.6 200 13:18 06.02.2020
3388 Clouds -8 1004 61 16093 3.6 210 12:43 06.02.2020
3389 Clear -8 1004 66 16093 2.1 190 12:18 06.02.2020
3390 Clear -8 1004 66 16093 2.6 200 11:56 06.02.2020
3391 Clear -8 1004 66 16093 2.6 200 11:56 06.02.2020
3392 Clear -8 1002 45 16093 9.8 280 11:37 06.02.2020
3393 Clear -9 1005 78 16093 2.1 210 11:18 06.02.2020
3394 Clear -9 1005 72 16093 4.84 220 10:41 06.02.2020
3395 Clear -8 1005 72 16093 4.84 220 10:22 06.02.2020
3396 Clear -8 1006 72 16093 4.84 220 09:59 06.02.2020
3397 Clear -8 1006 72 16093 4.84 220 09:41 06.02.2020
3398 Clear -8 1006 72 16093 4.84 220 09:20 06.02.2020
3399 Clouds -8 1006 78 16093 4.84 220 08:45 06.02.2020
3400 Clouds -7 1007 78 16093 4.07 222 08:24 06.02.2020
3401 Clouds -7 1008 67 16093 4.07 222 07:56 06.02.2020
3402 Clouds -7 1008 72 16093 1.5 250 07:32 06.02.2020
3403 Clouds -8 1009 67 16093 2.6 10 06:53 06.02.2020
3404 Clouds -8 1009 62 16093 3.1 360 06:19 06.02.2020
3405 Clouds -8 1009 53 16093 4.07 222 05:33 06.02.2020
3406 Clouds -9 1009 66 16093 3.15 223 03:49 06.02.2020
3407 Clouds -9 1009 72 16093 2.6 190 03:18 06.02.2020
3408 Clear -7 1010 67 16093 0.86 261 01:56 06.02.2020
3409 Clouds -6 1010 62 16093 0.86 261 01:24 06.02.2020
3410 Snow -4 1010 57 16093 1.5 30 00:29 06.02.2020
3411 Snow -4 1009 62 16093 2.1 30 23:57 05.02.2020
3412 Snow -4 1007 49 16093 2.1 50 23:39 05.02.2020
3413 Snow -4 1007 49 16093 2.1 50 23:39 05.02.2020
3414 Snow -4 1010 62 16093 1.5 60 23:20 05.02.2020
3415 Snow -4 1008 33 16093 2.16 27 22:41 05.02.2020
3416 Clear -4 1010 53 16093 1.5 40 22:23 05.02.2020
3417 Snow -4 1011 53 16093 2.16 27 21:57 05.02.2020
3418 Snow -4 1011 53 16093 2.16 27 21:39 05.02.2020
3419 Snow -4 1011 53 16093 2.16 27 21:20 05.02.2020
3420 Snow -5 1009 57 16093 2.16 27 20:39 05.02.2020
3421 Snow -6 1012 72 16093 1.29 155 20:21 05.02.2020
3422 Snow -6 1011 62 16093 1.29 155 19:59 05.02.2020
3423 Snow -7 1011 62 16093 1.29 155 19:41 05.02.2020
3424 Clouds -8 1010 48 16093 1.29 155 19:19 05.02.2020
3425 Clear -8 1011 78 16093 1.29 155 18:57 05.02.2020
3426 Clouds -9 1001 52 0 4.6 360 18:39 05.02.2020
3427 Clouds -10 1011 72 16093 1.29 155 18:19 05.02.2020
3428 Clouds -10 1011 72 16093 1.29 155 18:19 05.02.2020
3429 Fog -11 1011 84 11265 3.1 340 17:40 05.02.2020
3430 Fog -12 1011 84 11265 3.1 340 17:20 05.02.2020
3431 Clear -13 1012 84 16093 3.66 210 16:59 05.02.2020
3432 Clear -15 1014 84 11265 3.66 210 16:41 05.02.2020
3433 Clear -16 1014 76 16093 3.66 210 16:23 05.02.2020
3434 Clear -17 1011 91 16093 3.66 210 15:56 05.02.2020
3435 Fog -17 1011 91 0 3.1 350 15:38 05.02.2020
3436 Fog -17 1011 91 0 3.1 350 15:18 05.02.2020
3437 Clear -18 1011 84 16093 3.66 210 14:42 05.02.2020
3438 Clouds -18 1010 71 16093 4.1 190 14:22 05.02.2020
3439 Clear -18 1011 91 16093 3.46 218 13:44 05.02.2020
3440 Clear -18 1010 84 16093 3.46 218 13:24 05.02.2020
3441 Clear -18 1011 84 16093 3.3 216 12:59 05.02.2020
3442 Clear -18 1014 76 16093 3.3 216 12:39 05.02.2020
3443 Clear -18 1014 76 16093 3.3 216 12:21 05.02.2020
3444 Clear -18 1014 76 16093 3.3 216 11:41 05.02.2020
3445 Clear -18 1014 76 16093 3.3 216 11:23 05.02.2020
3446 Clear -17 1015 83 16093 3.33 214 10:59 05.02.2020
3447 Clear -17 1011 77 16093 2.1 250 10:39 05.02.2020
3448 Clear -17 1015 84 16093 3.33 214 10:19 05.02.2020
3449 Clear -17 1015 83 16093 3.33 214 09:43 05.02.2020
3450 Clear -17 1016 84 16093 3.33 214 09:22 05.02.2020
3451 Clouds -17 1017 84 16093 3.33 214 08:57 05.02.2020
3452 Clouds -17 1014 92 16093 3.33 214 08:39 05.02.2020
3453 Clouds -16 1017 84 16093 3.1 215 08:21 05.02.2020
3454 Clouds -16 1018 84 16093 3.1 215 07:43 05.02.2020
3455 Clouds -16 1018 84 16093 3.1 215 07:43 05.02.2020
3456 Clouds -16 1018 84 16093 3.1 215 07:19 05.02.2020
3457 Clouds -16 1019 84 16093 3.1 215 06:42 05.02.2020
3458 Clouds -16 1019 84 16093 3.1 215 06:21 05.02.2020
3459 Clouds -16 1019 84 16093 3.1 215 05:47 05.02.2020
3460 Clouds -14 1019 84 16093 1.91 224 05:18 05.02.2020
3461 Clear -14 1020 77 16093 1.91 224 04:27 05.02.2020
3462 Clouds -13 1020 84 16093 1.91 224 02:59 05.02.2020
3463 Clear -12 1020 92 16093 1.24 19 02:22 05.02.2020
3464 Clear -11 1020 78 16093 1.24 19 01:34 05.02.2020
3465 Clouds -10 1020 72 11265 1.5 30 00:25 05.02.2020
3466 Clouds -9 1016 66 11265 3.1 40 23:42 04.02.2020
3467 Clouds -9 1016 66 11265 3.1 40 23:42 04.02.2020
3468 Clouds -9 1020 67 16093 2.6 20 23:22 04.02.2020
3469 Snow -9 1019 67 16093 2.1 10 22:57 04.02.2020
3470 Snow -9 1017 72 8047 3.18 21 22:39 04.02.2020
3471 Snow -9 1020 67 11265 1.5 10 22:20 04.02.2020
3472 Snow -9 1016 66 2414 3.1 360 21:56 04.02.2020
3473 Snow -9 1020 72 11265 3.18 21 21:38 04.02.2020
3474 Snow -9 1020 72 11265 3.18 21 21:18 04.02.2020
3475 Snow -9 1020 72 11265 3.18 21 21:18 04.02.2020
3476 Snow -9 1020 72 16093 1.5 40 20:55 04.02.2020
3477 Snow -9 1017 78 3219 1.5 10 20:37 04.02.2020
3478 Snow -9 1020 72 4828 4 21 20:18 04.02.2020
3479 Haze -9 1021 78 4828 2.1 40 19:43 04.02.2020
3480 Haze -10 1021 78 4828 2.1 40 19:24 04.02.2020
3481 Haze -10 1021 78 3219 2.6 60 18:59 04.02.2020
3482 Snow -10 1017 72 3219 2.1 40 18:40 04.02.2020
3483 Snow -10 1019 78 2816 2.1 50 18:21 04.02.2020
3484 Rain -11 1017 78 11265 2.1 110 17:56 04.02.2020
3485 Rain -11 1021 85 6437 2.1 60 17:38 04.02.2020
3486 Rain -11 1021 85 6437 2.1 60 17:19 04.02.2020
3487 Snow -12 1020 85 2816 2.1 70 16:39 04.02.2020
3488 Snow -12 1020 85 2816 2.1 70 16:20 04.02.2020
3489 Rain -12 1016 85 3219 1.5 40 15:57 04.02.2020
3490 Rain -12 1019 85 1609 2.1 70 15:39 04.02.2020
3491 Rain -12 1019 85 1609 2.1 70 15:20 04.02.2020
3492 Rain -12 1019 92 2816 1.5 20 14:45 04.02.2020
3493 Rain -12 1018 92 2012 2.1 350 14:26 04.02.2020
3494 Snow -12 1014 92 3219 2.13 48 13:59 04.02.2020
3495 Snow -12 1014 92 3219 2.13 48 13:40 04.02.2020
3496 Rain -12 1018 92 1609 1.88 17 13:22 04.02.2020
3497 Snow -12 1017 85 2012 1.88 17 12:55 04.02.2020
3498 Snow -12 1016 85 4023 1.88 17 12:37 04.02.2020
3499 Rain -12 1017 92 4023 1.88 17 12:18 04.02.2020
3500 Rain -12 1016 85 2012 1.88 17 11:54 04.02.2020
3501 Rain -12 1013 92 11265 1.5 100 11:36 04.02.2020
3502 Snow -12 1013 92 11265 1.5 100 11:18 04.02.2020
3503 Snow -12 1016 92 4023 1.5 60 10:42 04.02.2020
3504 Snow -12 1016 85 2816 2.1 90 10:22 04.02.2020
3505 Rain -11 1016 85 2414 3.1 90 09:42 04.02.2020
3506 Rain -11 1016 85 2414 3.1 90 09:24 04.02.2020
3507 Snow -11 1015 92 2414 2.6 80 08:59 04.02.2020
3508 Snow -11 1015 92 2414 2.6 80 08:41 04.02.2020
3509 Snow -11 1015 92 6437 3.2 66 08:22 04.02.2020
3510 Snow -11 1015 92 2414 2.6 70 07:46 04.02.2020
3511 Snow -10 1015 92 4023 3.12 39 07:23 04.02.2020
3512 Rain -10 1015 85 1609 1.5 90 06:44 04.02.2020
3513 Rain -10 1015 85 4023 3.12 39 06:21 04.02.2020
3514 Rain -10 1014 85 4023 2.1 70 05:29 04.02.2020
3515 Rain -9 1009 85 402 3.1 40 03:53 04.02.2020
3516 Rain -9 1013 85 2816 3.1 60 03:34 04.02.2020
3517 Rain -9 1012 92 6437 2.1 40 02:56 04.02.2020
3518 Rain -9 1011 92 4828 2.1 50 02:32 04.02.2020
3519 Snow -9 1010 85 4023 2.1 60 01:53 04.02.2020
3520 Rain -8 1010 92 6437 1.5 60 01:35 04.02.2020
3521 Rain -8 1010 85 6437 2.1 40 00:45 04.02.2020
3522 Rain -7 1009 85 8047 3.1 40 00:21 04.02.2020
3523 Rain -7 1009 85 4828 2.6 70 23:40 03.02.2020
3524 Rain -7 1009 79 4023 3.6 70 23:22 03.02.2020
3525 Snow -7 1009 85 2012 3.1 60 22:39 03.02.2020
3526 Rain -7 1009 85 2012 3.1 60 22:20 03.02.2020
3527 Snow -7 1005 85 4023 5.7 80 21:56 03.02.2020
3528 Rain -7 1006 85 2816 2.1 30 21:37 03.02.2020
3529 Rain -7 1009 85 1207 3.1 80 21:18 03.02.2020
3530 Snow -7 1009 85 4023 3.1 70 20:42 03.02.2020
3531 Snow -7 1009 85 4023 3.1 70 20:19 03.02.2020
3532 Rain -7 1010 85 4828 3.1 50 19:57 03.02.2020
3533 Rain -7 1006 85 3219 6.2 90 19:39 03.02.2020
3534 Rain -6 1007 92 2012 7.2 70 19:19 03.02.2020
3535 Snow -6 1006 92 3219 3.1 80 18:54 03.02.2020
3536 Snow -6 1006 92 3219 3.1 80 18:54 03.02.2020
3537 Snow -6 1010 92 4828 6.2 70 18:36 03.02.2020
3538 Snow -6 1010 92 4828 6.2 70 18:18 03.02.2020
3539 Mist -6 1006 92 2816 2.6 60 17:40 03.02.2020
3540 Rain -5 1010 92 2816 3.1 70 17:20 03.02.2020
3541 Rain -5 1010 92 2816 3.1 80 16:58 03.02.2020
3542 Rain -5 1009 92 2414 4.1 60 16:38 03.02.2020
3543 Rain -5 1009 92 2414 4.1 60 16:20 03.02.2020
3544 Snow -5 1008 92 2816 3.1 60 15:54 03.02.2020
3545 Clouds -5 1008 92 4828 5.7 80 15:36 03.02.2020
3546 Clouds -5 1008 92 4828 5.7 80 15:18 03.02.2020
3547 Clouds -4 1008 92 4828 5.7 80 15:18 03.02.2020
3548 Clouds -4 1005 100 4828 3.6 50 14:41 03.02.2020
3549 Clouds -4 1007 92 4828 4.6 80 14:23 03.02.2020
3550 Clouds -3 1007 92 4023 6.2 60 13:56 03.02.2020
3551 Clouds -3 1007 92 6437 1.5 350 13:37 03.02.2020
3552 Clouds -3 1007 92 6437 1.5 350 13:19 03.02.2020
3553 Clouds -3 1007 92 4828 1.5 360 12:41 03.02.2020
3554 Clouds -3 1007 100 6437 2.6 10 12:23 03.02.2020
3555 Clouds -3 1005 100 16093 3.1 10 11:59 03.02.2020
3556 Clouds -3 1005 100 16093 3.1 10 11:38 03.02.2020
3557 Clouds -2 1007 86 6437 2.6 10 11:19 03.02.2020
3558 Clouds -2 1005 74 16093 4.6 20 10:54 03.02.2020
3559 Clouds -2 1008 74 16093 3.1 20 10:36 03.02.2020
3560 Clouds -2 1008 74 16093 3.1 20 10:18 03.02.2020
3561 Clouds -2 1008 74 16093 3.1 20 10:18 03.02.2020
3562 Clouds -2 1008 76 16093 4.1 20 09:38 03.02.2020
3563 Clouds -1 1005 79 16093 6.7 10 09:19 03.02.2020
3564 Clouds -1 1008 76 16093 4.1 20 08:40 03.02.2020
3565 Clouds -1 1008 57 16093 6.2 10 08:22 03.02.2020
3566 Clear 0 1005 57 16093 7.2 20 07:42 03.02.2020
3567 Clear 0 1007 57 16093 6.2 10 07:22 03.02.2020
3568 Clear 1 1006 59 16093 9.3 10 06:55 03.02.2020
3569 Clear 2 1005 55 16093 7.2 10 06:30 03.02.2020
3570 Clear 5 1004 48 16093 4.6 360 05:51 03.02.2020
3571 Clear 6 1003 41 16093 5.7 10 05:31 03.02.2020
3572 Clear 7 1001 31 16093 4.62 213 04:44 03.02.2020
3573 Clear 13 1002 9 16093 1.5 180 02:38 03.02.2020
3574 Clear 13 1002 9 16093 1.5 180 02:38 03.02.2020
3575 Clear 13 1002 9 16093 1.5 180 02:18 03.02.2020
3576 Clouds 19 1003 8 32767 7.2 200 00:48 03.02.2020
3577 Clear 21 1004 4 16093 4.6 190 00:25 03.02.2020
3578 Clear 22 1004 3 16093 4.1 220 23:40 02.02.2020
3579 Clear 21 1005 4 16093 2.1 320 23:40 02.02.2020
3580 Clear 22 1004 3 16093 4.1 220 23:40 02.02.2020
3581 Clear 21 1005 4 16093 2.1 320 23:22 02.02.2020
3582 Clear 21 1005 5 16093 2.1 280 22:58 02.02.2020
3583 Clouds 21 1005 6 16093 7.7 240 22:39 02.02.2020
3584 Clear 21 1006 5 16093 3.6 160 22:21 02.02.2020
3585 Clear 21 1006 5 16093 3.6 160 22:21 02.02.2020
3586 Clouds 21 1006 8 16093 7.2 150 21:57 02.02.2020
3587 Clouds 22 1006 8 16093 7.2 150 21:38 02.02.2020
3588 Clear 21 1008 5 16093 5.7 170 21:20 02.02.2020
3589 Clear 21 1008 5 16093 5.7 170 21:20 02.02.2020
3590 Clear 21 1009 5 16093 5.1 170 20:57 02.02.2020
3591 Clouds 21 1008 8 16093 6.2 170 20:38 02.02.2020
3592 Clear 18 1010 6 16093 5.1 180 20:20 02.02.2020
3593 Clear 18 1012 7 16093 4.1 170 19:56 02.02.2020
3594 Clear 18 1012 7 16093 5.1 190 19:38 02.02.2020
3595 Clear 17 1012 7 16093 5.1 190 19:19 02.02.2020
3596 Clear 17 1014 9 16093 4.1 180 18:39 02.02.2020
3597 Clear 16 1014 9 16093 4.1 180 18:21 02.02.2020
3598 Clear 15 1014 11 16093 2.6 200 17:58 02.02.2020
3599 Clear 14 1013 15 16093 6.27 209 17:38 02.02.2020
3600 Clear 12 1015 12 16093 3.1 140 17:19 02.02.2020
3601 Clear 11 1015 16 16093 4.1 180 16:59 02.02.2020
3602 Clear 9 1016 27 16093 6.69 213 16:40 02.02.2020
3603 Clear 7 1016 27 16093 6.69 213 16:19 02.02.2020
3604 Clear 6 1014 29 16093 1.5 70 15:59 02.02.2020
3605 Clear 5 1016 29 16093 6.69 213 15:40 02.02.2020
3606 Clear 5 1016 29 16093 6.69 213 15:20 02.02.2020
3607 Clear 5 1016 42 16093 6.69 213 14:58 02.02.2020
3608 Clear 6 1017 29 16093 1.5 190 14:40 02.02.2020
3609 Clear 6 1017 29 16093 1.5 190 14:18 02.02.2020
3610 Clear 6 1017 21 16093 1.5 230 13:55 02.02.2020
3611 Clear 6 1017 25 16093 3.1 210 13:37 02.02.2020
3612 Clear 6 1017 25 16093 3.1 210 13:18 02.02.2020
3613 Clear 6 1018 25 16093 2.1 170 12:44 02.02.2020
3614 Clear 6 1018 23 16093 2.6 190 12:22 02.02.2020
3615 Clear 6 1018 20 16093 2.6 200 11:58 02.02.2020
3616 Clear 6 1017 25 16093 6.52 215 11:39 02.02.2020
3617 Clear 6 1019 13 16093 2.1 160 11:18 02.02.2020
3618 Clear 6 1019 12 16093 3.1 140 10:56 02.02.2020
3619 Clear 6 1018 19 16093 6.18 213 10:36 02.02.2020
3620 Clear 7 1020 13 16093 3.1 200 10:18 02.02.2020
3621 Clear 7 1019 16 16093 2.1 190 09:41 02.02.2020
3622 Clear 7 1020 11 16093 2.1 230 09:21 02.02.2020
3623 Clear 7 1020 11 16093 2.1 230 09:21 02.02.2020
3624 Clear 7 1020 20 16093 6.23 214 08:57 02.02.2020
3625 Clear 7 1019 13 16093 2.6 200 08:39 02.02.2020
3626 Clear 7 1021 16 16093 2.1 210 08:20 02.02.2020
3627 Clear 7 1021 25 16093 3.6 210 07:44 02.02.2020
3628 Clear 7 1021 23 16093 5.94 215 07:26 02.02.2020
3629 Clear 7 1020 15 16093 1.5 330 06:39 02.02.2020
3630 Clear 7 1022 17 16093 5.94 215 06:21 02.02.2020
3631 Clear 7 1021 11 16093 4.6 260 05:36 02.02.2020
3632 Clear 8 1022 12 16093 3.6 250 04:34 02.02.2020
3633 Clear 9 1022 10 16093 2.1 200 03:24 02.02.2020
3634 Clouds 12 1021 15 16093 4.1 230 02:24 02.02.2020
3635 Clear 13 1021 10 16093 4.1 280 01:52 02.02.2020
3636 Clear 13 1021 11 16093 5.7 250 01:19 02.02.2020
3637 Clear 14 1020 15 16093 5.7 250 00:39 02.02.2020
3638 Clear 15 1021 9 16093 4.6 250 00:18 02.02.2020
3639 Clear 16 1021 9 16093 6.2 260 23:43 01.02.2020
3640 Clouds 17 1020 10 16093 9.8 270 23:21 01.02.2020
3641 Clear 17 1021 10 16093 13.4 270 22:45 01.02.2020
3642 Clear 17 1021 10 16093 13.4 270 22:19 01.02.2020
3643 Clear 17 1021 10 16093 13.4 270 22:19 01.02.2020
3644 Clear 18 1018 15 16093 12.9 260 21:44 01.02.2020
3645 Clear 18 1021 10 16093 12.9 270 21:20 01.02.2020
3646 Clear 18 1021 8 16093 6.7 280 20:57 01.02.2020
3647 Clear 18 1019 14 16093 10.3 270 20:38 01.02.2020
3648 Clear 15 1021 8 16093 10.8 260 20:19 01.02.2020
3649 Clear 15 1022 11 16093 10.3 280 19:56 01.02.2020
3650 Clear 15 1022 10 16093 9.8 280 19:37 01.02.2020
3651 Clear 15 1022 10 16093 9.8 280 19:19 01.02.2020
3652 Clear 15 1022 10 16093 9.8 280 19:19 01.02.2020
3653 Clear 15 1021 11 16093 11.3 290 18:55 01.02.2020
3654 Clear 13 1019 14 16093 13.4 250 18:37 01.02.2020
3655 Clear 10 1021 12 16093 9.3 280 18:19 01.02.2020
3656 Clear 9 1021 14 16093 7.2 280 17:55 01.02.2020
3657 Clear 9 1019 28 16093 2.1 140 17:37 01.02.2020
3658 Clear 7 1021 16 16093 9.3 270 17:18 01.02.2020
3659 Clear 5 1019 27 16093 9.8 240 16:41 01.02.2020
3660 Clouds 4 1020 51 16093 5.1 210 16:21 01.02.2020
3661 Clouds 4 1020 51 16093 5.1 210 16:21 01.02.2020
3662 Clear 3 1020 74 16093 2.1 120 15:47 01.02.2020
3663 Clear 3 1021 29 16093 7.7 280 15:29 01.02.2020
3664 Clear 2 1021 38 16093 2.6 260 14:59 01.02.2020
3665 Clear 3 1020 73 16093 5.58 216 14:40 01.02.2020
3666 Clear 1 1021 48 16093 5.23 216 14:20 01.02.2020
3667 Clear 1 1020 73 16093 5.23 216 13:45 01.02.2020
3668 Clear 1 1021 39 16093 4.1 240 13:22 01.02.2020
3669 Clear 1 1021 48 16093 5.55 217 12:48 01.02.2020
3670 Clear 1 1021 41 16093 1.5 220 12:30 01.02.2020
3671 Clear 1 1021 51 16093 2.1 190 11:58 01.02.2020
3672 Clear 0 1022 68 16093 2.6 200 11:38 01.02.2020
3673 Clear 0 1022 68 16093 2.6 200 11:19 01.02.2020
3674 Clear 0 1022 63 16093 1.5 120 10:57 01.02.2020
3675 Clear 0 1023 58 16093 4.83 216 10:38 01.02.2020
3676 Clear 0 1023 58 16093 4.83 216 10:20 01.02.2020
3677 Clear 0 1023 64 16093 2.1 10 09:57 01.02.2020
3678 Clear 0 1022 47 16093 4.83 216 09:38 01.02.2020
3679 Clear 0 1022 47 16093 4.83 216 09:19 01.02.2020
3680 Clear 0 1022 58 16093 2.1 300 08:41 01.02.2020
3681 Clear 0 1021 54 16093 3.66 216 07:48 01.02.2020
3682 Clear 0 1022 41 16093 2.1 200 07:26 01.02.2020
3683 Clear 0 1023 41 16093 2.1 220 06:54 01.02.2020
3684 Clouds 0 1022 59 16093 3.6 200 06:32 01.02.2020
3685 Clear 0 1023 44 16093 2.1 210 05:51 01.02.2020
3686 Clear 1 1023 43 16093 2.65 238 03:48 01.02.2020
3687 Clear 2 1022 40 16093 2.65 238 03:21 01.02.2020
3688 Clear 3 1020 26 16093 4.6 240 02:44 01.02.2020
3689 Clear 4 1022 27 16093 1.5 160 02:25 01.02.2020
3690 Clear 6 1022 22 16093 0.83 183 01:50 01.02.2020
3691 Clear 6 1022 19 16093 2.6 260 01:30 01.02.2020
3692 Clouds 8 1021 15 16093 5.7 260 00:29 01.02.2020
3693 Clouds 9 1019 15 16093 0.78 103 23:43 31.01.2020
3694 Clouds 10 1019 17 16093 4.6 10 23:20 31.01.2020
3695 Clear 10 1020 11 16093 3.5 358 22:59 31.01.2020
3696 Clear 10 1020 12 16093 3.5 358 22:40 31.01.2020
3697 Clear 10 1020 12 16093 3.5 358 22:21 31.01.2020
3698 Clear 10 1020 10 16093 4.1 50 21:56 31.01.2020
3699 Clear 11 1020 10 16093 3.1 330 21:37 31.01.2020
3700 Clear 11 1020 10 16093 3.1 330 21:19 31.01.2020
3701 Clear 10 1019 9 16093 1.5 290 20:56 31.01.2020
3702 Clear 10 1018 14 16093 6.2 280 20:37 31.01.2020
3703 Clear 8 1018 13 16093 6.7 300 20:18 31.01.2020
3704 Rain 8 1020 10 16093 4.1 300 19:55 31.01.2020
3705 Rain 8 1018 13 16093 5.7 300 19:37 31.01.2020
3706 Rain 7 1020 12 16093 3.6 280 19:18 31.01.2020
3707 Rain 5 1018 23 16093 2.1 90 18:40 31.01.2020
3708 Rain 5 1020 18 16093 4.6 290 18:22 31.01.2020
3709 Rain 4 1020 22 16093 5.1 260 17:47 31.01.2020
3710 Rain 1 1020 22 16093 4.1 260 17:28 31.01.2020
3711 Rain 0 1020 38 16093 5.4 217 16:59 31.01.2020
3712 Rain -1 1018 55 16093 1.5 300 16:39 31.01.2020
3713 Clear -3 1020 47 16093 1.5 200 16:19 31.01.2020
3714 Clear -4 1020 58 16093 3.1 210 15:58 31.01.2020
3715 Clear -4 1018 62 11265 5.4 217 15:40 31.01.2020
3716 Clear -4 1020 53 16093 5.4 217 15:20 31.01.2020
3717 Clear -5 1020 67 16093 3.1 210 14:45 31.01.2020
3718 Clear -6 1020 67 16093 3.1 210 14:25 31.01.2020
3719 Clear -7 1020 67 16093 5.16 219 13:57 31.01.2020
3720 Clear -7 1020 72 16093 1.5 220 13:38 31.01.2020
3721 Clear -7 1020 72 16093 1.5 220 13:20 31.01.2020
3722 Clear -7 1021 78 16093 2.1 210 12:45 31.01.2020
3723 Clear -7 1021 78 16093 2.1 210 12:24 31.01.2020
3724 Clear -8 1022 73 16093 2.6 210 11:55 31.01.2020
3725 Clear -7 1022 92 16093 1.5 220 11:37 31.01.2020
3726 Clear -7 1022 92 16093 1.5 220 11:19 31.01.2020
3727 Clear -7 1023 85 16093 2.6 230 10:44 31.01.2020
3728 Clear -7 1023 85 16093 2.6 230 10:23 31.01.2020
3729 Clear -7 1023 79 16093 2.1 220 09:59 31.01.2020
3730 Clear -7 1023 79 16093 2.1 220 09:41 31.01.2020
3731 Clear -7 1023 79 16093 2.1 210 09:19 31.01.2020
3732 Clear -6 1024 73 16093 1.5 190 08:54 31.01.2020
3733 Clear -6 1024 73 16093 1.5 190 08:28 31.01.2020
3734 Clear -5 1024 73 16093 2.6 210 07:58 31.01.2020
3735 Clear -5 1022 68 16093 1.12 294 07:39 31.01.2020
3736 Clear -5 1025 67 16093 1.12 294 07:18 31.01.2020
3737 Clear -4 1024 54 16093 1.12 294 06:27 31.01.2020
3738 Clear -4 1024 54 16093 1.12 294 06:27 31.01.2020
3739 Clouds -3 1024 54 16093 3.6 60 05:50 31.01.2020
3740 Rain -2 1024 82 16093 4.1 40 04:57 31.01.2020
3741 Rain -1 1023 82 16093 2.1 320 03:29 31.01.2020
3742 Rain 0 1020 92 805 7.2 20 01:40 31.01.2020
3743 Snow 1 1019 79 805 10.3 10 00:47 31.01.2020
3744 Clouds 2 1020 48 16093 3.6 10 00:28 31.01.2020
3745 Clouds 2 1019 48 16093 1.5 350 23:57 30.01.2020
3746 Clouds 3 1019 51 16093 3.1 20 23:26 30.01.2020
3747 Clear 3 1018 55 16093 2.6 80 22:58 30.01.2020
3748 Clear 3 1018 55 16093 4.1 50 22:37 30.01.2020
3749 Clear 3 1018 55 16093 4.1 50 22:18 30.01.2020
3750 Clouds 3 1017 69 16093 2.1 70 21:57 30.01.2020
3751 Rain 3 1018 32 16093 2.1 20 21:39 30.01.2020
3752 Rain 4 1018 32 16093 2.1 20 21:18 30.01.2020
3753 Rain 4 1018 32 16093 2.1 20 21:18 30.01.2020
3754 Rain 4 1018 32 16093 2.1 20 21:18 30.01.2020
3755 Rain 3 1016 47 16093 4.1 360 20:42 30.01.2020
3756 Rain 3 1015 51 16093 3.1 360 20:22 30.01.2020
3757 Rain 2 1015 64 16093 2.1 360 19:58 30.01.2020
3758 Rain 2 1013 54 0 3.1 20 19:40 30.01.2020
3759 Rain 2 1014 35 16093 2.1 310 19:19 30.01.2020
3760 Rain 1 1015 32 8047 1.06 272 18:42 30.01.2020
3761 Rain 1 1014 55 16093 2.1 190 18:23 30.01.2020
3762 Mist 0 1014 100 1609 1.06 272 17:58 30.01.2020
3763 Mist -1 1014 100 1609 1.06 272 17:39 30.01.2020
3764 Clouds -2 1013 68 16093 2.6 180 17:19 30.01.2020
3765 Fog -3 1014 100 0 2.1 10 16:58 30.01.2020
3766 Fog -3 1014 100 0 2.1 10 16:39 30.01.2020
3767 Clouds -4 1013 73 16093 4.1 190 16:20 30.01.2020
3768 Fog -5 1013 100 0 4 222 15:44 30.01.2020
3769 Rain -6 1013 79 16093 4.1 190 15:20 30.01.2020
3770 Rain -6 1012 85 16093 1.5 10 14:50 30.01.2020
3771 Clouds -6 1013 92 16093 4.6 180 14:27 30.01.2020
3772 Clear -6 1012 79 16093 3.77 218 13:59 30.01.2020
3773 Clear -6 1012 79 16093 3.77 218 13:38 30.01.2020
3774 Clouds -6 1013 92 16093 3.6 190 13:20 30.01.2020
3775 Clear -5 1013 74 16093 3.61 218 12:43 30.01.2020
3776 Fog -5 1015 92 0 3.61 218 12:25 30.01.2020
3777 Fog -5 1016 100 0 3.61 218 11:59 30.01.2020
3778 Clear -5 1014 92 11265 1.5 230 11:40 30.01.2020
3779 Fog -4 1016 92 0 2.62 215 11:21 30.01.2020
3780 Mist -4 1015 92 8047 1.5 210 10:44 30.01.2020
3781 Mist -4 1017 92 2816 2.62 215 10:26 30.01.2020
3782 Mist -3 1017 100 6437 2.62 215 09:58 30.01.2020
3783 Mist -3 1017 100 6437 2.62 215 09:58 30.01.2020
3784 Mist -3 1017 100 6437 2.62 215 09:39 30.01.2020
3785 Mist -3 1017 100 6437 2.62 215 09:19 30.01.2020
3786 Mist -2 1018 83 4828 2.62 215 08:42 30.01.2020
3787 Mist -2 1018 83 4828 2.62 215 08:42 30.01.2020
3788 Mist -2 1018 81 8047 2.53 214 08:22 30.01.2020
3789 Mist -2 1019 97 4828 1.79 314 07:53 30.01.2020
3790 Mist -2 1019 97 8047 1.79 314 07:35 30.01.2020
3791 Mist -1 1019 97 8047 1.79 314 06:49 30.01.2020
3792 Mist -1 1019 97 8047 1.79 314 06:31 30.01.2020
3793 Clouds -1 1020 97 11265 1.79 314 05:47 30.01.2020
3794 Snow -1 1018 92 2414 1.79 314 05:27 30.01.2020
3795 Rain 0 1020 98 16093 2.52 356 04:23 30.01.2020
3796 Clouds 0 1020 98 16093 2.52 356 03:46 30.01.2020
3797 Snow 1 1020 98 4828 1.5 150 02:52 30.01.2020
3798 Clouds 4 1018 45 16093 2.6 90 00:54 30.01.2020
3799 Clouds 4 1018 45 16093 2.6 100 00:23 30.01.2020
3800 Clouds 4 1018 42 16093 4.1 110 23:49 29.01.2020
3801 Clouds 5 1016 60 16093 4.1 120 23:22 29.01.2020
3802 Clouds 5 1018 39 16093 3.1 110 22:59 29.01.2020
3803 Clouds 5 1016 41 16093 2.6 110 22:39 29.01.2020
3804 Clouds 5 1018 36 16093 2.6 120 22:19 29.01.2020
3805 Clear 5 1018 39 16093 1.5 140 21:58 29.01.2020
3806 Clear 5 1018 36 16093 2.89 82 21:39 29.01.2020
3807 Clear 5 1018 36 16093 2.89 82 21:39 29.01.2020
3808 Clear 5 1018 36 16093 2.89 82 21:19 29.01.2020
3809 Clear 5 1019 36 16093 4.1 140 20:58 29.01.2020
3810 Clear 4 1016 36 16093 2.1 100 20:39 29.01.2020
3811 Clear 4 1019 38 16093 2.1 190 20:21 29.01.2020
3812 Clear 4 1020 44 16093 3.1 170 19:56 29.01.2020
3813 Clear 3 1020 41 16093 2.1 180 19:37 29.01.2020
3814 Clear 3 1020 41 16093 2.1 180 19:19 29.01.2020
3815 Clear 2 1020 35 16093 2.1 160 18:46 29.01.2020
3816 Clear 2 1020 32 16093 2.6 170 18:19 29.01.2020
3817 Clear 2 1020 40 16093 2.6 180 17:58 29.01.2020
3818 Clear 2 1020 40 16093 2.6 180 17:58 29.01.2020
3819 Clouds 1 1019 80 14484 1.71 115 17:39 29.01.2020
3820 Clear 1 1020 43 16093 2.1 190 17:21 29.01.2020
3821 Clear 1 1020 43 16093 2.1 190 17:21 29.01.2020
3822 Snow 0 1019 74 3219 1.5 40 16:41 29.01.2020
3823 Clouds 0 1020 51 16093 1.96 199 16:23 29.01.2020
3824 Clouds 0 1020 68 16093 1.96 199 15:56 29.01.2020
3825 Clouds 0 1020 68 16093 1.96 199 15:56 29.01.2020
3826 Clouds -1 1018 50 16093 1.96 199 15:37 29.01.2020
3827 Clouds -1 1020 68 16093 1.96 199 15:18 29.01.2020
3828 Clear -1 1019 68 16093 1.96 199 14:42 29.01.2020
3829 Clear -1 1018 68 16093 0.75 247 14:20 29.01.2020
3830 Clear -1 1018 68 16093 0.75 247 13:54 29.01.2020
3831 Clouds -1 1016 58 16093 2.1 220 13:36 29.01.2020
3832 Clear -1 1018 63 16093 0.48 237 13:18 29.01.2020
3833 Clear -1 1018 63 16093 0.48 237 12:54 29.01.2020
3834 Clouds -1 1016 74 16093 3.1 250 12:36 29.01.2020
3835 Clear -1 1018 68 16093 2.1 270 12:18 29.01.2020
3836 Clouds -2 1016 59 16093 4.1 350 11:42 29.01.2020
3837 Clouds -2 1018 68 16093 1.91 210 11:20 29.01.2020
3838 Clear -2 1018 68 16093 1.91 210 10:46 29.01.2020
3839 Clouds -2 1016 63 16093 4.6 190 10:23 29.01.2020
3840 Clear -3 1018 73 16093 1.91 210 09:58 29.01.2020
3841 Clear -3 1018 73 16093 1.91 210 09:39 29.01.2020
3842 Clear -3 1018 73 16093 1.91 210 09:19 29.01.2020
3843 Clear -2 1016 74 16093 4.6 190 08:44 29.01.2020
3844 Clear -2 1018 63 16093 1.4 219 08:24 29.01.2020
3845 Clear -2 1018 63 16093 1.4 219 08:24 29.01.2020
3846 Clear -2 1019 68 16093 2.1 340 07:45 29.01.2020
3847 Clear -2 1018 62 16093 1.78 217 07:26 29.01.2020
3848 Clear -2 1018 62 16093 1.78 217 06:56 29.01.2020
3849 Clear -2 1018 62 16093 1.78 217 06:56 29.01.2020
3850 Clear -2 1016 40 16093 1.78 217 06:37 29.01.2020
3851 Clear -2 1018 62 16093 1.78 217 06:19 29.01.2020
3852 Clear -2 1018 50 16093 2.1 200 05:50 29.01.2020
3853 Clear -2 1018 53 16093 1.5 150 05:31 29.01.2020
3854 Clear -2 1017 73 16093 4.1 190 04:38 29.01.2020
3855 Clear -1 1018 50 16093 1.64 200 03:59 29.01.2020
3856 Clouds 0 1016 74 16093 4.6 170 02:34 29.01.2020
3857 Clear 4 1017 30 16093 5.7 120 00:59 29.01.2020
3858 Clear 4 1016 31 16093 3.1 110 00:36 29.01.2020
3859 Clouds 5 1016 48 16093 4.1 120 00:18 29.01.2020
3860 Clouds 6 1016 38 16093 4.1 120 23:39 28.01.2020
3861 Clouds 7 1016 38 16093 4.1 120 23:19 28.01.2020
3862 Clear 7 1017 18 16093 3.6 110 22:46 28.01.2020
3863 Clear 7 1017 18 16093 3.1 80 22:27 28.01.2020
3864 Clear 7 1017 18 16093 1.7 71 21:55 28.01.2020
3865 Clear 7 1018 18 16093 3.1 150 21:36 28.01.2020
3866 Clear 6 1018 18 16093 3.1 150 21:18 28.01.2020
3867 Clear 6 1019 20 16093 3.1 120 20:45 28.01.2020
3868 Clear 5 1019 20 16093 3.1 120 20:25 28.01.2020
3869 Clear 4 1020 24 16093 2.6 140 19:55 28.01.2020
3870 Clear 4 1019 26 16093 3.6 140 19:37 28.01.2020
3871 Clear 4 1020 26 16093 3.1 140 19:19 28.01.2020
3872 Clear 4 1020 26 16093 3.1 140 19:19 28.01.2020
3873 Clear 4 1020 26 16093 3.1 140 19:19 28.01.2020
3874 Clear 3 1021 30 16093 3.6 100 18:41 28.01.2020
3875 Clear 2 1021 32 16093 3.1 160 18:23 28.01.2020
3876 Clear 2 1021 32 16093 2.6 110 17:59 28.01.2020
3877 Clear 0 1022 47 16093 1.5 160 17:39 28.01.2020
3878 Clear -1 1022 47 16093 1.5 160 17:21 28.01.2020
3879 Clear -2 1022 68 16093 1.5 200 16:57 28.01.2020
3880 Clear -3 1022 79 16093 3.33 234 16:39 28.01.2020
3881 Clear -4 1022 79 16093 3.33 234 16:21 28.01.2020
3882 Clear -5 1021 79 16093 1.5 230 15:45 28.01.2020
3883 Clear -6 1021 85 16093 2.6 210 15:19 28.01.2020
3884 Clear -6 1021 78 16093 3.33 234 14:58 28.01.2020
3885 Clear -5 1019 53 16093 2.1 30 14:39 28.01.2020
3886 Clear -5 1021 79 16093 3.33 234 14:39 28.01.2020
3887 Clear -5 1021 79 16093 2.8 239 14:18 28.01.2020
3888 Clear -5 1021 73 16093 2.94 224 13:41 28.01.2020
3889 Clear -5 1021 73 16093 2.94 224 13:23 28.01.2020
3890 Clear -4 1019 59 16093 2.94 224 12:43 28.01.2020
3891 Clear -4 1021 73 16093 2.6 230 12:24 28.01.2020
3892 Clear -4 1021 67 16093 1.5 270 11:56 28.01.2020
3893 Clear -4 1019 79 16093 1.5 320 11:38 28.01.2020
3894 Clear -3 1021 67 16093 2.77 255 11:19 28.01.2020
3895 Clear -2 1021 68 16093 2.77 255 10:41 28.01.2020
3896 Clear -2 1021 67 16093 2.77 255 10:23 28.01.2020
3897 Clear -2 1021 63 16093 2.77 255 09:56 28.01.2020
3898 Clear -1 1019 37 16093 5.7 300 09:37 28.01.2020
3899 Clear -1 1020 62 16093 2.77 255 09:19 28.01.2020
3900 Clear -1 1020 62 16093 3.1 310 08:42 28.01.2020
3901 Clouds 0 1018 57 16093 3.1 310 08:21 28.01.2020
3902 Clouds 0 1018 37 16093 7.2 290 07:38 28.01.2020
3903 Clear 0 1020 86 16093 2 304 06:52 28.01.2020
3904 Clear 0 1020 86 16093 2 304 06:29 28.01.2020
3905 Clear 0 1019 57 16093 2 304 05:56 28.01.2020
3906 Rain 0 1017 57 11265 2.1 240 05:34 28.01.2020
3907 Rain 1 1017 95 16093 1.5 200 04:39 28.01.2020
3908 Rain 1 1018 95 16093 0.87 248 03:36 28.01.2020
3909 Rain 1 1017 95 16093 1.5 220 02:32 28.01.2020
3910 Rain 1 1017 96 16093 1.5 140 01:58 28.01.2020
3911 Rain 1 1015 96 6437 1.12 20 01:40 28.01.2020
3912 Rain 1 1015 96 6437 1.12 20 01:40 28.01.2020
3913 Rain 2 1016 60 16093 3.6 30 00:51 28.01.2020
3914 Rain 2 1016 56 16093 2.1 40 00:29 28.01.2020
3915 Rain 3 1014 80 14484 1.5 10 23:52 27.01.2020
3916 Clouds 3 1015 45 16093 2.6 360 23:30 27.01.2020
3917 Clear 4 1015 45 16093 2.1 30 22:59 27.01.2020
3918 Clouds 4 1013 52 16093 1.5 60 22:41 27.01.2020
3919 Clouds 4 1015 45 16093 4.41 350 22:20 27.01.2020
3920 Clouds 4 1015 45 16093 2.1 10 21:56 27.01.2020
3921 Clouds 5 1015 45 16093 3.6 10 21:37 27.01.2020
3922 Clouds 5 1015 45 16093 3.6 10 21:18 27.01.2020
3923 Clouds 5 1013 52 16093 1.5 20 20:43 27.01.2020
3924 Clouds 5 1015 48 16093 1.86 25 20:22 27.01.2020
3925 Clear 4 1016 51 16093 1.86 25 19:59 27.01.2020
3926 Clouds 4 1014 55 16093 2.1 50 19:41 27.01.2020
3927 Clouds 4 1016 51 16093 1.5 360 19:22 27.01.2020
3928 Clear 4 1016 55 16093 1.5 360 18:56 27.01.2020
3929 Clear 3 1016 55 16093 1.86 25 18:38 27.01.2020
3930 Clear 3 1016 55 16093 1.86 25 18:19 27.01.2020
3931 Clouds 2 1014 64 16093 2.1 240 17:39 27.01.2020
3932 Clouds 2 1014 64 16093 2.1 240 17:21 27.01.2020
3933 Clear 2 1015 69 16093 0.38 313 16:59 27.01.2020
3934 Clear 1 1015 69 16093 0.38 313 16:41 27.01.2020
3935 Clear 1 1015 69 16093 0.38 313 16:23 27.01.2020
3936 Clouds 0 1015 74 16093 0.38 313 15:55 27.01.2020
3937 Clouds 0 1015 74 16093 0.38 313 15:55 27.01.2020
3938 Clouds 0 1015 80 16093 0.38 313 15:36 27.01.2020
3939 Clouds 0 1013 64 16093 0.38 313 15:36 27.01.2020
3940 Clouds 0 1015 80 16093 0.38 313 15:18 27.01.2020
3941 Clouds 0 1015 79 16093 0.38 313 14:42 27.01.2020
3942 Clear 0 1015 79 16093 2.22 218 14:22 27.01.2020
3943 Clear 0 1015 79 16093 2.22 218 14:22 27.01.2020
3944 Clear 0 1015 79 16093 2.22 218 13:57 27.01.2020
3945 Clouds 0 1013 60 16093 4.1 250 13:37 27.01.2020
3946 Clear -1 1015 79 16093 1.81 215 13:18 27.01.2020
3947 Clear -1 1015 74 16093 1.81 215 12:44 27.01.2020
3948 Clear -1 1015 74 16093 1.81 215 12:23 27.01.2020
3949 Clear -1 1015 73 16093 1.5 200 11:58 27.01.2020
3950 Clear -1 1013 58 16093 2.1 220 11:40 27.01.2020
3951 Clouds -1 1014 63 16093 2.6 310 11:19 27.01.2020
3952 Clear -1 1016 73 16093 1.97 212 10:42 27.01.2020
3953 Clear -1 1016 73 16093 1.97 212 10:24 27.01.2020
3954 Clear 0 1014 51 16093 3.6 360 09:40 27.01.2020
3955 Clouds 0 1014 55 16093 4.1 180 09:19 27.01.2020
3956 Clouds 0 1014 55 16093 4.1 180 09:19 27.01.2020
3957 Clear 0 1016 73 16093 1.97 212 08:59 27.01.2020
3958 Clear 0 1016 73 16093 1.97 212 08:40 27.01.2020
3959 Clear 0 1016 68 16093 1.8 226 08:19 27.01.2020
3960 Clear 0 1016 68 16093 1.8 226 07:52 27.01.2020
3961 Clear 1 1016 63 16093 1.8 226 07:33 27.01.2020
3962 Clear 1 1016 63 16093 1.8 226 06:51 27.01.2020
3963 Clouds 2 1015 41 32767 2.1 220 05:59 27.01.2020
3964 Clear 2 1016 55 16093 1.6 246 05:18 27.01.2020
3965 Clear 3 1017 50 16093 1.6 246 03:37 27.01.2020
3966 Clear 5 1017 38 16093 2.6 20 02:27 27.01.2020
3967 Clear 7 1016 28 16093 0.73 26 01:29 27.01.2020
3968 Clear 9 1014 25 16093 0.33 70 00:43 27.01.2020
3969 Clear 9 1016 25 16093 1.5 150 00:22 27.01.2020
3970 Clear 10 1016 23 16093 2.6 110 23:59 26.01.2020
3971 Clear 11 1016 23 16093 2.6 110 23:40 26.01.2020
3972 Clear 11 1016 22 16093 3.1 110 23:18 26.01.2020
3973 Clear 11 1016 20 16093 1.5 100 22:39 26.01.2020
3974 Clear 11 1016 20 16093 1.5 100 22:20 26.01.2020
3975 Clear 11 1016 22 16093 3.6 80 21:59 26.01.2020
3976 Clear 11 1015 25 16093 2.1 70 21:40 26.01.2020
3977 Clear 11 1017 22 16093 4.1 110 21:22 26.01.2020
3978 Clear 11 1017 22 16093 4.1 110 21:22 26.01.2020
3979 Clear 11 1018 23 16093 1.6 43 20:58 26.01.2020
3980 Clear 11 1018 23 16093 1.6 43 20:40 26.01.2020
3981 Clear 10 1018 23 16093 1.5 100 20:20 26.01.2020
3982 Clear 9 1019 25 16093 4.1 120 19:59 26.01.2020
3983 Clear 9 1017 34 16093 2.6 360 19:39 26.01.2020
3984 Clear 9 1019 27 16093 6.2 110 19:39 26.01.2020
3985 Clear 9 1019 27 16093 6.2 110 19:21 26.01.2020
3986 Clear 9 1020 29 16093 4.6 100 18:59 26.01.2020
3987 Clouds 8 1018 27 16093 2.1 0 18:39 26.01.2020
3988 Clear 7 1020 31 16093 4.1 110 18:21 26.01.2020
3989 Clear 6 1020 48 16093 1.7 196 17:57 26.01.2020
3990 Clear 5 1018 38 16093 1.5 40 17:38 26.01.2020
3991 Clear 3 1020 55 16093 3.51 204 17:18 26.01.2020
3992 Clear 3 1020 55 16093 3.51 204 17:18 26.01.2020
3993 Clear 3 1020 55 16093 3.51 204 17:18 26.01.2020
3994 Clear 2 1020 41 16093 1.5 200 16:57 26.01.2020
3995 Clear 0 1020 68 16093 3.51 204 16:39 26.01.2020
3996 Clear -1 1020 68 16093 3.51 204 16:19 26.01.2020
3997 Clouds -2 1018 58 16093 3.1 210 15:45 26.01.2020
3998 Clear -3 1018 58 16093 3.51 204 15:22 26.01.2020
3999 Clear -3 1018 58 16093 3.51 204 14:58 26.01.2020
4000 Clear -3 1018 58 16093 3.51 204 14:58 26.01.2020
4001 Clear -2 1018 58 16093 3.51 204 14:38 26.01.2020
4002 Clear -3 1018 58 16093 3.1 213 14:19 26.01.2020
4003 Clear -2 1017 68 16093 2.1 240 13:40 26.01.2020
4004 Clear -2 1017 68 16093 2.1 240 13:20 26.01.2020
4005 Clear -2 1017 68 16093 2.1 240 12:56 26.01.2020
4006 Clear -2 1017 68 16093 2.1 240 12:37 26.01.2020
4007 Clear -2 1017 68 16093 2.1 240 12:19 26.01.2020
4008 Clouds -1 1017 59 16093 4.1 180 11:57 26.01.2020
4009 Clouds -1 1017 59 16093 4.1 180 11:36 26.01.2020
4010 Clouds -1 1019 50 16093 3.38 210 11:18 26.01.2020
4011 Clouds 0 1019 50 16093 3.38 210 10:55 26.01.2020
4012 Clouds 0 1019 50 16093 3.38 210 10:37 26.01.2020
4013 Clouds 0 1019 50 16093 3.38 210 10:18 26.01.2020
4014 Clouds 1 1020 50 16093 1.5 260 09:41 26.01.2020
4015 Clear 1 1019 43 16093 1.5 90 09:23 26.01.2020
4016 Clouds 1 1019 38 16093 2.1 210 08:57 26.01.2020
4017 Clouds 1 1018 51 16093 2.99 213 08:39 26.01.2020
4018 Clouds 2 1018 51 16093 2.57 224 08:21 26.01.2020
4019 Clouds 2 1019 38 16093 2.84 216 07:47 26.01.2020
4020 Clouds 2 1020 30 16093 2.84 216 07:25 26.01.2020
4021 Clouds 2 1017 48 16093 5.1 150 06:39 26.01.2020
4022 Clear 2 1019 35 16093 2.84 216 06:18 26.01.2020
4023 Clear 2 1018 32 16093 2.6 180 05:26 26.01.2020
4024 Clear 3 1018 43 16093 2.19 233 03:23 26.01.2020
4025 Clear 5 1017 34 16093 2.19 233 02:24 26.01.2020
4026 Clear 7 1017 26 16093 2.1 230 01:40 26.01.2020
4027 Clear 7 1017 26 16093 2.1 230 01:21 26.01.2020
4028 Clear 8 1016 23 16093 2.1 230 00:41 26.01.2020
4029 Clear 9 1017 21 16093 2.1 270 00:20 26.01.2020
4030 Rain 10 1015 25 16093 3.6 50 23:38 25.01.2020
4031 Rain 10 1014 28 0 0.89 311 23:20 25.01.2020
4032 Rain 11 1014 27 0 1.34 291 22:44 25.01.2020
4033 Clouds 11 1016 23 16093 1.5 320 22:21 25.01.2020
4034 Clouds 11 1016 23 16093 1.5 320 21:59 25.01.2020
4035 Clouds 11 1016 23 16093 1.5 320 21:59 25.01.2020
4036 Clouds 12 1016 23 16093 1.5 320 21:41 25.01.2020
4037 Clouds 11 1017 25 16093 2.6 330 21:22 25.01.2020
4038 Clear 9 1014 27 0 2.89 359 20:54 25.01.2020
4039 Clear 9 1014 27 0 2.89 359 20:36 25.01.2020
4040 Clouds 9 1014 30 0 1.95 265 20:18 25.01.2020
4041 Clouds 7 1016 44 0 1.95 265 19:41 25.01.2020
4042 Clouds 7 1017 39 16093 1.95 265 19:19 25.01.2020
4043 Clouds 8 1017 39 16093 1.95 265 18:56 25.01.2020
4044 Clouds 8 1017 39 16093 1.95 265 18:38 25.01.2020
4045 Clouds 7 1017 39 16093 1.95 265 18:20 25.01.2020
4046 Clouds 6 1016 47 0 0.45 61 17:39 25.01.2020
4047 Clouds 4 1016 51 0 0.45 56 17:19 25.01.2020
4048 Clouds 4 1016 51 0 0.45 56 17:19 25.01.2020
4049 Clouds 3 1017 57 0 0.89 184 16:56 25.01.2020
4050 Clouds 1 1016 63 0 2.53 216 16:38 25.01.2020
4051 Clouds 0 1016 55 16093 2.6 230 16:19 25.01.2020
4052 Clouds -1 1016 55 16093 2.6 230 15:46 25.01.2020
4053 Clouds -1 1015 68 0 2.53 216 15:25 25.01.2020
4054 Clouds -1 1016 59 16093 2.6 270 14:57 25.01.2020
4055 Clouds -1 1016 59 16093 2.6 270 14:39 25.01.2020
4056 Clouds -1 1015 59 16093 2.6 260 14:18 25.01.2020
4057 Clouds 0 1016 63 0 2.14 230 13:40 25.01.2020
4058 Clouds 0 1014 61 0 2.89 215 13:22 25.01.2020
4059 Clouds 1 1016 74 16093 2.1 220 12:43 25.01.2020
4060 Clouds 1 1016 74 16093 2.1 220 12:23 25.01.2020
4061 Clouds 0 1016 74 16093 2.1 220 11:45 25.01.2020
4062 Clouds 0 1016 74 16093 2.1 215 11:21 25.01.2020
4063 Clouds 0 1016 74 16093 1.5 220 10:58 25.01.2020
4064 Clouds 1 1015 68 16093 2.1 215 10:40 25.01.2020
4065 Clouds 1 1015 68 16093 2.1 215 10:20 25.01.2020
4066 Clear 1 1015 68 16093 2.1 215 09:41 25.01.2020
4067 Clear 1 1015 58 16093 2.1 215 09:22 25.01.2020
4068 Clouds 2 1014 44 16093 4.1 220 08:44 25.01.2020
4069 Clear 2 1016 59 16093 2.41 210 08:22 25.01.2020
4070 Clouds 2 1014 41 16093 3.1 220 07:43 25.01.2020
4071 Clear 2 1016 59 16093 1.5 250 06:51 25.01.2020
4072 Clear 2 1016 55 16093 0.31 226 06:27 25.01.2020
4073 Clear 3 1016 59 16093 1.5 180 05:45 25.01.2020
4074 Clear 3 1014 51 16093 4.6 150 04:43 25.01.2020
4075 Clouds 4 1016 47 16093 1.5 10 03:51 25.01.2020
4076 Clouds 5 1016 44 16093 1.36 271 02:54 25.01.2020
4077 Clear 6 1016 38 16093 2.71 330 01:59 25.01.2020
4078 Clear 6 1016 38 16093 2.71 330 01:59 25.01.2020
4079 Clear 7 1015 35 16093 2.71 330 01:37 25.01.2020
4080 Clear 8 1013 36 16093 2.51 327 00:43 25.01.2020
4081 Clear 8 1015 31 16093 2.6 330 00:24 25.01.2020
4082 Clear 9 1015 29 16093 3.1 330 23:57 24.01.2020
4083 Clouds 10 1013 22 16093 5.1 70 23:38 24.01.2020
4084 Clouds 10 1013 22 16093 5.1 70 23:38 24.01.2020
4085 Clear 11 1015 27 16093 2.6 340 23:20 24.01.2020
4086 Clear 11 1013 29 16093 1.54 79 22:42 24.01.2020
4087 Clear 11 1015 25 16093 4.1 10 22:24 24.01.2020
4088 Clear 12 1013 33 16093 2.1 350 21:42 24.01.2020
4089 Clear 11 1015 27 16093 2.6 360 21:20 24.01.2020
4090 Clear 11 1016 29 16093 2.1 10 20:56 24.01.2020
4091 Clear 10 1017 29 16093 2.1 40 20:37 24.01.2020
4092 Clear 8 1017 29 16093 2.1 40 20:18 24.01.2020
4093 Clear 7 1017 33 16093 1.5 10 19:55 24.01.2020
4094 Clear 7 1018 35 16093 1.61 198 19:37 24.01.2020
4095 Clear 7 1018 35 16093 1.61 198 19:19 24.01.2020
4096 Clear 6 1018 41 16093 1.5 10 18:42 24.01.2020
4097 Clear 5 1019 47 16093 1.61 198 18:22 24.01.2020
4098 Clear 5 1019 47 16093 1.61 198 18:22 24.01.2020
4099 Clear 4 1019 55 16093 1.5 360 17:45 24.01.2020
4100 Clear 2 1019 31 16093 1.61 198 17:22 24.01.2020
4101 Clear 0 1019 73 16093 3.4 214 16:58 24.01.2020
4102 Clear -1 1017 63 16093 3.4 214 16:38 24.01.2020
4103 Clear -3 1019 85 16093 3.4 214 16:19 24.01.2020
4104 Clear -4 1019 85 16093 3.4 214 15:42 24.01.2020
4105 Clear -4 1019 85 16093 1.5 210 15:21 24.01.2020
4106 Clear -4 1019 85 16093 1.5 230 14:55 24.01.2020
4107 Clear -4 1019 85 16093 1.5 230 14:55 24.01.2020
4108 Clear -4 1019 85 16093 3.4 214 14:36 24.01.2020
4109 Clear -5 1019 85 16093 3.19 212 14:18 24.01.2020
4110 Clear -4 1019 85 16093 3.19 212 13:41 24.01.2020
4111 Clear -4 1019 85 16093 2.99 210 13:21 24.01.2020
4112 Clear -4 1017 58 16093 1.5 290 12:43 24.01.2020
4113 Clear -4 1019 85 16093 2.99 210 12:20 24.01.2020
4114 Clear -3 1019 79 16093 2.99 210 11:45 24.01.2020
4115 Clear -3 1019 79 16093 2.3 216 11:19 24.01.2020
4116 Clear -3 1019 73 16093 2.3 216 10:56 24.01.2020
4117 Clear -3 1017 58 16093 2.3 216 10:38 24.01.2020
4118 Clear -2 1019 68 16093 2.1 200 10:18 24.01.2020
4119 Clouds -2 1018 63 16093 3.6 170 09:41 24.01.2020
4120 Clouds -2 1019 58 16093 2.3 216 09:23 24.01.2020
4121 Clouds -2 1018 52 16093 3.6 150 08:41 24.01.2020
4122 Clouds -2 1020 54 16093 1.8 229 08:21 24.01.2020
4123 Clouds -2 1020 54 16093 2.1 140 07:58 24.01.2020
4124 Clouds -2 1018 57 16093 1.72 209 07:37 24.01.2020
4125 Clouds -2 1020 58 16093 1.72 209 06:53 24.01.2020
4126 Clouds -2 1021 58 16093 1.72 209 06:33 24.01.2020
4127 Clear -2 1021 50 16093 1.72 209 05:59 24.01.2020
4128 Clear -1 1021 54 16093 2.38 157 05:18 24.01.2020
4129 Clouds 1 1020 37 16093 2.38 157 02:54 24.01.2020
4130 Clouds 1 1020 34 16093 2.38 157 02:27 24.01.2020
4131 Clouds 2 1020 32 16093 1.68 116 01:49 24.01.2020
4132 Clouds 3 1020 32 16093 2.1 140 01:31 24.01.2020
4133 Clouds 4 1020 30 16093 2.1 120 00:26 24.01.2020
4134 Clouds 4 1020 28 16093 2.6 160 23:51 23.01.2020
4135 Clouds 4 1020 30 16093 2.6 140 23:31 23.01.2020
4136 Clouds 5 1020 26 16093 3.1 120 22:59 23.01.2020
4137 Clouds 4 1020 30 16093 2.6 150 22:38 23.01.2020
4138 Clouds 4 1020 30 16093 2.6 150 22:19 23.01.2020
4139 Clouds 4 1020 30 16093 2.1 130 21:58 23.01.2020
4140 Clouds 4 1018 30 16093 3.1 140 21:39 23.01.2020
4141 Clouds 4 1021 27 16093 3.1 140 21:20 23.01.2020
4142 Clouds 4 1021 29 16093 2.38 26 20:59 23.01.2020
4143 Clouds 4 1019 30 16093 2.1 110 20:39 23.01.2020
4144 Clouds 4 1021 29 16093 1.5 50 20:20 23.01.2020
4145 Clouds 3 1022 27 16093 3.1 60 19:56 23.01.2020
4146 Clouds 3 1020 30 16093 2.6 100 19:38 23.01.2020
4147 Clouds 3 1022 29 16093 2.1 120 19:19 23.01.2020
4148 Clouds 2 1021 32 16093 4.1 140 18:43 23.01.2020
4149 Clouds 1 1023 34 16093 1.5 150 18:21 23.01.2020
4150 Clouds 1 1023 34 16093 1.5 150 18:21 23.01.2020
4151 Clouds 1 1023 40 16093 3.1 180 17:58 23.01.2020
4152 Clouds 0 1021 50 16093 1.53 79 17:40 23.01.2020
4153 Clouds 0 1023 40 16093 0.98 202 17:20 23.01.2020
4154 Clouds -1 1023 54 16093 2.1 210 16:56 23.01.2020
4155 Clouds -2 1022 63 16093 1.5 220 16:36 23.01.2020
4156 Clouds -2 1022 63 16093 1.5 220 16:18 23.01.2020
4157 Clear -3 1022 73 16093 0.98 202 15:54 23.01.2020
4158 Clear -3 1021 62 11265 0.98 202 15:36 23.01.2020
4159 Clear -3 1022 62 16093 0.98 202 15:18 23.01.2020
4160 Clear -3 1022 62 16093 0.98 202 15:18 23.01.2020
4161 Clear -3 1022 67 16093 1.5 220 14:54 23.01.2020
4162 Clouds -3 1021 67 16093 0.98 202 14:36 23.01.2020
4163 Clouds -3 1021 67 16093 1.26 223 14:18 23.01.2020
4164 Clear -3 1019 50 16093 3.1 10 13:39 23.01.2020
4165 Clear -3 1019 50 16093 3.1 10 13:39 23.01.2020
4166 Clear -3 1021 67 16093 1.32 208 13:20 23.01.2020
4167 Clear -3 1021 62 16093 1.32 208 12:47 23.01.2020
4168 Clear -3 1021 62 16093 1.33 199 12:25 23.01.2020
4169 Clear -2 1021 49 16093 1.33 199 11:59 23.01.2020
4170 Clear -2 1021 53 16093 1.32 208 11:39 23.01.2020
4171 Clear -2 1021 53 16093 0.88 16 11:19 23.01.2020
4172 Clear -2 1021 58 16093 1.62 357 10:45 23.01.2020
4173 Clear -2 1021 67 16093 1.62 357 10:23 23.01.2020
4174 Clear -2 1020 62 16093 1.5 150 09:59 23.01.2020
4175 Clouds -2 1018 39 16093 4.1 300 09:38 23.01.2020
4176 Clear -2 1020 68 16093 1.62 357 09:20 23.01.2020
4177 Clouds -2 1018 42 16093 4.1 300 08:41 23.01.2020
4178 Clear -1 1020 63 16093 1.41 255 08:22 23.01.2020
4179 Clear -1 1020 63 16093 3.1 220 07:45 23.01.2020
4180 Clear -1 1020 58 16093 1.41 255 07:26 23.01.2020
4181 Clouds 0 1019 58 16093 1.41 255 06:54 23.01.2020
4182 Clouds 0 1019 50 16093 1.41 255 06:23 23.01.2020
4183 Clouds 1 1017 50 32767 2.1 110 05:58 23.01.2020
4184 Clouds 1 1017 44 16093 5.7 110 04:24 23.01.2020
4185 Clear 5 1015 30 16093 3.1 70 02:35 23.01.2020
4186 Clear 7 1013 19 16093 6.2 300 01:41 23.01.2020
4187 Clear 8 1013 19 16093 4.1 270 00:28 23.01.2020
4188 Clear 9 1013 17 16093 8.2 290 23:48 22.01.2020
4189 Clear 9 1012 16 16093 6.7 290 23:30 22.01.2020
4190 Clear 10 1013 16 16093 7.2 280 22:59 22.01.2020
4191 Clear 10 1010 20 16093 11.8 280 22:41 22.01.2020
4192 Clear 10 1012 17 16093 6.7 300 22:23 22.01.2020
4193 Clear 10 1012 16 16093 8.7 310 21:41 22.01.2020
4194 Clear 10 1012 16 16093 8.7 310 21:22 22.01.2020
4195 Clear 10 1012 16 16093 7.7 330 20:58 22.01.2020
4196 Clear 10 1010 21 16093 6.7 320 20:39 22.01.2020
4197 Clear 10 1012 21 16093 8.2 300 20:21 22.01.2020
4198 Clear 9 1013 21 16093 7.2 290 19:57 22.01.2020
4199 Clear 9 1013 25 16093 6.2 280 19:39 22.01.2020
4200 Clear 9 1013 25 16093 6.2 280 19:19 22.01.2020
4201 Clear 8 1013 25 16093 5.1 290 18:56 22.01.2020
4202 Clear 7 1013 26 16093 5.1 290 18:38 22.01.2020
4203 Clear 7 1013 26 16093 5.1 290 18:19 22.01.2020
4204 Clear 6 1014 44 16093 4.5 299 17:54 22.01.2020
4205 Clear 6 1013 48 16093 4.5 299 17:36 22.01.2020
4206 Clear 4 1013 48 16093 3.73 228 17:18 22.01.2020
4207 Clear 4 1013 48 16093 3.73 228 17:18 22.01.2020
4208 Clear 3 1013 55 16093 3.73 228 16:43 22.01.2020
4209 Clear 3 1013 55 16093 3.73 228 16:22 22.01.2020
4210 Clear 2 1012 55 16093 3.73 228 15:58 22.01.2020
4211 Clear 2 1012 51 16093 1.5 150 15:39 22.01.2020
4212 Clear 1 1012 51 16093 1.5 150 15:21 22.01.2020
4213 Clear 1 1012 51 16093 1.5 150 15:21 22.01.2020
4214 Clear 1 1012 44 16093 2.6 340 14:54 22.01.2020
4215 Clear 1 1011 38 16093 2.1 350 14:36 22.01.2020
4216 Clear 1 1011 38 16093 2.1 350 14:36 22.01.2020
4217 Clear 1 1011 38 16093 2.1 350 14:18 22.01.2020
4218 Clear 1 1010 55 16093 4.1 250 13:38 22.01.2020
4219 Clouds 0 1009 59 16093 4.6 220 13:20 22.01.2020
4220 Clear 0 1009 55 16093 4.1 230 12:58 22.01.2020
4221 Clear 0 1009 55 16093 4.1 230 12:40 22.01.2020
4222 Clouds 0 1010 59 16093 3.6 210 12:20 22.01.2020
4223 Clear 0 1011 59 16093 2.57 230 11:58 22.01.2020
4224 Clear 1 1010 51 16093 5.7 300 11:40 22.01.2020
4225 Clear 1 1011 55 16093 2.6 240 11:19 22.01.2020
4226 Clear 1 1012 78 16093 1.5 220 10:54 22.01.2020
4227 Clouds 1 1009 48 16093 1.5 200 10:36 22.01.2020
4228 Clouds 1 1012 55 16093 1.5 220 10:18 22.01.2020
4229 Clouds 2 1011 55 16093 2.1 200 09:41 22.01.2020
4230 Clouds 1 1011 51 16093 1.46 244 09:23 22.01.2020
4231 Clear 2 1011 78 16093 1.5 160 08:57 22.01.2020
4232 Clouds 2 1009 51 16093 2.1 250 08:38 22.01.2020
4233 Clear 2 1011 59 16093 2.16 229 08:20 22.01.2020
4234 Clear 2 1012 78 16093 1.5 200 07:46 22.01.2020
4235 Clear 2 1011 78 16093 2.16 229 07:27 22.01.2020
4236 Clear 2 1010 51 16093 1.5 240 06:38 22.01.2020
4237 Clear 2 1012 78 16093 1.5 240 06:20 22.01.2020
4238 Clear 2 1012 78 16093 1.5 240 06:20 22.01.2020
4239 Clouds 2 1012 74 16093 0.81 254 05:19 22.01.2020
4240 Clouds 3 1012 74 16093 0.81 254 03:29 22.01.2020
4241 Clouds 4 1012 47 16093 0.81 254 02:49 22.01.2020
4242 Clouds 6 1012 33 16093 0.53 4 01:35 22.01.2020
4243 Clouds 7 1012 28 16093 2.1 20 00:42 22.01.2020
4244 Clouds 8 1012 28 16093 2.1 20 00:23 22.01.2020
4245 Clouds 8 1010 27 16093 1.5 360 23:38 21.01.2020
4246 Clouds 8 1010 27 16093 1.5 360 23:38 21.01.2020
4247 Clouds 9 1012 26 16093 2.05 341 23:20 21.01.2020
4248 Clear 9 1012 24 16093 2.05 341 22:42 21.01.2020
4249 Clear 9 1012 24 16093 2.05 341 22:24 21.01.2020
4250 Clear 9 1013 24 16093 2.05 341 21:59 21.01.2020
4251 Clear 9 1013 24 16093 2.05 341 21:59 21.01.2020
4252 Clear 9 1013 24 16093 2.05 341 21:40 21.01.2020
4253 Clear 9 1013 28 16093 2.05 341 21:21 21.01.2020
4254 Clear 9 1014 28 16093 2.05 341 20:59 21.01.2020
4255 Clouds 9 1012 33 16093 2.05 341 20:39 21.01.2020
4256 Clear 8 1015 28 16093 0.97 246 20:20 21.01.2020
4257 Clear 8 1016 30 16093 1.5 360 19:58 21.01.2020
4258 Clouds 8 1014 35 16093 0.97 246 19:39 21.01.2020
4259 Clear 7 1016 33 16093 1.5 360 19:21 21.01.2020
4260 Clear 7 1017 35 16093 1.5 360 18:57 21.01.2020
4261 Clear 7 1017 35 16093 2.1 360 18:39 21.01.2020
4262 Clear 6 1017 35 16093 2.1 360 18:20 21.01.2020
4263 Clear 5 1017 38 16093 0.97 246 17:56 21.01.2020
4264 Clear 4 1017 51 16093 0.97 246 17:38 21.01.2020
4265 Clouds 2 1016 44 16093 2.3 179 17:18 21.01.2020
4266 Clouds 2 1018 43 16093 2.3 179 16:38 21.01.2020
4267 Clouds 1 1018 43 16093 2.3 179 16:19 21.01.2020
4268 Clouds 1 1018 43 16093 2.3 179 16:19 21.01.2020
4269 Clouds 1 1018 43 16093 2.3 179 15:59 21.01.2020
4270 Clouds 1 1016 43 16093 2.3 179 15:38 21.01.2020
4271 Clouds 1 1018 43 16093 2.1 170 15:19 21.01.2020
4272 Clouds 0 1017 43 16093 1.5 190 14:39 21.01.2020
4273 Clouds 0 1019 58 16093 1.35 238 14:21 21.01.2020
4274 Clouds 0 1019 54 16093 1.35 238 13:43 21.01.2020
4275 Clouds 0 1020 58 16093 1.35 238 13:20 21.01.2020
4276 Clouds 0 1020 63 16093 1.65 225 12:58 21.01.2020
4277 Clouds 0 1018 44 16093 1.5 310 12:39 21.01.2020
4278 Clouds 0 1020 63 16093 1.65 225 12:21 21.01.2020
4279 Clear 1 1020 58 16093 1.65 225 11:55 21.01.2020
4280 Clouds 0 1018 40 16093 1.65 225 11:36 21.01.2020
4281 Clouds 0 1020 63 16093 3.02 208 11:18 21.01.2020
4282 Clouds 0 1019 47 16093 3.02 208 10:42 21.01.2020
4283 Clouds 0 1021 63 16093 3.02 208 10:22 21.01.2020
4284 Clouds 1 1019 29 16093 3.02 208 09:43 21.01.2020
4285 Clouds 1 1021 58 16093 3.02 208 09:43 21.01.2020
4286 Clouds 1 1021 54 16093 3.02 208 09:23 21.01.2020
4287 Clear 1 1022 63 16093 3.02 208 08:56 21.01.2020
4288 Clear 1 1020 43 16093 2.6 290 08:38 21.01.2020
4289 Clear 0 1022 63 16093 2.19 215 08:19 21.01.2020
4290 Clear 0 1023 58 16093 2.19 215 07:41 21.01.2020
4291 Clouds 0 1021 37 16093 6.2 200 07:22 21.01.2020
4292 Clear 0 1022 34 16093 2.1 290 06:55 21.01.2020
4293 Clear 0 1022 34 16093 2.1 290 06:37 21.01.2020
4294 Clear 0 1023 31 16093 2.19 215 05:44 21.01.2020
4295 Clear 1 1025 54 16093 1.8 216 04:41 21.01.2020
4296 Clear 2 1027 39 16093 1.5 220 02:58 21.01.2020
4297 Clear 3 1027 29 16093 1.5 240 02:19 21.01.2020
4298 Clear 5 1027 25 16093 1.11 299 01:26 21.01.2020
4299 Clear 8 1027 20 16093 2.1 20 00:38 21.01.2020
4300 Clear 9 1026 18 16093 0.48 315 23:59 20.01.2020
4301 Clear 10 1026 18 16093 0.48 315 23:41 20.01.2020
4302 Clouds 10 1025 15 16093 3.6 110 23:19 20.01.2020
4303 Clear 10 1026 15 16093 2.09 27 22:58 20.01.2020
4304 Clouds 10 1025 14 16093 3.6 110 22:38 20.01.2020
4305 Clear 10 1026 15 16093 2.09 27 22:38 20.01.2020
4306 Clouds 10 1025 14 16093 3.6 110 22:20 20.01.2020
4307 Clear 10 1026 15 16093 2.6 100 21:57 20.01.2020
4308 Clouds 10 1026 14 16093 3.1 80 21:37 20.01.2020
4309 Clouds 10 1026 14 16093 3.1 80 21:19 20.01.2020
4310 Clear 9 1027 13 16093 2.09 27 20:56 20.01.2020
4311 Clear 9 1027 13 16093 2.09 27 20:56 20.01.2020
4312 Clouds 9 1027 18 16093 4.6 120 20:38 20.01.2020
4313 Clouds 8 1027 16 16093 2.1 80 20:18 20.01.2020
4314 Clear 7 1029 18 16093 1.57 201 19:56 20.01.2020
4315 Clear 7 1029 18 16093 1.57 201 19:56 20.01.2020
4316 Clear 7 1029 18 16093 1.57 201 19:37 20.01.2020
4317 Clouds 6 1028 17 16093 2.1 240 19:18 20.01.2020
4318 Clear 5 1030 27 16093 1.57 201 18:43 20.01.2020
4319 Clouds 4 1029 25 16093 3.1 230 18:22 20.01.2020
4320 Clear 2 1030 37 16093 1.57 201 17:41 20.01.2020
4321 Clouds 0 1029 31 16093 2.6 210 17:20 20.01.2020
4322 Clouds 0 1029 31 16093 2.6 210 17:20 20.01.2020
4323 Clear -1 1029 68 11265 3.76 207 16:59 20.01.2020
4324 Clear -3 1029 68 11265 3.76 207 16:37 20.01.2020
4325 Clouds -4 1028 42 16093 4.1 190 16:18 20.01.2020
4326 Clouds -4 1028 42 16093 4.1 190 16:18 20.01.2020
4327 Clear -5 1030 66 11265 3.76 207 15:54 20.01.2020
4328 Clouds -6 1028 42 16093 4.1 210 15:36 20.01.2020
4329 Clouds -6 1028 42 16093 4.1 210 15:18 20.01.2020
4330 Clear -6 1029 72 16093 3.76 207 14:41 20.01.2020
4331 Clear -6 1029 72 16093 3.76 207 14:41 20.01.2020
4332 Clear -6 1028 53 16093 4.1 200 14:22 20.01.2020
4333 Clear -6 1029 72 16093 1.5 290 13:58 20.01.2020
4334 Clear -6 1029 72 16093 1.5 290 13:40 20.01.2020
4335 Clear -6 1028 57 16093 4.1 190 13:21 20.01.2020
4336 Clear -6 1029 72 16093 3.14 213 12:46 20.01.2020
4337 Clear -6 1028 53 16093 3.6 200 12:27 20.01.2020
4338 Clear -5 1029 72 16093 3.14 213 11:57 20.01.2020
4339 Clear -6 1028 53 16093 1.5 190 11:38 20.01.2020
4340 Clear -6 1028 53 16093 1.5 190 11:19 20.01.2020
4341 Clear -5 1029 72 16093 2.6 230 10:47 20.01.2020
4342 Clear -5 1028 53 16093 3.6 180 10:21 20.01.2020
4343 Clear -5 1028 53 16093 3.6 180 10:21 20.01.2020
4344 Clear -5 1030 72 16093 2.86 215 09:42 20.01.2020
4345 Clear -5 1029 53 16093 5.7 190 09:24 20.01.2020
4346 Clear -5 1030 67 16093 1.5 220 08:59 20.01.2020
4347 Clear -4 1030 67 16093 1.5 220 08:39 20.01.2020
4348 Clear -5 1029 58 16093 5.1 190 08:20 20.01.2020
4349 Clear -4 1030 67 16093 2.59 214 07:42 20.01.2020
4350 Clear -4 1030 67 16093 2.59 214 07:42 20.01.2020
4351 Clear -4 1030 53 16093 5.1 180 07:22 20.01.2020
4352 Clear -3 1031 62 16093 2.59 214 06:44 20.01.2020
4353 Clear -3 1030 53 16093 4.1 180 06:24 20.01.2020
4354 Clear -2 1031 50 16093 4.6 190 05:41 20.01.2020
4355 Clear -2 1031 50 16093 4.6 190 05:20 20.01.2020
4356 Clear -2 1031 50 16093 4.1 150 04:33 20.01.2020
4357 Clear 0 1030 40 16093 3.6 100 02:33 20.01.2020
4358 Clear 2 1031 32 16093 2.1 290 01:40 20.01.2020
4359 Clear 3 1029 34 16093 3.1 70 01:20 20.01.2020
4360 Clear 6 1030 24 16093 1.75 22 00:43 20.01.2020
4361 Clouds 6 1029 26 16093 1.75 22 00:21 20.01.2020
4362 Clouds 7 1028 26 16093 2.1 80 23:38 19.01.2020
4363 Clouds 7 1028 26 16093 2.1 80 23:19 19.01.2020
4364 Clear 7 1029 21 16093 1.29 48 22:56 19.01.2020
4365 Clouds 7 1028 26 16093 1.5 90 22:37 19.01.2020
4366 Clouds 7 1028 26 16093 1.5 90 22:19 19.01.2020
4367 Clear 7 1030 23 16093 3.1 80 21:56 19.01.2020
4368 Clear 7 1030 23 16093 3.1 80 21:38 19.01.2020
4369 Clouds 7 1029 26 16093 1.29 48 21:19 19.01.2020
4370 Clear 6 1030 23 16093 2.1 110 20:57 19.01.2020
4371 Clouds 6 1030 28 16093 1.29 48 20:38 19.01.2020
4372 Clouds 5 1030 28 16093 1.17 143 20:20 19.01.2020
4373 Clear 4 1031 28 16093 1.5 130 19:56 19.01.2020
4374 Clouds 4 1031 34 16093 1.17 143 19:37 19.01.2020
4375 Clouds 3 1031 34 16093 1.17 143 19:19 19.01.2020
4376 Clouds 4 1031 34 16093 1.17 143 19:19 19.01.2020
4377 Clouds 3 1031 34 16093 1.17 143 19:19 19.01.2020
4378 Clear 3 1032 32 16093 1.5 70 18:55 19.01.2020
4379 Clouds 2 1031 29 16093 2.1 200 18:37 19.01.2020
4380 Clouds 2 1031 29 16093 2.1 200 18:19 19.01.2020
4381 Clear 1 1031 50 16093 1.17 143 17:57 19.01.2020
4382 Clouds 0 1030 50 16093 1.5 210 17:39 19.01.2020
4383 Clouds -2 1030 50 16093 1.5 210 17:20 19.01.2020
4384 Clear -3 1031 68 11265 1.57 216 16:57 19.01.2020
4385 Clouds -5 1030 67 16093 1.5 210 16:38 19.01.2020
4386 Clouds -6 1030 67 16093 1.5 210 16:19 19.01.2020
4387 Clear -7 1031 72 11265 1.57 216 15:57 19.01.2020
4388 Clear -8 1031 72 11265 1.57 216 15:37 19.01.2020
4389 Clouds -8 1028 67 16093 1.57 216 15:19 19.01.2020
4390 Clear -8 1030 78 16093 1.57 216 14:56 19.01.2020
4391 Clear -8 1030 78 16093 1.57 216 14:56 19.01.2020
4392 Clear -8 1028 57 16093 1.57 216 14:37 19.01.2020
4393 Clear -8 1028 57 16093 1.71 223 14:18 19.01.2020
4394 Clear -8 1028 57 16093 1.71 223 14:18 19.01.2020
4395 Clear -7 1029 72 16093 1.71 223 13:54 19.01.2020
4396 Clear -7 1028 61 16093 1.71 223 13:36 19.01.2020
4397 Clear -7 1028 61 16093 2 219 13:18 19.01.2020
4398 Clear -7 1029 72 16093 2 219 12:42 19.01.2020
4399 Clear -7 1027 62 16093 3.1 180 12:23 19.01.2020
4400 Clear -7 1029 72 16093 1.5 320 11:57 19.01.2020
4401 Clear -7 1029 72 16093 1.5 320 11:39 19.01.2020
4402 Clear -7 1027 62 16093 3.6 190 11:18 19.01.2020
4403 Clear -7 1029 67 16093 1.5 280 10:41 19.01.2020
4404 Clear -7 1027 62 16093 3.1 190 10:21 19.01.2020
4405 Clear -7 1028 67 16093 1.5 250 09:58 19.01.2020
4406 Clear -7 1028 67 16093 1.5 250 09:39 19.01.2020
4407 Clear -7 1027 62 16093 2.6 190 09:21 19.01.2020
4408 Clear -6 1028 62 16093 2.1 260 08:56 19.01.2020
4409 Clear -6 1027 62 16093 3.1 180 08:38 19.01.2020
4410 Clear -6 1027 62 16093 3.1 180 08:19 19.01.2020
4411 Clear -6 1030 72 16093 0.74 230 07:30 19.01.2020
4412 Clear -6 1029 72 16093 0.74 230 06:56 19.01.2020
4413 Clear -5 1029 72 16093 0.74 230 06:23 19.01.2020
4414 Clear -4 1029 57 16093 0.81 263 04:19 19.01.2020
4415 Clear -2 1028 42 16093 0.81 263 02:35 19.01.2020
4416 Clear -1 1028 25 16093 1.5 20 01:45 19.01.2020
4417 Clear 1 1027 27 16093 2.6 20 01:22 19.01.2020
4418 Clear 2 1027 27 16093 3.1 10 00:45 19.01.2020
4419 Clouds 3 1024 18 16093 3.6 20 00:25 19.01.2020
4420 Clouds 4 1024 21 16093 1.5 360 23:55 18.01.2020
4421 Clear 4 1026 20 16093 4.1 10 23:36 18.01.2020
4422 Clear 4 1026 20 16093 4.1 10 23:36 18.01.2020
4423 Clear 5 1026 20 16093 4.1 10 23:18 18.01.2020
4424 Clear 5 1025 18 16093 2.6 360 22:42 18.01.2020
4425 Clear 5 1025 18 16093 1.5 20 22:24 18.01.2020
4426 Clear 5 1025 18 16093 1.5 20 22:24 18.01.2020
4427 Clear 5 1025 20 16093 1.5 10 21:58 18.01.2020
4428 Clear 5 1024 25 16093 1.5 30 21:39 18.01.2020
4429 Clear 5 1025 20 16093 3.6 360 21:21 18.01.2020
4430 Clear 5 1025 17 16093 2.99 9 20:59 18.01.2020
4431 Clear 5 1025 17 16093 2.99 9 20:41 18.01.2020
4432 Clear 4 1026 17 16093 1.42 240 20:19 18.01.2020
4433 Clear 3 1024 25 16093 1.46 223 19:43 18.01.2020
4434 Clear 3 1026 23 16093 2.1 150 19:24 18.01.2020
4435 Clear 1 1027 29 16093 1.5 150 18:54 18.01.2020
4436 Clear 1 1026 29 16093 3.1 160 18:36 18.01.2020
4437 Clear 0 1026 29 16093 3.1 160 18:18 18.01.2020
4438 Clear -2 1026 18 16093 3.6 150 17:41 18.01.2020
4439 Clear -3 1026 30 16093 3.6 150 17:21 18.01.2020
4440 Clear -4 1025 36 16093 4.6 170 16:57 18.01.2020
4441 Clear -5 1024 45 16093 3.27 204 16:38 18.01.2020
4442 Clear -5 1024 45 16093 3.27 204 16:38 18.01.2020
4443 Clouds -6 1023 53 16093 6.7 140 16:19 18.01.2020
4444 Clear -7 1025 38 16093 5.1 150 15:44 18.01.2020
4445 Clear -7 1025 38 16093 6.2 160 15:26 18.01.2020
4446 Clear -7 1025 38 16093 6.2 150 14:59 18.01.2020
4447 Clear -7 1023 41 16093 1.5 310 14:40 18.01.2020
4448 Clear -7 1025 38 16093 5.7 140 14:19 18.01.2020
4449 Clear -7 1024 49 16093 4.6 130 13:56 18.01.2020
4450 Clear -7 1024 49 16093 4.6 130 13:56 18.01.2020
4451 Clear -7 1023 72 16093 3.1 160 13:36 18.01.2020
4452 Clear -7 1024 45 16093 4.6 120 13:18 18.01.2020
4453 Clear -6 1021 30 16093 3.6 140 12:41 18.01.2020
4454 Clear -6 1023 52 16093 3.53 206 12:21 18.01.2020
4455 Clear -6 1021 23 16093 3.1 220 11:45 18.01.2020
4456 Clear -6 1023 25 16093 1.19 210 11:24 18.01.2020
4457 Clear -5 1023 23 16093 2.6 300 10:58 18.01.2020
4458 Clear -5 1021 38 16093 5.7 290 10:39 18.01.2020
4459 Clear -5 1023 35 16093 2.6 230 10:20 18.01.2020
4460 Clear -5 1022 35 16093 1.19 210 09:49 18.01.2020
4461 Clear -4 1022 30 16093 1.19 210 09:31 18.01.2020
4462 Clear -4 1022 38 16093 6.7 310 08:57 18.01.2020
4463 Clear -3 1020 28 16093 2.6 310 08:39 18.01.2020
4464 Clear -2 1023 37 16093 5.1 320 08:19 18.01.2020
4465 Clear -2 1021 28 16093 3.6 310 07:52 18.01.2020
4466 Clear -2 1022 37 16093 4.6 280 07:32 18.01.2020
4467 Clear -2 1021 37 16093 4.1 300 06:48 18.01.2020
4468 Clear -1 1017 37 16093 9.8 270 05:59 18.01.2020
4469 Clear 0 1018 17 16093 5.7 270 05:24 18.01.2020
4470 Clear 2 1014 29 16093 12.3 280 02:56 18.01.2020
4471 Clear 3 1012 27 16093 8.7 290 01:56 18.01.2020
4472 Clear 3 1011 32 16093 7.2 300 01:35 18.01.2020
4473 Clear 4 1007 38 16093 8.2 250 00:37 18.01.2020
4474 Clear 4 1007 38 16093 8.2 250 00:37 18.01.2020
4475 Clear 5 1009 31 16093 6.2 260 00:18 18.01.2020
4476 Clear 5 1009 31 16093 6.2 260 00:18 18.01.2020
4477 Clear 5 1009 31 16093 6.2 260 00:18 18.01.2020
4478 Clear 6 1006 52 16093 3.6 330 23:41 17.01.2020
4479 Clear 7 1007 31 16093 13.4 280 23:20 17.01.2020
4480 Clear 9 1006 20 16093 4.1 20 22:46 17.01.2020
4481 Clear 9 1006 21 16093 6.7 330 22:22 17.01.2020
4482 Clear 9 1006 21 16093 6.7 330 22:22 17.01.2020
4483 Clear 9 1006 23 16093 6.2 320 21:59 17.01.2020
4484 Clear 10 1005 16 16093 6.7 330 21:41 17.01.2020
4485 Clear 10 1005 16 16093 6.7 330 21:22 17.01.2020
4486 Clear 10 1006 23 16093 6.2 250 20:58 17.01.2020
4487 Clear 10 1002 24 16093 13.4 250 20:38 17.01.2020
4488 Clouds 9 1006 31 16093 8.2 280 20:20 17.01.2020
4489 Clouds 8 1005 29 16093 11.8 310 19:55 17.01.2020
4490 Clouds 8 1005 29 16093 11.8 310 19:55 17.01.2020
4491 Clouds 8 1008 33 11265 5.1 300 19:37 17.01.2020
4492 Clouds 8 1008 33 11265 5.1 300 19:37 17.01.2020
4493 Clouds 8 1008 33 11265 5.1 300 19:18 17.01.2020
4494 Clear 8 1006 35 16093 1.5 360 18:47 17.01.2020
4495 Clear 7 1007 40 16093 11.15 240 18:29 17.01.2020
4496 Clear 4 1007 22 16093 11.15 240 17:58 17.01.2020
4497 Clear 4 1005 50 16093 11.15 240 17:39 17.01.2020
4498 Clear 0 1007 54 16093 3.83 204 17:20 17.01.2020
4499 Clear -1 1008 73 16093 3.83 204 16:43 17.01.2020
4500 Clear -4 1008 79 16093 3.83 204 16:21 17.01.2020
4501 Clear -4 1008 78 16093 1.5 60 15:55 17.01.2020
4502 Clear -4 1008 78 16093 3.83 204 15:37 17.01.2020
4503 Clear -4 1008 78 16093 3.83 204 15:19 17.01.2020
4504 Clear -4 1008 85 16093 3.83 204 14:43 17.01.2020
4505 Clear -5 1009 73 16093 3.83 204 14:23 17.01.2020
4506 Clear -5 1009 73 16093 2.1 190 13:42 17.01.2020
4507 Clear -5 1010 73 16093 2.6 230 13:23 17.01.2020
4508 Clear -5 1008 62 16093 1.5 270 12:47 17.01.2020
4509 Clear -5 1011 79 16093 2.17 228 12:23 17.01.2020
4510 Clear -4 1008 54 16093 2.17 228 11:43 17.01.2020
4511 Clear -4 1011 79 16093 1.5 230 11:20 17.01.2020
4512 Clear -4 1009 54 16093 2.1 340 10:56 17.01.2020
4513 Clear -3 1009 54 16093 2.1 340 10:38 17.01.2020
4514 Clear -3 1012 73 16093 2.27 224 10:20 17.01.2020
4515 Clear -3 1010 50 16093 2.6 340 09:44 17.01.2020
4516 Clear -3 1013 68 16093 2.27 224 09:21 17.01.2020
4517 Clouds -2 1012 64 16093 2.6 340 08:58 17.01.2020
4518 Clouds -2 1012 64 16093 2.6 340 08:40 17.01.2020
4519 Clouds -2 1014 68 16093 2.5 213 08:21 17.01.2020
4520 Clouds -1 1015 58 16093 2.5 213 07:46 17.01.2020
4521 Clouds -1 1016 68 16093 2.5 213 07:28 17.01.2020
4522 Clouds -1 1016 63 16093 2.5 213 06:55 17.01.2020
4523 Clouds -1 1015 54 16093 2.1 10 06:35 17.01.2020
4524 Clear -1 1017 54 16093 1.75 227 04:32 17.01.2020
4525 Clear -1 1017 46 16093 1.75 227 03:19 17.01.2020
4526 Clouds -1 1018 54 16093 1.5 260 02:32 17.01.2020
4527 Clouds 0 1018 43 16093 2.1 70 01:44 17.01.2020
4528 Clouds 0 1018 43 16093 2.1 70 01:22 17.01.2020
4529 Clouds 1 1018 37 16093 2.6 10 00:37 17.01.2020
4530 Clear 2 1021 37 16093 1.59 193 00:00 17.01.2020
4531 Clear 2 1021 37 16093 1.59 193 23:41 16.01.2020
4532 Clear 2 1021 37 16093 1.59 193 23:22 16.01.2020
4533 Clear 2 1021 37 16093 1.5 20 22:41 16.01.2020
4534 Clear 2 1021 34 16093 1.23 134 22:21 16.01.2020
4535 Clear 2 1021 34 16093 1.5 20 21:57 16.01.2020
4536 Clear 2 1021 34 16093 1.5 20 21:57 16.01.2020
4537 Clouds 2 1019 37 16093 2.6 340 21:38 16.01.2020
4538 Clouds 2 1019 37 16093 2.6 340 21:19 16.01.2020
4539 Clear 2 1022 31 16093 1.5 10 20:57 16.01.2020
4540 Clear 2 1020 31 16093 1.23 134 20:38 16.01.2020
4541 Clear 1 1023 26 16093 3.79 177 20:18 16.01.2020
4542 Clear 1 1024 42 16093 2.6 30 19:55 16.01.2020
4543 Clear 0 1025 42 16093 3.1 360 19:37 16.01.2020
4544 Clear 0 1025 42 16093 3.1 360 19:18 16.01.2020
4545 Clear 0 1026 50 16093 3.1 20 18:55 16.01.2020
4546 Clear 1 1025 26 16093 3.79 177 18:36 16.01.2020
4547 Clear 1 1026 53 16093 2.1 20 18:36 16.01.2020
4548 Clear 0 1026 53 16093 2.1 20 18:18 16.01.2020
4549 Clear -1 1026 62 16093 2.1 10 17:41 16.01.2020
4550 Clear -1 1026 67 16093 3.79 177 17:41 16.01.2020
4551 Clear -3 1026 67 16093 3.79 177 17:22 16.01.2020
4552 Clear -4 1024 57 16093 4.21 201 16:57 16.01.2020
4553 Clear -5 1024 57 16093 4.21 201 16:38 16.01.2020
4554 Clear -6 1026 85 16093 4.21 201 16:19 16.01.2020
4555 Clear -6 1026 85 11265 4.21 201 15:44 16.01.2020
4556 Clear -6 1026 85 16093 4.21 201 15:22 16.01.2020
4557 Clear -6 1027 78 16093 4.21 201 14:56 16.01.2020
4558 Clear -6 1027 78 16093 4.21 201 14:37 16.01.2020
4559 Clear -6 1027 78 16093 3.67 190 14:19 16.01.2020
4560 Clear -6 1025 62 16093 3.67 190 13:44 16.01.2020
4561 Clear -6 1027 85 16093 3.84 191 13:25 16.01.2020
4562 Clear -5 1025 42 16093 7.2 190 12:46 16.01.2020
4563 Clear -5 1027 72 16093 3.84 191 12:28 16.01.2020
4564 Clear -5 1027 85 16093 3.84 191 11:57 16.01.2020
4565 Clear -5 1027 72 16093 3.84 191 11:39 16.01.2020
4566 Clear -5 1027 72 16093 2.64 168 11:21 16.01.2020
4567 Clear -4 1025 49 16093 4.1 320 10:39 16.01.2020
4568 Clear -4 1027 78 16093 2.64 168 10:21 16.01.2020
4569 Clear -4 1025 46 16093 2.1 10 09:58 16.01.2020
4570 Clear -4 1025 46 16093 2.1 10 09:40 16.01.2020
4571 Clear -4 1028 67 16093 2.64 168 09:21 16.01.2020
4572 Clear -4 1028 67 16093 2.64 168 08:52 16.01.2020
4573 Clear -4 1027 53 16093 5.7 190 08:34 16.01.2020
4574 Clear -4 1027 50 16093 2.1 190 07:59 16.01.2020
4575 Clear -4 1027 50 16093 2.1 190 07:39 16.01.2020
4576 Clear -4 1029 49 16093 1.5 220 07:20 16.01.2020
4577 Clear -4 1030 57 16093 2.6 230 06:43 16.01.2020
4578 Clear -3 1029 49 16093 2.1 240 06:21 16.01.2020
4579 Clear -3 1027 55 16093 6.2 330 05:45 16.01.2020
4580 Clear -3 1028 45 16093 2.6 310 04:40 16.01.2020
4581 Clear -3 1028 45 16093 2.6 310 04:40 16.01.2020
4582 Clear -1 1028 42 16093 4.1 340 03:28 16.01.2020
4583 Clear 0 1028 53 16093 5.7 340 02:43 16.01.2020
4584 Clear 1 1026 31 16093 7.2 340 01:24 16.01.2020
4585 Clear 4 1024 23 16093 4.6 360 00:24 16.01.2020
4586 Clear 5 1023 20 16093 7.2 10 23:51 15.01.2020
4587 Clear 6 1023 20 16093 6.2 30 23:23 15.01.2020
4588 Clear 6 1022 20 16093 6.2 40 22:59 15.01.2020
4589 Clear 6 1022 20 16093 4.1 60 22:41 15.01.2020
4590 Clear 7 1022 20 16093 4.1 60 22:20 15.01.2020
4591 Clear 7 1022 20 16093 4.1 60 22:20 15.01.2020
4592 Clear 6 1021 22 16093 4.1 90 21:58 15.01.2020
4593 Clear 7 1022 22 16093 3.6 60 21:40 15.01.2020
4594 Clear 6 1022 22 16093 3.6 60 21:21 15.01.2020
4595 Clear 6 1021 22 16093 3.6 60 20:58 15.01.2020
4596 Clear 6 1021 24 16093 3.1 40 20:40 15.01.2020
4597 Clear 5 1021 24 16093 3.1 40 20:21 15.01.2020
4598 Clear 5 1021 26 16093 2.6 100 19:56 15.01.2020
4599 Clear 5 1021 26 16093 2.6 100 19:55 15.01.2020
4600 Clear 5 1021 26 16093 2.6 100 19:55 15.01.2020
4601 Clear 5 1021 30 16093 3.6 30 19:37 15.01.2020
4602 Clear 4 1021 27 16093 3.6 120 19:19 15.01.2020
4603 Clear 4 1021 32 16093 3.6 140 18:57 15.01.2020
4604 Clear 3 1021 37 16093 5.1 140 18:38 15.01.2020
4605 Clear 2 1021 37 16093 5.1 140 18:20 15.01.2020
4606 Clear 2 1021 37 16093 5.1 140 18:20 15.01.2020
4607 Clear 2 1021 37 16093 5.1 140 18:20 15.01.2020
4608 Clear 1 1021 43 16093 4.6 170 17:58 15.01.2020
4609 Clear 1 1018 47 16093 3.1 130 17:40 15.01.2020
4610 Clear -1 1021 47 16093 4.1 160 17:21 15.01.2020
4611 Clear -3 1020 63 16093 2.6 200 16:42 15.01.2020
4612 Clear -4 1020 73 16093 2.1 190 16:24 15.01.2020
4613 Clouds -5 1018 79 16093 2.6 210 15:59 15.01.2020
4614 Clouds -6 1018 79 16093 2.6 210 15:41 15.01.2020
4615 Clear -6 1020 73 16093 1.5 230 15:20 15.01.2020
4616 Clear -6 1019 79 16093 2.1 220 14:44 15.01.2020
4617 Clear -6 1019 79 16093 0.83 241 14:21 15.01.2020
4618 Clear -6 1018 73 16093 1.5 170 13:56 15.01.2020
4619 Clear -5 1018 73 16093 2.1 170 13:38 15.01.2020
4620 Clear -5 1018 73 16093 2.1 170 13:20 15.01.2020
4621 Clear -5 1018 85 16093 1.5 200 12:54 15.01.2020
4622 Clear -5 1016 85 16093 4.1 190 12:36 15.01.2020
4623 Clear -5 1018 79 16093 1.78 216 12:18 15.01.2020
4624 Clear -4 1016 79 16093 4.1 180 11:38 15.01.2020
4625 Clear -4 1017 73 16093 1.5 190 11:20 15.01.2020
4626 Clear -4 1017 73 16093 3.1 200 10:47 15.01.2020
4627 Clear -4 1017 68 16093 2.6 200 10:28 15.01.2020
4628 Clear -3 1014 74 16093 2.6 140 09:57 15.01.2020
4629 Clear -3 1014 74 16093 2.6 140 09:57 15.01.2020
4630 Clear -3 1014 79 16093 4.1 130 09:38 15.01.2020
4631 Clear -2 1015 68 16093 2.6 210 09:19 15.01.2020
4632 Clear -2 1013 63 16093 4.1 90 08:44 15.01.2020
4633 Clear -1 1014 68 16093 4.1 100 08:24 15.01.2020
4634 Clouds 0 1014 45 16093 5.1 90 07:54 15.01.2020
4635 Clouds 0 1013 47 16093 4.07 203 07:33 15.01.2020
4636 Clouds 2 1013 46 16093 1.5 20 06:49 15.01.2020
4637 Clouds 2 1012 46 16093 4.07 203 06:26 15.01.2020
4638 Clouds 2 1011 25 16093 2.1 230 04:56 15.01.2020
4639 Clouds 3 1010 47 16093 3.2 220 02:48 15.01.2020
4640 Clear 6 1009 32 16093 2.1 110 01:47 15.01.2020
4641 Clear 7 1009 24 16093 4.81 213 01:20 15.01.2020
4642 Clear 9 1008 16 16093 2.1 110 00:37 15.01.2020
4643 Clear 9 1008 16 16093 2.1 110 00:19 15.01.2020
4644 Clear 10 1008 16 16093 1.5 40 23:46 14.01.2020
4645 Clear 11 1008 18 16093 2.6 40 23:24 14.01.2020
4646 Clear 12 1007 19 16093 3.1 20 22:54 14.01.2020
4647 Clear 11 1007 18 16093 2.1 30 22:36 14.01.2020
4648 Clear 11 1007 18 16093 2.1 30 22:18 14.01.2020
4649 Clear 11 1007 18 16093 2.1 30 22:18 14.01.2020
4650 Clouds 11 1006 16 32767 6.2 20 21:55 14.01.2020
4651 Clear 11 1008 19 16093 4.1 20 21:36 14.01.2020
4652 Clear 11 1008 19 16093 4.1 20 21:18 14.01.2020
4653 Clear 11 1008 19 16093 4.1 20 21:18 14.01.2020
4654 Clear 10 1009 22 16093 1.5 20 20:41 14.01.2020
4655 Clear 9 1008 12 16093 8.7 240 20:22 14.01.2020
4656 Clear 9 1011 26 16093 4.92 203 19:56 14.01.2020
4657 Clear 9 1011 26 16093 4.92 203 19:56 14.01.2020
4658 Clear 8 1008 24 16093 1.5 60 19:38 14.01.2020
4659 Clear 8 1011 30 16093 2.1 20 19:19 14.01.2020
4660 Clear 6 1012 37 16093 4.92 203 18:56 14.01.2020
4661 Clear 6 1010 30 16093 4.92 203 18:37 14.01.2020
4662 Clear 6 1010 30 16093 4.92 203 18:37 14.01.2020
4663 Clear 5 1011 22 16093 6.2 160 18:19 14.01.2020
4664 Clear 5 1011 22 16093 6.2 160 18:19 14.01.2020
4665 Clear 4 1010 22 16093 1.5 360 17:39 14.01.2020
4666 Clear 0 1013 50 16093 2.1 10 17:19 14.01.2020
4667 Clear 0 1013 62 16093 4.5 208 16:56 14.01.2020
4668 Clear -2 1012 63 11265 4.5 208 16:38 14.01.2020
4669 Clear -3 1013 67 16093 4.5 208 16:19 14.01.2020
4670 Clear -3 1013 67 16093 4.5 208 15:43 14.01.2020
4671 Clear -4 1013 72 16093 1.5 160 15:19 14.01.2020
4672 Clear -4 1014 72 16093 4.5 208 14:59 14.01.2020
4673 Clear -4 1014 78 16093 1.5 250 14:41 14.01.2020
4674 Clear -4 1014 78 16093 1.5 250 14:19 14.01.2020
4675 Clear -4 1012 49 16093 3.6 200 13:42 14.01.2020
4676 Clear -4 1014 72 16093 4.26 210 13:20 14.01.2020
4677 Clear -4 1012 33 16093 3.1 290 12:56 14.01.2020
4678 Clear -4 1012 33 16093 3.1 290 12:56 14.01.2020
4679 Clear -4 1012 33 16093 3.1 290 12:38 14.01.2020
4680 Clear -4 1014 67 16093 4.26 210 12:20 14.01.2020
4681 Clear -4 1013 39 16093 4.26 210 11:41 14.01.2020
4682 Clear -4 1015 57 16093 1.5 170 11:22 14.01.2020
4683 Clear -3 1015 57 16093 2.6 180 10:56 14.01.2020
4684 Clear -3 1013 36 16093 3.1 250 10:38 14.01.2020
4685 Clear -3 1015 57 16093 4.23 211 10:19 14.01.2020
4686 Clear -3 1015 62 16093 1.5 200 09:55 14.01.2020
4687 Clear -3 1013 40 16093 4.23 211 09:37 14.01.2020
4688 Clear -3 1015 62 16093 1.5 250 09:19 14.01.2020
4689 Clear -3 1015 57 16093 1.5 190 08:41 14.01.2020
4690 Clear -3 1015 53 16093 2.1 160 08:41 14.01.2020
4691 Clear -3 1015 57 16093 1.5 190 08:22 14.01.2020
4692 Clear -3 1015 49 16093 2.69 214 07:51 14.01.2020
4693 Clear -3 1015 49 16093 2.69 214 07:25 14.01.2020
4694 Clear -3 1013 45 16093 2.69 214 06:44 14.01.2020
4695 Clear -2 1012 45 16093 2.6 50 05:59 14.01.2020
4696 Clear -1 1014 44 16093 3.6 180 04:51 14.01.2020
4697 Clear -1 1014 25 16093 3.1 100 03:47 14.01.2020
4698 Clouds 0 1012 23 32767 5.7 150 02:39 14.01.2020
4699 Clear 2 1013 19 16093 3.6 280 01:21 14.01.2020
4700 Clear 3 1013 21 16093 3.1 260 00:48 14.01.2020
4701 Clear 4 1013 23 16093 3.6 250 00:22 14.01.2020
4702 Clear 4 1012 27 16093 5.1 250 23:44 13.01.2020
4703 Clouds 4 1012 44 16093 3.1 270 23:19 13.01.2020
4704 Clouds 4 1012 26 16093 6.7 270 22:57 13.01.2020
4705 Clouds 5 1010 44 16093 8.2 310 22:39 13.01.2020
4706 Clouds 5 1011 17 16093 7.7 260 22:19 13.01.2020
4707 Clear 5 1011 19 16093 4.6 300 21:55 13.01.2020
4708 Clouds 5 1008 22 32767 7.7 300 21:37 13.01.2020
4709 Clear 4 1010 20 16093 4.1 300 21:18 13.01.2020
4710 Clouds 4 1011 32 16093 1.5 180 20:56 13.01.2020
4711 Clouds 4 1011 31 16093 1.5 140 20:37 13.01.2020
4712 Clouds 3 1011 31 16093 1.5 140 20:19 13.01.2020
4713 Clouds 3 1011 34 16093 1.5 170 19:41 13.01.2020
4714 Clear 2 1011 30 16093 3.05 191 19:21 13.01.2020
4715 Clear 2 1012 42 16093 1.5 50 18:58 13.01.2020
4716 Clouds 1 1009 37 16093 1.5 60 18:38 13.01.2020
4717 Clear 0 1012 46 16093 3.05 191 18:19 13.01.2020
4718 Clear -1 1012 49 16093 3.05 191 17:58 13.01.2020
4719 Clear -1 1009 30 16093 3.05 191 17:39 13.01.2020
4720 Clear -2 1012 58 16093 3.45 213 17:20 13.01.2020
4721 Clear -4 1009 49 16093 3.45 213 16:42 13.01.2020
4722 Clouds -5 1009 62 16093 4.1 190 16:22 13.01.2020
4723 Clouds -6 1012 76 0 3.45 213 15:58 13.01.2020
4724 Clouds -6 1014 79 0 3.45 213 15:40 13.01.2020
4725 Clouds -6 1012 74 0 3.45 213 15:20 13.01.2020
4726 Clouds -6 1014 79 0 3.45 213 14:43 13.01.2020
4727 Clouds -6 1011 73 0 3.81 216 14:24 13.01.2020
4728 Clouds -6 1012 72 0 3.81 216 13:59 13.01.2020
4729 Clouds -6 1015 74 0 3.81 216 13:39 13.01.2020
4730 Clouds -6 1012 71 0 3.81 216 13:39 13.01.2020
4731 Clouds -5 1012 69 0 3.81 216 13:21 13.01.2020
4732 Clear -6 1009 53 16093 1.5 240 12:56 13.01.2020
4733 Clear -5 1009 53 16093 1.5 240 12:37 13.01.2020
4734 Clear -6 1009 53 16093 1.5 240 12:19 13.01.2020
4735 -273 0 0 0 0 0 12:19 13.01.2020
4736 Clear -6 1009 53 16093 1.5 240 12:19 13.01.2020
4737 Clear -6 1009 53 16093 1.5 240 11:39 13.01.2020
4738 Clear -6 1011 42 16093 2.6 220 11:20 13.01.2020
4739 Clear -5 1012 53 16093 1.5 130 10:57 13.01.2020
4740 Clear -6 1011 57 16093 4.6 190 10:39 13.01.2020
4741 Clear -6 1012 57 16093 3.76 220 10:20 13.01.2020
4742 Clear -5 1012 45 16093 2.1 240 09:56 13.01.2020
4743 Clear -6 1010 39 16093 2.6 170 09:38 13.01.2020
4744 Clear -5 1012 57 16093 4.1 210 09:19 13.01.2020
4745 Clear -5 1010 42 16093 3.1 250 08:39 13.01.2020
4746 Clear -5 1013 49 16093 3.6 210 08:20 13.01.2020
4747 Clear -5 1013 62 16093 3.76 218 07:46 13.01.2020
4748 Clear -5 1013 57 16093 3.76 218 07:27 13.01.2020
4749 Clear -4 1011 39 16093 2.6 270 06:40 13.01.2020
4750 Clear -4 1013 42 16093 2.6 210 06:19 13.01.2020
4751 Clear -3 1013 33 16093 3.1 250 05:22 13.01.2020
4752 Clear -2 1014 24 16093 4.6 280 03:52 13.01.2020
4753 Clear -1 1014 24 16093 7.2 280 03:22 13.01.2020
4754 Clear 0 1011 31 16093 4.6 210 02:39 13.01.2020
4755 Clear 0 1013 26 16093 4.1 260 02:18 13.01.2020
4756 Clear 3 1012 14 16093 10.3 250 00:59 13.01.2020
4757 Clear 4 1012 15 16093 11.3 260 00:40 13.01.2020
4758 Clear 4 1012 15 16093 11.3 260 00:21 13.01.2020
4759 Clouds 4 1011 13 16093 8.2 260 23:41 12.01.2020
4760 Clouds 5 1011 13 16093 8.2 260 23:23 12.01.2020
4761 Clear 5 1011 12 16093 8.7 270 22:57 12.01.2020
4762 Clear 5 1011 12 16093 6.7 240 22:39 12.01.2020
4763 Clear 5 1011 12 16093 6.7 240 22:20 12.01.2020
4764 Clear 5 1011 17 16093 7.2 280 21:55 12.01.2020
4765 Clear 5 1011 15 16093 7.2 270 21:37 12.01.2020
4766 Clear 5 1011 15 16093 7.2 270 21:19 12.01.2020
4767 Clear 5 1012 14 16093 9.8 290 20:55 12.01.2020
4768 Clear 5 1012 17 16093 6.2 270 20:37 12.01.2020
4769 Clear 4 1012 17 16093 6.2 270 20:19 12.01.2020
4770 Clear 4 1013 17 16093 7.2 260 19:55 12.01.2020
4771 Clear 4 1013 15 16093 7.7 270 19:36 12.01.2020
4772 Clear 4 1013 15 16093 7.7 270 19:18 12.01.2020
4773 Clear 3 1013 18 16093 5.1 250 18:56 12.01.2020
4774 Clear 2 1013 19 16093 3.07 228 18:38 12.01.2020
4775 Clear 2 1013 19 16093 3.07 228 18:19 12.01.2020
4776 Clear 1 1013 37 16093 3.07 228 17:42 12.01.2020
4777 Clear -1 1013 46 16093 4.3 216 17:21 12.01.2020
4778 Clear -3 1013 67 16093 2.6 210 16:58 12.01.2020
4779 Clear -4 1010 36 16093 4.3 216 16:38 12.01.2020
4780 Clear -6 1013 67 16093 4.3 216 16:20 12.01.2020
4781 Clear -6 1012 67 16093 2.6 210 15:55 12.01.2020
4782 Clear -7 1012 67 16093 2.6 210 15:55 12.01.2020
4783 Clear -7 1012 67 16093 4.3 216 15:36 12.01.2020
4784 Clear -7 1012 67 16093 4.3 216 15:18 12.01.2020
4785 Clear -7 1012 72 16093 2.1 210 14:42 12.01.2020
4786 -273 0 0 0 0 0 14:22 12.01.2020
4787 Clear -7 1011 72 16093 2.1 70 13:56 12.01.2020
4788 Clear -7 1009 49 16093 3.6 230 13:38 12.01.2020
4789 Clear -6 1011 72 16093 2.72 224 13:20 12.01.2020
4790 Clear -6 1011 72 16093 2.72 224 13:20 12.01.2020
4791 Clear -6 1011 72 16093 2.72 224 12:44 12.01.2020
4792 Clear -6 1011 72 16093 2.72 224 12:21 12.01.2020
4793 Clear -6 1011 67 16093 2.72 224 11:59 12.01.2020
4794 Clear -6 1008 73 16093 3.6 210 11:40 12.01.2020
4795 Clear -6 1011 67 16093 2.34 223 11:21 12.01.2020
4796 Clear -5 1010 49 16093 2.34 223 10:43 12.01.2020
4797 Clear -4 1010 49 16093 2.34 223 10:23 12.01.2020
4798 Clear -4 1010 53 16093 3.1 230 09:59 12.01.2020
4799 Clear -4 1010 53 16093 3.1 230 09:41 12.01.2020
4800 Clear -3 1009 49 16093 2.34 223 09:21 12.01.2020
4801 Clear -3 1008 61 16093 1.5 230 08:47 12.01.2020
4802 Clear -3 1010 49 16093 1.53 192 08:21 12.01.2020
4803 Clear -3 1010 49 16093 1.53 192 08:21 12.01.2020
4804 Clear -3 1010 27 16093 2.6 240 07:45 12.01.2020
4805 Clear -2 1010 31 16093 3.6 250 07:25 12.01.2020
4806 Clear -2 1011 29 16093 5.1 230 06:50 12.01.2020
4807 Clear -2 1011 29 16093 5.7 240 06:32 12.01.2020
4808 Clear -1 1009 49 16093 1.5 300 05:47 12.01.2020
4809 Clouds -1 1011 46 16093 1.36 284 04:52 12.01.2020
4810 Clouds 0 1010 37 16093 2.1 160 03:29 12.01.2020
4811 Clouds 1 1010 27 16093 1.5 310 02:34 12.01.2020
4812 Clouds 1 1010 27 16093 1.5 310 02:34 12.01.2020
4813 Clouds 2 1010 29 16093 3.1 350 01:58 12.01.2020
4814 Clouds 2 1009 29 16093 2.1 350 01:30 12.01.2020
4815 Clouds 2 1007 25 16093 0.84 262 00:44 12.01.2020
4816 Clear 2 1009 25 16093 3.6 290 00:21 12.01.2020
4817 Clear 2 1008 24 16093 6.7 280 23:55 11.01.2020
4818 Clear 2 1008 24 16093 9.8 270 23:37 11.01.2020
4819 Clear 4 1008 24 16093 9.8 270 23:18 11.01.2020
4820 Clear 5 1006 26 16093 6.2 260 22:42 11.01.2020
4821 Clear 5 1008 28 16093 6.2 300 22:21 11.01.2020
4822 Clear 5 1009 35 16093 2.6 10 21:59 11.01.2020
4823 Clear 5 1009 35 16093 2.6 10 21:41 11.01.2020
4824 Clear 5 1009 34 16093 4.1 20 21:18 11.01.2020
4825 Clear 4 1010 37 16093 3.6 30 20:55 11.01.2020
4826 Clear 4 1010 43 16093 1.5 40 20:36 11.01.2020
4827 Clear 2 1010 43 16093 1.5 40 20:18 11.01.2020
4828 Clear 1 1011 50 16093 1.5 310 19:54 11.01.2020
4829 Clear 0 1012 54 16093 1.58 202 19:36 11.01.2020
4830 Clear 0 1012 54 16093 1.58 202 19:18 11.01.2020
4831 Clear -2 1010 58 16093 1.58 202 18:39 11.01.2020
4832 Clear -4 1012 73 16093 1.5 160 18:20 11.01.2020
4833 Clear -5 1013 85 16093 1.58 202 17:58 11.01.2020
4834 Clear -5 1011 79 16093 1.58 202 17:40 11.01.2020
4835 Clear -5 1011 79 16093 1.58 202 17:40 11.01.2020
4836 Clear -7 1014 85 16093 1.5 270 17:20 11.01.2020
4837 Clear -8 1014 92 16093 1.5 360 16:46 11.01.2020
4838 Clear -9 1014 85 16093 2.6 30 16:28 11.01.2020
4839 Clear -10 1014 85 16093 2.87 219 15:59 11.01.2020
4840 Clear -10 1011 85 16093 2.87 219 15:41 11.01.2020
4841 Clear -10 1014 85 16093 2.87 219 15:22 11.01.2020
4842 Clear -10 1014 85 16093 2.87 219 15:22 11.01.2020
4843 Clear -10 1014 85 16093 2.87 219 14:58 11.01.2020
4844 Clear -11 1012 78 16093 2.1 270 14:39 11.01.2020
4845 Clear -11 1014 85 16093 3.34 202 14:21 11.01.2020
4846 Clear -11 1013 85 16093 3.34 202 13:41 11.01.2020
4847 Clear -11 1013 85 16093 3.58 203 13:21 11.01.2020
4848 Clear -11 1014 85 16093 3.58 203 12:59 11.01.2020
4849 Clear -11 1014 85 16093 3.58 203 12:41 11.01.2020
4850 Clear -11 1014 92 16093 3.58 203 12:23 11.01.2020
4851 Clear -11 1015 85 16093 3.58 203 11:48 11.01.2020
4852 Clear -11 1015 85 16093 3.58 203 11:26 11.01.2020
4853 Clear -11 1016 85 16093 3.11 207 10:51 11.01.2020
4854 Clear -11 1017 85 16093 3.11 207 10:30 11.01.2020
4855 Clear -11 1017 85 16093 3.11 207 09:58 11.01.2020
4856 Clear -11 1015 72 16093 3.6 160 09:38 11.01.2020
4857 Clear -11 1018 92 16093 3.11 207 09:20 11.01.2020
4858 Clear -10 1019 85 16093 3.11 207 08:42 11.01.2020
4859 Clear -11 1020 85 16093 2.12 184 08:21 11.01.2020
4860 Clear -11 1020 78 16093 2.12 184 07:44 11.01.2020
4861 Clear -11 1020 85 16093 2.12 184 07:25 11.01.2020
4862 Clear -10 1020 92 16093 1.5 200 06:50 11.01.2020
4863 Clear -10 1018 73 16093 2.12 184 05:40 11.01.2020
4864 Clear -9 1021 72 16093 1.58 81 04:46 11.01.2020
4865 Clear -9 1021 72 16093 1.58 81 04:27 11.01.2020
4866 Clear -7 1021 67 16093 1.58 81 02:49 11.01.2020
4867 Clear -7 1021 67 16093 2.1 120 02:20 11.01.2020
4868 Clear -6 1021 53 16093 2.1 100 01:42 11.01.2020
4869 Clear -5 1021 53 16093 2.1 100 01:18 11.01.2020
4870 Clear -4 1021 46 16093 4.1 100 00:38 11.01.2020
4871 Clear -3 1021 42 16093 4.1 90 23:59 10.01.2020
4872 Clear -3 1019 59 16093 2.6 80 23:40 10.01.2020
4873 Clear -2 1019 59 16093 2.6 80 23:40 10.01.2020
4874 Clear -2 1021 46 16093 3.6 100 23:21 10.01.2020
4875 Clear -2 1020 46 16093 4.1 90 22:56 10.01.2020
4876 Clear -2 1020 46 16093 4.1 80 22:38 10.01.2020
4877 Clear -1 1020 46 16093 4.1 80 22:19 10.01.2020
4878 Clear -1 1020 46 16093 3.1 70 21:55 10.01.2020
4879 Clear -1 1020 46 16093 4.1 70 21:36 10.01.2020
4880 Clear -1 1020 46 16093 4.1 70 21:18 10.01.2020
4881 Clear -1 1020 46 16093 4.1 60 20:42 10.01.2020
4882 Clear -1 1020 46 16093 4.1 50 20:24 10.01.2020
4883 Clear -1 1020 50 16093 4.6 80 19:54 10.01.2020
4884 Clear -1 1020 61 16093 5.7 50 19:36 10.01.2020
4885 Clear -1 1020 61 16093 5.7 50 19:18 10.01.2020
4886 Clouds -1 1018 61 16093 3.6 90 18:41 10.01.2020
4887 Clouds -1 1020 61 16093 3.6 50 18:19 10.01.2020
4888 Clouds -1 1019 61 16093 2.6 100 17:57 10.01.2020
4889 Clouds -2 1019 68 16093 1.5 90 17:38 10.01.2020
4890 Clouds -2 1019 68 16093 1.5 90 17:20 10.01.2020
4891 Clouds -2 1019 68 16093 1.5 90 17:20 10.01.2020
4892 Clouds -3 1018 85 16093 1.81 333 16:55 10.01.2020
4893 Clouds -4 1018 85 16093 1.81 333 16:37 10.01.2020
4894 Clouds -4 1018 85 16093 1.81 333 16:19 10.01.2020
4895 Clouds -5 1016 85 16093 1.5 210 15:55 10.01.2020
4896 Clouds -5 1016 85 16093 1.81 333 15:36 10.01.2020
4897 Clouds -5 1016 85 16093 1.81 333 15:18 10.01.2020
4898 Clear -5 1016 92 16093 1.81 333 14:42 10.01.2020
4899 Clear -5 1015 85 16093 0.62 263 14:20 10.01.2020
4900 Clear -5 1015 92 16093 1.5 260 13:59 10.01.2020
4901 Clear -5 1015 92 16093 1.5 260 13:41 10.01.2020
4902 Clear -5 1014 92 16093 0.62 263 13:23 10.01.2020
4903 Clear -5 1011 79 16093 4.1 10 12:58 10.01.2020
4904 Clear -4 1011 85 16093 3.1 280 12:38 10.01.2020
4905 Clear -4 1013 85 16093 1.02 248 12:19 10.01.2020
4906 Clear -4 1011 79 16093 3.1 350 11:54 10.01.2020
4907 Clouds -4 1013 85 16093 1.02 248 11:36 10.01.2020
4908 Clouds -4 1013 85 16093 1.45 348 11:18 10.01.2020
4909 Clouds -4 1011 74 16093 3.1 320 10:42 10.01.2020
4910 Clouds -3 1013 73 16093 1.45 348 10:24 10.01.2020
4911 Clouds -3 1010 68 16093 4.6 340 09:56 10.01.2020
4912 Clouds -3 1012 63 16093 1.45 348 09:37 10.01.2020
4913 Clouds -3 1012 63 16093 1.45 348 09:19 10.01.2020
4914 Clear -2 1012 74 16093 2.6 10 08:41 10.01.2020
4915 Clear -2 1012 74 16093 0.42 119 08:22 10.01.2020
4916 Clouds -1 1012 61 16093 1.5 220 07:44 10.01.2020
4917 Clouds -1 1012 58 16093 0.42 119 07:24 10.01.2020
4918 Clouds -1 1010 100 12874 1.5 300 06:45 10.01.2020
4919 Clouds 0 1011 61 16093 0.42 119 06:25 10.01.2020
4920 Snow 0 1010 61 6437 2.1 250 05:46 10.01.2020
4921 Clouds 2 1011 43 16093 1.5 360 03:35 10.01.2020
4922 Clouds 2 1011 37 16093 2.6 320 02:59 10.01.2020
4923 Clouds 2 1009 40 16093 2.1 290 02:38 10.01.2020
4924 Clouds 3 1011 29 16093 1.5 110 01:38 10.01.2020
4925 Clouds 3 1008 37 16093 6.7 130 01:19 10.01.2020
4926 Clouds 4 1008 32 16093 3.1 70 00:39 10.01.2020
4927 Clouds 5 1009 26 16093 5.7 100 23:58 09.01.2020
4928 Clouds 5 1009 30 16093 3.6 90 23:38 09.01.2020
4929 Clouds 5 1009 26 16093 6.2 120 23:20 09.01.2020
4930 Clouds 6 1008 22 16093 5.1 110 22:57 09.01.2020
4931 Clouds 6 1008 22 16093 5.1 100 22:37 09.01.2020
4932 Clouds 6 1008 22 16093 5.1 100 22:19 09.01.2020
4933 Clear 6 1008 24 16093 6.7 110 21:56 09.01.2020
4934 Clear 6 1008 22 16093 6.7 110 21:37 09.01.2020
4935 Clear 6 1008 22 16093 6.7 110 21:37 09.01.2020
4936 Clear 6 1008 22 16093 6.7 110 21:37 09.01.2020
4937 Clear 6 1008 22 16093 6.7 110 21:18 09.01.2020
4938 Clear 6 1008 20 16093 5.7 130 20:56 09.01.2020
4939 Clear 6 1006 20 16093 5.1 260 20:38 09.01.2020
4940 Clear 5 1008 23 16093 6.2 90 20:19 09.01.2020
4941 Clouds 5 1008 22 16093 4.1 160 19:56 09.01.2020
4942 Clear 4 1010 24 16093 5.1 120 19:37 09.01.2020
4943 Clouds 4 1009 32 16093 4.6 110 19:18 09.01.2020
4944 Clouds 4 1009 32 16093 4.6 110 18:54 09.01.2020
4945 Clear 3 1011 27 16093 3.6 150 18:36 09.01.2020
4946 Clear 3 1010 30 16093 5.7 130 18:18 09.01.2020
4947 Clear 2 1011 37 16093 6.7 130 17:41 09.01.2020
4948 Clear 1 1011 43 16093 5.7 120 17:18 09.01.2020
4949 Clear 1 1011 43 16093 5.7 120 17:18 09.01.2020
4950 Clear 0 1010 50 16093 5.7 110 16:47 09.01.2020
4951 Clear -2 1010 54 16093 1.5 190 16:23 09.01.2020
4952 Clear -2 1009 50 16093 1.5 270 16:23 09.01.2020
4953 Clouds -2 1008 46 16093 4.1 150 15:56 09.01.2020
4954 Clouds -2 1008 46 16093 4.1 150 15:56 09.01.2020
4955 Clouds -2 1008 46 16093 4.1 150 15:56 09.01.2020
4956 Clear -2 1009 54 16093 1.5 80 15:38 09.01.2020
4957 Clear -2 1007 50 16093 3.6 160 15:18 09.01.2020
4958 Clear -2 1008 50 16093 2.1 90 14:41 09.01.2020
4959 Clear -2 1007 52 16093 3.1 70 14:21 09.01.2020
4960 Clouds -2 1006 50 16093 4.1 150 13:57 09.01.2020
4961 Clear -2 1007 52 16093 4.6 90 13:39 09.01.2020
4962 Clear -2 1006 40 16093 5.7 120 13:20 09.01.2020
4963 Clear -2 1005 31 16093 6.2 230 12:58 09.01.2020
4964 Clear -2 1005 31 16093 6.2 230 12:58 09.01.2020
4965 Clear -2 1005 51 16093 2.6 230 12:38 09.01.2020
4966 Clear -2 1007 51 16093 2.83 207 12:19 09.01.2020
4967 Clear -1 1007 34 16093 3.6 240 11:43 09.01.2020
4968 Clear -1 1005 34 16093 5.7 290 11:25 09.01.2020
4969 Clouds -1 1005 46 16093 3.6 340 10:59 09.01.2020
4970 Clear -1 1007 29 16093 5.7 310 10:41 09.01.2020
4971 Clear 0 1005 34 16093 8.7 280 10:22 09.01.2020
4972 Clear 0 1005 34 16093 8.7 280 10:22 09.01.2020
4973 Clear 0 1005 47 16093 2.1 240 09:49 09.01.2020
4974 Clear 0 1004 40 16093 8.2 250 09:26 09.01.2020
4975 Clear 1 1004 34 16093 9.3 250 08:59 09.01.2020
4976 Clear 1 1006 47 16093 2.6 180 08:40 09.01.2020
4977 Clouds 1 1004 29 16093 4.1 260 08:22 09.01.2020
4978 Clouds 1 1004 29 16093 4.1 260 07:57 09.01.2020
4979 Clear 2 1006 35 16093 4.6 250 07:38 09.01.2020
4980 Clouds 2 1005 38 16093 1.5 290 07:19 09.01.2020
4981 Clear 2 1006 32 16093 7.2 250 06:38 09.01.2020
4982 Clear 2 1003 34 16093 3.6 210 06:18 09.01.2020
4983 Clear 3 1004 28 16093 7.7 280 05:40 09.01.2020
4984 Clear 3 1003 22 16093 10.3 280 04:42 09.01.2020
4985 Clear 5 1001 20 16093 7.2 260 03:28 09.01.2020
4986 Clear 6 1003 24 16093 3.88 221 02:47 09.01.2020
4987 Clouds 7 1002 20 16093 5.1 210 01:53 09.01.2020
4988 Clouds 8 1001 41 16093 1.5 80 01:33 09.01.2020
4989 Clear 10 1002 25 16093 3.49 206 00:39 09.01.2020
4990 Clear 11 1001 11 16093 2.1 290 00:19 09.01.2020
4991 Clear 13 1002 19 16093 3.1 30 23:41 08.01.2020
4992 Clear 13 1002 17 16093 3.1 10 23:23 08.01.2020
4993 Clouds 13 1001 11 16093 8.2 220 22:56 08.01.2020
4994 Clear 13 1002 17 16093 2.6 350 22:38 08.01.2020
4995 Clear 13 1001 15 16093 1.5 70 22:19 08.01.2020
4996 Clouds 13 1002 14 32767 2.1 0 21:55 08.01.2020
4997 Clear 14 1003 20 16093 1.5 20 21:37 08.01.2020
4998 Clear 14 1004 22 16093 4.1 340 21:18 08.01.2020
4999 Clouds 13 1002 11 16093 7.2 210 20:55 08.01.2020
5000 Clear 13 1004 19 16093 2.6 350 20:37 08.01.2020
5001 Clear 10 1004 23 16093 5.98 198 20:18 08.01.2020
5002 Clear 10 1006 26 16093 5.98 198 19:39 08.01.2020
5003 Clear 8 1007 35 16093 5.98 198 19:20 08.01.2020
5004 Clouds 9 1005 15 16093 6.7 210 18:58 08.01.2020
5005 Clear 9 1008 44 16093 2.1 340 18:39 08.01.2020
5006 Clear 8 1009 44 16093 4.1 20 18:19 08.01.2020
5007 Clouds 8 1007 21 16093 4.1 200 17:57 08.01.2020
5008 Clear 6 1009 44 16093 1.5 110 17:39 08.01.2020
5009 Clear 3 1007 44 16093 1.5 210 17:20 08.01.2020
5010 Clouds 2 1008 32 32767 2.1 230 16:57 08.01.2020
5011 Clouds 2 1008 32 32767 2.1 230 16:57 08.01.2020
5012 Clear 1 1008 39 16093 1.5 50 16:38 08.01.2020
5013 Clouds 0 1009 30 16093 2.1 0 16:19 08.01.2020
5014 Clear -1 1011 68 16093 2.1 270 15:45 08.01.2020
5015 Clear -1 1009 40 16093 5.57 215 15:22 08.01.2020
5016 Clouds 0 1010 37 16093 1.5 130 14:59 08.01.2020
5017 Clear -1 1012 50 16093 5.57 215 14:40 08.01.2020
5018 Clouds 0 1011 32 16093 4.6 210 14:21 08.01.2020
5019 Clear 0 1013 58 16093 1.5 190 13:42 08.01.2020
5020 Clouds 0 1012 34 16093 5.1 200 13:22 08.01.2020
5021 Clouds 0 1012 34 16093 2.1 0 12:55 08.01.2020
5022 Clear 1 1014 47 16093 1.5 60 12:37 08.01.2020
5023 Clear 1 1013 47 16093 5.02 219 12:18 08.01.2020
5024 Clear 1 1015 40 16093 1.5 210 11:48 08.01.2020
5025 Clear 0 1014 51 16093 2.1 270 11:19 08.01.2020
5026 Clouds 0 1014 37 16093 2.6 140 10:59 08.01.2020
5027 Clear 0 1016 58 16093 2.1 170 10:40 08.01.2020
5028 Clear 1 1015 34 16093 3.6 180 10:21 08.01.2020
5029 Clear 1 1016 51 16093 4.32 220 09:43 08.01.2020
5030 Clouds 1 1016 43 16093 4.1 130 09:20 08.01.2020
5031 Clouds 1 1016 43 16093 4.1 130 08:59 08.01.2020
5032 Clear 1 1017 40 16093 3.1 200 08:41 08.01.2020
5033 Clear 1 1016 47 16093 2.1 340 08:22 08.01.2020
5034 Clouds 1 1016 30 16093 6.7 240 07:58 08.01.2020
5035 Clear 1 1018 43 16093 2.6 200 07:39 08.01.2020
5036 Clear 1 1018 47 16093 4.78 220 07:18 08.01.2020
5037 Clear 1 1019 55 16093 1.5 200 06:41 08.01.2020
5038 Clouds 2 1018 34 16093 3.6 250 05:56 08.01.2020
5039 Clear 2 1019 30 16093 1.5 290 05:26 08.01.2020
5040 Clear 3 1020 47 16093 3.62 219 04:36 08.01.2020
5041 Clear 5 1021 20 16093 3.62 219 02:46 08.01.2020
5042 Clear 6 1019 21 16093 2.6 250 02:28 08.01.2020
5043 Clouds 7 1020 20 16093 2.6 270 01:56 08.01.2020
5044 Clouds 8 1019 23 16093 2.6 350 01:30 08.01.2020
5045 Clouds 10 1020 18 16093 5.1 300 00:51 08.01.2020
5046 Clear 11 1020 15 16093 4.6 250 00:22 08.01.2020
5047 Clear 13 1021 12 16093 8.7 240 23:46 07.01.2020
5048 Clouds 13 1020 15 16093 10.3 260 23:21 07.01.2020
5049 Clear 13 1021 14 16093 8.2 330 22:41 07.01.2020
5050 Clear 13 1020 17 16093 6.2 250 22:21 07.01.2020
5051 Clouds 13 1020 15 16093 4.1 220 21:59 07.01.2020
5052 Clouds 13 1020 15 16093 4.1 220 21:59 07.01.2020
5053 Clear 13 1021 15 16093 11.3 260 21:41 07.01.2020
5054 Clear 13 1020 18 16093 6.2 230 21:21 07.01.2020
5055 Clouds 13 1020 17 16093 3.71 203 20:57 07.01.2020
5056 Clear 13 1022 14 16093 7.2 260 20:39 07.01.2020
5057 Clear 13 1022 14 16093 7.2 260 20:39 07.01.2020
5058 Clouds 13 1022 20 16093 3.6 170 20:21 07.01.2020
5059 Clouds 12 1022 20 16093 3.6 170 19:56 07.01.2020
5060 Clear 12 1023 16 16093 1.5 170 19:37 07.01.2020
5061 Clouds 11 1023 25 16093 3.1 170 19:18 07.01.2020
5062 Clouds 10 1023 25 16093 3.1 170 18:55 07.01.2020
5063 Clear 9 1024 18 16093 4.6 180 18:37 07.01.2020
5064 Clouds 8 1023 33 16093 3.1 110 18:18 07.01.2020
5065 Clouds 8 1023 33 16093 3.1 110 18:18 07.01.2020
5066 Clouds 8 1023 33 16093 3.1 110 18:18 07.01.2020
5067 Clear 6 1024 21 16093 1.5 250 17:41 07.01.2020
5068 Clouds 4 1024 38 16093 3.1 110 17:22 07.01.2020
5069 Clouds 3 1024 38 16093 3.1 110 16:58 07.01.2020
5070 Clear 3 1024 44 16093 2.6 230 16:38 07.01.2020
5071 Clear 2 1024 54 16093 4.27 206 16:19 07.01.2020
5072 Clouds 1 1021 28 16093 16.5 290 15:59 07.01.2020
5073 Clear 2 1023 58 16093 4.27 206 15:40 07.01.2020
5074 Clear 2 1022 26 16093 3.1 240 15:22 07.01.2020
5075 Clouds 1 1022 43 16093 4.6 160 14:55 07.01.2020
5076 Clear 1 1023 47 16093 4.27 206 14:37 07.01.2020
5077 Clear 2 1021 26 16093 5.7 270 14:18 07.01.2020
5078 Clear 2 1022 27 16093 1.5 160 13:40 07.01.2020
5079 Clear 2 1022 34 16093 4.6 100 13:19 07.01.2020
5080 Clear 2 1021 26 16093 2.1 260 12:42 07.01.2020
5081 Clear 2 1021 26 16093 2.1 260 12:42 07.01.2020
5082 Clouds 2 1021 40 16093 3.1 350 12:21 07.01.2020
5083 Clouds 2 1021 40 16093 3.1 350 11:58 07.01.2020
5084 Clear 3 1022 24 16093 1.5 50 11:38 07.01.2020
5085 Clouds 3 1021 37 16093 4.3 207 11:20 07.01.2020
5086 Clear 2 1021 22 16093 13.4 280 10:42 07.01.2020
5087 Clear 2 1020 30 16093 21.1 280 10:24 07.01.2020
5088 Clouds 2 1021 42 16093 2.1 70 09:59 07.01.2020
5089 Clear 3 1021 22 16093 8.7 300 09:38 07.01.2020
5090 Clouds 3 1020 26 16093 11.8 270 09:20 07.01.2020
5091 Clear 2 1023 20 16093 4.1 300 08:46 07.01.2020
5092 Clouds 0 1021 37 16093 2.1 140 08:26 07.01.2020
5093 Clouds 0 1021 37 16093 2.1 140 07:54 07.01.2020
5094 Clear 0 1020 22 16093 15.4 300 07:28 07.01.2020
5095 Clouds 1 1022 34 16093 2.6 180 06:54 07.01.2020
5096 Clear 1 1023 22 16093 6.7 260 06:34 07.01.2020
5097 Clouds 1 1022 34 16093 4.1 250 05:55 07.01.2020
5098 Clear -1 1024 31 16093 2.6 120 04:41 07.01.2020
5099 Clear -1 1024 31 16093 2.6 120 04:41 07.01.2020
5100 Clear -1 1022 31 16093 2.6 120 03:29 07.01.2020
5101 Clear 1 1023 23 16093 6.7 270 02:22 07.01.2020
5102 Clouds 1 1023 27 16093 8.7 260 01:54 07.01.2020
5103 Clear 2 1025 27 16093 3.1 290 01:30 07.01.2020
5104 Clear 2 1025 21 16093 3.1 290 00:37 07.01.2020
5105 Clear 3 1024 20 16093 8.7 290 00:18 07.01.2020
5106 Clouds 3 1024 21 16093 5.7 300 23:55 06.01.2020
5107 Clear 4 1025 18 16093 8.7 290 23:36 06.01.2020
5108 Clear 5 1025 17 16093 8.7 290 23:18 06.01.2020
5109 Clear 5 1025 18 16093 9.8 290 22:42 06.01.2020
5110 Clear 5 1025 16 16093 8.2 300 22:22 06.01.2020
5111 Clouds 5 1022 18 16093 11.8 320 21:56 06.01.2020
5112 Clear 5 1024 16 16093 9.8 270 21:38 06.01.2020
5113 Clouds 5 1022 18 16093 9.3 320 21:19 06.01.2020
5114 Clouds 5 1022 18 16093 9.3 320 20:56 06.01.2020
5115 Clear 5 1022 21 16093 6.7 280 20:37 06.01.2020
5116 Clear 5 1025 17 16093 9.3 300 20:19 06.01.2020
5117 Clouds 4 1022 21 16093 9.8 310 19:55 06.01.2020
5118 Clear 4 1025 15 16093 11.8 300 19:37 06.01.2020
5119 Clear 4 1023 16 16093 7.2 280 19:18 06.01.2020
5120 Clouds 3 1025 18 16093 9.8 300 18:45 06.01.2020
5121 Clouds 2 1023 25 16093 6.7 310 18:21 06.01.2020
5122 Clouds 1 1024 21 16093 11.3 300 17:40 06.01.2020
5123 Clouds 1 1023 29 16093 7.2 330 17:20 06.01.2020
5124 Clouds 1 1023 29 16093 7.2 330 17:20 06.01.2020
5125 Clouds 0 1023 29 16093 7.2 330 16:59 06.01.2020
5126 Clear 0 1024 23 16093 5.1 320 16:41 06.01.2020
5127 Clear -2 1024 53 16093 1.5 360 16:23 06.01.2020
5128 Clouds -2 1022 53 16093 4.1 260 15:59 06.01.2020
5129 Clouds -3 1023 53 16093 3.6 270 15:37 06.01.2020
5130 Clouds -3 1021 42 16093 2.6 240 15:18 06.01.2020
5131 Clouds -3 1021 42 16093 2.6 240 15:18 06.01.2020
5132 Clear -2 1023 27 16093 6.7 310 14:42 06.01.2020
5133 Clouds -2 1021 57 16093 6.2 330 14:22 06.01.2020
5134 Clouds -2 1021 57 16093 6.2 330 14:22 06.01.2020
5135 Clear -2 1022 33 16093 4.6 280 13:59 06.01.2020
5136 Clear -1 1023 33 16093 2.6 270 13:39 06.01.2020
5137 Clear -1 1022 31 16093 3.1 280 13:21 06.01.2020
5138 Clear -1 1021 57 16093 8.7 300 12:56 06.01.2020
5139 Clear -1 1023 29 16093 8.2 290 12:37 06.01.2020
5140 Clear -1 1022 27 16093 11.3 270 12:19 06.01.2020
5141 Clear -1 1022 27 16093 11.3 270 12:19 06.01.2020
5142 Clear -1 1023 26 16093 5.7 300 11:42 06.01.2020
5143 Clear -1 1020 63 16093 16.5 270 11:24 06.01.2020
5144 Clouds -1 1020 31 16093 9.8 300 10:59 06.01.2020
5145 Clear -1 1023 29 16093 6.7 290 10:40 06.01.2020
5146 Clear -1 1022 29 16093 3.1 300 10:20 06.01.2020
5147 Clear -2 1022 27 16093 1.5 260 09:39 06.01.2020
5148 Clear -2 1020 29 16093 3.6 280 09:20 06.01.2020
5149 Clouds -3 1020 68 16093 2.6 80 08:52 06.01.2020
5150 Clear -3 1022 54 16093 2.02 183 08:34 06.01.2020
5151 Clear -4 1022 63 16093 2.1 110 07:57 06.01.2020
5152 Clear -4 1022 63 16093 2.1 110 07:37 06.01.2020
5153 Clouds -3 1022 63 16093 1.5 140 06:47 06.01.2020
5154 Clouds -3 1020 66 16093 4.1 320 06:27 06.01.2020
5155 Clear -3 1022 68 16093 1.93 229 05:48 06.01.2020
5156 Clouds -3 1019 68 16093 2.1 180 04:53 06.01.2020
5157 Clouds -3 1021 63 16093 3.6 330 04:20 06.01.2020
5158 Clouds -2 1019 54 16093 0.81 210 02:58 06.01.2020
5159 Clear -1 1020 74 16093 2.1 340 02:24 06.01.2020
5160 Clear 0 1022 54 16093 3.6 360 01:45 06.01.2020
5161 Clouds 0 1019 50 16093 3.6 290 01:27 06.01.2020
5162 Clear 1 1022 40 16093 4.6 350 00:44 06.01.2020
5163 Clear 3 1021 35 16093 2.1 30 00:23 06.01.2020
5164 Clear 3 1022 32 16093 4.6 10 23:43 05.01.2020
5165 Clear 4 1021 40 16093 3.1 60 23:23 05.01.2020
5166 Clouds 4 1019 35 16093 4.6 280 22:58 05.01.2020
5167 Clear 4 1023 35 16093 3.6 40 22:39 05.01.2020
5168 Clear 4 1021 35 16093 3.1 90 22:20 05.01.2020
5169 Clouds 4 1019 33 16093 4.6 240 21:55 05.01.2020
5170 Clear 5 1023 32 16093 5.7 110 21:37 05.01.2020
5171 Clear 4 1023 33 16093 3.1 130 21:19 05.01.2020
5172 Clouds 4 1021 33 16093 3.6 300 20:55 05.01.2020
5173 Clear 5 1025 38 16093 4.1 130 20:37 05.01.2020
5174 Clear 4 1024 30 16093 3.1 130 20:19 05.01.2020
5175 Clouds 4 1024 35 32186 5.7 80 19:56 05.01.2020
5176 Clear 4 1027 30 16093 5.7 100 19:37 05.01.2020
5177 Clear 4 1028 30 16093 2.6 110 19:18 05.01.2020
5178 Clouds 3 1024 35 16093 8.7 160 18:54 05.01.2020
5179 Clear 3 1028 35 16093 4.1 140 18:36 05.01.2020
5180 Clouds 3 1026 43 16093 5.1 110 18:18 05.01.2020
5181 Clear 2 1029 40 16093 6.2 150 17:55 05.01.2020
5182 Clouds 2 1026 43 16093 5.1 110 17:55 05.01.2020
5183 Clear 2 1029 40 16093 6.2 150 17:37 05.01.2020
5184 Clear 1 1027 44 16093 3.1 170 17:18 05.01.2020
5185 Clear 0 1028 67 16093 2.1 180 16:54 05.01.2020
5186 Clear 0 1028 67 16093 2.1 180 16:36 05.01.2020
5187 Clear -1 1028 58 16093 3.1 200 16:18 05.01.2020
5188 Clear -2 1027 58 16093 2.6 190 15:36 05.01.2020
5189 Clear -2 1027 67 16093 3.1 140 15:18 05.01.2020
5190 Clear -1 1027 67 16093 2.6 130 14:54 05.01.2020
5191 Clear -1 1027 67 16093 2.6 130 14:36 05.01.2020
5192 Clear -1 1025 50 16093 2.6 90 14:18 05.01.2020
5193 Clear -1 1026 37 16093 1.5 80 13:39 05.01.2020
5194 Clear -1 1024 54 16093 4.6 240 13:21 05.01.2020
5195 Clear -1 1024 54 16093 4.6 240 12:57 05.01.2020
5196 Clear -1 1024 54 16093 4.6 240 12:57 05.01.2020
5197 Clear -1 1026 26 16093 3.1 250 12:38 05.01.2020
5198 Clear -1 1024 47 16093 3.1 350 12:20 05.01.2020
5199 Clear 0 1024 47 16093 3.1 350 11:55 05.01.2020
5200 Clear 1 1026 30 16093 2.6 340 11:37 05.01.2020
5201 Clear 1 1026 30 16093 2.6 340 11:37 05.01.2020
5202 Clear 3 1025 28 16093 2.66 203 11:19 05.01.2020
5203 Clear 3 1025 28 16093 2.66 203 11:19 05.01.2020
5204 Clear 3 1025 28 16093 2.66 203 11:19 05.01.2020
5205 Clear 3 1025 26 16093 6.2 320 10:42 05.01.2020
5206 Clear 4 1025 26 16093 3.6 290 10:20 05.01.2020
5207 Clear 4 1024 30 16093 7.2 340 09:59 05.01.2020
5208 Clear 4 1024 26 16093 7.2 310 09:41 05.01.2020
5209 Clear 3 1024 26 16093 7.2 310 09:41 05.01.2020
5210 Clear 4 1023 26 16093 15.9 290 09:21 05.01.2020
5211 Clear 4 1022 26 16093 13.4 280 08:45 05.01.2020
5212 Clear 5 1020 26 16093 22.6 280 08:25 05.01.2020
5213 Clear 6 1019 26 16093 22.6 280 07:50 05.01.2020
5214 Clear 6 1019 26 16093 21.1 270 07:29 05.01.2020
5215 Clear 7 1021 35 16093 4.6 240 06:56 05.01.2020
5216 Clear 8 1021 24 16093 7.7 260 05:52 05.01.2020
5217 Clear 8 1020 24 16093 6.7 280 04:57 05.01.2020
5218 Clear 9 1020 23 16093 7.7 250 04:19 05.01.2020
5219 Clear 9 1020 20 16093 10.8 290 03:45 05.01.2020
5220 Clear 8 1019 17 16093 2.1 300 02:41 05.01.2020
5221 Clear 8 1017 20 16093 4.6 270 02:19 05.01.2020
5222 Clear 9 1018 15 16093 8.2 270 01:36 05.01.2020
5223 Clouds 9 1016 27 16093 2.6 210 01:18 05.01.2020
5224 Clear 14 1017 13 16093 5.7 270 00:39 05.01.2020
5225 Clear 15 1016 13 16093 7.7 250 00:21 05.01.2020
5226 Clouds 15 1016 19 16093 3.57 219 23:58 04.01.2020
5227 Clear 15 1016 13 16093 4.6 220 23:38 04.01.2020
5228 Clear 15 1015 17 16093 2.1 190 23:18 04.01.2020
5229 Clear 15 1016 18 16093 4.1 200 22:39 04.01.2020
5230 Clear 15 1016 18 16093 4.1 200 22:39 04.01.2020
5231 Clear 15 1016 18 16093 10.8 140 22:20 04.01.2020
5232 Clouds 15 1016 21 16093 5.1 160 21:56 04.01.2020
5233 Clear 15 1017 19 16093 5.7 160 21:37 04.01.2020
5234 Clouds 14 1018 18 16093 5.1 180 21:19 04.01.2020
5235 Clouds 14 1018 18 16093 5.1 180 21:19 04.01.2020
5236 Clouds 13 1017 22 16093 4.6 150 20:56 04.01.2020
5237 Clear 13 1018 19 16093 4.6 150 20:37 04.01.2020
5238 Clouds 10 1019 26 16093 4.6 210 20:18 04.01.2020
5239 Clouds 10 1020 24 0 2.1 170 19:41 04.01.2020
5240 Clouds 10 1020 24 0 2.1 170 19:41 04.01.2020
5241 Clear 9 1019 34 16093 2.1 110 19:23 04.01.2020
5242 Clouds 9 1021 27 16093 5.1 230 18:58 04.01.2020
5243 Clear 9 1020 44 16093 2.1 60 18:39 04.01.2020
5244 Clouds 8 1021 34 16093 2.6 150 18:20 04.01.2020
5245 Clouds 6 1021 34 16093 2.6 150 17:57 04.01.2020
5246 Clear 5 1021 48 16093 1.5 50 17:39 04.01.2020
5247 Clouds 2 1021 51 16093 2.6 120 17:21 04.01.2020
5248 Clouds 1 1021 51 16093 4.6 190 16:42 04.01.2020
5249 Clouds 0 1021 47 16093 2.1 130 16:24 04.01.2020
5250 Clouds -1 1021 47 16093 2.1 130 15:57 04.01.2020
5251 Clear -1 1020 63 16093 4.67 216 15:39 04.01.2020
5252 Clouds -1 1020 58 16093 3.1 170 15:19 04.01.2020
5253 Clear -1 1020 63 16093 1.5 70 14:56 04.01.2020
5254 Clear -1 1020 63 16093 4.67 216 14:38 04.01.2020
5255 Clear -1 1021 79 16093 4.36 212 14:19 04.01.2020
5256 Clouds -1 1021 58 16093 3.1 130 14:19 04.01.2020
5257 Clouds -2 1021 58 16093 3.1 130 13:55 04.01.2020
5258 Clear -2 1021 64 16093 2.6 200 13:55 04.01.2020
5259 Clouds -2 1021 64 16093 3.6 200 13:36 04.01.2020
5260 Clouds -2 1021 44 16093 5.1 240 13:18 04.01.2020
5261 Clear -2 1020 47 16093 4.6 350 12:41 04.01.2020
5262 Clear -2 1021 63 16093 1.5 190 12:19 04.01.2020
5263 Clouds -1 1021 64 16093 2.6 180 11:58 04.01.2020
5264 Clear -2 1021 63 16093 3.1 60 11:38 04.01.2020
5265 Clear -1 1022 79 16093 4.23 217 11:19 04.01.2020
5266 Clear -1 1021 51 16093 5.7 200 10:42 04.01.2020
5267 Clear -2 1022 79 16093 2.1 270 10:23 04.01.2020
5268 Clouds -2 1021 58 16093 1.5 170 09:58 04.01.2020
5269 Clear -2 1021 74 16093 4.6 190 09:39 04.01.2020
5270 Clear -2 1021 79 16093 1.5 110 09:21 04.01.2020
5271 Clear -2 1021 74 16093 3.6 180 08:41 04.01.2020
5272 Clear -2 1021 47 16093 4.16 220 08:21 04.01.2020
5273 Clear -2 1021 74 16093 3.6 170 07:42 04.01.2020
5274 Clear -1 1022 73 16093 3.95 223 07:20 04.01.2020
5275 Clear -1 1021 55 16093 1.5 110 06:33 04.01.2020
5276 Clear 0 1021 64 16093 3.3 228 05:20 04.01.2020
5277 Clear 0 1019 35 16093 1.5 310 04:34 04.01.2020
5278 Clouds 0 1020 47 16093 2.6 260 03:52 04.01.2020
5279 Clear 1 1019 68 16093 1.5 350 03:18 04.01.2020
5280 Clouds 3 1018 38 16093 4.6 320 02:21 04.01.2020
5281 Clouds 4 1018 38 16093 4.6 320 01:55 04.01.2020
5282 Clouds 4 1018 38 16093 3.6 290 01:31 04.01.2020
5283 Clear 1 1019 28 16093 4.1 280 00:44 04.01.2020
5284 Clear 2 1017 26 16093 3.6 230 00:23 04.01.2020
5285 Clear 3 1018 24 16093 6.7 270 23:46 03.01.2020
5286 Clear 8 1016 28 16093 3.1 260 23:25 03.01.2020
5287 Clear 8 1017 23 16093 7.2 280 22:41 03.01.2020
5288 Clear 8 1015 21 16093 6.2 280 22:20 03.01.2020
5289 Clouds 8 1016 28 16093 6.7 310 21:59 03.01.2020
5290 Clear 8 1017 23 16093 9.3 270 21:39 03.01.2020
5291 Clear 8 1015 21 16093 7.2 270 21:19 03.01.2020
5292 Clear 8 1015 21 16093 7.2 270 21:19 03.01.2020
5293 Clouds 8 1016 26 16093 4.6 270 20:59 03.01.2020
5294 Clear 7 1017 23 16093 6.7 290 20:41 03.01.2020
5295 Clear 7 1017 23 16093 6.7 290 20:41 03.01.2020
5296 Clear 5 1016 21 16093 5.7 270 20:18 03.01.2020
5297 Clouds 6 1016 28 16093 2.6 290 19:57 03.01.2020
5298 Clear 5 1018 22 16093 7.7 290 19:38 03.01.2020
5299 Clear 5 1018 22 16093 6.7 290 19:19 03.01.2020
5300 Clear 4 1019 26 16093 4.36 209 18:44 03.01.2020
5301 Clear 3 1017 24 16093 5.7 290 18:25 03.01.2020
5302 Clouds 2 1018 32 16093 4.6 240 17:56 03.01.2020
5303 Clear 1 1019 30 16093 4.36 209 17:37 03.01.2020
5304 Clear -1 1018 55 16093 4.82 218 17:19 03.01.2020
5305 Clear -3 1018 73 16093 4.82 218 16:42 03.01.2020
5306 Clear -5 1018 73 16093 4.82 218 16:23 03.01.2020
5307 Clouds -6 1017 45 16093 3.1 240 15:57 03.01.2020
5308 Clear -6 1018 78 16093 4.82 218 15:38 03.01.2020
5309 Clear -6 1018 73 16093 4.82 218 15:18 03.01.2020
5310 Clear -6 1018 62 16093 4.82 218 14:38 03.01.2020
5311 Clear -6 1017 73 16093 3.84 222 14:19 03.01.2020
5312 Clear -6 1017 73 16093 3.84 222 13:44 03.01.2020
5313 Clouds -6 1015 67 16093 4.1 200 13:24 03.01.2020
5314 Clouds -6 1015 57 16093 2.6 230 12:59 03.01.2020
5315 Clear -6 1017 67 16093 3.93 220 12:39 03.01.2020
5316 Clear -6 1017 73 16093 3.93 220 12:21 03.01.2020
5317 Clear -5 1017 62 16093 1.5 210 11:44 03.01.2020
5318 Clear -6 1016 67 16093 1.5 280 11:21 03.01.2020
5319 Clear -5 1017 62 16093 1.5 220 10:44 03.01.2020
5320 Clear -5 1016 58 16093 2.6 210 10:25 03.01.2020
5321 Clear -5 1015 39 16093 4.6 280 09:58 03.01.2020
5322 Clear -5 1016 62 16093 2.1 210 09:39 03.01.2020
5323 Clear -5 1014 69 16093 6.2 290 09:21 03.01.2020
5324 Clouds -5 1014 49 16093 3.48 222 08:56 03.01.2020
5325 Clear -4 1016 58 16093 1.5 220 08:37 03.01.2020
5326 Clear -4 1016 58 16093 2.6 210 08:19 03.01.2020
5327 Clear -4 1015 58 16093 3.1 200 07:39 03.01.2020
5328 Clear -3 1015 50 16093 2.1 200 07:18 03.01.2020
5329 Clear -3 1015 60 16093 2.1 240 06:47 03.01.2020
5330 Clear -3 1013 60 16093 1.5 280 06:29 03.01.2020
5331 Clear -2 1012 60 16093 3.1 320 05:30 03.01.2020
5332 Clear -2 1012 63 16093 4.6 320 04:19 03.01.2020
5333 Clouds -1 1009 31 16093 3.6 230 02:56 03.01.2020
5334 Clouds -1 1009 31 16093 3.6 230 02:56 03.01.2020
5335 Clear 0 1008 43 16093 1.86 319 02:26 03.01.2020
5336 Clear 1 1010 51 16093 2.1 170 01:39 03.01.2020
5337 Clouds 2 1007 51 16093 2.1 90 00:49 03.01.2020
5338 Clear 3 1006 38 16093 0.57 43 00:29 03.01.2020
5339 Clear 3 1008 33 16093 3.1 100 23:55 02.01.2020
5340 Clear 3 1008 33 16093 3.1 100 23:37 02.01.2020
5341 Clouds 5 1006 33 16093 3.6 80 23:18 02.01.2020
5342 Clear 6 1007 28 16093 5.1 120 22:44 02.01.2020
5343 Clear 6 1007 26 16093 4.1 70 22:20 02.01.2020
5344 Clouds 6 1005 26 16093 2.1 60 21:57 02.01.2020
5345 Clear 6 1007 26 16093 4.6 70 21:38 02.01.2020
5346 Clear 6 1007 26 16093 4.6 70 21:38 02.01.2020
5347 Clear 6 1005 22 16093 2.6 90 21:20 02.01.2020
5348 Clouds 6 1005 32 16093 2.1 130 20:57 02.01.2020
5349 Clear 6 1007 19 16093 2.1 90 20:38 02.01.2020
5350 Clear 5 1005 22 16093 2.6 40 20:20 02.01.2020
5351 Clouds 5 1006 27 16093 2.06 231 19:55 02.01.2020
5352 Clear 5 1008 19 16093 1.5 70 19:36 02.01.2020
5353 Clear 4 1008 19 16093 2.06 231 19:18 02.01.2020
5354 Clear 3 1006 24 16093 1.5 160 18:54 02.01.2020
5355 Clear 3 1008 22 16093 1.5 160 18:36 02.01.2020
5356 Clear 2 1008 26 16093 2.06 231 18:18 02.01.2020
5357 Clouds 1 1007 34 16093 2.1 0 17:55 02.01.2020
5358 Clear 1 1009 35 16093 2.1 230 17:36 02.01.2020
5359 Clouds 0 1007 50 16093 1.5 200 17:18 02.01.2020
5360 Clear -1 1008 73 16093 2.1 210 16:41 02.01.2020
5361 Clear -2 1005 37 16093 1.5 190 16:21 02.01.2020
5362 Clouds -2 1005 63 16093 2.93 236 15:58 02.01.2020
5363 Clear -2 1007 73 16093 2.93 236 15:40 02.01.2020
5364 Clear -2 1007 73 16093 2.93 236 15:22 02.01.2020
5365 Clouds -2 1004 63 16093 2.1 320 14:57 02.01.2020
5366 Clouds -2 1004 63 16093 2.93 236 14:36 02.01.2020
5367 Clouds -2 1003 50 16093 2.1 310 14:18 02.01.2020
5368 Clouds -2 1005 68 16093 2.01 239 13:50 02.01.2020
5369 Clouds -2 1002 58 16093 4.1 290 13:31 02.01.2020
5370 Clear -1 1004 61 16093 2.01 239 12:46 02.01.2020
5371 Clear -1 1002 40 16093 4.1 290 12:28 02.01.2020
5372 Clear -1 1003 37 16093 2.01 239 11:59 02.01.2020
5373 Clear -2 1001 34 16093 3.1 60 11:40 02.01.2020
5374 Clouds -1 1001 64 16093 2.6 320 11:20 02.01.2020
5375 Clear 0 1003 37 16093 4.1 310 10:44 02.01.2020
5376 Clear 0 1000 34 16093 12.9 290 10:26 02.01.2020
5377 Clouds 1 1001 43 16093 1.5 50 09:51 02.01.2020
5378 Clear 0 1002 35 16093 1.5 290 09:33 02.01.2020
5379 Clear 1 1002 40 16093 2.1 360 08:47 02.01.2020
5380 Clear 1 999 37 16093 12.3 280 08:27 02.01.2020
5381 Clouds 1 1000 40 16093 4.6 260 07:54 02.01.2020
5382 Clear 1 998 32 16093 18 280 07:30 02.01.2020
5383 Clear 1 1000 35 16093 4.6 280 06:46 02.01.2020
5384 Clear 1 999 38 16093 4.1 310 06:27 02.01.2020
5385 Clear 2 998 38 16093 14.4 270 05:29 02.01.2020
5386 Clear 1 998 41 16093 10.3 260 04:32 02.01.2020
5387 Clear 2 1001 41 16093 2.6 240 02:48 02.01.2020
5388 Clouds 4 999 48 16093 6.2 260 01:59 02.01.2020
5389 Clear 4 1001 38 16093 5.1 270 01:38 02.01.2020
5390 Clouds 4 1000 44 16093 4.1 340 00:58 02.01.2020
5391 Clear 4 1001 33 16093 8.2 280 00:33 02.01.2020
5392 Clouds 5 1000 33 16093 9.3 340 23:53 01.01.2020
5393 Clear 5 1000 29 16093 6.7 300 23:28 01.01.2020
5394 Rain 9 999 31 16093 3.6 310 22:59 01.01.2020
5395 Clear 9 1001 29 16093 13.4 270 22:38 01.01.2020
5396 Clear 9 1000 25 16093 8.7 240 22:19 01.01.2020
5397 Rain 9 999 31 16093 6.2 280 21:56 01.01.2020
5398 Rain 8 1000 31 16093 3.84 236 21:37 01.01.2020
5399 Rain 8 999 23 16093 3.6 270 21:19 01.01.2020
5400 Rain 8 1001 33 16093 8.7 290 20:55 01.01.2020
5401 Rain 8 1000 31 16093 3.1 120 20:37 01.01.2020
5402 Rain 8 1002 33 16093 6.7 310 20:18 01.01.2020
5403 Rain 8 1000 39 16093 8.7 330 19:54 01.01.2020
5404 Rain 8 1002 33 16093 11.3 270 19:36 01.01.2020
5405 Rain 8 1000 25 16093 6.2 280 19:18 01.01.2020
5406 Rain 9 1000 39 32767 14.4 300 18:55 01.01.2020
5407 Rain 10 1002 29 16093 8.2 270 18:36 01.01.2020
5408 Clear 10 1001 29 16093 9.3 290 18:18 01.01.2020
5409 Rain 8 1000 56 16093 2.1 150 17:55 01.01.2020
5410 Rain 7 1001 31 16093 8.2 270 17:36 01.01.2020
5411 Clouds 4 1001 41 16093 2.1 10 17:18 01.01.2020
5412 Clear 2 1002 64 16093 5.79 210 16:39 01.01.2020
5413 Clear 1 1002 64 16093 1.5 120 16:20 01.01.2020
5414 Clear 1 1000 55 16093 1.5 360 15:57 01.01.2020
5415 Clear 1 1002 64 16093 1.5 200 15:38 01.01.2020
5416 Clear 1 1001 63 16093 5.79 210 15:20 01.01.2020
5417 Clouds 0 1001 44 16093 4.6 240 14:56 01.01.2020
5418 Clear 0 1002 63 16093 2.6 50 14:38 01.01.2020
5419 Clear -1 1000 51 16093 3.1 100 14:19 01.01.2020
5420 Clear -1 1000 47 16093 2.1 70 13:55 01.01.2020
5421 Clear -1 1000 47 16093 2.1 70 13:55 01.01.2020
5422 Clear -1 1002 61 16093 1.5 70 13:37 01.01.2020
5423 Clouds -1 1002 41 16093 6.2 230 13:18 01.01.2020
5424 Clouds -1 1002 41 16093 6.2 230 12:55 01.01.2020
5425 Clear -1 1002 44 16093 5.94 208 12:36 01.01.2020
5426 Clouds -2 1002 38 16093 5.7 220 12:18 01.01.2020
5427 Clouds -2 1002 38 16093 5.7 220 12:18 01.01.2020
5428 Clear -2 1003 68 16093 2.1 190 11:42 01.01.2020
5429 Clear -2 1003 37 16093 4.83 219 11:21 01.01.2020
5430 Clear -2 1005 73 16093 3.1 210 11:21 01.01.2020
5431 Clear -2 1006 79 16093 4.83 219 10:56 01.01.2020
5432 Clear -2 1006 79 16093 4.83 219 10:38 01.01.2020
5433 Clear -2 1004 68 16093 1.5 290 10:19 01.01.2020
5434 Clear -2 1006 79 16093 2.6 170 09:42 01.01.2020
5435 Clear -2 1007 79 16093 4.83 219 09:22 01.01.2020
5436 Clouds -2 1005 40 16093 3.6 220 08:57 01.01.2020
5437 Clear -3 1007 79 16093 2.6 160 08:38 01.01.2020
5438 Clouds -3 1005 63 16093 4.95 218 08:20 01.01.2020
5439 Clouds -3 1006 60 16093 4.6 210 07:58 01.01.2020
5440 Clear -3 1008 79 16093 1.5 190 07:40 01.01.2020
5441 Clear -3 1010 85 16093 4.95 218 07:19 01.01.2020
5442 Clear -3 1008 63 16093 4.95 218 06:36 01.01.2020
5443 Clouds -3 1008 27 16093 4.6 210 05:51 01.01.2020
5444 Clear -3 1009 63 16093 1.5 200 04:28 01.01.2020
5445 Clear -2 1012 73 16093 4.12 226 03:39 01.01.2020
5446 Clear -2 1009 37 16093 2.6 40 03:21 01.01.2020
5447 Rain -1 1011 63 16093 1.5 10 02:42 01.01.2020
5448 Rain -1 1009 23 16093 1.5 110 02:23 01.01.2020
5449 Clear 0 1011 27 16093 3.31 219 01:42 01.01.2020
5450 Rain 1 1010 50 16093 3.31 219 01:23 01.01.2020
5451 Clear 3 1012 17 16093 3.1 240 00:45 01.01.2020
5452 Clear 3 1010 17 16093 3.03 216 00:26 01.01.2020
5453 Clouds 5 1011 22 16093 2.1 160 23:56 31.12.2019
5454 Clear 5 1013 18 16093 3.03 216 23:36 31.12.2019
5455 Rain 5 1013 15 16093 2.94 187 23:18 31.12.2019
5456 Rain 6 1011 20 16093 2.6 210 22:55 31.12.2019
5457 Rain 6 1013 19 16093 2.6 170 22:36 31.12.2019
5458 Rain 5 1012 26 16093 2.6 180 22:18 31.12.2019
5459 Rain 8 1013 15 16093 3.6 180 21:43 31.12.2019
5460 Rain 7 1011 13 16093 4.1 290 21:25 31.12.2019
5461 Rain 6 1012 28 16093 2.1 160 20:57 31.12.2019
5462 Rain 6 1014 20 16093 4.1 180 20:39 31.12.2019
5463 Clear 4 1014 27 16093 2.6 170 20:20 31.12.2019
5464 Rain 4 1014 27 16093 2.6 170 19:57 31.12.2019
5465 Clear 3 1016 27 16093 3.6 210 19:39 31.12.2019
5466 Clear 2 1014 30 16093 1.5 40 19:20 31.12.2019
5467 Clear 1 1016 34 16093 2.1 140 18:56 31.12.2019
5468 Clear 1 1018 34 16093 2.1 180 18:38 31.12.2019
5469 Clear 0 1018 57 16093 3.71 204 18:19 31.12.2019
5470 Clear -2 1017 33 16093 3.71 204 17:55 31.12.2019
5471 Clear -2 1018 45 16093 3.71 204 17:36 31.12.2019
5472 Clear -4 1019 62 16093 4.91 212 17:18 31.12.2019
5473 Clear -5 1016 45 32767 2.6 200 16:56 31.12.2019
5474 Clear -7 1018 66 16093 4.91 212 16:37 31.12.2019
5475 Clear -7 1018 66 16093 4.91 212 16:37 31.12.2019
5476 Clear -8 1016 41 16093 8.2 210 16:18 31.12.2019
5477 Clear -9 1018 71 16093 2.1 220 15:56 31.12.2019
5478 Clear -9 1018 71 16093 2.1 220 15:37 31.12.2019
5479 Clear -9 1019 78 16093 4.91 212 15:19 31.12.2019
5480 Clouds -9 1017 44 32767 1.5 200 14:55 31.12.2019
5481 Clear -10 1019 78 16093 1.5 210 14:37 31.12.2019
5482 Clear -9 1017 44 16093 4.1 220 14:18 31.12.2019
5483 Clear -10 1017 44 16093 4.1 220 13:56 31.12.2019
5484 Clear -10 1019 78 16093 2.6 200 13:37 31.12.2019
5485 Clear -10 1017 52 16093 1.5 170 13:19 31.12.2019
5486 Clear -10 1017 52 16093 1.5 170 12:55 31.12.2019
5487 Clear -10 1019 78 16093 2.6 200 12:37 31.12.2019
5488 Clear -10 1019 78 16093 2.6 200 12:37 31.12.2019
5489 Clear -9 1017 41 16093 1.5 240 12:18 31.12.2019
5490 Clear -9 1017 41 16093 1.5 240 12:18 31.12.2019
5491 Clear -9 1020 78 16093 4.33 213 11:54 31.12.2019
5492 Clear -9 1020 78 16093 4.33 213 11:36 31.12.2019
5493 Clear -9 1018 44 16093 4.03 216 11:18 31.12.2019
5494 Clear -9 1018 44 16093 4.03 216 10:55 31.12.2019
5495 Clear -9 1020 78 16093 4.03 216 10:37 31.12.2019
5496 Clear -10 1019 66 16093 2.6 250 10:19 31.12.2019
5497 Clear -9 1018 37 16093 2.6 220 09:55 31.12.2019
5498 Clear -10 1020 84 16093 4.03 216 09:37 31.12.2019
5499 Clear -10 1020 84 16093 4.03 216 09:37 31.12.2019
5500 Clear -10 1019 72 16093 4.03 216 09:18 31.12.2019
5501 Clear -10 1020 78 16093 4.03 216 08:42 31.12.2019
5502 Clear -10 1018 38 16093 3.6 240 08:22 31.12.2019
5503 Clear -9 1021 84 16093 3.44 219 07:45 31.12.2019
5504 Clear -9 1021 78 16093 3.44 219 07:22 31.12.2019
5505 Clear -9 1019 48 16093 4.6 230 06:51 31.12.2019
5506 Clear -9 1019 45 16093 4.1 250 06:27 31.12.2019
5507 Clear -8 1019 56 16093 1.5 200 04:55 31.12.2019
5508 Clear -8 1019 56 16093 4.6 190 04:25 31.12.2019
5509 Clear -7 1018 44 16093 2.1 180 02:57 31.12.2019
5510 Clear -6 1018 39 16093 2.1 240 02:21 31.12.2019
5511 Clouds -6 1018 48 16093 2.6 170 02:21 31.12.2019
5512 Clouds -6 1018 48 16093 2.6 170 01:50 31.12.2019
5513 Clear -5 1019 39 16093 1.5 200 01:31 31.12.2019
5514 Clear -3 1020 33 16093 2.6 140 00:49 31.12.2019
5515 Rain -2 1018 34 16093 2.1 60 00:25 31.12.2019
5516 Rain -1 1017 36 16093 3.6 100 23:58 30.12.2019
5517 Rain -1 1020 31 16093 3.1 120 23:40 30.12.2019
5518 Clear -1 1019 29 16093 2.1 80 23:22 30.12.2019
5519 Rain 0 1017 30 16093 5.1 110 22:59 30.12.2019
5520 Rain 0 1020 27 16093 2.6 120 22:41 30.12.2019
5521 Rain 0 1019 27 16093 3.1 150 22:21 30.12.2019
5522 Rain 0 1017 30 16093 4.6 130 21:57 30.12.2019
5523 Rain 0 1017 30 16093 4.6 130 21:57 30.12.2019
5524 Rain 0 1020 24 16093 4.1 150 21:39 30.12.2019
5525 Rain 0 1017 30 16093 4.6 160 21:20 30.12.2019
5526 Rain 0 1017 30 16093 4.6 160 20:58 30.12.2019
5527 Rain 0 1020 31 16093 1.5 100 20:40 30.12.2019
5528 Rain 0 1020 31 16093 1.5 100 20:40 30.12.2019
5529 Rain 0 1018 28 16093 4.6 150 20:20 30.12.2019
5530 Clear -1 1018 28 16093 4.6 150 19:58 30.12.2019
5531 Clear -1 1021 55 16093 2.76 201 19:39 30.12.2019
5532 Clear -1 1021 55 16093 2.76 201 19:39 30.12.2019
5533 Clear -2 1022 33 16093 2.76 201 19:19 30.12.2019
5534 Clouds -2 1019 39 16093 3.1 160 18:59 30.12.2019
5535 Clear -3 1022 36 16093 2.76 201 18:40 30.12.2019
5536 Clear -4 1020 36 16093 2.76 201 18:20 30.12.2019
5537 Clear -4 1020 36 16093 2.76 201 18:20 30.12.2019
5538 Clouds -4 1019 41 16093 3.1 180 17:57 30.12.2019
5539 Clear -5 1022 57 16093 2.76 201 17:39 30.12.2019
5540 Clear -7 1020 58 16093 4.24 209 17:19 30.12.2019
5541 Clouds -8 1018 52 16093 4.24 209 16:58 30.12.2019
5542 Clear -9 1020 72 16093 2.1 200 16:37 30.12.2019
5543 Clear -10 1020 72 16093 1.5 160 16:19 30.12.2019
5544 Clear -12 1017 60 16093 3.1 110 15:56 30.12.2019
5545 Clear -12 1019 71 16093 2.1 210 15:37 30.12.2019
5546 Clear -12 1016 40 16093 4.6 230 15:18 30.12.2019
5547 Clear -12 1019 84 16093 1.5 200 14:43 30.12.2019
5548 Clear -12 1019 84 16093 1.5 200 14:43 30.12.2019
5549 Clear -12 1018 72 16093 4 215 14:20 30.12.2019
5550 Clear -11 1016 44 16093 1.5 0 13:58 30.12.2019
5551 Clear -12 1018 84 16093 2.6 190 13:40 30.12.2019
5552 Clear -11 1017 72 16093 4.38 214 13:21 30.12.2019
5553 Clear -11 1015 43 16093 4.1 220 12:56 30.12.2019
5554 Clear -12 1018 77 16093 4.38 214 12:37 30.12.2019
5555 Clear -12 1015 51 16093 3.1 220 12:18 30.12.2019
5556 Clear -12 1018 84 16093 4.38 214 11:42 30.12.2019
5557 Clear -12 1017 66 16093 2.1 230 11:20 30.12.2019
5558 Clear -11 1016 51 16093 3.6 230 10:58 30.12.2019
5559 Clear -12 1018 84 16093 2.1 200 10:40 30.12.2019
5560 Clear -12 1017 72 16093 2.1 250 10:18 30.12.2019
5561 Clear -12 1018 77 16093 3.93 216 09:42 30.12.2019
5562 Clear -12 1018 77 16093 2.1 210 09:20 30.12.2019
5563 Clear -12 1015 60 16093 2.1 210 08:55 30.12.2019
5564 Clear -11 1018 84 16093 3.93 216 08:36 30.12.2019
5565 Clear -11 1017 78 16093 3.45 222 08:18 30.12.2019
5566 Clear -11 1017 78 16093 3.45 222 07:41 30.12.2019
5567 Clear -11 1014 61 16093 2.6 220 06:58 30.12.2019
5568 Clear -10 1014 48 16093 3.45 222 06:23 30.12.2019
5569 Clear -10 1014 48 16093 3.45 222 06:23 30.12.2019
5570 Clouds -9 1013 66 16093 2.6 190 03:58 30.12.2019
5571 Clear -9 1016 61 16093 2.6 210 03:39 30.12.2019
5572 Clear -8 1015 52 16093 1.5 190 02:41 30.12.2019
5573 Clear -7 1014 49 16093 2.1 350 02:20 30.12.2019
5574 Clear -6 1013 36 16093 2.1 110 01:25 30.12.2019
5575 Clear -4 1014 39 16093 3.1 150 00:45 30.12.2019
5576 Rain -3 1011 66 16093 3.6 260 00:23 30.12.2019
5577 Rain -3 1013 42 16093 2.6 120 23:40 29.12.2019
5578 Rain -2 1011 39 16093 2.6 70 23:21 29.12.2019
5579 Rain -2 1011 39 16093 2.6 70 22:56 29.12.2019
5580 Rain -1 1010 58 16093 4.1 270 22:37 29.12.2019
5581 Rain -1 1011 29 16093 1.5 110 22:18 29.12.2019
5582 Rain -1 1013 36 16093 2.1 110 21:43 29.12.2019
5583 Rain -1 1013 39 16093 2.1 110 21:21 29.12.2019
5584 Rain -2 1011 42 16093 4.6 340 20:58 29.12.2019
5585 Rain -2 1013 39 16093 2.6 110 20:39 29.12.2019
5586 Rain -2 1011 51 16093 2.1 50 20:21 29.12.2019
5587 Rain -3 1011 38 16093 1.5 110 19:59 29.12.2019
5588 Rain -3 1014 39 16093 3.6 140 19:40 29.12.2019
5589 Rain -3 1014 39 16093 3.6 140 19:40 29.12.2019
5590 Rain -3 1014 42 16093 3.6 140 19:21 29.12.2019
5591 Rain -4 1012 53 16093 1.58 237 18:58 29.12.2019
5592 Rain -4 1014 49 16093 3.1 140 18:39 29.12.2019
5593 Clouds -5 1012 61 16093 1.5 180 18:20 29.12.2019
5594 Clouds -5 1012 61 16093 1.5 180 17:58 29.12.2019
5595 Clouds -6 1014 53 16093 1.58 237 17:39 29.12.2019
5596 Clouds -7 1014 67 16093 1.5 210 17:20 29.12.2019
5597 Clouds -8 1011 56 16093 2.1 230 16:57 29.12.2019
5598 Clouds -9 1014 72 16093 1.5 210 16:38 29.12.2019
5599 Clouds -9 1014 72 16093 1.5 210 16:38 29.12.2019
5600 Clouds -10 1013 72 16093 3.65 229 16:20 29.12.2019
5601 Clouds -10 1011 72 16093 1.5 200 15:58 29.12.2019
5602 Clouds -10 1011 72 16093 1.5 200 15:58 29.12.2019
5603 Clouds -10 1013 67 16093 3.65 229 15:39 29.12.2019
5604 Clouds -10 1010 65 16093 1.5 140 15:20 29.12.2019
5605 Clouds -10 1010 65 16093 1.5 140 14:58 29.12.2019
5606 Clouds -11 1013 72 16093 3.65 229 14:39 29.12.2019
5607 Clouds -11 1011 79 16093 2.4 238 14:18 29.12.2019
5608 Clouds -10 1009 61 16093 4.1 240 13:57 29.12.2019
5609 Clouds -10 1012 67 16093 2.4 238 13:39 29.12.2019
5610 Clouds -10 1012 72 16093 1.5 210 13:20 29.12.2019
5611 Clouds -10 1012 72 16093 2.6 220 12:45 29.12.2019
5612 Clouds -10 1010 48 16093 5.1 290 12:27 29.12.2019
5613 Clouds -10 1010 48 16093 5.1 290 12:27 29.12.2019
5614 Clouds -10 1009 66 16093 3.1 250 11:59 29.12.2019
5615 Clouds -9 1012 78 16093 2.1 150 11:40 29.12.2019
5616 Clouds -9 1011 68 16093 2.6 220 11:20 29.12.2019
5617 Clouds -9 1009 72 16093 4.6 250 11:20 29.12.2019
5618 Clouds -9 1009 72 16093 4.6 250 10:55 29.12.2019
5619 Clouds -9 1012 85 16093 1.5 180 10:37 29.12.2019
5620 Clouds -9 1009 78 16093 2.1 250 10:18 29.12.2019
5621 Clouds -9 1009 78 16093 2.1 250 10:18 29.12.2019
5622 Clouds -9 1012 78 16093 2.81 222 09:41 29.12.2019
5623 Clouds -9 1011 73 16093 1.5 220 09:22 29.12.2019
5624 Clouds -8 1009 78 16093 2.6 230 08:48 29.12.2019
5625 Clouds -8 1009 79 16093 3.1 250 08:28 29.12.2019
5626 Clouds -8 1009 73 16093 2.1 240 07:58 29.12.2019
5627 Clouds -7 1010 85 16093 2.1 220 07:28 29.12.2019
5628 Clouds -7 1010 85 16093 2.1 220 07:28 29.12.2019
5629 Clouds -7 1010 85 16093 3.1 250 06:56 29.12.2019
5630 Clouds -6 1013 62 16093 1.96 238 06:26 29.12.2019
5631 Clouds -6 1013 53 16093 1.96 238 05:53 29.12.2019
5632 Clouds -6 1013 49 16093 4.1 360 04:37 29.12.2019
5633 Rain -6 1010 67 4828 7.7 360 03:59 29.12.2019
5634 Rain -6 1010 53 16093 3.6 350 03:21 29.12.2019
5635 Snow -6 1010 85 1207 4.1 340 02:21 29.12.2019
5636 Clouds -6 1012 58 16093 4.6 20 01:40 29.12.2019
5637 Clouds -6 1012 58 16093 5.7 20 01:21 29.12.2019
5638 Rain -6 1012 58 16093 6.7 20 00:42 29.12.2019
5639 Rain -5 1009 92 2012 11.3 350 00:23 29.12.2019
5640 Rain -5 1011 63 16093 6.7 20 23:44 28.12.2019
5641 Rain -5 1008 85 1207 7.7 360 23:18 28.12.2019
5642 Rain -5 1011 68 16093 8.7 10 22:39 28.12.2019
5643 Rain -5 1011 73 11265 9.8 360 22:21 28.12.2019
5644 Rain -5 1008 85 1207 10.8 340 21:58 28.12.2019
5645 Rain -5 1010 68 11265 12.9 10 21:39 28.12.2019
5646 Haze -5 1010 68 8047 10.3 10 21:21 28.12.2019
5647 Snow -4 1007 79 1207 9.3 360 20:57 28.12.2019
5648 Clouds -4 1010 68 16093 9.8 20 20:38 28.12.2019
5649 Snow -4 1007 79 1207 7.2 360 20:19 28.12.2019
5650 Snow -4 1007 79 1207 7.2 360 19:58 28.12.2019
5651 Snow -4 1010 68 3219 8.7 10 19:39 28.12.2019
5652 Rain -4 1007 85 1207 7.7 360 19:20 28.12.2019
5653 Rain -3 1007 85 1207 7.7 360 18:57 28.12.2019
5654 Rain -4 1010 68 16093 7.2 360 18:39 28.12.2019
5655 Rain -4 1011 74 16093 5.1 10 18:18 28.12.2019
5656 Rain -4 1008 85 1207 7.7 360 17:54 28.12.2019
5657 Rain -4 1011 79 16093 5.7 10 17:36 28.12.2019
5658 Rain -4 1007 85 1207 5.7 350 17:18 28.12.2019
5659 Rain -4 1007 85 2012 9.3 340 16:46 28.12.2019
5660 Rain -4 1007 100 2414 8.7 340 16:25 28.12.2019
5661 Rain -4 1009 92 6437 3.1 350 15:44 28.12.2019
5662 Rain -4 1009 92 4023 5.1 10 15:24 28.12.2019
5663 Rain -4 1006 85 1207 7.2 360 14:58 28.12.2019
5664 Rain -4 1009 92 2414 6.2 10 14:38 28.12.2019
5665 Rain -4 1005 92 1207 10.3 360 14:20 28.12.2019
5666 Rain -3 1008 92 805 6.7 20 13:43 28.12.2019
5667 Rain -3 1005 100 2414 6.2 340 13:23 28.12.2019
5668 Rain -3 1004 86 4023 4.6 330 12:59 28.12.2019
5669 Snow -3 1007 100 1609 2.6 350 12:41 28.12.2019
5670 Snow -3 1004 92 2012 5.1 350 12:22 28.12.2019
5671 Snow -3 1004 86 4828 4.1 320 11:54 28.12.2019
5672 Snow -3 1006 86 6437 3.1 340 11:36 28.12.2019
5673 -273 0 0 0 0 0 11:18 28.12.2019
5674 Clouds -3 1006 86 16093 2.1 330 10:41 28.12.2019
5675 Mist -3 1004 92 4828 4.6 280 10:20 28.12.2019
5676 Mist -3 1004 86 4828 3.6 340 09:55 28.12.2019
5677 Clouds -3 1007 86 11265 1.5 300 09:37 28.12.2019
5678 Clouds -3 1006 86 11265 2.1 310 09:18 28.12.2019
5679 Clouds -3 1006 86 11265 2.1 310 09:18 28.12.2019
5680 Clouds -3 1006 86 11265 2.1 300 08:43 28.12.2019
5681 Mist -2 1004 86 8047 2.1 310 08:25 28.12.2019
5682 Mist -2 1007 92 8047 1.52 22 07:49 28.12.2019
5683 Mist -2 1005 92 8047 1.52 22 07:25 28.12.2019
5684 Mist -3 1008 92 8047 1.52 22 05:52 28.12.2019
5685 Clouds -2 1006 74 11265 2.6 350 03:49 28.12.2019
5686 Clouds -2 1008 92 16093 2.6 320 02:52 28.12.2019
5687 Mist -2 1010 92 8047 0.56 69 02:31 28.12.2019
5688 Mist -2 1007 80 8047 2.1 350 01:56 28.12.2019
5689 Mist -2 1007 80 8047 2.1 350 01:56 28.12.2019
5690 Clouds -2 1008 86 16093 3.6 360 01:24 28.12.2019
5691 Clouds -1 1008 80 11265 4.6 350 00:50 28.12.2019
5692 Clouds 0 1008 86 11265 3.1 30 00:30 28.12.2019
5693 Clouds 0 1008 64 11265 3.6 30 23:58 27.12.2019
5694 Clouds 0 1008 64 11265 3.6 30 23:58 27.12.2019
5695 Clouds 0 1011 58 11265 1.5 60 23:39 27.12.2019
5696 Clouds 1 1011 38 11265 2.6 70 23:19 27.12.2019
5697 Clouds 1 1008 59 14484 3.1 30 22:56 27.12.2019
5698 Clouds 1 1011 74 16093 3.1 60 22:37 27.12.2019
5699 Clouds 1 1010 69 11265 1.5 60 22:19 27.12.2019
5700 Clouds 1 1012 38 11265 1.5 350 21:43 27.12.2019
5701 Clouds 1 1010 64 16093 1.5 20 21:25 27.12.2019
5702 Clouds 1 1009 51 16093 3.1 10 20:57 27.12.2019
5703 Clouds 1 1013 38 16093 3.1 20 20:38 27.12.2019
5704 Clouds 1 1014 68 16093 0.47 59 20:20 27.12.2019
5705 Clouds 0 1014 68 16093 0.47 59 19:41 27.12.2019
5706 Clouds 0 1014 68 16093 0.47 59 19:20 27.12.2019
5707 Clear -1 1017 74 16093 0.47 59 18:57 27.12.2019
5708 Clear -1 1017 74 16093 0.47 59 18:37 27.12.2019
5709 Clouds -1 1014 68 16093 2.1 300 18:19 27.12.2019
5710 Clouds -2 1014 68 16093 2.1 300 17:55 27.12.2019
5711 Clear -2 1017 79 16093 0.47 59 17:37 27.12.2019
5712 Clear -3 1017 85 16093 1.61 193 17:18 27.12.2019
5713 Clear -4 1017 85 11265 1.61 193 16:44 27.12.2019
5714 Clear -5 1015 79 16093 1.61 193 16:26 27.12.2019
5715 Clouds -6 1014 79 11265 1.61 193 15:58 27.12.2019
5716 Clear -6 1017 85 11265 1.61 193 15:40 27.12.2019
5717 Clear -6 1017 92 16093 1.61 193 15:19 27.12.2019
5718 Clouds -6 1015 73 14484 1.61 193 14:56 27.12.2019
5719 Clear -6 1017 85 16093 1.61 193 14:38 27.12.2019
5720 Clear -6 1015 85 16093 1.39 240 14:20 27.12.2019
5721 Clear -6 1018 85 16093 1.39 240 13:47 27.12.2019
5722 Clouds -5 1017 79 16093 2.6 290 13:24 27.12.2019
5723 Clear -5 1016 86 16093 1.23 229 12:56 27.12.2019
5724 Clear -5 1018 92 16093 1.23 229 12:37 27.12.2019
5725 Mist -4 1018 100 8047 1.5 210 12:18 27.12.2019
5726 Mist -4 1019 92 6437 1.23 229 11:42 27.12.2019
5727 Clouds -4 1017 63 16093 1.37 222 11:20 27.12.2019
5728 Clouds -4 1019 92 11265 1.37 222 10:47 27.12.2019
5729 Clouds -4 1017 74 16093 1.37 222 10:24 27.12.2019
5730 Clouds -4 1016 79 16093 2.1 0 09:58 27.12.2019
5731 Clouds -3 1020 92 16093 1.37 222 09:39 27.12.2019
5732 Clouds -3 1017 80 16093 1.37 222 09:21 27.12.2019
5733 Clouds -3 1020 86 16093 1.37 222 08:49 27.12.2019
5734 Clouds -3 1018 63 16093 1.37 222 08:30 27.12.2019
5735 Clouds -3 1020 86 16093 1.15 168 07:48 27.12.2019
5736 Clouds -3 1018 100 12874 3.1 170 07:25 27.12.2019
5737 Clouds -3 1018 92 16093 1.5 210 06:33 27.12.2019
5738 Clouds -3 1021 92 16093 1.35 294 04:48 27.12.2019
5739 Clouds -2 1021 92 16093 1.35 294 02:35 27.12.2019
5740 Clear -1 1020 92 16093 1.87 19 01:48 27.12.2019
5741 Clear -1 1018 86 16093 2.1 270 01:23 27.12.2019
5742 Clouds 0 1017 59 16093 2.1 330 00:52 27.12.2019
5743 Clear 1 1018 63 16093 1.71 32 00:34 27.12.2019
5744 Clouds 1 1020 63 16093 1.5 310 00:34 27.12.2019
5745 Clear 2 1019 69 16093 1.71 32 23:57 26.12.2019
5746 Clear 2 1019 69 16093 1.71 32 23:38 26.12.2019
5747 Clear 2 1018 69 11265 2.6 37 23:20 26.12.2019
5748 Clouds 2 1018 80 16093 2.1 360 22:42 26.12.2019
5749 Clouds 2 1015 38 16093 4.6 30 22:21 26.12.2019
5750 Clouds 2 1015 38 16093 4.6 30 21:55 26.12.2019
5751 Clouds 2 1015 38 16093 4.6 30 21:55 26.12.2019
5752 Clouds 2 1018 30 16093 1.5 360 21:37 26.12.2019
5753 Clouds 2 1018 30 16093 2.6 37 21:19 26.12.2019
5754 Clouds 2 1018 92 16093 2.45 59 20:44 26.12.2019
5755 Clouds 2 1018 92 16093 2.45 59 20:44 26.12.2019
5756 Clouds 2 1018 86 11265 0.35 55 20:22 26.12.2019
5757 Clouds 1 1016 28 16093 2.1 20 19:58 26.12.2019
5758 Mist 1 1019 100 8047 1.5 50 19:38 26.12.2019
5759 Mist 1 1019 100 6437 0.35 55 19:20 26.12.2019
5760 Fog 1 1017 100 201 1.5 10 18:57 26.12.2019
5761 Mist 1 1017 100 1609 1.5 120 18:37 26.12.2019
5762 Mist 1 1017 100 402 2.6 300 18:19 26.12.2019
5763 Mist 0 1019 92 2012 1.5 70 17:42 26.12.2019
5764 Fog -1 1017 100 402 2.43 208 17:22 26.12.2019
5765 Clouds -2 1016 40 16093 1.5 0 16:54 26.12.2019
5766 Fog -3 1018 100 0 2.43 208 16:36 26.12.2019
5767 Fog -3 1018 100 0 2.43 208 16:36 26.12.2019
5768 Fog -3 1015 100 201 7.7 330 16:18 26.12.2019
5769 Fog -4 1017 92 0 2.1 340 15:41 26.12.2019
5770 Clouds -4 1014 46 16093 2.1 0 15:20 26.12.2019
5771 Clouds -4 1014 46 16093 2.1 0 14:54 26.12.2019
5772 Fog -4 1016 100 402 2.6 340 14:36 26.12.2019
5773 Clouds -4 1013 53 16093 4.1 240 14:18 26.12.2019
5774 Clouds -4 1016 92 16093 2.89 220 13:42 26.12.2019
5775 Clear -4 1015 92 16093 2.58 219 13:19 26.12.2019
5776 Clear -4 1013 46 16093 2.58 219 12:56 26.12.2019
5777 Clear -4 1015 92 16093 1.5 290 12:37 26.12.2019
5778 Clear -4 1014 85 16093 2.6 280 12:18 26.12.2019
5779 Clear -4 1014 92 16093 2.58 219 11:42 26.12.2019
5780 Clear -4 1012 54 16093 2.1 140 11:23 26.12.2019
5781 Clear -4 1012 58 16093 2.1 170 10:57 26.12.2019
5782 Clear -4 1012 58 16093 2.1 170 10:57 26.12.2019
5783 Clear -4 1014 92 16093 2.44 205 10:39 26.12.2019
5784 Clear -4 1013 86 16093 2.44 205 10:18 26.12.2019
5785 Clear -3 1013 92 16093 3.1 200 09:42 26.12.2019
5786 Clear -3 1011 92 16093 3.1 260 09:24 26.12.2019
5787 Clear -3 1013 92 16093 1.5 210 08:40 26.12.2019
5788 Clear -3 1013 92 16093 1.5 210 08:40 26.12.2019
5789 Clear -3 1012 86 16093 1.5 240 08:22 26.12.2019
5790 Clear -3 1013 86 16093 1.68 185 07:50 26.12.2019
5791 Clear -2 1011 52 16093 1.68 185 07:26 26.12.2019
5792 Clouds -1 1013 92 16093 3.1 210 06:44 26.12.2019
5793 Clear -1 1011 80 16093 1.68 185 06:25 26.12.2019
5794 Clouds -1 1013 80 16093 1.68 185 05:43 26.12.2019
5795 Clear 0 1012 79 16093 1.5 240 04:38 26.12.2019
5796 Clear 1 1011 80 16093 2.79 177 03:46 26.12.2019
5797 Clear 2 1010 64 16093 2.79 177 02:47 26.12.2019
5798 Clouds 2 1007 64 16093 3.1 220 02:29 26.12.2019
5799 Clouds 4 1009 55 16093 1.16 59 01:44 26.12.2019
5800 Clouds 5 1007 55 16093 3.1 320 01:25 26.12.2019
5801 Clouds 5 1008 52 16093 2.6 290 00:44 26.12.2019
5802 Clouds 6 1006 52 16093 4.6 70 00:23 26.12.2019
5803 Clouds 6 1006 48 16093 7.2 320 23:57 25.12.2019
5804 Clouds 5 1007 36 16093 2.6 220 23:37 25.12.2019
5805 Snow 8 1004 34 16093 8.7 320 23:19 25.12.2019
5806 Snow 9 1004 34 16093 8.7 320 22:56 25.12.2019
5807 Clouds 9 1005 34 16093 2.6 320 22:37 25.12.2019
5808 Clouds 10 1004 22 16093 4.1 250 22:18 25.12.2019
5809 Clouds 10 1004 22 16093 4.1 250 22:18 25.12.2019
5810 Snow 10 1002 22 16093 6.2 220 21:55 25.12.2019
5811 Clouds 11 1005 34 16093 2.6 340 21:37 25.12.2019
5812 Snow 11 1003 20 16093 6.7 250 21:19 25.12.2019
5813 Clouds 11 1005 23 16093 2.1 100 20:40 25.12.2019
5814 Snow 7 1003 29 16093 3.1 240 20:21 25.12.2019
5815 Snow 8 1003 29 16093 3.1 240 19:59 25.12.2019
5816 Clear 8 1005 29 16093 0.35 191 19:41 25.12.2019
5817 Clouds 8 1003 33 16093 0.35 191 19:21 25.12.2019
5818 Clear 8 1006 45 16093 0.35 191 18:40 25.12.2019
5819 Clear 6 1005 25 16093 2.6 160 18:21 25.12.2019
5820 Clouds 5 1005 42 16093 5.1 230 17:57 25.12.2019
5821 Clear 5 1006 55 16093 0.35 191 17:39 25.12.2019
5822 Clouds 3 1005 48 16093 3.1 240 17:18 25.12.2019
5823 Clouds 2 1005 48 16093 3.1 240 16:54 25.12.2019
5824 Clear 1 1006 59 16093 2.74 219 16:36 25.12.2019
5825 Clear -1 1006 73 16093 2.74 219 16:18 25.12.2019
5826 Clear -2 1005 68 16093 2.74 219 15:40 25.12.2019
5827 Clear -2 1003 59 16093 2.1 190 15:22 25.12.2019
5828 Clouds -2 1004 59 16093 2.1 200 14:59 25.12.2019
5829 Clear -2 1005 68 16093 1.5 190 14:41 25.12.2019
5830 Clear -2 1003 59 16093 1.5 200 14:23 25.12.2019
5831 Clouds -2 1003 63 16093 1.5 310 13:58 25.12.2019
5832 Clear -2 1005 79 16093 1.5 210 13:39 25.12.2019
5833 Clear -2 1005 85 16093 2.57 201 13:19 25.12.2019
5834 Clear -2 1004 79 16093 1.5 250 12:43 25.12.2019
5835 Clear -2 1002 40 16093 2.1 310 12:21 25.12.2019
5836 Clear -2 1002 40 16093 2.1 310 12:21 25.12.2019
5837 Clear -2 1002 40 16093 2.1 310 11:57 25.12.2019
5838 Clear -2 1004 85 16093 2.57 201 11:39 25.12.2019
5839 Clear -1 1003 58 16093 2.07 239 11:20 25.12.2019
5840 Clear -1 1004 79 16093 2.07 239 10:39 25.12.2019
5841 Clear -1 1002 37 16093 4.6 300 10:21 25.12.2019
5842 Clouds -1 1002 65 16093 3.6 190 09:51 25.12.2019
5843 Clear 0 1002 43 16093 1.5 340 09:33 25.12.2019
5844 Clouds 0 1003 47 16093 2.07 239 08:51 25.12.2019
5845 Clouds 1 1004 65 16093 2.07 239 08:32 25.12.2019
5846 Clouds 1 1004 43 16093 1.31 222 07:59 25.12.2019
5847 Clouds 1 1004 43 16093 1.31 222 07:59 25.12.2019
5848 Clouds 1 1006 43 16093 1.31 222 07:37 25.12.2019
5849 Clouds 1 1005 47 16093 1.31 222 07:19 25.12.2019
5850 Clouds 2 1005 32 16093 1.31 222 06:23 25.12.2019
5851 Clouds 2 1007 43 16093 1.31 222 05:43 25.12.2019
5852 Clouds 2 1008 38 16093 1.43 216 04:40 25.12.2019
5853 Clouds 2 1007 41 16093 2.1 280 04:20 25.12.2019
5854 Clear 2 1008 43 16093 1.43 216 03:43 25.12.2019
5855 Clouds 2 1007 32 16093 2.1 190 02:57 25.12.2019
5856 Clear 2 1007 30 16093 1.5 230 02:28 25.12.2019
5857 Clear 5 1007 24 16093 1.5 270 01:26 25.12.2019
5858 Clear 4 1007 24 16093 1.5 270 01:26 25.12.2019
5859 Clouds 5 1007 19 16093 2.1 360 00:56 25.12.2019
5860 Clear 8 1008 18 16093 1.5 60 00:33 25.12.2019
5861 Clouds 10 1008 13 16093 0.93 7 23:59 24.12.2019
5862 Clear 10 1009 12 16093 0.93 7 23:39 24.12.2019
5863 Clear 10 1009 12 16093 0.93 7 23:39 24.12.2019
5864 Clouds 10 1008 14 16093 2.1 10 23:20 24.12.2019
5865 Clear 10 1008 15 16093 2.1 100 23:20 24.12.2019
5866 Clear 11 1009 12 16093 1.5 130 22:42 24.12.2019
5867 Clear 10 1008 16 16093 2.1 100 22:23 24.12.2019
5868 Clouds 10 1008 14 32767 2.1 40 21:55 24.12.2019
5869 Clear 10 1010 13 16093 1.5 60 21:37 24.12.2019
5870 Clear 10 1010 12 16093 2.1 20 21:18 24.12.2019
5871 Clear 10 1010 12 16093 2.6 10 20:41 24.12.2019
5872 Clear 9 1011 18 16093 0.33 237 20:19 24.12.2019
5873 Clear 8 1012 19 16093 0.33 237 19:46 24.12.2019
5874 Clouds 8 1011 22 16093 2.6 270 19:22 24.12.2019
5875 Clouds 7 1011 22 16093 2.6 270 18:58 24.12.2019
5876 Clear 7 1013 48 16093 0.33 237 18:40 24.12.2019
5877 Clouds 6 1012 20 16093 4.1 260 18:18 24.12.2019
5878 Clouds 6 1013 51 16093 0.33 237 17:42 24.12.2019
5879 Clear 4 1011 33 16093 2.1 220 17:21 24.12.2019
5880 Clouds 4 1011 22 16093 3.1 270 16:58 24.12.2019
5881 Clear 3 1013 33 16093 2.28 227 16:39 24.12.2019
5882 Clouds 3 1011 34 16093 2.6 260 16:20 24.12.2019
5883 Clouds 2 1010 37 16093 2.1 240 15:57 24.12.2019
5884 Clear 2 1012 74 16093 2.28 227 15:37 24.12.2019
5885 Clear 2 1011 33 16093 1.5 240 15:19 24.12.2019
5886 Clouds 2 1011 27 16093 2.6 230 14:57 24.12.2019
5887 Clear 2 1010 23 16093 1.5 230 14:39 24.12.2019
5888 Clear 2 1010 23 16093 1.5 230 14:21 24.12.2019
5889 Clouds 2 1011 27 16093 3.6 260 13:55 24.12.2019
5890 Clear 2 1012 68 16093 2.13 218 13:37 24.12.2019
5891 Clear 2 1010 29 16093 2.1 240 13:19 24.12.2019
5892 Clear 2 1010 29 16093 2.1 240 12:55 24.12.2019
5893 Clear 2 1011 68 16093 2.1 210 12:36 24.12.2019
5894 Clear 2 1010 47 16093 2.6 270 12:18 24.12.2019
5895 Clouds 2 1010 24 16093 2.6 270 11:55 24.12.2019
5896 Clouds 2 1010 24 16093 2.6 270 11:55 24.12.2019
5897 Clear 2 1012 68 16093 1.93 225 11:37 24.12.2019
5898 Clear 2 1012 68 16093 1.93 225 11:37 24.12.2019
5899 Clouds 2 1010 29 16093 1.5 90 11:18 24.12.2019
5900 Clouds 2 1010 29 16093 1.5 90 10:56 24.12.2019
5901 Clear 2 1010 24 16093 1.5 220 10:37 24.12.2019
5902 Clear 2 1011 37 16093 2.84 205 10:19 24.12.2019
5903 Clear 2 1012 37 16093 2.84 205 09:55 24.12.2019
5904 Clear 3 1012 37 16093 2.84 205 09:36 24.12.2019
5905 Clear 3 1011 27 16093 2.6 280 09:18 24.12.2019
5906 Clear 3 1012 37 16093 2.84 205 08:44 24.12.2019
5907 Clear 3 1011 64 16093 1.81 212 08:20 24.12.2019
5908 Clear 3 1014 55 16093 1.5 210 07:45 24.12.2019
5909 Clear 3 1012 30 16093 2.6 240 07:25 24.12.2019
5910 Clouds 3 1013 30 16093 2.1 220 06:58 24.12.2019
5911 Clear 3 1014 64 16093 1.81 212 06:38 24.12.2019
5912 Clear 3 1013 28 16093 1.5 280 06:18 24.12.2019
5913 Clear 4 1013 24 16093 1.49 243 05:20 24.12.2019
5914 Clear 4 1015 59 16093 1.49 243 04:44 24.12.2019
5915 Clear 5 1015 64 16093 1.5 210 03:50 24.12.2019
5916 Clouds 5 1014 31 16093 1.5 300 02:59 24.12.2019
5917 Clear 6 1013 33 16093 2.1 230 02:21 24.12.2019
5918 Clear 7 1015 51 16093 2.24 227 01:50 24.12.2019
5919 Clear 7 1014 41 16093 2.24 227 01:20 24.12.2019
5920 Clear 7 1015 41 16093 1.93 226 00:43 24.12.2019
5921 Clear 9 1013 31 16093 1.93 226 00:23 24.12.2019
5922 Clouds 11 1013 9 16093 2.6 200 23:56 23.12.2019
5923 Clear 12 1014 26 16093 2.1 360 23:37 23.12.2019
5924 Clouds 13 1013 6 16093 5.1 200 23:19 23.12.2019
5925 Clouds 14 1013 6 16093 5.1 200 22:55 23.12.2019
5926 Clear 14 1014 20 16093 2.1 360 22:55 23.12.2019
5927 Clear 14 1014 20 16093 2.1 360 22:36 23.12.2019
5928 Clear 14 1014 20 16093 2.1 360 22:36 23.12.2019
5929 Clear 14 1014 20 16093 2.1 360 22:36 23.12.2019
5930 Clouds 14 1012 19 16093 3.6 110 22:18 23.12.2019
5931 Clouds 14 1013 14 32767 2.17 203 21:55 23.12.2019
5932 Clear 14 1013 17 16093 2.17 203 21:36 23.12.2019
5933 Clear 14 1014 12 16093 1.5 10 21:36 23.12.2019
5934 Clouds 14 1013 7 16093 3.6 230 21:18 23.12.2019
5935 Clouds 14 1013 7 16093 3.6 230 20:56 23.12.2019
5936 Clouds 14 1013 7 16093 3.6 230 20:56 23.12.2019
5937 Clear 13 1014 20 16093 2.17 203 20:38 23.12.2019
5938 Clear 11 1016 29 16093 3.71 209 20:18 23.12.2019
5939 Clear 11 1016 27 16093 3.52 213 19:55 23.12.2019
5940 Clear 11 1016 27 16093 3.52 213 19:55 23.12.2019
5941 Clear 11 1016 27 16093 3.52 213 19:36 23.12.2019
5942 Clear 10 1015 39 16093 3.52 213 19:18 23.12.2019
5943 Clouds 10 1015 10 16093 5.7 220 18:55 23.12.2019
5944 Clear 10 1015 33 16093 3.52 213 18:36 23.12.2019
5945 Clouds 9 1016 11 16093 5.1 220 18:18 23.12.2019
5946 Clear 8 1017 60 16093 3.52 213 17:55 23.12.2019
5947 Clear 8 1017 60 16093 3.52 213 17:37 23.12.2019
5948 Clear 5 1017 59 16093 4.14 207 17:18 23.12.2019
5949 Clear 5 1017 69 16093 4.14 207 16:42 23.12.2019
5950 Clear 4 1016 64 16093 4.14 207 16:19 23.12.2019
5951 Clouds 4 1016 15 16093 3.1 120 15:58 23.12.2019
5952 Clear 4 1017 34 16093 4.14 207 15:38 23.12.2019
5953 Clear 4 1016 69 16093 1.5 290 15:19 23.12.2019
5954 Clouds 4 1016 20 16093 1.5 230 14:58 23.12.2019
5955 Clear 4 1017 55 16093 2.1 190 14:39 23.12.2019
5956 Clear 4 1015 30 16093 1.5 210 14:21 23.12.2019
5957 Clouds 3 1016 22 16093 2.1 240 13:58 23.12.2019
5958 Clear 4 1017 59 16093 1.5 210 13:40 23.12.2019
5959 Clear 4 1015 30 16093 2.6 190 13:21 23.12.2019
5960 Clear 3 1016 24 16093 3.97 213 12:55 23.12.2019
5961 Clear 3 1017 59 16093 3.97 213 12:37 23.12.2019
5962 Clear 3 1016 69 16093 3.97 213 12:19 23.12.2019
5963 Clear 3 1017 59 16093 1.5 190 11:44 23.12.2019
5964 Clear 3 1016 28 16093 3.1 340 11:25 23.12.2019
5965 Clouds 3 1016 22 16093 2.6 260 10:56 23.12.2019
5966 Clear 3 1018 43 16093 3.96 218 10:38 23.12.2019
5967 Clear 3 1016 64 16093 1.5 260 10:20 23.12.2019
5968 Clear 3 1016 24 16093 2.1 20 09:59 23.12.2019
5969 Clear 3 1017 43 16093 3.96 218 09:39 23.12.2019
5970 Clear 3 1016 59 16093 3.96 218 09:20 23.12.2019
5971 Clouds 3 1016 22 16093 2.1 190 08:55 23.12.2019
5972 Clear 3 1018 80 16093 3.96 218 08:37 23.12.2019
5973 Clear 3 1016 64 16093 3.91 213 08:18 23.12.2019
5974 Clear 3 1018 44 16093 3.99 212 07:43 23.12.2019
5975 Clouds 4 1017 19 16093 3.1 200 07:20 23.12.2019
5976 Clear 4 1018 44 16093 3.99 212 06:50 23.12.2019
5977 Clear 4 1017 59 16093 3.99 212 06:23 23.12.2019
5978 Clouds 4 1017 20 16093 3.1 160 05:49 23.12.2019
5979 Clouds 4 1018 20 16093 2.6 170 05:19 23.12.2019
5980 Clear 5 1018 59 16093 2.1 200 04:19 23.12.2019
5981 Clear 6 1019 64 16093 1.5 170 02:49 23.12.2019
5982 Clear 6 1017 45 16093 3.9 207 02:25 23.12.2019
5983 Clouds 7 1018 19 16093 3.6 180 01:53 23.12.2019
5984 Clear 7 1017 42 16093 3.18 216 01:32 23.12.2019
5985 Clouds 7 1018 27 16093 2.1 360 00:55 23.12.2019
5986 Clear 8 1019 48 16093 3.18 216 00:35 23.12.2019
5987 Clouds 11 1018 11 16093 3.18 216 23:57 22.12.2019
5988 Clear 13 1019 31 16093 1.5 30 23:39 22.12.2019
5989 Clear 13 1017 27 16093 2.1 40 23:20 22.12.2019
5990 Clouds 13 1018 8 16093 2.2 207 22:57 22.12.2019
5991 Clear 14 1018 28 16093 1.5 310 22:38 22.12.2019
5992 Clear 14 1018 28 16093 1.5 310 22:38 22.12.2019
5993 Clear 14 1017 22 16093 2.1 10 22:19 22.12.2019
5994 Clouds 15 1018 8 16093 1.5 350 21:56 22.12.2019
5995 Clear 17 1018 20 16093 3.6 340 21:38 22.12.2019
5996 Clear 17 1019 6 16093 1.5 170 21:20 22.12.2019
5997 Clear 16 1019 10 16093 2.2 207 20:43 22.12.2019
5998 Clear 13 1020 14 16093 3.72 208 20:20 22.12.2019
5999 Clouds 12 1019 13 16093 2.1 100 19:58 22.12.2019
6000 Clear 12 1020 14 16093 3.72 208 19:40 22.12.2019
6001 Clear 11 1021 22 16093 3.72 208 19:20 22.12.2019
6002 Clouds 11 1020 9 16093 2.6 230 18:58 22.12.2019
6003 Clear 11 1021 36 16093 3.72 208 18:38 22.12.2019
6004 Clear 10 1020 49 16093 3.72 208 18:19 22.12.2019
6005 Clouds 9 1021 13 16093 3.72 208 17:55 22.12.2019
6006 Clear 7 1020 38 16093 3.72 208 17:36 22.12.2019
6007 Clouds 5 1020 24 16093 2.1 140 17:18 22.12.2019
6008 Clear 4 1021 68 16093 4.51 218 16:42 22.12.2019
6009 Clear 2 1019 24 16093 1.5 260 16:23 22.12.2019
6010 Clouds 2 1019 16 16093 6.7 210 16:23 22.12.2019
6011 Clouds 2 1020 23 16093 2.1 150 15:57 22.12.2019
6012 Clear 2 1021 63 16093 4.51 218 15:39 22.12.2019
6013 Clear 1 1021 68 16093 4.51 218 15:21 22.12.2019
6014 Clouds 2 1020 25 16093 3.6 180 14:57 22.12.2019
6015 Clear 1 1021 68 16093 1.5 170 14:38 22.12.2019
6016 Clouds 1 1020 20 16093 2.1 150 14:19 22.12.2019
6017 Clouds 1 1020 20 16093 2.1 150 13:56 22.12.2019
6018 Clear 1 1019 43 16093 4.72 211 13:38 22.12.2019
6019 Clear 2 1020 68 16093 2.1 280 13:19 22.12.2019
6020 Clear 2 1020 20 16093 1.5 260 12:57 22.12.2019
6021 Clear 2 1021 63 16093 4.52 213 12:38 22.12.2019
6022 Clouds 2 1021 18 16093 3.6 170 12:19 22.12.2019
6023 Clouds 2 1021 18 16093 3.6 170 11:56 22.12.2019
6024 Clear 2 1022 63 16093 4.52 213 11:38 22.12.2019
6025 Clear 2 1021 37 16093 4.87 214 11:19 22.12.2019
6026 Clouds 2 1021 18 16093 2.6 150 10:56 22.12.2019
6027 Clear 2 1022 74 16093 4.87 214 10:38 22.12.2019
6028 Clear 2 1021 37 16093 1.5 300 10:19 22.12.2019
6029 Clear 2 1021 37 16093 1.5 300 10:19 22.12.2019
6030 Clouds 2 1021 20 16093 3.1 210 09:57 22.12.2019
6031 Clear 2 1022 68 16093 4.87 214 09:39 22.12.2019
6032 Clear 2 1020 37 16093 2.1 190 09:20 22.12.2019
6033 Clear 2 1021 37 16093 4.6 210 08:42 22.12.2019
6034 Clear 2 1021 25 16093 2.6 240 08:22 22.12.2019
6035 Clear 2 1023 68 16093 1.5 240 07:43 22.12.2019
6036 Clear 2 1021 50 16093 4.78 217 07:21 22.12.2019
6037 Clouds 2 1022 25 16093 5.1 180 06:52 22.12.2019
6038 Clear 2 1022 18 16093 1.5 200 06:25 22.12.2019
6039 Clear 2 1022 25 16093 1.5 240 05:32 22.12.2019
6040 Clear 2 1022 43 16093 4.6 200 04:46 22.12.2019
6041 Clear 2 1022 43 16093 4.6 200 04:46 22.12.2019
6042 Clear 2 1022 51 16093 4.05 217 04:24 22.12.2019
6043 Clear 4 1023 63 16093 4.05 217 02:43 22.12.2019
6044 Clouds 5 1022 23 16093 6.2 170 01:59 22.12.2019
6045 Clear 5 1023 55 16093 2.1 210 01:31 22.12.2019
6046 Clouds 7 1022 29 32767 3.6 350 00:54 22.12.2019
6047 Clear 9 1023 33 16093 3.84 216 00:36 22.12.2019
6048 Clear 11 1023 25 16093 2.1 340 00:18 22.12.2019
6049 Clear 14 1023 25 16093 2.6 10 23:40 21.12.2019
6050 Clouds 13 1021 8 32767 2.6 130 23:21 21.12.2019
6051 Clear 13 1022 20 16093 2.6 30 22:47 21.12.2019
6052 Clouds 13 1021 6 16093 2.6 240 22:20 21.12.2019
6053 Clouds 14 1021 6 16093 2.6 240 21:58 21.12.2019
6054 Clear 16 1022 12 16093 1.5 30 21:40 21.12.2019
6055 Clear 16 1021 13 16093 2.26 206 21:21 21.12.2019
6056 Clouds 15 1022 7 16093 3.1 250 20:59 21.12.2019
6057 Clear 15 1023 22 16093 2.26 206 20:41 21.12.2019
6058 Clouds 11 1022 8 16093 3.1 240 20:22 21.12.2019
6059 Clouds 10 1022 15 16093 3.7 210 19:59 21.12.2019
6060 Clouds 10 1022 15 16093 3.7 210 19:59 21.12.2019
6061 Clear 10 1024 24 16093 3.7 210 19:40 21.12.2019
6062 Clear 8 1023 34 16093 3.7 210 19:20 21.12.2019
6063 Clouds 9 1024 8 16093 3.6 220 18:56 21.12.2019
6064 Clear 10 1025 35 16093 3.7 210 18:38 21.12.2019
6065 Clouds 9 1024 13 16093 2.1 180 18:20 21.12.2019
6066 Clouds 8 1024 13 16093 2.1 180 17:55 21.12.2019
6067 Clouds 8 1024 13 16093 2.1 180 17:55 21.12.2019
6068 Clear 7 1026 59 16093 3.7 210 17:55 21.12.2019
6069 Clear 7 1026 59 16093 3.7 210 17:37 21.12.2019
6070 Clouds 3 1024 35 16093 2.6 150 17:18 21.12.2019
6071 Clouds 3 1024 35 16093 2.6 150 17:18 21.12.2019
6072 Clear 2 1026 68 16093 4.87 212 16:41 21.12.2019
6073 Clear 0 1025 79 16093 4.87 212 16:19 21.12.2019
6074 Clear 0 1025 79 16093 4.87 212 16:19 21.12.2019
6075 Clouds -1 1024 31 16093 3.6 170 15:58 21.12.2019
6076 Clear -2 1025 79 16093 1.5 130 15:39 21.12.2019
6077 Clear -2 1024 73 11265 4.87 212 15:20 21.12.2019
6078 Clouds -1 1024 30 16093 3.1 180 14:57 21.12.2019
6079 Clear -2 1030 48 0 10.3 310 14:39 21.12.2019
6080 Clear -2 1030 48 0 10.3 310 14:39 21.12.2019
6081 Clouds -2 1024 45 16093 4.49 219 14:20 21.12.2019
6082 Clouds -2 1024 45 16093 4.49 219 13:56 21.12.2019
6083 Clear -2 1025 85 16093 4.49 219 13:38 21.12.2019
6084 Clouds -2 1024 49 16093 2.6 150 13:18 21.12.2019
6085 Clouds -1 1024 49 16093 2.6 150 12:55 21.12.2019
6086 Clear -2 1025 85 16093 1.5 210 12:37 21.12.2019
6087 Clouds -2 1024 46 16093 2.1 170 12:18 21.12.2019
6088 Clear -1 1026 85 16093 1.5 60 11:44 21.12.2019
6089 Clear -1 1024 32 16093 3.1 250 11:26 21.12.2019
6090 Clear -1 1024 32 16093 3.6 270 10:57 21.12.2019
6091 Clear -1 1024 32 16093 3.6 270 10:57 21.12.2019
6092 Clear -1 1026 85 16093 1.5 130 10:38 21.12.2019
6093 Clear -1 1024 43 16093 2.1 160 10:20 21.12.2019
6094 Clear -1 1025 85 16093 1.5 200 09:44 21.12.2019
6095 Clear -1 1024 40 16093 1.5 170 09:22 21.12.2019
6096 Clear -1 1024 40 16093 4.1 260 08:59 21.12.2019
6097 Clear -1 1026 85 16093 4.3 218 08:39 21.12.2019
6098 Clear -1 1025 73 16093 3.91 217 08:21 21.12.2019
6099 Clear -1 1026 85 16093 3.91 217 07:44 21.12.2019
6100 Clear -1 1024 48 16093 2.1 350 07:22 21.12.2019
6101 Clear 0 1026 85 16093 3.91 217 06:45 21.12.2019
6102 Clear -1 1024 48 16093 3.91 217 06:26 21.12.2019
6103 Clouds 0 1025 34 16093 3.6 200 05:51 21.12.2019
6104 Clouds 0 1025 34 16093 2.1 190 04:58 21.12.2019
6105 Clouds 1 1024 34 16093 3.1 230 03:57 21.12.2019
6106 Clear 1 1026 56 16093 3.59 226 03:18 21.12.2019
6107 Clouds 3 1024 27 16093 2.6 190 01:59 21.12.2019
6108 Clouds 4 1023 24 16093 3.1 140 01:28 21.12.2019
6109 Clouds 6 1023 20 16093 1.5 120 00:55 21.12.2019
6110 Clear 6 1025 44 16093 2.32 206 00:37 21.12.2019
6111 Clear 6 1025 44 16093 2.32 206 00:18 21.12.2019
6112 Clear 9 1024 39 16093 2.1 350 23:38 20.12.2019
6113 Clouds 9 1023 12 16093 2.6 110 23:19 20.12.2019
6114 Clear 9 1024 31 16093 3.1 360 22:41 20.12.2019
6115 Clear 10 1023 22 16093 1.5 350 22:21 20.12.2019
6116 Clouds 10 1022 12 16093 2.1 190 21:59 20.12.2019
6117 Clear 11 1023 13 16093 1.5 220 21:40 20.12.2019
6118 Clear 10 1021 29 16093 2.1 350 21:20 20.12.2019
6119 Clear 10 1022 21 16093 1.65 193 21:20 20.12.2019
6120 Clear 10 1024 14 16093 2.6 180 20:41 20.12.2019
6121 Clear 8 1022 31 16093 1.5 50 20:21 20.12.2019
6122 Clouds 8 1023 18 16093 4.1 180 19:59 20.12.2019
6123 Clear 7 1025 16 16093 2.1 200 19:40 20.12.2019
6124 Clear 7 1024 26 16093 1.5 130 19:20 20.12.2019
6125 Clouds 6 1024 19 16093 4.1 200 18:55 20.12.2019
6126 Clouds 6 1024 19 16093 4.1 200 18:55 20.12.2019
6127 Clouds 6 1024 19 16093 4.1 200 18:55 20.12.2019
6128 Clear 5 1024 38 16093 1.5 60 18:36 20.12.2019
6129 Clear 5 1024 38 16093 1.5 60 18:36 20.12.2019
6130 Clouds 4 1024 24 16093 3.6 200 18:18 20.12.2019
6131 Clear 2 1025 59 16093 3.57 208 17:42 20.12.2019
6132 Clear 2 1025 59 16093 3.57 208 17:42 20.12.2019
6133 Clear 1 1025 59 16093 3.69 215 17:21 20.12.2019
6134 Clear -1 1025 68 16093 3.69 215 16:59 20.12.2019
6135 Clear -2 1023 39 16093 3.69 215 16:40 20.12.2019
6136 Clear -3 1025 73 16093 3.69 215 16:20 20.12.2019
6137 Clear -3 1025 73 16093 3.69 215 16:20 20.12.2019
6138 Clear -4 1024 78 16093 3.69 215 15:57 20.12.2019
6139 Clear -4 1024 78 16093 3.69 215 15:39 20.12.2019
6140 Clear -5 1024 78 16093 3.69 215 15:19 20.12.2019
6141 Clear -5 1024 78 16093 1.5 220 14:57 20.12.2019
6142 Clear -5 1023 67 16093 3.69 215 14:39 20.12.2019
6143 Clear -5 1024 78 16093 3.88 214 14:20 20.12.2019
6144 Clear -5 1022 67 16093 4.1 210 13:41 20.12.2019
6145 Clear -5 1023 85 16093 3.88 214 13:21 20.12.2019
6146 Clear -5 1023 79 16093 1.5 210 12:59 20.12.2019
6147 Clear -5 1023 79 16093 1.5 210 12:40 20.12.2019
6148 Clear -5 1023 85 16093 2.1 200 12:19 20.12.2019
6149 Clear -5 1023 85 16093 1.5 200 11:59 20.12.2019
6150 Clear -5 1021 42 16093 2.6 270 11:39 20.12.2019
6151 Clear -5 1023 85 16093 3.01 220 11:20 20.12.2019
6152 Clear -5 1023 85 16093 1.5 220 10:58 20.12.2019
6153 Clear -5 1021 67 16093 3.1 210 10:40 20.12.2019
6154 Clear -5 1021 53 16093 3.1 200 10:20 20.12.2019
6155 Clear -5 1022 85 16093 3.01 220 09:55 20.12.2019
6156 Clear -5 1021 73 16093 4.6 190 09:37 20.12.2019
6157 Clear -5 1022 79 16093 1.5 250 09:19 20.12.2019
6158 Clear -4 1020 73 16093 3.6 180 08:42 20.12.2019
6159 Clear -4 1022 85 16093 1.63 225 08:22 20.12.2019
6160 Clear -4 1022 85 16093 1.5 220 07:58 20.12.2019
6161 Clear -4 1020 68 16093 1.5 190 07:40 20.12.2019
6162 Clear -3 1022 79 16093 1.63 225 07:19 20.12.2019
6163 Clear -3 1022 79 16093 1.63 225 07:19 20.12.2019
6164 Clear -3 1020 58 16093 3.1 180 06:50 20.12.2019
6165 Clear -3 1021 79 16093 1.63 225 06:31 20.12.2019
6166 Clear -3 1020 73 16093 1.63 225 05:52 20.12.2019
6167 Clear -2 1019 73 16093 3.1 150 05:34 20.12.2019
6168 Clear -1 1019 54 16093 2.1 220 03:57 20.12.2019
6169 Clear 0 1019 63 16093 2.29 241 03:29 20.12.2019
6170 Clear 0 1018 37 16093 2.29 241 02:41 20.12.2019
6171 Clear 2 1015 40 16093 1.5 310 01:44 20.12.2019
6172 Clear 2 1015 40 16093 1.5 310 01:44 20.12.2019
6173 Clear 2 1017 34 16093 1.88 206 01:18 20.12.2019
6174 Clear 3 1017 32 16093 1.88 206 00:41 20.12.2019
6175 Clear 3 1016 30 16093 1.5 110 00:19 20.12.2019
6176 Clear 4 1014 30 16093 3.1 30 23:42 19.12.2019
6177 Clear 6 1016 28 16093 2.6 120 23:23 19.12.2019
6178 Clear 6 1015 20 16093 3.6 120 22:56 19.12.2019
6179 Clear 6 1014 20 16093 3.1 130 22:36 19.12.2019
6180 Clear 7 1014 20 16093 3.1 130 22:18 19.12.2019
6181 Clear 7 1014 18 16093 3.1 110 21:42 19.12.2019
6182 Clear 7 1014 18 16093 3.1 110 21:42 19.12.2019
6183 Clear 7 1014 19 16093 3.1 130 21:20 19.12.2019
6184 Clear 7 1014 17 16093 3.6 130 20:59 19.12.2019
6185 Clear 7 1014 16 16093 1.5 120 20:39 19.12.2019
6186 Clear 6 1014 16 16093 1.5 120 20:21 19.12.2019
6187 Clear 6 1015 26 16093 1.5 200 19:59 19.12.2019
6188 Clear 6 1015 30 16093 0.15 55 19:40 19.12.2019
6189 Clear 5 1015 30 16093 0.15 55 19:20 19.12.2019
6190 Clear 5 1016 35 16093 0.15 55 19:00 19.12.2019
6191 Clear 5 1016 35 16093 0.15 55 18:41 19.12.2019
6192 Clear 4 1015 37 16093 0.15 55 18:20 19.12.2019
6193 Clear 3 1015 55 16093 0.15 55 17:57 19.12.2019
6194 Clear 3 1015 68 16093 0.15 55 17:38 19.12.2019
6195 Clear 3 1014 43 16093 1.5 320 17:38 19.12.2019
6196 Clear 3 1014 43 16093 1.5 320 17:38 19.12.2019
6197 Clear 1 1015 68 16093 4.62 216 17:19 19.12.2019
6198 Clear 0 1015 85 16093 4.62 216 16:57 19.12.2019
6199 Clear 0 1013 31 16093 3.1 50 16:38 19.12.2019
6200 Clear -1 1015 85 16093 1.5 10 16:20 19.12.2019
6201 Clear -1 1015 85 16093 1.5 10 16:20 19.12.2019
6202 Clear -1 1015 85 16093 1.5 10 16:20 19.12.2019
6203 Clear -1 1015 79 16093 1.5 160 15:58 19.12.2019
6204 Clear -1 1015 79 16093 4.62 216 15:38 19.12.2019
6205 Clear -1 1015 79 16093 4.62 216 15:19 19.12.2019
6206 Clear -1 1014 85 16093 4.62 216 14:57 19.12.2019
6207 Clear -1 1012 54 16093 4.62 216 14:39 19.12.2019
6208 Clouds -1 1012 36 32767 2.1 280 14:18 19.12.2019
6209 Clear -2 1012 50 16093 5.1 211 13:39 19.12.2019
6210 Clear -1 1014 85 16093 5.27 210 13:20 19.12.2019
6211 Clear -1 1015 79 16093 5.27 210 12:59 19.12.2019
6212 Clear -2 1013 34 16093 1.5 290 12:40 19.12.2019
6213 Clear -1 1015 85 16093 5.27 210 12:19 19.12.2019
6214 Clear -1 1015 85 16093 5.27 210 12:19 19.12.2019
6215 Clear -1 1015 85 16093 5.27 210 12:19 19.12.2019
6216 Clear -1 1015 73 16093 5.27 210 11:59 19.12.2019
6217 Clear -2 1015 73 16093 5.27 210 11:41 19.12.2019
6218 Clear -1 1015 73 16093 4.63 214 11:19 19.12.2019
6219 Clear -1 1016 85 16093 4.63 214 10:59 19.12.2019
6220 Clear -1 1014 31 16093 4.63 214 10:38 19.12.2019
6221 Clear -2 1014 32 16093 6.2 210 10:38 19.12.2019
6222 Clear -1 1016 85 16093 4.63 214 10:20 19.12.2019
6223 Clear -1 1016 85 16093 4.63 214 10:20 19.12.2019
6224 Clear -1 1016 85 16093 4.63 214 09:57 19.12.2019
6225 Clear -1 1014 37 16093 5.7 180 09:37 19.12.2019
6226 Clear -1 1016 73 16093 4.63 214 09:19 19.12.2019
6227 Clear -1 1017 79 16093 4.63 214 08:55 19.12.2019
6228 Clear -1 1015 32 16093 6.7 180 08:37 19.12.2019
6229 Clear -1 1017 79 16093 3.96 211 08:18 19.12.2019
6230 Clear -1 1018 79 16093 3.96 211 07:43 19.12.2019
6231 Clear -1 1018 85 16093 3.96 211 07:24 19.12.2019
6232 Clear -1 1019 79 16093 3.96 211 06:59 19.12.2019
6233 Clear -1 1017 31 16093 3.96 211 06:41 19.12.2019
6234 Clear -1 1019 73 16093 3.96 211 06:21 19.12.2019
6235 Clear -1 1018 34 16093 3.96 211 05:42 19.12.2019
6236 Clear -1 1020 68 16093 3.44 218 05:19 19.12.2019
6237 Clear 0 1020 73 16093 3.44 218 03:53 19.12.2019
6238 Clear 1 1021 63 16093 3.44 218 02:28 19.12.2019
6239 Clear 3 1021 50 16093 2.7 207 01:25 19.12.2019
6240 Clear 4 1021 32 16093 2.7 207 00:57 19.12.2019
6241 Clear 5 1020 38 16093 2.7 207 00:38 19.12.2019
6242 Clear 6 1021 28 16093 2.7 207 00:19 19.12.2019
6243 Clear 10 1021 23 16093 2.1 20 23:44 18.12.2019
6244 Clear 9 1021 23 16093 2.1 20 23:19 18.12.2019
6245 Clear 10 1020 21 16093 1.5 30 22:57 18.12.2019
6246 Clear 10 1020 23 16093 1.5 20 22:39 18.12.2019
6247 Clear 10 1020 23 16093 1.5 20 22:21 18.12.2019
6248 Clear 10 1021 23 16093 1.43 194 21:58 18.12.2019
6249 Clear 12 1019 23 16093 1.5 20 21:40 18.12.2019
6250 Clear 12 1021 23 16093 2.1 20 21:20 18.12.2019
6251 Clear 12 1021 23 16093 2.1 20 21:20 18.12.2019
6252 Clear 11 1021 18 16093 1.43 194 20:57 18.12.2019
6253 Clear 11 1021 19 16093 1.43 194 20:38 18.12.2019
6254 Clouds 9 1020 10 16093 3.1 230 20:20 18.12.2019
6255 Clear 8 1022 22 16093 3.63 204 19:56 18.12.2019
6256 Clear 8 1022 26 16093 3.63 204 19:38 18.12.2019
6257 Clear 8 1022 26 16093 3.63 204 19:38 18.12.2019
6258 Clear 7 1022 26 16093 3.63 204 19:18 18.12.2019
6259 Clouds 7 1021 16 16093 4.6 210 18:54 18.12.2019
6260 Clouds 7 1021 16 16093 4.6 210 18:36 18.12.2019
6261 Clouds 6 1021 16 16093 4.6 210 18:18 18.12.2019
6262 Clear 4 1023 47 16093 3.63 204 17:55 18.12.2019
6263 Clear 4 1023 41 16093 3.63 204 17:37 18.12.2019
6264 Clear 2 1023 50 16093 5.47 213 17:18 18.12.2019
6265 Clear -1 1022 73 16093 5.47 213 16:42 18.12.2019
6266 Clear -2 1021 73 16093 5.47 213 16:23 18.12.2019
6267 Clouds -3 1021 33 16093 1.5 210 15:57 18.12.2019
6268 Clear -4 1022 85 16093 1.5 190 15:39 18.12.2019
6269 Clear -4 1021 72 16093 1.5 140 15:21 18.12.2019
6270 Clear -4 1021 30 16093 3.1 180 14:56 18.12.2019
6271 Clear -4 1022 78 16093 5.47 213 14:36 18.12.2019
6272 Clear -4 1021 52 16093 4.6 210 14:18 18.12.2019
6273 Clear -4 1021 52 16093 4.6 210 13:54 18.12.2019
6274 Clear -4 1020 53 16093 4.1 330 13:36 18.12.2019
6275 Clear -4 1021 52 16093 5.7 220 13:18 18.12.2019
6276 Clear -4 1022 85 16093 2.6 200 12:40 18.12.2019
6277 Clear -4 1022 85 16093 2.6 200 12:40 18.12.2019
6278 Clear -4 1021 49 16093 1.5 170 12:21 18.12.2019
6279 Clear -4 1021 49 16093 1.5 170 11:57 18.12.2019
6280 Clear -4 1023 78 16093 1.5 190 11:39 18.12.2019
6281 Clear -4 1022 53 16093 4.6 180 11:20 18.12.2019
6282 Clear -4 1022 53 16093 4.6 180 10:57 18.12.2019
6283 Clear -4 1024 85 16093 3.1 230 10:39 18.12.2019
6284 Clear -4 1021 55 16093 4.6 220 10:20 18.12.2019
6285 Clear -4 1021 55 16093 4.6 220 10:20 18.12.2019
6286 Clear -4 1021 55 16093 4.6 220 09:57 18.12.2019
6287 Clear -4 1022 42 16093 4.1 210 09:19 18.12.2019
6288 Clear -4 1023 78 16093 1.5 200 08:42 18.12.2019
6289 Clear -4 1022 50 16093 2.6 180 08:24 18.12.2019
6290 Clear -4 1022 50 16093 2.6 180 07:56 18.12.2019
6291 Clear -4 1022 50 16093 2.6 180 07:56 18.12.2019
6292 Clear -4 1025 85 16093 2.1 210 07:38 18.12.2019
6293 Clear -4 1025 85 16093 5.1 209 07:19 18.12.2019
6294 Clear -4 1023 46 16093 4.6 200 06:50 18.12.2019
6295 Clear -3 1023 46 16093 5.7 190 06:22 18.12.2019
6296 Clear -3 1023 50 16093 3.6 260 05:34 18.12.2019
6297 Clear -3 1026 79 16093 3.55 218 03:46 18.12.2019
6298 Clear -2 1026 68 16093 1.5 230 02:44 18.12.2019
6299 Clear -2 1024 58 16093 3.55 218 02:26 18.12.2019
6300 Clear -1 1027 54 16093 1.43 202 01:43 18.12.2019
6301 Clouds -1 1025 39 16093 5.7 140 01:24 18.12.2019
6302 Clear 1 1027 43 16093 1.5 280 00:42 18.12.2019
6303 Clouds 2 1024 18 16093 1.26 201 00:24 18.12.2019
6304 Clouds 3 1024 18 16093 1.26 201 23:58 17.12.2019
6305 Clear 4 1027 18 16093 3.1 100 23:39 17.12.2019
6306 Clouds 5 1024 16 16093 1.5 50 23:20 17.12.2019
6307 Clouds 5 1024 16 16093 1.5 50 22:56 17.12.2019
6308 Clear 5 1026 17 16093 1.5 110 22:38 17.12.2019
6309 Clear 5 1025 30 16093 0.59 23 22:19 17.12.2019
6310 Clouds 5 1024 16 16093 2.1 0 21:56 17.12.2019
6311 Clouds 5 1024 16 16093 2.1 0 21:56 17.12.2019
6312 Clear 5 1026 20 16093 4.6 50 21:56 17.12.2019
6313 Clouds 5 1024 28 16093 6.2 340 21:38 17.12.2019
6314 Clear 5 1025 32 16093 1.5 20 21:19 17.12.2019
6315 Clouds 4 1024 17 16093 2.1 90 20:57 17.12.2019
6316 Clouds 4 1026 35 16093 4.1 340 20:38 17.12.2019
6317 Clouds 2 1024 18 16093 2.1 110 20:18 17.12.2019
6318 Clouds 2 1024 18 16093 2.1 110 19:56 17.12.2019
6319 Clear 2 1026 20 16093 3.6 360 19:38 17.12.2019
6320 Clouds 1 1025 25 16093 2.6 150 19:18 17.12.2019
6321 Clouds 0 1025 17 16093 3.1 240 18:55 17.12.2019
6322 Clouds 0 1026 25 16093 2.6 160 18:36 17.12.2019
6323 Clouds -1 1025 22 16093 4.6 230 18:18 17.12.2019
6324 Clouds -3 1027 42 16093 4.07 207 17:42 17.12.2019
6325 Clouds -3 1027 42 16093 4.07 207 17:42 17.12.2019
6326 Clouds -4 1025 25 16093 5.1 240 17:21 17.12.2019
6327 Clouds -5 1025 25 16093 5.1 240 16:57 17.12.2019
6328 Clear -6 1027 48 16093 5.31 218 16:38 17.12.2019
6329 Clouds -7 1024 32 16093 3.1 210 16:19 17.12.2019
6330 Clouds -8 1024 32 16093 3.1 210 15:58 17.12.2019
6331 Clear -9 1026 57 16093 5.31 218 15:37 17.12.2019
6332 Clear -9 1024 40 16093 2.1 210 15:19 17.12.2019
6333 Clear -9 1024 40 16093 2.1 210 14:56 17.12.2019
6334 Clear -9 1025 41 16093 5.31 218 14:37 17.12.2019
6335 Clear -9 1024 66 16093 1.5 280 14:18 17.12.2019
6336 Clear -9 1024 66 16093 1.5 280 14:18 17.12.2019
6337 Clear -9 1024 66 16093 1.5 280 14:18 17.12.2019
6338 Clear -10 1023 37 16093 5.7 220 13:56 17.12.2019
6339 Clear -10 1025 44 16093 2.6 200 13:37 17.12.2019
6340 Clear -10 1023 40 16093 5.1 230 13:18 17.12.2019
6341 Clear -10 1023 40 16093 5.1 230 12:55 17.12.2019
6342 Clear -10 1025 57 16093 2.1 190 12:37 17.12.2019
6343 Clear -10 1024 61 16093 4.1 200 12:18 17.12.2019
6344 Clear -10 1024 40 16093 5.1 240 11:54 17.12.2019
6345 Clear -10 1025 61 16093 3.6 200 11:36 17.12.2019
6346 Clear -10 1024 40 16093 4.6 240 11:18 17.12.2019
6347 Clear -10 1027 78 16093 4.47 222 10:54 17.12.2019
6348 Clear -10 1025 44 16093 1.5 210 10:36 17.12.2019
6349 Clear -10 1025 66 16093 3.6 190 10:18 17.12.2019
6350 Clear -10 1027 78 16093 4.47 222 09:42 17.12.2019
6351 Clear -10 1024 35 16093 6.2 300 09:21 17.12.2019
6352 Clear -10 1026 61 16093 4.47 222 09:21 17.12.2019
6353 Clear -10 1024 35 16093 6.2 300 08:56 17.12.2019
6354 Clear -10 1027 85 16093 4.47 222 08:38 17.12.2019
6355 Clear -10 1027 85 16093 4.47 222 08:38 17.12.2019
6356 Clear -10 1027 85 16093 4.47 222 08:38 17.12.2019
6357 Clear -10 1027 85 16093 4.47 222 08:38 17.12.2019
6358 Clear -10 1024 48 16093 4.6 230 08:20 17.12.2019
6359 Clear -9 1024 48 16093 4.6 230 07:55 17.12.2019
6360 Clear -10 1026 66 16093 1.5 320 07:36 17.12.2019
6361 Clear -9 1024 52 16093 3.6 200 07:18 17.12.2019
6362 Clear -9 1024 31 16093 3.6 240 06:35 17.12.2019
6363 Clear -8 1024 61 16093 3.1 210 05:56 17.12.2019
6364 Clear -8 1024 35 16093 5.1 290 05:36 17.12.2019
6365 Clear -7 1024 30 16093 2.1 250 04:33 17.12.2019
6366 Clear -6 1025 53 16093 2.31 219 02:45 17.12.2019
6367 Clear -5 1025 49 16093 1.26 49 01:56 17.12.2019
6368 Clouds -4 1022 38 16093 3.6 50 01:18 17.12.2019
6369 Clear -3 1022 33 16093 1.25 14 00:38 17.12.2019
6370 Clear -3 1022 33 16093 1.25 14 00:38 17.12.2019
6371 Clear -3 1024 36 16093 1.5 80 00:38 17.12.2019
6372 Clear -3 1024 36 16093 1.5 80 00:38 17.12.2019
6373 Clouds -3 1021 38 16093 4.1 50 00:20 17.12.2019
6374 Clear -2 1023 55 16093 2.6 50 23:42 16.12.2019
6375 Clouds -1 1021 33 16093 3.6 20 23:19 16.12.2019
6376 Clouds -1 1021 33 16093 3.6 20 22:58 16.12.2019
6377 Clear -1 1022 29 16093 3.6 40 22:37 16.12.2019
6378 Clouds -1 1020 33 16093 2.6 350 22:19 16.12.2019
6379 Clouds -1 1020 33 16093 2.6 350 22:19 16.12.2019
6380 Clouds -1 1020 33 16093 2.6 350 21:56 16.12.2019
6381 Clear -1 1022 29 16093 1.92 41 21:37 16.12.2019
6382 Clear -1 1022 29 16093 1.5 20 21:19 16.12.2019
6383 Clouds -1 1020 46 16093 2.1 120 20:57 16.12.2019
6384 Clear -1 1022 29 16093 2.6 20 20:37 16.12.2019
6385 Clear -2 1021 32 16093 1.5 60 20:19 16.12.2019
6386 Clouds -2 1020 50 16093 1.93 6 19:56 16.12.2019
6387 Clear -2 1023 58 16093 1.93 6 19:37 16.12.2019
6388 Clouds -3 1020 73 16093 2.6 220 19:18 16.12.2019
6389 Clouds -3 1020 73 16093 2.6 220 18:56 16.12.2019
6390 Clear -3 1023 58 16093 1.5 150 18:38 16.12.2019
6391 Snow -4 1021 79 4828 1.5 270 18:38 16.12.2019
6392 Clouds -4 1021 73 16093 1.93 6 18:19 16.12.2019
6393 Clouds -4 1021 73 16093 1.93 6 17:57 16.12.2019
6394 Clear -5 1023 58 16093 2.1 210 17:38 16.12.2019
6395 Snow -5 1020 73 16093 2.1 10 17:19 16.12.2019
6396 Clouds -5 1020 73 16093 1.99 19 16:55 16.12.2019
6397 Clear -6 1022 79 16093 1.5 170 16:37 16.12.2019
6398 Clear -6 1021 79 11265 1.99 19 16:19 16.12.2019
6399 Clouds -6 1019 79 16093 1.99 19 15:57 16.12.2019
6400 Clouds -6 1021 79 16093 1.99 19 15:38 16.12.2019
6401 Clouds -6 1018 79 16093 1.5 290 15:20 16.12.2019
6402 Clouds -6 1018 79 16093 1.5 290 14:55 16.12.2019
6403 Clouds -6 1020 79 16093 1.99 19 14:36 16.12.2019
6404 Snow -6 1017 79 9656 2.6 230 14:18 16.12.2019
6405 Snow -6 1017 79 9656 2.6 230 13:55 16.12.2019
6406 Clouds -6 1020 85 16093 1.5 360 13:37 16.12.2019
6407 Rain -6 1016 85 16093 2.6 260 13:19 16.12.2019
6408 Clouds -6 1016 73 16093 2.1 260 12:56 16.12.2019
6409 Clouds -5 1019 85 16093 2.71 340 12:38 16.12.2019
6410 Clouds -5 1016 79 16093 2.6 230 12:18 16.12.2019
6411 Clouds -5 1016 79 16093 2.6 230 12:18 16.12.2019
6412 Clouds -5 1015 73 16093 2.71 340 11:55 16.12.2019
6413 Clouds -5 1018 79 16093 2.71 340 11:37 16.12.2019
6414 Clouds -5 1016 85 16093 2.1 200 11:19 16.12.2019
6415 Clouds -5 1018 85 16093 0.71 271 10:40 16.12.2019
6416 Clouds -5 1018 85 16093 0.71 271 10:40 16.12.2019
6417 Clouds -5 1018 85 16093 0.71 271 10:40 16.12.2019
6418 Rain -5 1014 73 16093 2.1 160 10:22 16.12.2019
6419 Clouds -5 1014 73 16093 2.1 160 09:59 16.12.2019
6420 Clouds -5 1017 85 16093 1.5 360 09:41 16.12.2019
6421 Rain -5 1014 73 16093 2.1 180 09:23 16.12.2019
6422 Clouds -5 1016 85 16093 2.1 10 08:40 16.12.2019
6423 Clouds -5 1014 79 16093 1.5 210 08:19 16.12.2019
6424 Clouds -5 1014 79 16093 1.5 210 08:19 16.12.2019
6425 Clouds -5 1013 73 16093 2.1 180 07:52 16.12.2019
6426 Clouds -5 1014 68 16093 2.1 170 07:31 16.12.2019
6427 Clouds -5 1013 68 16093 1.97 189 06:52 16.12.2019
6428 Clouds -5 1013 73 16093 1.97 189 06:27 16.12.2019
6429 Clouds -5 1013 73 16093 1.97 189 05:59 16.12.2019
6430 Clouds -5 1015 63 16093 2.1 120 05:40 16.12.2019
6431 Clouds -5 1013 73 16093 2.6 130 05:22 16.12.2019
6432 Clouds -4 1012 73 16093 1.87 133 02:59 16.12.2019
6433 Clouds -3 1015 50 16093 2.6 120 01:46 16.12.2019
6434 Clouds -3 1011 63 16093 3.1 200 00:56 16.12.2019
6435 Clouds -3 1014 46 16093 2.6 110 00:38 16.12.2019
6436 Rain -3 1012 58 16093 1.5 100 00:19 16.12.2019
6437 Rain -3 1013 54 16093 1.5 100 23:43 15.12.2019
6438 Rain -2 1011 54 16093 2.6 70 23:25 15.12.2019
6439 Clouds -2 1011 54 16093 2.6 70 22:57 15.12.2019
6440 Clouds -2 1013 46 16093 2.6 100 22:38 15.12.2019
6441 Snow -2 1010 50 16093 2.6 50 22:19 15.12.2019
6442 Snow -1 1010 50 16093 2.6 50 21:58 15.12.2019
6443 Clear -1 1013 46 16093 1.5 140 21:38 15.12.2019
6444 Clear -2 1011 51 16093 2.6 140 21:20 15.12.2019
6445 Snow -1 1010 50 16093 2.1 40 20:58 15.12.2019
6446 Clear -1 1013 46 16093 2.1 150 20:39 15.12.2019
6447 Clear -1 1013 46 16093 2.1 150 20:39 15.12.2019
6448 Snow -2 1011 50 16093 1.5 0 20:21 15.12.2019
6449 Snow -2 1011 50 16093 1.5 0 19:58 15.12.2019
6450 Clear -2 1013 37 16093 1.5 170 19:40 15.12.2019
6451 Rain -2 1012 58 16093 2.6 50 19:19 15.12.2019
6452 Rain -2 1012 58 16093 2.6 50 18:57 15.12.2019
6453 Clear -3 1014 80 16093 1.5 170 18:38 15.12.2019
6454 Clouds -3 1012 68 16093 1.5 100 18:18 15.12.2019
6455 Clouds -4 1012 63 16093 1.5 0 17:56 15.12.2019
6456 Clear -4 1013 86 11265 2.91 99 17:56 15.12.2019
6457 Clouds -4 1011 79 16093 2.91 99 17:37 15.12.2019
6458 Clouds -5 1012 68 16093 2.19 114 17:19 15.12.2019
6459 Clouds -5 1012 68 16093 2.83 81 16:57 15.12.2019
6460 Clouds -5 1012 68 16093 2.83 81 16:57 15.12.2019
6461 Clouds -6 1004 48 0 5.1 320 16:39 15.12.2019
6462 Clouds -6 1011 62 16093 1.5 30 16:20 15.12.2019
6463 Clouds -6 1011 62 16093 1.5 30 15:55 15.12.2019
6464 Clear -6 1011 92 16093 2.19 114 15:37 15.12.2019
6465 Clouds -6 1010 62 16093 2.83 81 15:18 15.12.2019
6466 Clouds -6 1010 62 16093 2.83 81 14:55 15.12.2019
6467 Clouds -6 1010 62 16093 2.83 81 14:55 15.12.2019
6468 Clear -6 1010 100 11265 2.19 114 14:36 15.12.2019
6469 Clouds -6 1009 73 16093 2.1 60 14:18 15.12.2019
6470 Clouds -6 1009 73 16093 2.1 60 13:55 15.12.2019
6471 Mist -6 1009 100 4828 1.85 24 13:36 15.12.2019
6472 Clouds -6 1009 100 16093 2.6 120 13:18 15.12.2019
6473 Clouds -6 1009 100 16093 2.6 120 12:55 15.12.2019
6474 Fog -6 1008 92 0 1.85 24 12:37 15.12.2019
6475 Fog -6 1008 92 0 1.85 24 12:37 15.12.2019
6476 Fog -6 1008 92 0 1.85 24 12:19 15.12.2019
6477 Fog -6 1011 100 402 1.5 140 11:38 15.12.2019
6478 Clouds -5 1008 92 16093 1.5 170 11:20 15.12.2019
6479 Clouds -6 1008 92 16093 1.5 170 10:58 15.12.2019
6480 Fog -6 1010 92 402 0.69 5 10:40 15.12.2019
6481 Clouds -5 1007 92 16093 1.5 50 10:19 15.12.2019
6482 Clouds -5 1007 92 16093 1.5 50 09:58 15.12.2019
6483 Fog -5 1009 92 402 1.5 20 09:37 15.12.2019
6484 Clear -5 1006 92 16093 2.1 250 09:19 15.12.2019
6485 Clear -5 1006 92 16093 2.1 250 08:55 15.12.2019
6486 Fog -4 1006 100 0 1.5 80 08:36 15.12.2019
6487 Clouds -5 1006 79 16093 2.1 220 08:18 15.12.2019
6488 Fog -5 1009 92 402 0.61 50 07:47 15.12.2019
6489 Fog -4 1006 100 0 0.61 50 07:28 15.12.2019
6490 Clouds -4 1006 92 16093 3.1 110 06:26 15.12.2019
6491 Clouds -4 1008 92 11265 0.61 50 05:49 15.12.2019
6492 Clouds -4 1005 92 16093 2.6 170 05:22 15.12.2019
6493 Clear -3 1005 100 16093 1.27 209 04:22 15.12.2019
6494 Clouds -2 1005 86 16093 2.6 180 02:55 15.12.2019
6495 Clouds -2 1007 86 16093 1.5 10 02:32 15.12.2019
6496 Clouds -2 1007 92 16093 1.41 325 01:41 15.12.2019
6497 Clouds -2 1005 74 16093 1.5 30 01:19 15.12.2019
6498 Clouds -2 1005 74 16093 1.5 30 00:51 15.12.2019
6499 Snow -1 1005 92 11265 0.25 0 00:32 15.12.2019
6500 Snow -1 1006 76 1207 1.5 230 23:54 14.12.2019
6501 Snow -1 1004 92 1207 6.2 350 23:36 14.12.2019
6502 Snow 0 1003 55 14484 6.2 20 23:18 14.12.2019
6503 Clouds 1 1007 52 16093 4.6 10 22:41 14.12.2019
6504 Snow 1 1002 51 16093 4.6 350 22:22 14.12.2019
6505 Snow 2 1002 51 16093 4.6 350 21:58 14.12.2019
6506 Clouds 2 1005 69 16093 5.1 360 21:39 14.12.2019
6507 Clouds 2 1004 74 16093 3.1 10 21:19 14.12.2019
6508 Snow 2 1002 44 16093 2.1 0 20:59 14.12.2019
6509 Clouds 2 1005 59 16093 2.6 30 20:41 14.12.2019
6510 Clouds 2 1005 64 16093 6.2 360 20:20 14.12.2019
6511 Clouds 2 1005 64 16093 6.2 360 20:20 14.12.2019
6512 Snow 2 1003 47 16093 2.6 50 19:57 14.12.2019
6513 Clouds 2 1006 64 16093 1.5 360 19:39 14.12.2019
6514 Snow 1 1005 47 16093 1.5 20 19:20 14.12.2019
6515 Snow 1 1005 47 16093 1.5 20 18:56 14.12.2019
6516 Clouds 1 1006 64 16093 2.6 360 18:38 14.12.2019
6517 Snow 1 1006 49 16093 1.5 310 18:19 14.12.2019
6518 Clouds 0 1009 49 16093 3.1 350 17:44 14.12.2019
6519 Clouds -1 1006 68 16093 3.6 270 17:24 14.12.2019
6520 Clouds -1 1006 68 16093 3.6 270 16:58 14.12.2019
6521 Clear -2 1009 74 16093 3.6 350 16:39 14.12.2019
6522 Snow -2 1007 58 16093 2.6 270 16:19 14.12.2019
6523 Clouds -2 1008 61 16093 3.1 360 16:19 14.12.2019
6524 Clear -3 1010 79 16093 1.5 280 15:43 14.12.2019
6525 Clouds -3 1007 58 16093 2.6 250 15:22 14.12.2019
6526 Clouds -3 1007 58 16093 2.6 250 14:59 14.12.2019
6527 Clouds -2 1010 68 16093 2.1 360 14:39 14.12.2019
6528 Clouds -2 1007 58 16093 3.1 260 14:20 14.12.2019
6529 Clouds -2 1007 58 16093 3.1 260 13:57 14.12.2019
6530 Clouds -2 1009 63 16093 2.1 360 13:38 14.12.2019
6531 Clouds -2 1007 65 16093 3.6 130 13:18 14.12.2019
6532 Clouds -2 1006 46 16093 4.1 200 12:54 14.12.2019
6533 Clouds -1 1010 63 16093 1.63 277 12:36 14.12.2019
6534 Clouds -1 1008 65 16093 4.6 130 12:18 14.12.2019
6535 Clouds -1 1007 65 16093 5.7 150 11:54 14.12.2019
6536 Clouds -1 1009 58 16093 1.5 30 11:36 14.12.2019
6537 Clouds -1 1009 58 16093 8.7 140 11:18 14.12.2019
6538 Clouds -1 1008 40 16093 6.7 150 10:55 14.12.2019
6539 Clouds -2 1012 68 16093 1.76 211 10:36 14.12.2019
6540 Clear -2 1012 68 16093 1.76 211 10:18 14.12.2019
6541 Clouds -2 1012 58 16093 1.12 232 09:40 14.12.2019
6542 Clear -2 1013 58 16093 1.5 170 09:20 14.12.2019
6543 Clear -2 1013 58 16093 1.5 190 08:44 14.12.2019
6544 Clouds -2 1011 56 16093 4.6 140 08:20 14.12.2019
6545 Clouds -2 1011 56 16093 4.6 140 07:55 14.12.2019
6546 Clear -2 1014 56 16093 3.6 150 07:36 14.12.2019
6547 Clear -2 1012 56 16093 3.1 170 07:18 14.12.2019
6548 Clear -2 1014 54 16093 0.89 200 06:39 14.12.2019
6549 Clear -2 1013 56 16093 2.1 210 06:18 14.12.2019
6550 Clouds -1 1013 50 16093 5.7 170 05:20 14.12.2019
6551 Clear 1 1016 37 16093 1.5 360 02:44 14.12.2019
6552 Clear 2 1014 32 16093 1.5 10 02:22 14.12.2019
6553 Clear 2 1016 34 16093 2.1 40 01:37 14.12.2019
6554 Clear 3 1016 30 16093 2.1 300 00:50 14.12.2019
6555 Clear 4 1014 30 16093 6.2 310 00:29 14.12.2019
6556 Clear 4 1014 30 16093 6.2 310 00:29 14.12.2019
6557 Clouds 4 1014 30 16093 10.3 330 23:57 13.12.2019
6558 Clouds 5 1014 30 16093 6.7 310 23:38 13.12.2019
6559 Snow 6 1015 28 16093 12.3 330 23:19 13.12.2019
6560 Clear 6 1016 22 16093 10.3 290 22:42 13.12.2019
6561 Clear 6 1015 19 16093 11.8 310 22:19 13.12.2019
6562 Snow 6 1014 24 16093 13.4 330 21:56 13.12.2019
6563 Clouds 6 1016 20 16093 8.2 280 21:38 13.12.2019
6564 Clear 6 1014 19 16093 10.8 290 21:20 13.12.2019
6565 Clouds 7 1016 19 16093 11.3 290 20:43 13.12.2019
6566 Clear 7 1014 21 16093 12.3 280 20:24 13.12.2019
6567 Clouds 7 1016 26 16093 5.1 290 19:59 13.12.2019
6568 Clear 7 1015 28 16093 11.8 290 19:41 13.12.2019
6569 Clouds 7 1014 30 16093 4.1 300 19:41 13.12.2019
6570 Clouds 7 1016 26 16093 7.2 280 19:23 13.12.2019
6571 Clear 6 1016 28 16093 7.2 300 18:59 13.12.2019
6572 Clear 6 1016 30 16093 8.7 330 18:41 13.12.2019
6573 Clear 6 1016 30 16093 8.7 330 18:19 13.12.2019
6574 Clear 6 1016 31 16093 5.7 280 17:55 13.12.2019
6575 Clear 6 1015 31 16093 6.7 280 17:37 13.12.2019
6576 Clear 3 1015 31 16093 6.7 280 17:18 13.12.2019
6577 Clear 3 1015 31 16093 6.7 280 17:18 13.12.2019
6578 Clouds 3 1015 41 16093 6.7 280 16:54 13.12.2019
6579 Clear 2 1015 48 16093 4.6 270 16:36 13.12.2019
6580 Clear 2 1015 48 16093 4.6 270 16:18 13.12.2019
6581 Snow 1 1014 48 16093 6.7 300 15:38 13.12.2019
6582 Snow 1 1014 48 16093 6.7 300 15:20 13.12.2019
6583 Clouds 0 1013 68 16093 1.52 217 14:41 13.12.2019
6584 Clear 0 1015 64 16093 4.11 215 14:21 13.12.2019
6585 Clear 0 1014 55 16093 3.6 260 13:58 13.12.2019
6586 Clear 0 1014 55 16093 3.6 260 13:58 13.12.2019
6587 Clouds 1 1013 64 16093 2.1 240 13:39 13.12.2019
6588 Clear 1 1014 55 16093 3.1 230 13:21 13.12.2019
6589 Clear 1 1012 55 16093 4.1 220 12:42 13.12.2019
6590 Clouds 1 1014 52 16093 7.2 270 12:20 13.12.2019
6591 Clear 1 1014 48 16093 3.1 130 11:57 13.12.2019
6592 Clear 1 1014 48 16093 3.1 130 11:57 13.12.2019
6593 Clear 1 1014 48 16093 2.77 223 11:39 13.12.2019
6594 Clear 2 1014 48 16093 3.86 218 11:21 13.12.2019
6595 Clear 1 1014 51 16093 3.86 218 10:43 13.12.2019
6596 Clear 1 1015 48 16093 3.86 218 10:23 13.12.2019
6597 Clear 1 1013 60 16093 3.6 250 09:59 13.12.2019
6598 Clear 1 1013 60 16093 3.6 250 09:39 13.12.2019
6599 Clear 2 1014 48 16093 5.1 270 09:18 13.12.2019
6600 Clear 2 1014 48 16093 5.1 270 09:18 13.12.2019
6601 Clear 2 1013 45 16093 5.1 340 08:41 13.12.2019
6602 Clear 2 1015 55 16093 2.6 240 08:23 13.12.2019
6603 Clear 1 1014 48 16093 9.8 270 07:46 13.12.2019
6604 Clouds 1 1015 55 16093 2.6 210 07:21 13.12.2019
6605 Clear 2 1014 45 16093 8.2 290 06:54 13.12.2019
6606 Clear 2 1016 59 16093 2.1 120 06:28 13.12.2019
6607 Clear 2 1015 52 16093 3.1 330 05:46 13.12.2019
6608 Clear 2 1016 64 16093 1.5 120 05:26 13.12.2019
6609 Clear 3 1014 48 16093 5.7 270 04:35 13.12.2019
6610 Clear 3 1016 39 16093 2.6 250 03:39 13.12.2019
6611 Clear 4 1016 36 16093 4.1 250 02:33 13.12.2019
6612 Clear 5 1015 31 16093 2.6 220 01:43 13.12.2019
6613 Clear 5 1015 36 16093 5.1 260 00:55 13.12.2019
6614 Clear 6 1015 34 16093 1.5 280 00:36 13.12.2019
6615 Clear 7 1015 31 16093 6.7 250 23:57 12.12.2019
6616 Clear 7 1016 34 16093 7.2 260 23:37 12.12.2019
6617 Clear 9 1016 34 16093 7.2 260 23:19 12.12.2019
6618 Clear 9 1015 34 16093 7.2 260 22:54 12.12.2019
6619 Clear 10 1015 34 16093 6.2 260 22:36 12.12.2019
6620 Clear 9 1013 31 16093 8.7 260 22:18 12.12.2019
6621 Clear 9 1013 31 16093 8.7 260 22:18 12.12.2019
6622 Clear 10 1015 31 16093 1.66 139 21:54 12.12.2019
6623 Clear 10 1015 37 16093 3.1 240 21:36 12.12.2019
6624 Clear 10 1015 37 16093 3.1 240 21:18 12.12.2019
6625 Clear 9 1016 39 16093 1.66 139 20:55 12.12.2019
6626 Clear 9 1017 39 16093 1.5 230 20:37 12.12.2019
6627 Clear 7 1017 39 16093 1.5 230 20:19 12.12.2019
6628 Clear 6 1016 48 16093 2.55 218 19:42 12.12.2019
6629 Clear 5 1018 51 16093 2.55 218 19:22 12.12.2019
6630 Clear 5 1019 59 16093 1.5 270 18:58 12.12.2019
6631 Clear 4 1019 64 16093 2.55 218 18:39 12.12.2019
6632 Clear 3 1019 64 16093 2.55 218 18:20 12.12.2019
6633 Clear 3 1019 38 16093 1.5 110 17:57 12.12.2019
6634 Clear 3 1019 38 16093 1.5 110 17:57 12.12.2019
6635 Clear 3 1019 38 16093 1.5 110 17:57 12.12.2019
6636 Clear 3 1019 38 16093 2.55 218 17:39 12.12.2019
6637 Clear 2 1019 53 16093 3.4 211 17:20 12.12.2019
6638 Clear 2 1019 53 16093 3.4 211 17:20 12.12.2019
6639 Clear 1 1018 74 16093 3.4 211 16:57 12.12.2019
6640 Clear 1 1018 64 11265 3.4 211 16:38 12.12.2019
6641 Clear 0 1018 74 16093 2.1 40 16:20 12.12.2019
6642 Clear 0 1018 74 16093 1.5 90 15:54 12.12.2019
6643 Clear 0 1018 74 16093 3.4 211 15:36 12.12.2019
6644 Clear 0 1018 74 16093 3.4 211 15:18 12.12.2019
6645 Clear 0 1018 59 16093 2.1 180 14:38 12.12.2019
6646 Clear 0 1018 59 16093 2.1 180 14:38 12.12.2019
6647 Clear -1 1018 59 16093 2.1 180 14:20 12.12.2019
6648 Clouds -1 1017 60 16093 1.5 20 13:57 12.12.2019
6649 Clear -1 1016 60 16093 1.5 230 13:39 12.12.2019
6650 Clear -1 1017 74 16093 2.1 200 13:21 12.12.2019
6651 Clear -1 1017 74 16093 2.6 210 12:57 12.12.2019
6652 Clear 0 1016 51 16093 3.6 170 12:39 12.12.2019
6653 Clear 0 1017 74 16093 2.6 230 12:20 12.12.2019
6654 Clear 0 1017 74 16093 3.1 340 11:56 12.12.2019
6655 Clear 0 1016 68 16093 4.1 180 11:37 12.12.2019
6656 Clear 0 1017 74 16093 1.5 30 11:19 12.12.2019
6657 Clear 0 1017 74 16093 4.06 223 10:55 12.12.2019
6658 Clear -1 1017 74 16093 4.06 223 10:37 12.12.2019
6659 Clear -1 1017 74 16093 4.06 223 10:18 12.12.2019
6660 Clear -1 1017 74 16093 4.06 223 10:18 12.12.2019
6661 Clear -1 1017 74 16093 4.06 223 10:18 12.12.2019
6662 Clear -1 1016 47 16093 2.6 250 09:41 12.12.2019
6663 Clear -1 1017 74 16093 4.06 223 09:23 12.12.2019
6664 Clear -1 1017 74 16093 4.06 223 08:56 12.12.2019
6665 Clear -1 1017 68 16093 4.19 219 08:38 12.12.2019
6666 Clear -1 1016 55 16093 3.6 230 08:38 12.12.2019
6667 Clear 0 1017 68 16093 3.49 218 08:19 12.12.2019
6668 Clear 0 1017 68 16093 3.49 218 07:42 12.12.2019
6669 Clear 0 1017 51 16093 2.6 230 07:24 12.12.2019
6670 Clear 1 1016 55 16093 4.6 280 06:48 12.12.2019
6671 Clear 1 1015 33 16093 4.6 300 06:48 12.12.2019
6672 Clear 1 1017 51 16093 2.1 110 06:30 12.12.2019
6673 Clear 1 1015 52 16093 8.2 290 05:36 12.12.2019
6674 Clouds 1 1015 35 16093 9.8 280 04:51 12.12.2019
6675 Clouds 1 1015 35 16093 9.8 280 04:51 12.12.2019
6676 Clear 1 1017 69 16093 2.6 190 03:20 12.12.2019
6677 Clear 1 1016 47 16093 2.6 340 02:37 12.12.2019
6678 Clear 2 1016 47 16093 2.6 340 02:19 12.12.2019
6679 Clear 3 1015 59 16093 3.1 340 01:37 12.12.2019
6680 Clouds 3 1013 69 16093 1.5 170 01:18 12.12.2019
6681 Clear 3 1015 60 11265 1.5 50 00:40 12.12.2019
6682 Clouds 4 1014 52 16093 3.1 30 00:19 12.12.2019
6683 Clear 4 1015 52 16093 2.6 350 23:44 11.12.2019
6684 Clear 7 1015 52 16093 0.35 317 23:20 11.12.2019
6685 Clear 7 1016 60 16093 0.35 317 22:57 11.12.2019
6686 Clear 7 1014 42 16093 0.35 317 22:38 11.12.2019
6687 Clear 7 1016 55 16093 2.1 40 22:19 11.12.2019
6688 Clear 8 1016 56 16093 3.1 330 21:57 11.12.2019
6689 Clear 8 1016 60 16093 0.35 317 21:37 11.12.2019
6690 Clear 8 1016